<?xml version="1.0" encoding="UTF-8" standalone="no" ?>
<gpx xmlns="http://www.topografix.com/GPX/1/1" xmlns:xsi="http://www.w3.org/2001/XMLSchema-instance" xsi:schemaLocation="http://www.topografix.com/GPX/1/1 http://www.topografix.com/GPX/1/1/gpx.xsd" version="1.1" creator="VisuGPX - https://www.visugpx.com">
  <metadata>
    <name>Rando du Hibou complétée</name>
    <desc><![CDATA[Dernière boucle complétée à la main]]></desc>
  </metadata>
  <trk>
    <name><![CDATA[2015-06-21-HIbouComplete]]></name>
    <trkseg>
      <trkpt lat="45.39734" lon="5.66928">
        <ele>461</ele>
        <time>2015-06-21T06:46:21Z</time>
      </trkpt>
      <trkpt lat="45.39835" lon="5.67014">
        <ele>467</ele>
        <time>2015-06-21T06:46:21Z</time>
      </trkpt>
      <trkpt lat="45.3985" lon="5.6711">
        <ele>469</ele>
        <time>2015-06-21T06:46:21Z</time>
      </trkpt>
      <trkpt lat="45.39814" lon="5.67155">
        <ele>470</ele>
        <time>2015-06-21T06:46:21Z</time>
      </trkpt>
      <trkpt lat="45.39754" lon="5.67214">
        <ele>477</ele>
        <time>2015-06-21T06:46:21Z</time>
      </trkpt>
      <trkpt lat="45.39752" lon="5.67214">
        <ele>477</ele>
        <time>2015-06-21T06:46:22Z</time>
      </trkpt>
      <trkpt lat="45.39743" lon="5.67214">
        <ele>480</ele>
        <time>2015-06-21T06:46:29Z</time>
      </trkpt>
      <trkpt lat="45.39734" lon="5.67213">
        <ele>480</ele>
        <time>2015-06-21T06:46:35Z</time>
      </trkpt>
      <trkpt lat="45.39723" lon="5.67214">
        <ele>480</ele>
        <time>2015-06-21T06:46:41Z</time>
      </trkpt>
      <trkpt lat="45.39713" lon="5.67216">
        <ele>481</ele>
        <time>2015-06-21T06:46:48Z</time>
      </trkpt>
      <trkpt lat="45.39703" lon="5.67219">
        <ele>482</ele>
        <time>2015-06-21T06:46:56Z</time>
      </trkpt>
      <trkpt lat="45.39693" lon="5.67222">
        <ele>483</ele>
        <time>2015-06-21T06:47:05Z</time>
      </trkpt>
      <trkpt lat="45.39683" lon="5.67225">
        <ele>484</ele>
        <time>2015-06-21T06:47:12Z</time>
      </trkpt>
      <trkpt lat="45.39674" lon="5.67229">
        <ele>486</ele>
        <time>2015-06-21T06:47:19Z</time>
      </trkpt>
      <trkpt lat="45.39665" lon="5.67231">
        <ele>493</ele>
        <time>2015-06-21T06:47:27Z</time>
      </trkpt>
      <trkpt lat="45.39654" lon="5.67233">
        <ele>494</ele>
        <time>2015-06-21T06:47:34Z</time>
      </trkpt>
      <trkpt lat="45.39643" lon="5.67232">
        <ele>494</ele>
        <time>2015-06-21T06:47:40Z</time>
      </trkpt>
      <trkpt lat="45.39633" lon="5.67229">
        <ele>495</ele>
        <time>2015-06-21T06:47:46Z</time>
      </trkpt>
      <trkpt lat="45.39623" lon="5.67231">
        <ele>497</ele>
        <time>2015-06-21T06:47:53Z</time>
      </trkpt>
      <trkpt lat="45.39613" lon="5.67232">
        <ele>498</ele>
        <time>2015-06-21T06:48:00Z</time>
      </trkpt>
      <trkpt lat="45.39604" lon="5.6723">
        <ele>500</ele>
        <time>2015-06-21T06:48:07Z</time>
      </trkpt>
      <trkpt lat="45.39595" lon="5.67222">
        <ele>499</ele>
        <time>2015-06-21T06:48:14Z</time>
      </trkpt>
      <trkpt lat="45.39587" lon="5.67215">
        <ele>498</ele>
        <time>2015-06-21T06:48:20Z</time>
      </trkpt>
      <trkpt lat="45.39579" lon="5.67211">
        <ele>512</ele>
        <time>2015-06-21T06:48:26Z</time>
      </trkpt>
      <trkpt lat="45.3957" lon="5.67208">
        <ele>513</ele>
        <time>2015-06-21T06:48:33Z</time>
      </trkpt>
      <trkpt lat="45.39561" lon="5.67205">
        <ele>513</ele>
        <time>2015-06-21T06:48:42Z</time>
      </trkpt>
      <trkpt lat="45.39552" lon="5.67199">
        <ele>514</ele>
        <time>2015-06-21T06:48:51Z</time>
      </trkpt>
      <trkpt lat="45.39543" lon="5.67193">
        <ele>514</ele>
        <time>2015-06-21T06:48:57Z</time>
      </trkpt>
      <trkpt lat="45.39534" lon="5.6719">
        <ele>516</ele>
        <time>2015-06-21T06:49:03Z</time>
      </trkpt>
      <trkpt lat="45.39524" lon="5.67185">
        <ele>517</ele>
        <time>2015-06-21T06:49:10Z</time>
      </trkpt>
      <trkpt lat="45.39515" lon="5.6718">
        <ele>517</ele>
        <time>2015-06-21T06:49:18Z</time>
      </trkpt>
      <trkpt lat="45.39506" lon="5.67176">
        <ele>517</ele>
        <time>2015-06-21T06:49:27Z</time>
      </trkpt>
      <trkpt lat="45.39497" lon="5.67173">
        <ele>524</ele>
        <time>2015-06-21T06:49:34Z</time>
      </trkpt>
      <trkpt lat="45.39488" lon="5.6717">
        <ele>529</ele>
        <time>2015-06-21T06:49:40Z</time>
      </trkpt>
      <trkpt lat="45.39478" lon="5.67166">
        <ele>520</ele>
        <time>2015-06-21T06:49:47Z</time>
      </trkpt>
      <trkpt lat="45.39468" lon="5.67163">
        <ele>521</ele>
        <time>2015-06-21T06:49:53Z</time>
      </trkpt>
      <trkpt lat="45.3946" lon="5.67159">
        <ele>523</ele>
        <time>2015-06-21T06:49:59Z</time>
      </trkpt>
      <trkpt lat="45.3945" lon="5.67154">
        <ele>525</ele>
        <time>2015-06-21T06:50:06Z</time>
      </trkpt>
      <trkpt lat="45.39441" lon="5.67148">
        <ele>527</ele>
        <time>2015-06-21T06:50:13Z</time>
      </trkpt>
      <trkpt lat="45.39432" lon="5.67147">
        <ele>529</ele>
        <time>2015-06-21T06:50:18Z</time>
      </trkpt>
      <trkpt lat="45.39422" lon="5.67141">
        <ele>529</ele>
        <time>2015-06-21T06:50:25Z</time>
      </trkpt>
      <trkpt lat="45.39413" lon="5.67145">
        <ele>548</ele>
        <time>2015-06-21T06:50:33Z</time>
      </trkpt>
      <trkpt lat="45.39417" lon="5.67157">
        <ele>538</ele>
        <time>2015-06-21T06:50:47Z</time>
      </trkpt>
      <trkpt lat="45.39424" lon="5.67168">
        <ele>547</ele>
        <time>2015-06-21T06:50:56Z</time>
      </trkpt>
      <trkpt lat="45.39429" lon="5.67179">
        <ele>548</ele>
        <time>2015-06-21T06:51:04Z</time>
      </trkpt>
      <trkpt lat="45.39434" lon="5.67191">
        <ele>549</ele>
        <time>2015-06-21T06:51:13Z</time>
      </trkpt>
      <trkpt lat="45.3944" lon="5.67202">
        <ele>550</ele>
        <time>2015-06-21T06:51:21Z</time>
      </trkpt>
      <trkpt lat="45.39449" lon="5.6721">
        <ele>550</ele>
        <time>2015-06-21T06:51:28Z</time>
      </trkpt>
      <trkpt lat="45.39455" lon="5.6722">
        <ele>551</ele>
        <time>2015-06-21T06:51:35Z</time>
      </trkpt>
      <trkpt lat="45.39461" lon="5.6723">
        <ele>551</ele>
        <time>2015-06-21T06:51:41Z</time>
      </trkpt>
      <trkpt lat="45.39467" lon="5.6724">
        <ele>551</ele>
        <time>2015-06-21T06:51:48Z</time>
      </trkpt>
      <trkpt lat="45.39474" lon="5.67249">
        <ele>550</ele>
        <time>2015-06-21T06:51:55Z</time>
      </trkpt>
      <trkpt lat="45.3948" lon="5.67259">
        <ele>565</ele>
        <time>2015-06-21T06:52:02Z</time>
      </trkpt>
      <trkpt lat="45.39486" lon="5.67269">
        <ele>566</ele>
        <time>2015-06-21T06:52:08Z</time>
      </trkpt>
      <trkpt lat="45.39493" lon="5.6728">
        <ele>569</ele>
        <time>2015-06-21T06:52:14Z</time>
      </trkpt>
      <trkpt lat="45.39499" lon="5.67291">
        <ele>571</ele>
        <time>2015-06-21T06:52:20Z</time>
      </trkpt>
      <trkpt lat="45.39505" lon="5.67302">
        <ele>554</ele>
        <time>2015-06-21T06:52:26Z</time>
      </trkpt>
      <trkpt lat="45.3951" lon="5.67313">
        <ele>557</ele>
        <time>2015-06-21T06:52:32Z</time>
      </trkpt>
      <trkpt lat="45.39518" lon="5.67322">
        <ele>558</ele>
        <time>2015-06-21T06:52:39Z</time>
      </trkpt>
      <trkpt lat="45.39526" lon="5.67331">
        <ele>556</ele>
        <time>2015-06-21T06:52:44Z</time>
      </trkpt>
      <trkpt lat="45.39532" lon="5.6734">
        <ele>570</ele>
        <time>2015-06-21T06:52:49Z</time>
      </trkpt>
      <trkpt lat="45.39538" lon="5.67352">
        <ele>569</ele>
        <time>2015-06-21T06:52:55Z</time>
      </trkpt>
      <trkpt lat="45.39544" lon="5.67364">
        <ele>570</ele>
        <time>2015-06-21T06:53:01Z</time>
      </trkpt>
      <trkpt lat="45.39547" lon="5.67377">
        <ele>571</ele>
        <time>2015-06-21T06:53:08Z</time>
      </trkpt>
      <trkpt lat="45.39552" lon="5.67389">
        <ele>572</ele>
        <time>2015-06-21T06:53:16Z</time>
      </trkpt>
      <trkpt lat="45.3956" lon="5.67395">
        <ele>571</ele>
        <time>2015-06-21T06:53:23Z</time>
      </trkpt>
      <trkpt lat="45.39567" lon="5.67407">
        <ele>571</ele>
        <time>2015-06-21T06:53:32Z</time>
      </trkpt>
      <trkpt lat="45.39574" lon="5.67415">
        <ele>571</ele>
        <time>2015-06-21T06:53:38Z</time>
      </trkpt>
      <trkpt lat="45.39582" lon="5.67425">
        <ele>573</ele>
        <time>2015-06-21T06:53:45Z</time>
      </trkpt>
      <trkpt lat="45.39587" lon="5.67436">
        <ele>570</ele>
        <time>2015-06-21T06:53:52Z</time>
      </trkpt>
      <trkpt lat="45.39592" lon="5.67446">
        <ele>571</ele>
        <time>2015-06-21T06:53:59Z</time>
      </trkpt>
      <trkpt lat="45.39597" lon="5.67458">
        <ele>571</ele>
        <time>2015-06-21T06:54:07Z</time>
      </trkpt>
      <trkpt lat="45.39595" lon="5.67472">
        <ele>572</ele>
        <time>2015-06-21T06:54:15Z</time>
      </trkpt>
      <trkpt lat="45.39586" lon="5.67467">
        <ele>572</ele>
        <time>2015-06-21T06:54:29Z</time>
      </trkpt>
      <trkpt lat="45.3958" lon="5.67457">
        <ele>579</ele>
        <time>2015-06-21T06:54:39Z</time>
      </trkpt>
      <trkpt lat="45.39571" lon="5.67453">
        <ele>579</ele>
        <time>2015-06-21T06:54:47Z</time>
      </trkpt>
      <trkpt lat="45.39562" lon="5.6745">
        <ele>580</ele>
        <time>2015-06-21T06:54:55Z</time>
      </trkpt>
      <trkpt lat="45.39553" lon="5.67445">
        <ele>581</ele>
        <time>2015-06-21T06:55:02Z</time>
      </trkpt>
      <trkpt lat="45.39544" lon="5.6744">
        <ele>582</ele>
        <time>2015-06-21T06:55:11Z</time>
      </trkpt>
      <trkpt lat="45.39536" lon="5.67447">
        <ele>583</ele>
        <time>2015-06-21T06:55:19Z</time>
      </trkpt>
      <trkpt lat="45.3953" lon="5.67457">
        <ele>584</ele>
        <time>2015-06-21T06:55:24Z</time>
      </trkpt>
      <trkpt lat="45.39521" lon="5.67468">
        <ele>584</ele>
        <time>2015-06-21T06:55:27Z</time>
      </trkpt>
      <trkpt lat="45.39513" lon="5.67477">
        <ele>585</ele>
        <time>2015-06-21T06:55:32Z</time>
      </trkpt>
      <trkpt lat="45.39505" lon="5.67487">
        <ele>585</ele>
        <time>2015-06-21T06:55:37Z</time>
      </trkpt>
      <trkpt lat="45.395" lon="5.67499">
        <ele>588</ele>
        <time>2015-06-21T06:55:43Z</time>
      </trkpt>
      <trkpt lat="45.39495" lon="5.6751">
        <ele>592</ele>
        <time>2015-06-21T06:55:47Z</time>
      </trkpt>
      <trkpt lat="45.39492" lon="5.67524">
        <ele>596</ele>
        <time>2015-06-21T06:55:52Z</time>
      </trkpt>
      <trkpt lat="45.39491" lon="5.67538">
        <ele>597</ele>
        <time>2015-06-21T06:55:57Z</time>
      </trkpt>
      <trkpt lat="45.39496" lon="5.67552">
        <ele>597</ele>
        <time>2015-06-21T06:56:02Z</time>
      </trkpt>
      <trkpt lat="45.39504" lon="5.67562">
        <ele>586</ele>
        <time>2015-06-21T06:56:07Z</time>
      </trkpt>
      <trkpt lat="45.39512" lon="5.67572">
        <ele>587</ele>
        <time>2015-06-21T06:56:13Z</time>
      </trkpt>
      <trkpt lat="45.3952" lon="5.67584">
        <ele>591</ele>
        <time>2015-06-21T06:56:18Z</time>
      </trkpt>
      <trkpt lat="45.39525" lon="5.67596">
        <ele>591</ele>
        <time>2015-06-21T06:56:22Z</time>
      </trkpt>
      <trkpt lat="45.39528" lon="5.67611">
        <ele>592</ele>
        <time>2015-06-21T06:56:28Z</time>
      </trkpt>
      <trkpt lat="45.3953" lon="5.67623">
        <ele>593</ele>
        <time>2015-06-21T06:56:33Z</time>
      </trkpt>
      <trkpt lat="45.39536" lon="5.67636">
        <ele>594</ele>
        <time>2015-06-21T06:56:40Z</time>
      </trkpt>
      <trkpt lat="45.39542" lon="5.67647">
        <ele>594</ele>
        <time>2015-06-21T06:56:46Z</time>
      </trkpt>
      <trkpt lat="45.39547" lon="5.6766">
        <ele>593</ele>
        <time>2015-06-21T06:56:52Z</time>
      </trkpt>
      <trkpt lat="45.3955" lon="5.67674">
        <ele>603</ele>
        <time>2015-06-21T06:56:59Z</time>
      </trkpt>
      <trkpt lat="45.39552" lon="5.67687">
        <ele>603</ele>
        <time>2015-06-21T06:57:06Z</time>
      </trkpt>
      <trkpt lat="45.39554" lon="5.677">
        <ele>604</ele>
        <time>2015-06-21T06:57:12Z</time>
      </trkpt>
      <trkpt lat="45.39557" lon="5.67713">
        <ele>605</ele>
        <time>2015-06-21T06:57:19Z</time>
      </trkpt>
      <trkpt lat="45.3956" lon="5.67726">
        <ele>605</ele>
        <time>2015-06-21T06:57:26Z</time>
      </trkpt>
      <trkpt lat="45.3956" lon="5.67739">
        <ele>605</ele>
        <time>2015-06-21T06:57:33Z</time>
      </trkpt>
      <trkpt lat="45.39559" lon="5.67753">
        <ele>612</ele>
        <time>2015-06-21T06:57:40Z</time>
      </trkpt>
      <trkpt lat="45.39561" lon="5.67766">
        <ele>613</ele>
        <time>2015-06-21T06:57:47Z</time>
      </trkpt>
      <trkpt lat="45.39563" lon="5.67778">
        <ele>614</ele>
        <time>2015-06-21T06:57:55Z</time>
      </trkpt>
      <trkpt lat="45.39559" lon="5.67766">
        <ele>613</ele>
        <time>2015-06-21T06:58:18Z</time>
      </trkpt>
      <trkpt lat="45.39553" lon="5.67756">
        <ele>614</ele>
        <time>2015-06-21T06:58:30Z</time>
      </trkpt>
      <trkpt lat="45.3955" lon="5.67744">
        <ele>608</ele>
        <time>2015-06-21T06:58:40Z</time>
      </trkpt>
      <trkpt lat="45.39548" lon="5.6773">
        <ele>608</ele>
        <time>2015-06-21T06:58:50Z</time>
      </trkpt>
      <trkpt lat="45.39545" lon="5.67718">
        <ele>608</ele>
        <time>2015-06-21T06:58:57Z</time>
      </trkpt>
      <trkpt lat="45.39539" lon="5.67707">
        <ele>608</ele>
        <time>2015-06-21T06:59:04Z</time>
      </trkpt>
      <trkpt lat="45.39531" lon="5.67699">
        <ele>609</ele>
        <time>2015-06-21T06:59:12Z</time>
      </trkpt>
      <trkpt lat="45.39522" lon="5.67696">
        <ele>610</ele>
        <time>2015-06-21T06:59:19Z</time>
      </trkpt>
      <trkpt lat="45.39519" lon="5.67708">
        <ele>611</ele>
        <time>2015-06-21T06:59:30Z</time>
      </trkpt>
      <trkpt lat="45.39518" lon="5.67721">
        <ele>614</ele>
        <time>2015-06-21T06:59:39Z</time>
      </trkpt>
      <trkpt lat="45.39518" lon="5.67735">
        <ele>617</ele>
        <time>2015-06-21T06:59:48Z</time>
      </trkpt>
      <trkpt lat="45.39514" lon="5.67746">
        <ele>621</ele>
        <time>2015-06-21T06:59:56Z</time>
      </trkpt>
      <trkpt lat="45.39513" lon="5.6776">
        <ele>626</ele>
        <time>2015-06-21T07:00:05Z</time>
      </trkpt>
      <trkpt lat="45.39515" lon="5.67773">
        <ele>624</ele>
        <time>2015-06-21T07:00:12Z</time>
      </trkpt>
      <trkpt lat="45.39518" lon="5.67786">
        <ele>623</ele>
        <time>2015-06-21T07:00:18Z</time>
      </trkpt>
      <trkpt lat="45.39518" lon="5.67799">
        <ele>624</ele>
        <time>2015-06-21T07:00:23Z</time>
      </trkpt>
      <trkpt lat="45.39521" lon="5.67813">
        <ele>625</ele>
        <time>2015-06-21T07:00:29Z</time>
      </trkpt>
      <trkpt lat="45.39526" lon="5.67825">
        <ele>625</ele>
        <time>2015-06-21T07:00:35Z</time>
      </trkpt>
      <trkpt lat="45.39524" lon="5.67838">
        <ele>630</ele>
        <time>2015-06-21T07:00:40Z</time>
      </trkpt>
      <trkpt lat="45.39525" lon="5.67851">
        <ele>630</ele>
        <time>2015-06-21T07:00:46Z</time>
      </trkpt>
      <trkpt lat="45.39525" lon="5.67864">
        <ele>630</ele>
        <time>2015-06-21T07:00:51Z</time>
      </trkpt>
      <trkpt lat="45.39523" lon="5.6788">
        <ele>630</ele>
        <time>2015-06-21T07:00:56Z</time>
      </trkpt>
      <trkpt lat="45.39521" lon="5.67894">
        <ele>632</ele>
        <time>2015-06-21T07:01:00Z</time>
      </trkpt>
      <trkpt lat="45.39517" lon="5.67906">
        <ele>634</ele>
        <time>2015-06-21T07:01:04Z</time>
      </trkpt>
      <trkpt lat="45.39517" lon="5.67919">
        <ele>636</ele>
        <time>2015-06-21T07:01:08Z</time>
      </trkpt>
      <trkpt lat="45.39519" lon="5.67933">
        <ele>635</ele>
        <time>2015-06-21T07:01:12Z</time>
      </trkpt>
      <trkpt lat="45.39521" lon="5.67948">
        <ele>634</ele>
        <time>2015-06-21T07:01:16Z</time>
      </trkpt>
      <trkpt lat="45.39524" lon="5.67961">
        <ele>633</ele>
        <time>2015-06-21T07:01:19Z</time>
      </trkpt>
      <trkpt lat="45.39526" lon="5.67974">
        <ele>633</ele>
        <time>2015-06-21T07:01:22Z</time>
      </trkpt>
      <trkpt lat="45.39533" lon="5.67987">
        <ele>633</ele>
        <time>2015-06-21T07:01:26Z</time>
      </trkpt>
      <trkpt lat="45.3954" lon="5.67996">
        <ele>632</ele>
        <time>2015-06-21T07:01:28Z</time>
      </trkpt>
      <trkpt lat="45.39545" lon="5.68012">
        <ele>632</ele>
        <time>2015-06-21T07:01:31Z</time>
      </trkpt>
      <trkpt lat="45.39549" lon="5.68024">
        <ele>632</ele>
        <time>2015-06-21T07:01:34Z</time>
      </trkpt>
      <trkpt lat="45.3955" lon="5.68038">
        <ele>632</ele>
        <time>2015-06-21T07:01:46Z</time>
      </trkpt>
      <trkpt lat="45.3954" lon="5.68035">
        <ele>632</ele>
        <time>2015-06-21T07:01:55Z</time>
      </trkpt>
      <trkpt lat="45.39531" lon="5.68031">
        <ele>633</ele>
        <time>2015-06-21T07:02:02Z</time>
      </trkpt>
      <trkpt lat="45.39523" lon="5.68034">
        <ele>633</ele>
        <time>2015-06-21T07:02:07Z</time>
      </trkpt>
      <trkpt lat="45.39512" lon="5.68038">
        <ele>633</ele>
        <time>2015-06-21T07:02:14Z</time>
      </trkpt>
      <trkpt lat="45.39503" lon="5.68036">
        <ele>633</ele>
        <time>2015-06-21T07:02:19Z</time>
      </trkpt>
      <trkpt lat="45.39493" lon="5.68032">
        <ele>638</ele>
        <time>2015-06-21T07:02:26Z</time>
      </trkpt>
      <trkpt lat="45.39485" lon="5.68029">
        <ele>638</ele>
        <time>2015-06-21T07:02:32Z</time>
      </trkpt>
      <trkpt lat="45.39476" lon="5.68023">
        <ele>639</ele>
        <time>2015-06-21T07:02:38Z</time>
      </trkpt>
      <trkpt lat="45.39466" lon="5.68017">
        <ele>639</ele>
        <time>2015-06-21T07:02:44Z</time>
      </trkpt>
      <trkpt lat="45.39457" lon="5.68011">
        <ele>640</ele>
        <time>2015-06-21T07:02:50Z</time>
      </trkpt>
      <trkpt lat="45.39448" lon="5.68004">
        <ele>640</ele>
        <time>2015-06-21T07:02:55Z</time>
      </trkpt>
      <trkpt lat="45.39439" lon="5.67998">
        <ele>642</ele>
        <time>2015-06-21T07:03:00Z</time>
      </trkpt>
      <trkpt lat="45.39429" lon="5.67992">
        <ele>643</ele>
        <time>2015-06-21T07:03:05Z</time>
      </trkpt>
      <trkpt lat="45.3942" lon="5.67985">
        <ele>643</ele>
        <time>2015-06-21T07:03:10Z</time>
      </trkpt>
      <trkpt lat="45.39413" lon="5.67977">
        <ele>646</ele>
        <time>2015-06-21T07:03:16Z</time>
      </trkpt>
      <trkpt lat="45.39405" lon="5.67969">
        <ele>647</ele>
        <time>2015-06-21T07:03:21Z</time>
      </trkpt>
      <trkpt lat="45.39396" lon="5.67968">
        <ele>647</ele>
        <time>2015-06-21T07:03:25Z</time>
      </trkpt>
      <trkpt lat="45.39387" lon="5.67971">
        <ele>647</ele>
        <time>2015-06-21T07:03:32Z</time>
      </trkpt>
      <trkpt lat="45.39377" lon="5.67968">
        <ele>647</ele>
        <time>2015-06-21T07:03:37Z</time>
      </trkpt>
      <trkpt lat="45.39367" lon="5.67967">
        <ele>648</ele>
        <time>2015-06-21T07:03:42Z</time>
      </trkpt>
      <trkpt lat="45.39358" lon="5.67966">
        <ele>648</ele>
        <time>2015-06-21T07:03:47Z</time>
      </trkpt>
      <trkpt lat="45.39349" lon="5.67963">
        <ele>648</ele>
        <time>2015-06-21T07:03:53Z</time>
      </trkpt>
      <trkpt lat="45.3934" lon="5.67959">
        <ele>648</ele>
        <time>2015-06-21T07:03:59Z</time>
      </trkpt>
      <trkpt lat="45.39331" lon="5.67953">
        <ele>650</ele>
        <time>2015-06-21T07:04:05Z</time>
      </trkpt>
      <trkpt lat="45.39323" lon="5.67943">
        <ele>651</ele>
        <time>2015-06-21T07:04:11Z</time>
      </trkpt>
      <trkpt lat="45.39314" lon="5.67936">
        <ele>651</ele>
        <time>2015-06-21T07:04:17Z</time>
      </trkpt>
      <trkpt lat="45.39307" lon="5.67926">
        <ele>651</ele>
        <time>2015-06-21T07:04:22Z</time>
      </trkpt>
      <trkpt lat="45.39298" lon="5.67918">
        <ele>651</ele>
        <time>2015-06-21T07:04:27Z</time>
      </trkpt>
      <trkpt lat="45.39291" lon="5.67908">
        <ele>653</ele>
        <time>2015-06-21T07:04:32Z</time>
      </trkpt>
      <trkpt lat="45.39283" lon="5.679">
        <ele>653</ele>
        <time>2015-06-21T07:04:37Z</time>
      </trkpt>
      <trkpt lat="45.39276" lon="5.67891">
        <ele>653</ele>
        <time>2015-06-21T07:04:42Z</time>
      </trkpt>
      <trkpt lat="45.39271" lon="5.6788">
        <ele>653</ele>
        <time>2015-06-21T07:04:48Z</time>
      </trkpt>
      <trkpt lat="45.39265" lon="5.67867">
        <ele>653</ele>
        <time>2015-06-21T07:04:57Z</time>
      </trkpt>
      <trkpt lat="45.39264" lon="5.67853">
        <ele>653</ele>
        <time>2015-06-21T07:05:03Z</time>
      </trkpt>
      <trkpt lat="45.39259" lon="5.67839">
        <ele>653</ele>
        <time>2015-06-21T07:05:08Z</time>
      </trkpt>
      <trkpt lat="45.39255" lon="5.67828">
        <ele>654</ele>
        <time>2015-06-21T07:05:14Z</time>
      </trkpt>
      <trkpt lat="45.39249" lon="5.67817">
        <ele>655</ele>
        <time>2015-06-21T07:05:21Z</time>
      </trkpt>
      <trkpt lat="45.39244" lon="5.67804">
        <ele>655</ele>
        <time>2015-06-21T07:05:28Z</time>
      </trkpt>
      <trkpt lat="45.39238" lon="5.67793">
        <ele>656</ele>
        <time>2015-06-21T07:05:34Z</time>
      </trkpt>
      <trkpt lat="45.39231" lon="5.67782">
        <ele>656</ele>
        <time>2015-06-21T07:05:41Z</time>
      </trkpt>
      <trkpt lat="45.39224" lon="5.67773">
        <ele>656</ele>
        <time>2015-06-21T07:05:48Z</time>
      </trkpt>
      <trkpt lat="45.39222" lon="5.67759">
        <ele>657</ele>
        <time>2015-06-21T07:05:55Z</time>
      </trkpt>
      <trkpt lat="45.3922" lon="5.67745">
        <ele>658</ele>
        <time>2015-06-21T07:06:03Z</time>
      </trkpt>
      <trkpt lat="45.39218" lon="5.6773">
        <ele>658</ele>
        <time>2015-06-21T07:06:09Z</time>
      </trkpt>
      <trkpt lat="45.39214" lon="5.67715">
        <ele>658</ele>
        <time>2015-06-21T07:06:13Z</time>
      </trkpt>
      <trkpt lat="45.39209" lon="5.67702">
        <ele>659</ele>
        <time>2015-06-21T07:06:16Z</time>
      </trkpt>
      <trkpt lat="45.39203" lon="5.67688">
        <ele>659</ele>
        <time>2015-06-21T07:06:19Z</time>
      </trkpt>
      <trkpt lat="45.39196" lon="5.67676">
        <ele>659</ele>
        <time>2015-06-21T07:06:22Z</time>
      </trkpt>
      <trkpt lat="45.3919" lon="5.67662">
        <ele>659</ele>
        <time>2015-06-21T07:06:26Z</time>
      </trkpt>
      <trkpt lat="45.39184" lon="5.67651">
        <ele>659</ele>
        <time>2015-06-21T07:06:30Z</time>
      </trkpt>
      <trkpt lat="45.39183" lon="5.67637">
        <ele>659</ele>
        <time>2015-06-21T07:06:35Z</time>
      </trkpt>
      <trkpt lat="45.39183" lon="5.67623">
        <ele>659</ele>
        <time>2015-06-21T07:06:39Z</time>
      </trkpt>
      <trkpt lat="45.3918" lon="5.67608">
        <ele>659</ele>
        <time>2015-06-21T07:06:43Z</time>
      </trkpt>
      <trkpt lat="45.39176" lon="5.67595">
        <ele>659</ele>
        <time>2015-06-21T07:06:48Z</time>
      </trkpt>
      <trkpt lat="45.39176" lon="5.67579">
        <ele>659</ele>
        <time>2015-06-21T07:06:53Z</time>
      </trkpt>
      <trkpt lat="45.39174" lon="5.67564">
        <ele>658</ele>
        <time>2015-06-21T07:06:57Z</time>
      </trkpt>
      <trkpt lat="45.39174" lon="5.6755">
        <ele>657</ele>
        <time>2015-06-21T07:07:01Z</time>
      </trkpt>
      <trkpt lat="45.39177" lon="5.67534">
        <ele>657</ele>
        <time>2015-06-21T07:07:05Z</time>
      </trkpt>
      <trkpt lat="45.39179" lon="5.67519">
        <ele>657</ele>
        <time>2015-06-21T07:07:08Z</time>
      </trkpt>
      <trkpt lat="45.39179" lon="5.67505">
        <ele>657</ele>
        <time>2015-06-21T07:07:11Z</time>
      </trkpt>
      <trkpt lat="45.39177" lon="5.67489">
        <ele>655</ele>
        <time>2015-06-21T07:07:14Z</time>
      </trkpt>
      <trkpt lat="45.39171" lon="5.67477">
        <ele>655</ele>
        <time>2015-06-21T07:07:18Z</time>
      </trkpt>
      <trkpt lat="45.39163" lon="5.67471">
        <ele>661</ele>
        <time>2015-06-21T07:07:23Z</time>
      </trkpt>
      <trkpt lat="45.39161" lon="5.67456">
        <ele>662</ele>
        <time>2015-06-21T07:07:29Z</time>
      </trkpt>
      <trkpt lat="45.3916" lon="5.67442">
        <ele>661</ele>
        <time>2015-06-21T07:07:35Z</time>
      </trkpt>
      <trkpt lat="45.39163" lon="5.67429">
        <ele>660</ele>
        <time>2015-06-21T07:07:40Z</time>
      </trkpt>
      <trkpt lat="45.39164" lon="5.67416">
        <ele>658</ele>
        <time>2015-06-21T07:07:44Z</time>
      </trkpt>
      <trkpt lat="45.39165" lon="5.67403">
        <ele>661</ele>
        <time>2015-06-21T07:07:48Z</time>
      </trkpt>
      <trkpt lat="45.39163" lon="5.67391">
        <ele>662</ele>
        <time>2015-06-21T07:07:52Z</time>
      </trkpt>
      <trkpt lat="45.3916" lon="5.67377">
        <ele>663</ele>
        <time>2015-06-21T07:07:56Z</time>
      </trkpt>
      <trkpt lat="45.39157" lon="5.67362">
        <ele>663</ele>
        <time>2015-06-21T07:08:01Z</time>
      </trkpt>
      <trkpt lat="45.39151" lon="5.67349">
        <ele>663</ele>
        <time>2015-06-21T07:08:06Z</time>
      </trkpt>
      <trkpt lat="45.39144" lon="5.67339">
        <ele>664</ele>
        <time>2015-06-21T07:08:10Z</time>
      </trkpt>
      <trkpt lat="45.3914" lon="5.67325">
        <ele>664</ele>
        <time>2015-06-21T07:08:15Z</time>
      </trkpt>
      <trkpt lat="45.39133" lon="5.67315">
        <ele>665</ele>
        <time>2015-06-21T07:08:20Z</time>
      </trkpt>
      <trkpt lat="45.39125" lon="5.67303">
        <ele>666</ele>
        <time>2015-06-21T07:08:26Z</time>
      </trkpt>
      <trkpt lat="45.39119" lon="5.67291">
        <ele>667</ele>
        <time>2015-06-21T07:08:31Z</time>
      </trkpt>
      <trkpt lat="45.39111" lon="5.67284">
        <ele>667</ele>
        <time>2015-06-21T07:08:35Z</time>
      </trkpt>
      <trkpt lat="45.39103" lon="5.67278">
        <ele>668</ele>
        <time>2015-06-21T07:08:39Z</time>
      </trkpt>
      <trkpt lat="45.39093" lon="5.67275">
        <ele>669</ele>
        <time>2015-06-21T07:08:44Z</time>
      </trkpt>
      <trkpt lat="45.39084" lon="5.67273">
        <ele>670</ele>
        <time>2015-06-21T07:08:49Z</time>
      </trkpt>
      <trkpt lat="45.39075" lon="5.67273">
        <ele>676</ele>
        <time>2015-06-21T07:08:54Z</time>
      </trkpt>
      <trkpt lat="45.39065" lon="5.67272">
        <ele>676</ele>
        <time>2015-06-21T07:08:59Z</time>
      </trkpt>
      <trkpt lat="45.39056" lon="5.67272">
        <ele>676</ele>
        <time>2015-06-21T07:09:05Z</time>
      </trkpt>
      <trkpt lat="45.39046" lon="5.67276">
        <ele>677</ele>
        <time>2015-06-21T07:09:12Z</time>
      </trkpt>
      <trkpt lat="45.39037" lon="5.6728">
        <ele>677</ele>
        <time>2015-06-21T07:09:20Z</time>
      </trkpt>
      <trkpt lat="45.39028" lon="5.67282">
        <ele>677</ele>
        <time>2015-06-21T07:09:27Z</time>
      </trkpt>
      <trkpt lat="45.39019" lon="5.67283">
        <ele>677</ele>
        <time>2015-06-21T07:09:35Z</time>
      </trkpt>
      <trkpt lat="45.39009" lon="5.67287">
        <ele>678</ele>
        <time>2015-06-21T07:09:41Z</time>
      </trkpt>
      <trkpt lat="45.39" lon="5.67289">
        <ele>679</ele>
        <time>2015-06-21T07:09:47Z</time>
      </trkpt>
      <trkpt lat="45.3899" lon="5.67292">
        <ele>679</ele>
        <time>2015-06-21T07:09:53Z</time>
      </trkpt>
      <trkpt lat="45.38979" lon="5.67293">
        <ele>679</ele>
        <time>2015-06-21T07:09:57Z</time>
      </trkpt>
      <trkpt lat="45.3897" lon="5.67294">
        <ele>679</ele>
        <time>2015-06-21T07:10:01Z</time>
      </trkpt>
      <trkpt lat="45.38961" lon="5.67286">
        <ele>679</ele>
        <time>2015-06-21T07:10:05Z</time>
      </trkpt>
      <trkpt lat="45.38955" lon="5.67277">
        <ele>679</ele>
        <time>2015-06-21T07:10:08Z</time>
      </trkpt>
      <trkpt lat="45.38946" lon="5.67266">
        <ele>678</ele>
        <time>2015-06-21T07:10:12Z</time>
      </trkpt>
      <trkpt lat="45.38939" lon="5.67254">
        <ele>677</ele>
        <time>2015-06-21T07:10:14Z</time>
      </trkpt>
      <trkpt lat="45.38931" lon="5.67244">
        <ele>675</ele>
        <time>2015-06-21T07:10:16Z</time>
      </trkpt>
      <trkpt lat="45.38925" lon="5.67232">
        <ele>675</ele>
        <time>2015-06-21T07:10:18Z</time>
      </trkpt>
      <trkpt lat="45.38919" lon="5.67216">
        <ele>676</ele>
        <time>2015-06-21T07:10:20Z</time>
      </trkpt>
      <trkpt lat="45.3891" lon="5.67204">
        <ele>671</ele>
        <time>2015-06-21T07:10:22Z</time>
      </trkpt>
      <trkpt lat="45.38902" lon="5.67196">
        <ele>670</ele>
        <time>2015-06-21T07:10:24Z</time>
      </trkpt>
      <trkpt lat="45.38895" lon="5.67185">
        <ele>670</ele>
        <time>2015-06-21T07:10:26Z</time>
      </trkpt>
      <trkpt lat="45.38889" lon="5.67172">
        <ele>670</ele>
        <time>2015-06-21T07:10:28Z</time>
      </trkpt>
      <trkpt lat="45.38883" lon="5.67158">
        <ele>665</ele>
        <time>2015-06-21T07:10:30Z</time>
      </trkpt>
      <trkpt lat="45.38876" lon="5.67147">
        <ele>664</ele>
        <time>2015-06-21T07:10:32Z</time>
      </trkpt>
      <trkpt lat="45.38867" lon="5.67143">
        <ele>663</ele>
        <time>2015-06-21T07:10:34Z</time>
      </trkpt>
      <trkpt lat="45.38857" lon="5.67142">
        <ele>663</ele>
        <time>2015-06-21T07:10:36Z</time>
      </trkpt>
      <trkpt lat="45.38845" lon="5.67142">
        <ele>662</ele>
        <time>2015-06-21T07:10:39Z</time>
      </trkpt>
      <trkpt lat="45.38836" lon="5.6714">
        <ele>661</ele>
        <time>2015-06-21T07:10:42Z</time>
      </trkpt>
      <trkpt lat="45.38826" lon="5.67134">
        <ele>659</ele>
        <time>2015-06-21T07:10:46Z</time>
      </trkpt>
      <trkpt lat="45.38815" lon="5.67134">
        <ele>659</ele>
        <time>2015-06-21T07:10:50Z</time>
      </trkpt>
      <trkpt lat="45.38804" lon="5.67134">
        <ele>659</ele>
        <time>2015-06-21T07:10:53Z</time>
      </trkpt>
      <trkpt lat="45.38794" lon="5.67134">
        <ele>659</ele>
        <time>2015-06-21T07:10:56Z</time>
      </trkpt>
      <trkpt lat="45.38783" lon="5.67134">
        <ele>660</ele>
        <time>2015-06-21T07:11:00Z</time>
      </trkpt>
      <trkpt lat="45.38773" lon="5.67134">
        <ele>660</ele>
        <time>2015-06-21T07:11:04Z</time>
      </trkpt>
      <trkpt lat="45.38763" lon="5.67141">
        <ele>660</ele>
        <time>2015-06-21T07:11:08Z</time>
      </trkpt>
      <trkpt lat="45.38756" lon="5.67153">
        <ele>661</ele>
        <time>2015-06-21T07:11:14Z</time>
      </trkpt>
      <trkpt lat="45.38751" lon="5.67165">
        <ele>663</ele>
        <time>2015-06-21T07:11:20Z</time>
      </trkpt>
      <trkpt lat="45.38742" lon="5.67172">
        <ele>666</ele>
        <time>2015-06-21T07:11:28Z</time>
      </trkpt>
      <trkpt lat="45.38731" lon="5.67171">
        <ele>667</ele>
        <time>2015-06-21T07:11:33Z</time>
      </trkpt>
      <trkpt lat="45.38722" lon="5.6717">
        <ele>669</ele>
        <time>2015-06-21T07:11:38Z</time>
      </trkpt>
      <trkpt lat="45.38712" lon="5.67169">
        <ele>670</ele>
        <time>2015-06-21T07:11:44Z</time>
      </trkpt>
      <trkpt lat="45.38702" lon="5.67168">
        <ele>671</ele>
        <time>2015-06-21T07:11:55Z</time>
      </trkpt>
      <trkpt lat="45.38693" lon="5.6717">
        <ele>671</ele>
        <time>2015-06-21T07:12:06Z</time>
      </trkpt>
      <trkpt lat="45.38685" lon="5.67161">
        <ele>670</ele>
        <time>2015-06-21T07:12:14Z</time>
      </trkpt>
      <trkpt lat="45.38676" lon="5.67153">
        <ele>670</ele>
        <time>2015-06-21T07:12:21Z</time>
      </trkpt>
      <trkpt lat="45.38668" lon="5.67148">
        <ele>670</ele>
        <time>2015-06-21T07:12:28Z</time>
      </trkpt>
      <trkpt lat="45.38658" lon="5.67139">
        <ele>672</ele>
        <time>2015-06-21T07:12:34Z</time>
      </trkpt>
      <trkpt lat="45.38649" lon="5.67131">
        <ele>672</ele>
        <time>2015-06-21T07:12:39Z</time>
      </trkpt>
      <trkpt lat="45.38638" lon="5.67127">
        <ele>671</ele>
        <time>2015-06-21T07:12:44Z</time>
      </trkpt>
      <trkpt lat="45.38628" lon="5.67126">
        <ele>671</ele>
        <time>2015-06-21T07:12:49Z</time>
      </trkpt>
      <trkpt lat="45.38618" lon="5.67125">
        <ele>672</ele>
        <time>2015-06-21T07:12:54Z</time>
      </trkpt>
      <trkpt lat="45.38608" lon="5.67124">
        <ele>672</ele>
        <time>2015-06-21T07:12:59Z</time>
      </trkpt>
      <trkpt lat="45.38599" lon="5.67121">
        <ele>672</ele>
        <time>2015-06-21T07:13:03Z</time>
      </trkpt>
      <trkpt lat="45.3859" lon="5.67115">
        <ele>672</ele>
        <time>2015-06-21T07:13:08Z</time>
      </trkpt>
      <trkpt lat="45.38581" lon="5.67109">
        <ele>672</ele>
        <time>2015-06-21T07:13:12Z</time>
      </trkpt>
      <trkpt lat="45.38571" lon="5.67107">
        <ele>672</ele>
        <time>2015-06-21T07:13:15Z</time>
      </trkpt>
      <trkpt lat="45.38561" lon="5.67107">
        <ele>672</ele>
        <time>2015-06-21T07:13:18Z</time>
      </trkpt>
      <trkpt lat="45.38551" lon="5.67112">
        <ele>673</ele>
        <time>2015-06-21T07:13:21Z</time>
      </trkpt>
      <trkpt lat="45.38542" lon="5.67116">
        <ele>673</ele>
        <time>2015-06-21T07:13:25Z</time>
      </trkpt>
      <trkpt lat="45.38537" lon="5.67104">
        <ele>673</ele>
        <time>2015-06-21T07:13:30Z</time>
      </trkpt>
      <trkpt lat="45.3853" lon="5.67093">
        <ele>673</ele>
        <time>2015-06-21T07:13:34Z</time>
      </trkpt>
      <trkpt lat="45.38519" lon="5.67086">
        <ele>673</ele>
        <time>2015-06-21T07:13:38Z</time>
      </trkpt>
      <trkpt lat="45.38508" lon="5.6708">
        <ele>672</ele>
        <time>2015-06-21T07:13:42Z</time>
      </trkpt>
      <trkpt lat="45.38499" lon="5.67075">
        <ele>673</ele>
        <time>2015-06-21T07:13:45Z</time>
      </trkpt>
      <trkpt lat="45.38487" lon="5.6707">
        <ele>673</ele>
        <time>2015-06-21T07:13:48Z</time>
      </trkpt>
      <trkpt lat="45.38476" lon="5.67066">
        <ele>673</ele>
        <time>2015-06-21T07:13:51Z</time>
      </trkpt>
      <trkpt lat="45.38469" lon="5.67055">
        <ele>673</ele>
        <time>2015-06-21T07:13:55Z</time>
      </trkpt>
      <trkpt lat="45.3846" lon="5.67048">
        <ele>673</ele>
        <time>2015-06-21T07:14:00Z</time>
      </trkpt>
      <trkpt lat="45.38452" lon="5.67039">
        <ele>673</ele>
        <time>2015-06-21T07:14:04Z</time>
      </trkpt>
      <trkpt lat="45.38447" lon="5.67029">
        <ele>673</ele>
        <time>2015-06-21T07:14:07Z</time>
      </trkpt>
      <trkpt lat="45.3844" lon="5.67017">
        <ele>673</ele>
        <time>2015-06-21T07:14:11Z</time>
      </trkpt>
      <trkpt lat="45.38433" lon="5.67009">
        <ele>674</ele>
        <time>2015-06-21T07:14:15Z</time>
      </trkpt>
      <trkpt lat="45.38425" lon="5.66999">
        <ele>674</ele>
        <time>2015-06-21T07:14:19Z</time>
      </trkpt>
      <trkpt lat="45.38419" lon="5.66986">
        <ele>674</ele>
        <time>2015-06-21T07:14:24Z</time>
      </trkpt>
      <trkpt lat="45.38411" lon="5.66973">
        <ele>677</ele>
        <time>2015-06-21T07:14:28Z</time>
      </trkpt>
      <trkpt lat="45.38403" lon="5.66964">
        <ele>678</ele>
        <time>2015-06-21T07:14:32Z</time>
      </trkpt>
      <trkpt lat="45.38396" lon="5.66953">
        <ele>678</ele>
        <time>2015-06-21T07:14:36Z</time>
      </trkpt>
      <trkpt lat="45.38388" lon="5.66944">
        <ele>678</ele>
        <time>2015-06-21T07:14:39Z</time>
      </trkpt>
      <trkpt lat="45.38381" lon="5.66934">
        <ele>678</ele>
        <time>2015-06-21T07:14:43Z</time>
      </trkpt>
      <trkpt lat="45.38373" lon="5.66926">
        <ele>678</ele>
        <time>2015-06-21T07:14:46Z</time>
      </trkpt>
      <trkpt lat="45.38365" lon="5.66917">
        <ele>679</ele>
        <time>2015-06-21T07:14:50Z</time>
      </trkpt>
      <trkpt lat="45.38354" lon="5.66911">
        <ele>678</ele>
        <time>2015-06-21T07:14:54Z</time>
      </trkpt>
      <trkpt lat="45.38345" lon="5.66906">
        <ele>678</ele>
        <time>2015-06-21T07:14:57Z</time>
      </trkpt>
      <trkpt lat="45.38336" lon="5.66897">
        <ele>678</ele>
        <time>2015-06-21T07:15:01Z</time>
      </trkpt>
      <trkpt lat="45.38325" lon="5.6689">
        <ele>679</ele>
        <time>2015-06-21T07:15:05Z</time>
      </trkpt>
      <trkpt lat="45.38316" lon="5.66881">
        <ele>678</ele>
        <time>2015-06-21T07:15:09Z</time>
      </trkpt>
      <trkpt lat="45.38308" lon="5.66874">
        <ele>678</ele>
        <time>2015-06-21T07:15:12Z</time>
      </trkpt>
      <trkpt lat="45.38297" lon="5.66867">
        <ele>678</ele>
        <time>2015-06-21T07:15:16Z</time>
      </trkpt>
      <trkpt lat="45.38288" lon="5.66863">
        <ele>678</ele>
        <time>2015-06-21T07:15:19Z</time>
      </trkpt>
      <trkpt lat="45.38279" lon="5.6686">
        <ele>678</ele>
        <time>2015-06-21T07:15:22Z</time>
      </trkpt>
      <trkpt lat="45.38269" lon="5.66855">
        <ele>677</ele>
        <time>2015-06-21T07:15:26Z</time>
      </trkpt>
      <trkpt lat="45.38264" lon="5.66843">
        <ele>677</ele>
        <time>2015-06-21T07:15:31Z</time>
      </trkpt>
      <trkpt lat="45.38267" lon="5.6683">
        <ele>672</ele>
        <time>2015-06-21T07:15:37Z</time>
      </trkpt>
      <trkpt lat="45.38274" lon="5.66819">
        <ele>671</ele>
        <time>2015-06-21T07:15:40Z</time>
      </trkpt>
      <trkpt lat="45.38283" lon="5.66811">
        <ele>670</ele>
        <time>2015-06-21T07:15:44Z</time>
      </trkpt>
      <trkpt lat="45.38289" lon="5.66799">
        <ele>669</ele>
        <time>2015-06-21T07:15:48Z</time>
      </trkpt>
      <trkpt lat="45.38298" lon="5.66788">
        <ele>668</ele>
        <time>2015-06-21T07:15:52Z</time>
      </trkpt>
      <trkpt lat="45.38308" lon="5.6679">
        <ele>669</ele>
        <time>2015-06-21T07:15:56Z</time>
      </trkpt>
      <trkpt lat="45.38316" lon="5.66784">
        <ele>668</ele>
        <time>2015-06-21T07:16:02Z</time>
      </trkpt>
      <trkpt lat="45.38327" lon="5.66779">
        <ele>667</ele>
        <time>2015-06-21T07:16:09Z</time>
      </trkpt>
      <trkpt lat="45.38336" lon="5.66775">
        <ele>665</ele>
        <time>2015-06-21T07:16:13Z</time>
      </trkpt>
      <trkpt lat="45.38346" lon="5.66772">
        <ele>664</ele>
        <time>2015-06-21T07:16:17Z</time>
      </trkpt>
      <trkpt lat="45.38356" lon="5.66771">
        <ele>664</ele>
        <time>2015-06-21T07:16:21Z</time>
      </trkpt>
      <trkpt lat="45.38366" lon="5.66775">
        <ele>664</ele>
        <time>2015-06-21T07:16:27Z</time>
      </trkpt>
      <trkpt lat="45.38376" lon="5.66782">
        <ele>665</ele>
        <time>2015-06-21T07:16:32Z</time>
      </trkpt>
      <trkpt lat="45.38384" lon="5.66789">
        <ele>665</ele>
        <time>2015-06-21T07:16:37Z</time>
      </trkpt>
      <trkpt lat="45.38393" lon="5.66795">
        <ele>666</ele>
        <time>2015-06-21T07:16:41Z</time>
      </trkpt>
      <trkpt lat="45.38398" lon="5.66805">
        <ele>667</ele>
        <time>2015-06-21T07:16:46Z</time>
      </trkpt>
      <trkpt lat="45.38403" lon="5.66818">
        <ele>669</ele>
        <time>2015-06-21T07:16:50Z</time>
      </trkpt>
      <trkpt lat="45.38411" lon="5.6683">
        <ele>671</ele>
        <time>2015-06-21T07:16:54Z</time>
      </trkpt>
      <trkpt lat="45.38417" lon="5.66841">
        <ele>671</ele>
        <time>2015-06-21T07:16:57Z</time>
      </trkpt>
      <trkpt lat="45.38425" lon="5.66848">
        <ele>670</ele>
        <time>2015-06-21T07:17:00Z</time>
      </trkpt>
      <trkpt lat="45.38432" lon="5.66857">
        <ele>668</ele>
        <time>2015-06-21T07:17:04Z</time>
      </trkpt>
      <trkpt lat="45.38436" lon="5.66869">
        <ele>668</ele>
        <time>2015-06-21T07:17:07Z</time>
      </trkpt>
      <trkpt lat="45.38439" lon="5.66884">
        <ele>668</ele>
        <time>2015-06-21T07:17:11Z</time>
      </trkpt>
      <trkpt lat="45.38447" lon="5.66894">
        <ele>668</ele>
        <time>2015-06-21T07:17:14Z</time>
      </trkpt>
      <trkpt lat="45.38457" lon="5.66898">
        <ele>667</ele>
        <time>2015-06-21T07:17:16Z</time>
      </trkpt>
      <trkpt lat="45.38466" lon="5.66906">
        <ele>666</ele>
        <time>2015-06-21T07:17:18Z</time>
      </trkpt>
      <trkpt lat="45.38476" lon="5.66905">
        <ele>665</ele>
        <time>2015-06-21T07:17:20Z</time>
      </trkpt>
      <trkpt lat="45.38485" lon="5.66907">
        <ele>664</ele>
        <time>2015-06-21T07:17:22Z</time>
      </trkpt>
      <trkpt lat="45.38494" lon="5.66918">
        <ele>664</ele>
        <time>2015-06-21T07:17:26Z</time>
      </trkpt>
      <trkpt lat="45.38505" lon="5.6692">
        <ele>662</ele>
        <time>2015-06-21T07:17:29Z</time>
      </trkpt>
      <trkpt lat="45.38518" lon="5.6692">
        <ele>662</ele>
        <time>2015-06-21T07:17:32Z</time>
      </trkpt>
      <trkpt lat="45.3853" lon="5.66916">
        <ele>656</ele>
        <time>2015-06-21T07:17:35Z</time>
      </trkpt>
      <trkpt lat="45.38539" lon="5.66913">
        <ele>655</ele>
        <time>2015-06-21T07:17:37Z</time>
      </trkpt>
      <trkpt lat="45.38551" lon="5.66907">
        <ele>655</ele>
        <time>2015-06-21T07:17:40Z</time>
      </trkpt>
      <trkpt lat="45.3856" lon="5.66902">
        <ele>654</ele>
        <time>2015-06-21T07:17:43Z</time>
      </trkpt>
      <trkpt lat="45.38574" lon="5.669">
        <ele>654</ele>
        <time>2015-06-21T07:17:46Z</time>
      </trkpt>
      <trkpt lat="45.38586" lon="5.66898">
        <ele>652</ele>
        <time>2015-06-21T07:17:49Z</time>
      </trkpt>
      <trkpt lat="45.38597" lon="5.66895">
        <ele>650</ele>
        <time>2015-06-21T07:17:52Z</time>
      </trkpt>
      <trkpt lat="45.38608" lon="5.66892">
        <ele>649</ele>
        <time>2015-06-21T07:17:55Z</time>
      </trkpt>
      <trkpt lat="45.3862" lon="5.6689">
        <ele>649</ele>
        <time>2015-06-21T07:17:58Z</time>
      </trkpt>
      <trkpt lat="45.3863" lon="5.66889">
        <ele>648</ele>
        <time>2015-06-21T07:18:00Z</time>
      </trkpt>
      <trkpt lat="45.38639" lon="5.66889">
        <ele>649</ele>
        <time>2015-06-21T07:18:02Z</time>
      </trkpt>
      <trkpt lat="45.38649" lon="5.6689">
        <ele>649</ele>
        <time>2015-06-21T07:18:04Z</time>
      </trkpt>
      <trkpt lat="45.38662" lon="5.66891">
        <ele>650</ele>
        <time>2015-06-21T07:18:07Z</time>
      </trkpt>
      <trkpt lat="45.38675" lon="5.66892">
        <ele>646</ele>
        <time>2015-06-21T07:18:10Z</time>
      </trkpt>
      <trkpt lat="45.38687" lon="5.66893">
        <ele>645</ele>
        <time>2015-06-21T07:18:13Z</time>
      </trkpt>
      <trkpt lat="45.38697" lon="5.66896">
        <ele>644</ele>
        <time>2015-06-21T07:18:16Z</time>
      </trkpt>
      <trkpt lat="45.38708" lon="5.66902">
        <ele>644</ele>
        <time>2015-06-21T07:18:20Z</time>
      </trkpt>
      <trkpt lat="45.38718" lon="5.66906">
        <ele>644</ele>
        <time>2015-06-21T07:18:22Z</time>
      </trkpt>
      <trkpt lat="45.38729" lon="5.66907">
        <ele>644</ele>
        <time>2015-06-21T07:18:25Z</time>
      </trkpt>
      <trkpt lat="45.3874" lon="5.66911">
        <ele>645</ele>
        <time>2015-06-21T07:18:29Z</time>
      </trkpt>
      <trkpt lat="45.38751" lon="5.66915">
        <ele>647</ele>
        <time>2015-06-21T07:18:32Z</time>
      </trkpt>
      <trkpt lat="45.38761" lon="5.66921">
        <ele>648</ele>
        <time>2015-06-21T07:18:36Z</time>
      </trkpt>
      <trkpt lat="45.38773" lon="5.66924">
        <ele>648</ele>
        <time>2015-06-21T07:18:39Z</time>
      </trkpt>
      <trkpt lat="45.38783" lon="5.66926">
        <ele>648</ele>
        <time>2015-06-21T07:18:41Z</time>
      </trkpt>
      <trkpt lat="45.38794" lon="5.66932">
        <ele>647</ele>
        <time>2015-06-21T07:18:43Z</time>
      </trkpt>
      <trkpt lat="45.38805" lon="5.66935">
        <ele>647</ele>
        <time>2015-06-21T07:18:45Z</time>
      </trkpt>
      <trkpt lat="45.38816" lon="5.66937">
        <ele>646</ele>
        <time>2015-06-21T07:18:47Z</time>
      </trkpt>
      <trkpt lat="45.38829" lon="5.66937">
        <ele>645</ele>
        <time>2015-06-21T07:18:50Z</time>
      </trkpt>
      <trkpt lat="45.38842" lon="5.66939">
        <ele>641</ele>
        <time>2015-06-21T07:18:53Z</time>
      </trkpt>
      <trkpt lat="45.38854" lon="5.66942">
        <ele>641</ele>
        <time>2015-06-21T07:18:56Z</time>
      </trkpt>
      <trkpt lat="45.38866" lon="5.66944">
        <ele>641</ele>
        <time>2015-06-21T07:18:59Z</time>
      </trkpt>
      <trkpt lat="45.38876" lon="5.66945">
        <ele>641</ele>
        <time>2015-06-21T07:19:02Z</time>
      </trkpt>
      <trkpt lat="45.38886" lon="5.66944">
        <ele>640</ele>
        <time>2015-06-21T07:19:07Z</time>
      </trkpt>
      <trkpt lat="45.38895" lon="5.66941">
        <ele>639</ele>
        <time>2015-06-21T07:19:12Z</time>
      </trkpt>
      <trkpt lat="45.38904" lon="5.66936">
        <ele>637</ele>
        <time>2015-06-21T07:19:17Z</time>
      </trkpt>
      <trkpt lat="45.38913" lon="5.66929">
        <ele>634</ele>
        <time>2015-06-21T07:19:21Z</time>
      </trkpt>
      <trkpt lat="45.38918" lon="5.66915">
        <ele>627</ele>
        <time>2015-06-21T07:19:27Z</time>
      </trkpt>
      <trkpt lat="45.38915" lon="5.66903">
        <ele>624</ele>
        <time>2015-06-21T07:19:31Z</time>
      </trkpt>
      <trkpt lat="45.38911" lon="5.6689">
        <ele>621</ele>
        <time>2015-06-21T07:19:34Z</time>
      </trkpt>
      <trkpt lat="45.38904" lon="5.66882">
        <ele>619</ele>
        <time>2015-06-21T07:19:38Z</time>
      </trkpt>
      <trkpt lat="45.38896" lon="5.66875">
        <ele>618</ele>
        <time>2015-06-21T07:19:44Z</time>
      </trkpt>
      <trkpt lat="45.3889" lon="5.66863">
        <ele>616</ele>
        <time>2015-06-21T07:19:50Z</time>
      </trkpt>
      <trkpt lat="45.38883" lon="5.6685">
        <ele>615</ele>
        <time>2015-06-21T07:19:54Z</time>
      </trkpt>
      <trkpt lat="45.38877" lon="5.66839">
        <ele>614</ele>
        <time>2015-06-21T07:19:56Z</time>
      </trkpt>
      <trkpt lat="45.38871" lon="5.66829">
        <ele>592</ele>
        <time>2015-06-21T07:19:58Z</time>
      </trkpt>
      <trkpt lat="45.38865" lon="5.66819">
        <ele>592</ele>
        <time>2015-06-21T07:20:00Z</time>
      </trkpt>
      <trkpt lat="45.38858" lon="5.66812">
        <ele>591</ele>
        <time>2015-06-21T07:20:02Z</time>
      </trkpt>
      <trkpt lat="45.38846" lon="5.66803">
        <ele>590</ele>
        <time>2015-06-21T07:20:05Z</time>
      </trkpt>
      <trkpt lat="45.38837" lon="5.66796">
        <ele>588</ele>
        <time>2015-06-21T07:20:07Z</time>
      </trkpt>
      <trkpt lat="45.38827" lon="5.66792">
        <ele>595</ele>
        <time>2015-06-21T07:20:09Z</time>
      </trkpt>
      <trkpt lat="45.38818" lon="5.6679">
        <ele>595</ele>
        <time>2015-06-21T07:20:11Z</time>
      </trkpt>
      <trkpt lat="45.38807" lon="5.66784">
        <ele>594</ele>
        <time>2015-06-21T07:20:14Z</time>
      </trkpt>
      <trkpt lat="45.388" lon="5.66777">
        <ele>593</ele>
        <time>2015-06-21T07:20:16Z</time>
      </trkpt>
      <trkpt lat="45.38792" lon="5.66769">
        <ele>592</ele>
        <time>2015-06-21T07:20:18Z</time>
      </trkpt>
      <trkpt lat="45.38781" lon="5.66764">
        <ele>591</ele>
        <time>2015-06-21T07:20:21Z</time>
      </trkpt>
      <trkpt lat="45.38773" lon="5.66757">
        <ele>590</ele>
        <time>2015-06-21T07:20:25Z</time>
      </trkpt>
      <trkpt lat="45.38763" lon="5.66748">
        <ele>572</ele>
        <time>2015-06-21T07:20:28Z</time>
      </trkpt>
      <trkpt lat="45.38753" lon="5.66739">
        <ele>573</ele>
        <time>2015-06-21T07:20:31Z</time>
      </trkpt>
      <trkpt lat="45.38744" lon="5.66735">
        <ele>576</ele>
        <time>2015-06-21T07:20:34Z</time>
      </trkpt>
      <trkpt lat="45.38731" lon="5.66732">
        <ele>574</ele>
        <time>2015-06-21T07:20:37Z</time>
      </trkpt>
      <trkpt lat="45.38719" lon="5.66729">
        <ele>574</ele>
        <time>2015-06-21T07:20:40Z</time>
      </trkpt>
      <trkpt lat="45.38711" lon="5.66721">
        <ele>572</ele>
        <time>2015-06-21T07:20:42Z</time>
      </trkpt>
      <trkpt lat="45.38701" lon="5.66711">
        <ele>571</ele>
        <time>2015-06-21T07:20:45Z</time>
      </trkpt>
      <trkpt lat="45.38691" lon="5.6671">
        <ele>572</ele>
        <time>2015-06-21T07:20:51Z</time>
      </trkpt>
      <trkpt lat="45.38682" lon="5.66705">
        <ele>571</ele>
        <time>2015-06-21T07:20:57Z</time>
      </trkpt>
      <trkpt lat="45.38674" lon="5.66695">
        <ele>568</ele>
        <time>2015-06-21T07:21:01Z</time>
      </trkpt>
      <trkpt lat="45.38665" lon="5.66687">
        <ele>572</ele>
        <time>2015-06-21T07:21:05Z</time>
      </trkpt>
      <trkpt lat="45.38655" lon="5.66677">
        <ele>570</ele>
        <time>2015-06-21T07:21:09Z</time>
      </trkpt>
      <trkpt lat="45.38645" lon="5.66671">
        <ele>572</ele>
        <time>2015-06-21T07:21:13Z</time>
      </trkpt>
      <trkpt lat="45.38637" lon="5.66665">
        <ele>552</ele>
        <time>2015-06-21T07:21:18Z</time>
      </trkpt>
      <trkpt lat="45.38628" lon="5.66658">
        <ele>551</ele>
        <time>2015-06-21T07:21:21Z</time>
      </trkpt>
      <trkpt lat="45.3862" lon="5.66648">
        <ele>551</ele>
        <time>2015-06-21T07:21:25Z</time>
      </trkpt>
      <trkpt lat="45.3861" lon="5.6664">
        <ele>550</ele>
        <time>2015-06-21T07:21:29Z</time>
      </trkpt>
      <trkpt lat="45.38601" lon="5.66629">
        <ele>548</ele>
        <time>2015-06-21T07:21:32Z</time>
      </trkpt>
      <trkpt lat="45.38594" lon="5.66616">
        <ele>545</ele>
        <time>2015-06-21T07:21:36Z</time>
      </trkpt>
      <trkpt lat="45.38586" lon="5.66608">
        <ele>543</ele>
        <time>2015-06-21T07:21:39Z</time>
      </trkpt>
      <trkpt lat="45.38577" lon="5.66599">
        <ele>548</ele>
        <time>2015-06-21T07:21:42Z</time>
      </trkpt>
      <trkpt lat="45.38566" lon="5.66593">
        <ele>549</ele>
        <time>2015-06-21T07:21:46Z</time>
      </trkpt>
      <trkpt lat="45.38559" lon="5.66584">
        <ele>551</ele>
        <time>2015-06-21T07:21:50Z</time>
      </trkpt>
      <trkpt lat="45.3855" lon="5.66576">
        <ele>532</ele>
        <time>2015-06-21T07:21:55Z</time>
      </trkpt>
      <trkpt lat="45.38543" lon="5.66566">
        <ele>532</ele>
        <time>2015-06-21T07:22:01Z</time>
      </trkpt>
      <trkpt lat="45.38535" lon="5.66558">
        <ele>532</ele>
        <time>2015-06-21T07:22:06Z</time>
      </trkpt>
      <trkpt lat="45.38527" lon="5.66548">
        <ele>531</ele>
        <time>2015-06-21T07:22:12Z</time>
      </trkpt>
      <trkpt lat="45.3852" lon="5.66537">
        <ele>529</ele>
        <time>2015-06-21T07:22:16Z</time>
      </trkpt>
      <trkpt lat="45.38513" lon="5.66526">
        <ele>527</ele>
        <time>2015-06-21T07:22:21Z</time>
      </trkpt>
      <trkpt lat="45.38506" lon="5.66515">
        <ele>524</ele>
        <time>2015-06-21T07:22:25Z</time>
      </trkpt>
      <trkpt lat="45.38498" lon="5.66506">
        <ele>527</ele>
        <time>2015-06-21T07:22:29Z</time>
      </trkpt>
      <trkpt lat="45.38493" lon="5.66495">
        <ele>519</ele>
        <time>2015-06-21T07:22:35Z</time>
      </trkpt>
      <trkpt lat="45.38487" lon="5.66484">
        <ele>518</ele>
        <time>2015-06-21T07:22:39Z</time>
      </trkpt>
      <trkpt lat="45.38482" lon="5.66471">
        <ele>517</ele>
        <time>2015-06-21T07:22:44Z</time>
      </trkpt>
      <trkpt lat="45.38476" lon="5.66458">
        <ele>516</ele>
        <time>2015-06-21T07:22:48Z</time>
      </trkpt>
      <trkpt lat="45.38471" lon="5.66446">
        <ele>514</ele>
        <time>2015-06-21T07:22:51Z</time>
      </trkpt>
      <trkpt lat="45.38469" lon="5.66432">
        <ele>512</ele>
        <time>2015-06-21T07:22:54Z</time>
      </trkpt>
      <trkpt lat="45.38466" lon="5.66417">
        <ele>511</ele>
        <time>2015-06-21T07:22:57Z</time>
      </trkpt>
      <trkpt lat="45.38464" lon="5.66404">
        <ele>496</ele>
        <time>2015-06-21T07:23:01Z</time>
      </trkpt>
      <trkpt lat="45.3846" lon="5.66391">
        <ele>495</ele>
        <time>2015-06-21T07:23:08Z</time>
      </trkpt>
      <trkpt lat="45.38457" lon="5.66378">
        <ele>494</ele>
        <time>2015-06-21T07:23:14Z</time>
      </trkpt>
      <trkpt lat="45.38459" lon="5.66364">
        <ele>492</ele>
        <time>2015-06-21T07:23:19Z</time>
      </trkpt>
      <trkpt lat="45.38465" lon="5.66353">
        <ele>490</ele>
        <time>2015-06-21T07:23:25Z</time>
      </trkpt>
      <trkpt lat="45.38471" lon="5.66341">
        <ele>489</ele>
        <time>2015-06-21T07:23:31Z</time>
      </trkpt>
      <trkpt lat="45.38479" lon="5.66327">
        <ele>479</ele>
        <time>2015-06-21T07:23:36Z</time>
      </trkpt>
      <trkpt lat="45.38486" lon="5.66319">
        <ele>479</ele>
        <time>2015-06-21T07:23:38Z</time>
      </trkpt>
      <trkpt lat="45.38497" lon="5.66307">
        <ele>478</ele>
        <time>2015-06-21T07:23:41Z</time>
      </trkpt>
      <trkpt lat="45.38504" lon="5.66296">
        <ele>473</ele>
        <time>2015-06-21T07:23:44Z</time>
      </trkpt>
      <trkpt lat="45.38513" lon="5.66282">
        <ele>471</ele>
        <time>2015-06-21T07:23:47Z</time>
      </trkpt>
      <trkpt lat="45.3852" lon="5.66269">
        <ele>471</ele>
        <time>2015-06-21T07:23:49Z</time>
      </trkpt>
      <trkpt lat="45.38529" lon="5.66255">
        <ele>470</ele>
        <time>2015-06-21T07:23:51Z</time>
      </trkpt>
      <trkpt lat="45.38536" lon="5.66245">
        <ele>466</ele>
        <time>2015-06-21T07:23:53Z</time>
      </trkpt>
      <trkpt lat="45.38543" lon="5.6623">
        <ele>465</ele>
        <time>2015-06-21T07:23:56Z</time>
      </trkpt>
      <trkpt lat="45.38547" lon="5.66216">
        <ele>464</ele>
        <time>2015-06-21T07:23:59Z</time>
      </trkpt>
      <trkpt lat="45.38549" lon="5.662">
        <ele>464</ele>
        <time>2015-06-21T07:24:02Z</time>
      </trkpt>
      <trkpt lat="45.38549" lon="5.66181">
        <ele>463</ele>
        <time>2015-06-21T07:24:05Z</time>
      </trkpt>
      <trkpt lat="45.3855" lon="5.66167">
        <ele>463</ele>
        <time>2015-06-21T07:24:07Z</time>
      </trkpt>
      <trkpt lat="45.38552" lon="5.6615">
        <ele>459</ele>
        <time>2015-06-21T07:24:10Z</time>
      </trkpt>
      <trkpt lat="45.38558" lon="5.66136">
        <ele>459</ele>
        <time>2015-06-21T07:24:13Z</time>
      </trkpt>
      <trkpt lat="45.38567" lon="5.66122">
        <ele>458</ele>
        <time>2015-06-21T07:24:16Z</time>
      </trkpt>
      <trkpt lat="45.38573" lon="5.6611">
        <ele>458</ele>
        <time>2015-06-21T07:24:18Z</time>
      </trkpt>
      <trkpt lat="45.38577" lon="5.66097">
        <ele>457</ele>
        <time>2015-06-21T07:24:20Z</time>
      </trkpt>
      <trkpt lat="45.38578" lon="5.66084">
        <ele>456</ele>
        <time>2015-06-21T07:24:22Z</time>
      </trkpt>
      <trkpt lat="45.38577" lon="5.66071">
        <ele>455</ele>
        <time>2015-06-21T07:24:24Z</time>
      </trkpt>
      <trkpt lat="45.38573" lon="5.66059">
        <ele>455</ele>
        <time>2015-06-21T07:24:26Z</time>
      </trkpt>
      <trkpt lat="45.38569" lon="5.66048">
        <ele>454</ele>
        <time>2015-06-21T07:24:28Z</time>
      </trkpt>
      <trkpt lat="45.38562" lon="5.66032">
        <ele>454</ele>
        <time>2015-06-21T07:24:31Z</time>
      </trkpt>
      <trkpt lat="45.38556" lon="5.66018">
        <ele>454</ele>
        <time>2015-06-21T07:24:34Z</time>
      </trkpt>
      <trkpt lat="45.38551" lon="5.66003">
        <ele>453</ele>
        <time>2015-06-21T07:24:37Z</time>
      </trkpt>
      <trkpt lat="45.38546" lon="5.65988">
        <ele>452</ele>
        <time>2015-06-21T07:24:40Z</time>
      </trkpt>
      <trkpt lat="45.38541" lon="5.65972">
        <ele>452</ele>
        <time>2015-06-21T07:24:43Z</time>
      </trkpt>
      <trkpt lat="45.38536" lon="5.65956">
        <ele>452</ele>
        <time>2015-06-21T07:24:46Z</time>
      </trkpt>
      <trkpt lat="45.38532" lon="5.6594">
        <ele>452</ele>
        <time>2015-06-21T07:24:49Z</time>
      </trkpt>
      <trkpt lat="45.38527" lon="5.65925">
        <ele>452</ele>
        <time>2015-06-21T07:24:52Z</time>
      </trkpt>
      <trkpt lat="45.38524" lon="5.6591">
        <ele>451</ele>
        <time>2015-06-21T07:24:55Z</time>
      </trkpt>
      <trkpt lat="45.38521" lon="5.65893">
        <ele>450</ele>
        <time>2015-06-21T07:24:58Z</time>
      </trkpt>
      <trkpt lat="45.38518" lon="5.65876">
        <ele>450</ele>
        <time>2015-06-21T07:25:01Z</time>
      </trkpt>
      <trkpt lat="45.38514" lon="5.65861">
        <ele>450</ele>
        <time>2015-06-21T07:25:04Z</time>
      </trkpt>
      <trkpt lat="45.38508" lon="5.65846">
        <ele>450</ele>
        <time>2015-06-21T07:25:07Z</time>
      </trkpt>
      <trkpt lat="45.38502" lon="5.65831">
        <ele>450</ele>
        <time>2015-06-21T07:25:10Z</time>
      </trkpt>
      <trkpt lat="45.38495" lon="5.65818">
        <ele>450</ele>
        <time>2015-06-21T07:25:13Z</time>
      </trkpt>
      <trkpt lat="45.38488" lon="5.65805">
        <ele>450</ele>
        <time>2015-06-21T07:25:16Z</time>
      </trkpt>
      <trkpt lat="45.38481" lon="5.65792">
        <ele>450</ele>
        <time>2015-06-21T07:25:19Z</time>
      </trkpt>
      <trkpt lat="45.38474" lon="5.65779">
        <ele>450</ele>
        <time>2015-06-21T07:25:22Z</time>
      </trkpt>
      <trkpt lat="45.38466" lon="5.65767">
        <ele>450</ele>
        <time>2015-06-21T07:25:25Z</time>
      </trkpt>
      <trkpt lat="45.38458" lon="5.65754">
        <ele>450</ele>
        <time>2015-06-21T07:25:28Z</time>
      </trkpt>
      <trkpt lat="45.3845" lon="5.65743">
        <ele>450</ele>
        <time>2015-06-21T07:25:31Z</time>
      </trkpt>
      <trkpt lat="45.38438" lon="5.65748">
        <ele>450</ele>
        <time>2015-06-21T07:25:35Z</time>
      </trkpt>
      <trkpt lat="45.3843" lon="5.65756">
        <ele>451</ele>
        <time>2015-06-21T07:25:38Z</time>
      </trkpt>
      <trkpt lat="45.38423" lon="5.65766">
        <ele>451</ele>
        <time>2015-06-21T07:25:41Z</time>
      </trkpt>
      <trkpt lat="45.38415" lon="5.65775">
        <ele>453</ele>
        <time>2015-06-21T07:25:44Z</time>
      </trkpt>
      <trkpt lat="45.38407" lon="5.65784">
        <ele>453</ele>
        <time>2015-06-21T07:25:47Z</time>
      </trkpt>
      <trkpt lat="45.384" lon="5.65793">
        <ele>453</ele>
        <time>2015-06-21T07:25:50Z</time>
      </trkpt>
      <trkpt lat="45.38393" lon="5.65803">
        <ele>454</ele>
        <time>2015-06-21T07:25:53Z</time>
      </trkpt>
      <trkpt lat="45.38386" lon="5.65812">
        <ele>454</ele>
        <time>2015-06-21T07:25:56Z</time>
      </trkpt>
      <trkpt lat="45.38377" lon="5.65822">
        <ele>454</ele>
        <time>2015-06-21T07:26:00Z</time>
      </trkpt>
      <trkpt lat="45.38369" lon="5.65832">
        <ele>454</ele>
        <time>2015-06-21T07:26:04Z</time>
      </trkpt>
      <trkpt lat="45.3836" lon="5.65842">
        <ele>455</ele>
        <time>2015-06-21T07:26:08Z</time>
      </trkpt>
      <trkpt lat="45.38352" lon="5.65851">
        <ele>456</ele>
        <time>2015-06-21T07:26:12Z</time>
      </trkpt>
      <trkpt lat="45.38344" lon="5.6586">
        <ele>456</ele>
        <time>2015-06-21T07:26:16Z</time>
      </trkpt>
      <trkpt lat="45.38336" lon="5.65867">
        <ele>456</ele>
        <time>2015-06-21T07:26:20Z</time>
      </trkpt>
      <trkpt lat="45.38328" lon="5.65877">
        <ele>458</ele>
        <time>2015-06-21T07:26:25Z</time>
      </trkpt>
      <trkpt lat="45.3832" lon="5.65888">
        <ele>458</ele>
        <time>2015-06-21T07:26:30Z</time>
      </trkpt>
      <trkpt lat="45.38312" lon="5.65899">
        <ele>458</ele>
        <time>2015-06-21T07:26:35Z</time>
      </trkpt>
      <trkpt lat="45.38306" lon="5.65909">
        <ele>458</ele>
        <time>2015-06-21T07:26:39Z</time>
      </trkpt>
      <trkpt lat="45.38298" lon="5.65919">
        <ele>460</ele>
        <time>2015-06-21T07:26:44Z</time>
      </trkpt>
      <trkpt lat="45.3829" lon="5.6593">
        <ele>461</ele>
        <time>2015-06-21T07:26:49Z</time>
      </trkpt>
      <trkpt lat="45.38282" lon="5.6594">
        <ele>461</ele>
        <time>2015-06-21T07:26:54Z</time>
      </trkpt>
      <trkpt lat="45.38274" lon="5.6595">
        <ele>462</ele>
        <time>2015-06-21T07:26:59Z</time>
      </trkpt>
      <trkpt lat="45.38266" lon="5.65961">
        <ele>462</ele>
        <time>2015-06-21T07:27:04Z</time>
      </trkpt>
      <trkpt lat="45.38259" lon="5.65969">
        <ele>463</ele>
        <time>2015-06-21T07:27:08Z</time>
      </trkpt>
      <trkpt lat="45.38251" lon="5.6598">
        <ele>463</ele>
        <time>2015-06-21T07:27:13Z</time>
      </trkpt>
      <trkpt lat="45.38245" lon="5.6599">
        <ele>467</ele>
        <time>2015-06-21T07:27:18Z</time>
      </trkpt>
      <trkpt lat="45.38243" lon="5.66004">
        <ele>468</ele>
        <time>2015-06-21T07:27:24Z</time>
      </trkpt>
      <trkpt lat="45.38244" lon="5.66018">
        <ele>470</ele>
        <time>2015-06-21T07:27:30Z</time>
      </trkpt>
      <trkpt lat="45.38244" lon="5.66031">
        <ele>472</ele>
        <time>2015-06-21T07:27:36Z</time>
      </trkpt>
      <trkpt lat="45.38238" lon="5.66041">
        <ele>473</ele>
        <time>2015-06-21T07:27:42Z</time>
      </trkpt>
      <trkpt lat="45.38231" lon="5.66049">
        <ele>474</ele>
        <time>2015-06-21T07:27:48Z</time>
      </trkpt>
      <trkpt lat="45.38224" lon="5.66058">
        <ele>474</ele>
        <time>2015-06-21T07:27:54Z</time>
      </trkpt>
      <trkpt lat="45.38217" lon="5.66068">
        <ele>475</ele>
        <time>2015-06-21T07:28:00Z</time>
      </trkpt>
      <trkpt lat="45.3821" lon="5.66079">
        <ele>476</ele>
        <time>2015-06-21T07:28:06Z</time>
      </trkpt>
      <trkpt lat="45.38203" lon="5.6609">
        <ele>485</ele>
        <time>2015-06-21T07:28:12Z</time>
      </trkpt>
      <trkpt lat="45.38196" lon="5.66099">
        <ele>486</ele>
        <time>2015-06-21T07:28:18Z</time>
      </trkpt>
      <trkpt lat="45.38187" lon="5.66106">
        <ele>487</ele>
        <time>2015-06-21T07:28:24Z</time>
      </trkpt>
      <trkpt lat="45.38176" lon="5.66106">
        <ele>487</ele>
        <time>2015-06-21T07:28:30Z</time>
      </trkpt>
      <trkpt lat="45.38166" lon="5.66105">
        <ele>491</ele>
        <time>2015-06-21T07:28:36Z</time>
      </trkpt>
      <trkpt lat="45.38156" lon="5.66106">
        <ele>492</ele>
        <time>2015-06-21T07:28:44Z</time>
      </trkpt>
      <trkpt lat="45.38147" lon="5.66109">
        <ele>493</ele>
        <time>2015-06-21T07:28:52Z</time>
      </trkpt>
      <trkpt lat="45.38138" lon="5.6611">
        <ele>493</ele>
        <time>2015-06-21T07:28:59Z</time>
      </trkpt>
      <trkpt lat="45.38128" lon="5.66112">
        <ele>494</ele>
        <time>2015-06-21T07:29:07Z</time>
      </trkpt>
      <trkpt lat="45.3812" lon="5.66116">
        <ele>495</ele>
        <time>2015-06-21T07:29:14Z</time>
      </trkpt>
      <trkpt lat="45.3811" lon="5.66119">
        <ele>495</ele>
        <time>2015-06-21T07:29:21Z</time>
      </trkpt>
      <trkpt lat="45.381" lon="5.6612">
        <ele>495</ele>
        <time>2015-06-21T07:29:27Z</time>
      </trkpt>
      <trkpt lat="45.38091" lon="5.66122">
        <ele>496</ele>
        <time>2015-06-21T07:29:32Z</time>
      </trkpt>
      <trkpt lat="45.3808" lon="5.66121">
        <ele>500</ele>
        <time>2015-06-21T07:29:37Z</time>
      </trkpt>
      <trkpt lat="45.38071" lon="5.66119">
        <ele>500</ele>
        <time>2015-06-21T07:29:41Z</time>
      </trkpt>
      <trkpt lat="45.38062" lon="5.66115">
        <ele>500</ele>
        <time>2015-06-21T07:29:46Z</time>
      </trkpt>
      <trkpt lat="45.38051" lon="5.66111">
        <ele>500</ele>
        <time>2015-06-21T07:29:51Z</time>
      </trkpt>
      <trkpt lat="45.3804" lon="5.66108">
        <ele>500</ele>
        <time>2015-06-21T07:29:56Z</time>
      </trkpt>
      <trkpt lat="45.3803" lon="5.66106">
        <ele>500</ele>
        <time>2015-06-21T07:30:00Z</time>
      </trkpt>
      <trkpt lat="45.3802" lon="5.66106">
        <ele>500</ele>
        <time>2015-06-21T07:30:04Z</time>
      </trkpt>
      <trkpt lat="45.38011" lon="5.66105">
        <ele>500</ele>
        <time>2015-06-21T07:30:09Z</time>
      </trkpt>
      <trkpt lat="45.38" lon="5.66105">
        <ele>500</ele>
        <time>2015-06-21T07:30:15Z</time>
      </trkpt>
      <trkpt lat="45.3799" lon="5.66103">
        <ele>505</ele>
        <time>2015-06-21T07:30:20Z</time>
      </trkpt>
      <trkpt lat="45.3798" lon="5.66102">
        <ele>507</ele>
        <time>2015-06-21T07:30:25Z</time>
      </trkpt>
      <trkpt lat="45.3797" lon="5.66102">
        <ele>508</ele>
        <time>2015-06-21T07:30:30Z</time>
      </trkpt>
      <trkpt lat="45.3796" lon="5.66105">
        <ele>509</ele>
        <time>2015-06-21T07:30:35Z</time>
      </trkpt>
      <trkpt lat="45.3795" lon="5.66105">
        <ele>510</ele>
        <time>2015-06-21T07:30:40Z</time>
      </trkpt>
      <trkpt lat="45.3794" lon="5.66104">
        <ele>509</ele>
        <time>2015-06-21T07:30:45Z</time>
      </trkpt>
      <trkpt lat="45.37931" lon="5.66101">
        <ele>508</ele>
        <time>2015-06-21T07:30:50Z</time>
      </trkpt>
      <trkpt lat="45.37921" lon="5.66098">
        <ele>507</ele>
        <time>2015-06-21T07:30:55Z</time>
      </trkpt>
      <trkpt lat="45.37912" lon="5.66096">
        <ele>510</ele>
        <time>2015-06-21T07:31:00Z</time>
      </trkpt>
      <trkpt lat="45.37903" lon="5.66093">
        <ele>512</ele>
        <time>2015-06-21T07:31:05Z</time>
      </trkpt>
      <trkpt lat="45.37893" lon="5.6609">
        <ele>515</ele>
        <time>2015-06-21T07:31:10Z</time>
      </trkpt>
      <trkpt lat="45.37884" lon="5.66088">
        <ele>517</ele>
        <time>2015-06-21T07:31:15Z</time>
      </trkpt>
      <trkpt lat="45.37874" lon="5.66086">
        <ele>518</ele>
        <time>2015-06-21T07:31:21Z</time>
      </trkpt>
      <trkpt lat="45.37864" lon="5.66084">
        <ele>519</ele>
        <time>2015-06-21T07:31:27Z</time>
      </trkpt>
      <trkpt lat="45.37853" lon="5.66082">
        <ele>504</ele>
        <time>2015-06-21T07:31:32Z</time>
      </trkpt>
      <trkpt lat="45.37844" lon="5.66078">
        <ele>507</ele>
        <time>2015-06-21T07:31:37Z</time>
      </trkpt>
      <trkpt lat="45.37835" lon="5.66072">
        <ele>507</ele>
        <time>2015-06-21T07:31:41Z</time>
      </trkpt>
      <trkpt lat="45.37825" lon="5.66065">
        <ele>511</ele>
        <time>2015-06-21T07:31:45Z</time>
      </trkpt>
      <trkpt lat="45.37815" lon="5.6606">
        <ele>510</ele>
        <time>2015-06-21T07:31:48Z</time>
      </trkpt>
      <trkpt lat="45.37806" lon="5.66057">
        <ele>510</ele>
        <time>2015-06-21T07:31:51Z</time>
      </trkpt>
      <trkpt lat="45.37797" lon="5.66052">
        <ele>510</ele>
        <time>2015-06-21T07:31:54Z</time>
      </trkpt>
      <trkpt lat="45.37788" lon="5.66051">
        <ele>511</ele>
        <time>2015-06-21T07:31:57Z</time>
      </trkpt>
      <trkpt lat="45.37777" lon="5.6605">
        <ele>512</ele>
        <time>2015-06-21T07:32:01Z</time>
      </trkpt>
      <trkpt lat="45.37766" lon="5.66046">
        <ele>512</ele>
        <time>2015-06-21T07:32:05Z</time>
      </trkpt>
      <trkpt lat="45.37756" lon="5.66042">
        <ele>511</ele>
        <time>2015-06-21T07:32:09Z</time>
      </trkpt>
      <trkpt lat="45.37746" lon="5.66036">
        <ele>519</ele>
        <time>2015-06-21T07:32:13Z</time>
      </trkpt>
      <trkpt lat="45.37736" lon="5.66031">
        <ele>518</ele>
        <time>2015-06-21T07:32:17Z</time>
      </trkpt>
      <trkpt lat="45.37726" lon="5.66026">
        <ele>518</ele>
        <time>2015-06-21T07:32:21Z</time>
      </trkpt>
      <trkpt lat="45.37717" lon="5.66022">
        <ele>518</ele>
        <time>2015-06-21T07:32:25Z</time>
      </trkpt>
      <trkpt lat="45.37706" lon="5.66016">
        <ele>518</ele>
        <time>2015-06-21T07:32:29Z</time>
      </trkpt>
      <trkpt lat="45.37697" lon="5.66011">
        <ele>518</ele>
        <time>2015-06-21T07:32:32Z</time>
      </trkpt>
      <trkpt lat="45.37688" lon="5.66006">
        <ele>517</ele>
        <time>2015-06-21T07:32:35Z</time>
      </trkpt>
      <trkpt lat="45.37677" lon="5.66004">
        <ele>515</ele>
        <time>2015-06-21T07:32:39Z</time>
      </trkpt>
      <trkpt lat="45.37667" lon="5.66005">
        <ele>513</ele>
        <time>2015-06-21T07:32:44Z</time>
      </trkpt>
      <trkpt lat="45.37658" lon="5.66003">
        <ele>518</ele>
        <time>2015-06-21T07:32:49Z</time>
      </trkpt>
      <trkpt lat="45.37649" lon="5.66004">
        <ele>522</ele>
        <time>2015-06-21T07:32:54Z</time>
      </trkpt>
      <trkpt lat="45.37639" lon="5.66003">
        <ele>525</ele>
        <time>2015-06-21T07:33:02Z</time>
      </trkpt>
      <trkpt lat="45.3763" lon="5.66001">
        <ele>527</ele>
        <time>2015-06-21T07:33:09Z</time>
      </trkpt>
      <trkpt lat="45.37621" lon="5.65997">
        <ele>508</ele>
        <time>2015-06-21T07:33:31Z</time>
      </trkpt>
      <trkpt lat="45.37613" lon="5.6599">
        <ele>508</ele>
        <time>2015-06-21T07:33:55Z</time>
      </trkpt>
      <trkpt lat="45.37604" lon="5.65991">
        <ele>510</ele>
        <time>2015-06-21T07:34:09Z</time>
      </trkpt>
      <trkpt lat="45.37595" lon="5.65992">
        <ele>513</ele>
        <time>2015-06-21T07:34:18Z</time>
      </trkpt>
      <trkpt lat="45.37586" lon="5.65994">
        <ele>517</ele>
        <time>2015-06-21T07:34:30Z</time>
      </trkpt>
      <trkpt lat="45.37578" lon="5.66002">
        <ele>525</ele>
        <time>2015-06-21T07:34:39Z</time>
      </trkpt>
      <trkpt lat="45.37568" lon="5.66007">
        <ele>529</ele>
        <time>2015-06-21T07:34:47Z</time>
      </trkpt>
      <trkpt lat="45.3756" lon="5.65995">
        <ele>514</ele>
        <time>2015-06-21T07:34:52Z</time>
      </trkpt>
      <trkpt lat="45.37553" lon="5.65987">
        <ele>513</ele>
        <time>2015-06-21T07:34:57Z</time>
      </trkpt>
      <trkpt lat="45.37544" lon="5.65982">
        <ele>512</ele>
        <time>2015-06-21T07:35:03Z</time>
      </trkpt>
      <trkpt lat="45.37534" lon="5.65984">
        <ele>512</ele>
        <time>2015-06-21T07:35:07Z</time>
      </trkpt>
      <trkpt lat="45.37525" lon="5.65987">
        <ele>513</ele>
        <time>2015-06-21T07:35:10Z</time>
      </trkpt>
      <trkpt lat="45.37515" lon="5.65987">
        <ele>514</ele>
        <time>2015-06-21T07:35:13Z</time>
      </trkpt>
      <trkpt lat="45.37506" lon="5.65985">
        <ele>515</ele>
        <time>2015-06-21T07:35:16Z</time>
      </trkpt>
      <trkpt lat="45.37497" lon="5.65985">
        <ele>514</ele>
        <time>2015-06-21T07:35:20Z</time>
      </trkpt>
      <trkpt lat="45.37486" lon="5.65981">
        <ele>512</ele>
        <time>2015-06-21T07:35:25Z</time>
      </trkpt>
      <trkpt lat="45.37476" lon="5.65975">
        <ele>509</ele>
        <time>2015-06-21T07:35:29Z</time>
      </trkpt>
      <trkpt lat="45.37466" lon="5.65976">
        <ele>508</ele>
        <time>2015-06-21T07:35:34Z</time>
      </trkpt>
      <trkpt lat="45.37458" lon="5.65981">
        <ele>508</ele>
        <time>2015-06-21T07:35:39Z</time>
      </trkpt>
      <trkpt lat="45.37448" lon="5.65989">
        <ele>509</ele>
        <time>2015-06-21T07:35:44Z</time>
      </trkpt>
      <trkpt lat="45.37438" lon="5.65992">
        <ele>510</ele>
        <time>2015-06-21T07:35:50Z</time>
      </trkpt>
      <trkpt lat="45.37426" lon="5.65993">
        <ele>511</ele>
        <time>2015-06-21T07:35:54Z</time>
      </trkpt>
      <trkpt lat="45.37417" lon="5.65991">
        <ele>512</ele>
        <time>2015-06-21T07:35:58Z</time>
      </trkpt>
      <trkpt lat="45.3741" lon="5.65983">
        <ele>500</ele>
        <time>2015-06-21T07:36:04Z</time>
      </trkpt>
      <trkpt lat="45.37399" lon="5.6599">
        <ele>499</ele>
        <time>2015-06-21T07:36:09Z</time>
      </trkpt>
      <trkpt lat="45.37391" lon="5.65999">
        <ele>497</ele>
        <time>2015-06-21T07:36:13Z</time>
      </trkpt>
      <trkpt lat="45.37384" lon="5.6601">
        <ele>514</ele>
        <time>2015-06-21T07:36:16Z</time>
      </trkpt>
      <trkpt lat="45.37376" lon="5.66018">
        <ele>514</ele>
        <time>2015-06-21T07:36:18Z</time>
      </trkpt>
      <trkpt lat="45.37368" lon="5.66026">
        <ele>514</ele>
        <time>2015-06-21T07:36:20Z</time>
      </trkpt>
      <trkpt lat="45.37361" lon="5.66036">
        <ele>515</ele>
        <time>2015-06-21T07:36:22Z</time>
      </trkpt>
      <trkpt lat="45.3735" lon="5.66047">
        <ele>516</ele>
        <time>2015-06-21T07:36:25Z</time>
      </trkpt>
      <trkpt lat="45.37342" lon="5.66053">
        <ele>517</ele>
        <time>2015-06-21T07:36:27Z</time>
      </trkpt>
      <trkpt lat="45.37333" lon="5.66058">
        <ele>503</ele>
        <time>2015-06-21T07:36:30Z</time>
      </trkpt>
      <trkpt lat="45.37321" lon="5.66063">
        <ele>503</ele>
        <time>2015-06-21T07:36:34Z</time>
      </trkpt>
      <trkpt lat="45.37311" lon="5.66068">
        <ele>502</ele>
        <time>2015-06-21T07:36:37Z</time>
      </trkpt>
      <trkpt lat="45.37301" lon="5.66074">
        <ele>500</ele>
        <time>2015-06-21T07:36:40Z</time>
      </trkpt>
      <trkpt lat="45.37291" lon="5.6608">
        <ele>498</ele>
        <time>2015-06-21T07:36:44Z</time>
      </trkpt>
      <trkpt lat="45.37281" lon="5.66088">
        <ele>517</ele>
        <time>2015-06-21T07:36:48Z</time>
      </trkpt>
      <trkpt lat="45.37272" lon="5.66094">
        <ele>515</ele>
        <time>2015-06-21T07:36:51Z</time>
      </trkpt>
      <trkpt lat="45.37263" lon="5.661">
        <ele>514</ele>
        <time>2015-06-21T07:36:54Z</time>
      </trkpt>
      <trkpt lat="45.37255" lon="5.66105">
        <ele>514</ele>
        <time>2015-06-21T07:36:57Z</time>
      </trkpt>
      <trkpt lat="45.37246" lon="5.6611">
        <ele>505</ele>
        <time>2015-06-21T07:37:01Z</time>
      </trkpt>
      <trkpt lat="45.37237" lon="5.66118">
        <ele>507</ele>
        <time>2015-06-21T07:37:06Z</time>
      </trkpt>
      <trkpt lat="45.37229" lon="5.66128">
        <ele>509</ele>
        <time>2015-06-21T07:37:12Z</time>
      </trkpt>
      <trkpt lat="45.37221" lon="5.66137">
        <ele>510</ele>
        <time>2015-06-21T07:37:18Z</time>
      </trkpt>
      <trkpt lat="45.37214" lon="5.66146">
        <ele>511</ele>
        <time>2015-06-21T07:37:23Z</time>
      </trkpt>
      <trkpt lat="45.37207" lon="5.66158">
        <ele>512</ele>
        <time>2015-06-21T07:37:29Z</time>
      </trkpt>
      <trkpt lat="45.37199" lon="5.66168">
        <ele>528</ele>
        <time>2015-06-21T07:37:34Z</time>
      </trkpt>
      <trkpt lat="45.37195" lon="5.66181">
        <ele>529</ele>
        <time>2015-06-21T07:37:41Z</time>
      </trkpt>
      <trkpt lat="45.37192" lon="5.66195">
        <ele>530</ele>
        <time>2015-06-21T07:37:50Z</time>
      </trkpt>
      <trkpt lat="45.37191" lon="5.66208">
        <ele>532</ele>
        <time>2015-06-21T07:37:58Z</time>
      </trkpt>
      <trkpt lat="45.37189" lon="5.66221">
        <ele>533</ele>
        <time>2015-06-21T07:38:08Z</time>
      </trkpt>
      <trkpt lat="45.37185" lon="5.66233">
        <ele>534</ele>
        <time>2015-06-21T07:38:22Z</time>
      </trkpt>
      <trkpt lat="45.37178" lon="5.66242">
        <ele>535</ele>
        <time>2015-06-21T07:38:29Z</time>
      </trkpt>
      <trkpt lat="45.37171" lon="5.6625">
        <ele>535</ele>
        <time>2015-06-21T07:38:34Z</time>
      </trkpt>
      <trkpt lat="45.37162" lon="5.66255">
        <ele>533</ele>
        <time>2015-06-21T07:38:38Z</time>
      </trkpt>
      <trkpt lat="45.37155" lon="5.66264">
        <ele>531</ele>
        <time>2015-06-21T07:38:42Z</time>
      </trkpt>
      <trkpt lat="45.37148" lon="5.66273">
        <ele>530</ele>
        <time>2015-06-21T07:38:48Z</time>
      </trkpt>
      <trkpt lat="45.37141" lon="5.66281">
        <ele>529</ele>
        <time>2015-06-21T07:38:55Z</time>
      </trkpt>
      <trkpt lat="45.37133" lon="5.66289">
        <ele>528</ele>
        <time>2015-06-21T07:38:59Z</time>
      </trkpt>
      <trkpt lat="45.37124" lon="5.66298">
        <ele>527</ele>
        <time>2015-06-21T07:39:02Z</time>
      </trkpt>
      <trkpt lat="45.37117" lon="5.66307">
        <ele>526</ele>
        <time>2015-06-21T07:39:05Z</time>
      </trkpt>
      <trkpt lat="45.37109" lon="5.66317">
        <ele>524</ele>
        <time>2015-06-21T07:39:09Z</time>
      </trkpt>
      <trkpt lat="45.37101" lon="5.66324">
        <ele>522</ele>
        <time>2015-06-21T07:39:12Z</time>
      </trkpt>
      <trkpt lat="45.37092" lon="5.66336">
        <ele>524</ele>
        <time>2015-06-21T07:39:15Z</time>
      </trkpt>
      <trkpt lat="45.37083" lon="5.66346">
        <ele>512</ele>
        <time>2015-06-21T07:39:18Z</time>
      </trkpt>
      <trkpt lat="45.37072" lon="5.66359">
        <ele>511</ele>
        <time>2015-06-21T07:39:21Z</time>
      </trkpt>
      <trkpt lat="45.37064" lon="5.66369">
        <ele>510</ele>
        <time>2015-06-21T07:39:23Z</time>
      </trkpt>
      <trkpt lat="45.37058" lon="5.66378">
        <ele>510</ele>
        <time>2015-06-21T07:39:25Z</time>
      </trkpt>
      <trkpt lat="45.37051" lon="5.66388">
        <ele>510</ele>
        <time>2015-06-21T07:39:28Z</time>
      </trkpt>
      <trkpt lat="45.37043" lon="5.66399">
        <ele>509</ele>
        <time>2015-06-21T07:39:32Z</time>
      </trkpt>
      <trkpt lat="45.37038" lon="5.6641">
        <ele>509</ele>
        <time>2015-06-21T07:39:35Z</time>
      </trkpt>
      <trkpt lat="45.37032" lon="5.66424">
        <ele>517</ele>
        <time>2015-06-21T07:39:39Z</time>
      </trkpt>
      <trkpt lat="45.37026" lon="5.66436">
        <ele>517</ele>
        <time>2015-06-21T07:39:42Z</time>
      </trkpt>
      <trkpt lat="45.3702" lon="5.66449">
        <ele>517</ele>
        <time>2015-06-21T07:39:46Z</time>
      </trkpt>
      <trkpt lat="45.37014" lon="5.66458">
        <ele>518</ele>
        <time>2015-06-21T07:39:49Z</time>
      </trkpt>
      <trkpt lat="45.37007" lon="5.6647">
        <ele>518</ele>
        <time>2015-06-21T07:39:52Z</time>
      </trkpt>
      <trkpt lat="45.37004" lon="5.66485">
        <ele>517</ele>
        <time>2015-06-21T07:39:55Z</time>
      </trkpt>
      <trkpt lat="45.37002" lon="5.66497">
        <ele>514</ele>
        <time>2015-06-21T07:39:58Z</time>
      </trkpt>
      <trkpt lat="45.37005" lon="5.66512">
        <ele>522</ele>
        <time>2015-06-21T07:40:01Z</time>
      </trkpt>
      <trkpt lat="45.37011" lon="5.66525">
        <ele>528</ele>
        <time>2015-06-21T07:40:04Z</time>
      </trkpt>
      <trkpt lat="45.37021" lon="5.66539">
        <ele>532</ele>
        <time>2015-06-21T07:40:07Z</time>
      </trkpt>
      <trkpt lat="45.37029" lon="5.66547">
        <ele>534</ele>
        <time>2015-06-21T07:40:10Z</time>
      </trkpt>
      <trkpt lat="45.37038" lon="5.66556">
        <ele>536</ele>
        <time>2015-06-21T07:40:15Z</time>
      </trkpt>
      <trkpt lat="45.37045" lon="5.66566">
        <ele>537</ele>
        <time>2015-06-21T07:40:18Z</time>
      </trkpt>
      <trkpt lat="45.37053" lon="5.66579">
        <ele>538</ele>
        <time>2015-06-21T07:40:21Z</time>
      </trkpt>
      <trkpt lat="45.3706" lon="5.6659">
        <ele>551</ele>
        <time>2015-06-21T07:40:23Z</time>
      </trkpt>
      <trkpt lat="45.37067" lon="5.66599">
        <ele>551</ele>
        <time>2015-06-21T07:40:25Z</time>
      </trkpt>
      <trkpt lat="45.37074" lon="5.66608">
        <ele>553</ele>
        <time>2015-06-21T07:40:28Z</time>
      </trkpt>
      <trkpt lat="45.37082" lon="5.6662">
        <ele>555</ele>
        <time>2015-06-21T07:40:33Z</time>
      </trkpt>
      <trkpt lat="45.37088" lon="5.66632">
        <ele>554</ele>
        <time>2015-06-21T07:40:37Z</time>
      </trkpt>
      <trkpt lat="45.37095" lon="5.66643">
        <ele>555</ele>
        <time>2015-06-21T07:40:42Z</time>
      </trkpt>
      <trkpt lat="45.37101" lon="5.66655">
        <ele>556</ele>
        <time>2015-06-21T07:40:47Z</time>
      </trkpt>
      <trkpt lat="45.37107" lon="5.66666">
        <ele>555</ele>
        <time>2015-06-21T07:40:52Z</time>
      </trkpt>
      <trkpt lat="45.37113" lon="5.66677">
        <ele>559</ele>
        <time>2015-06-21T07:40:58Z</time>
      </trkpt>
      <trkpt lat="45.37119" lon="5.66689">
        <ele>559</ele>
        <time>2015-06-21T07:41:04Z</time>
      </trkpt>
      <trkpt lat="45.37125" lon="5.667">
        <ele>560</ele>
        <time>2015-06-21T07:41:10Z</time>
      </trkpt>
      <trkpt lat="45.37132" lon="5.66708">
        <ele>559</ele>
        <time>2015-06-21T07:41:18Z</time>
      </trkpt>
      <trkpt lat="45.37139" lon="5.66717">
        <ele>559</ele>
        <time>2015-06-21T07:41:28Z</time>
      </trkpt>
      <trkpt lat="45.37147" lon="5.66724">
        <ele>557</ele>
        <time>2015-06-21T07:41:42Z</time>
      </trkpt>
      <trkpt lat="45.37152" lon="5.66736">
        <ele>556</ele>
        <time>2015-06-21T07:41:54Z</time>
      </trkpt>
      <trkpt lat="45.3716" lon="5.66742">
        <ele>553</ele>
        <time>2015-06-21T07:42:02Z</time>
      </trkpt>
      <trkpt lat="45.37169" lon="5.6675">
        <ele>549</ele>
        <time>2015-06-21T07:42:10Z</time>
      </trkpt>
      <trkpt lat="45.37178" lon="5.66756">
        <ele>548</ele>
        <time>2015-06-21T07:42:20Z</time>
      </trkpt>
      <trkpt lat="45.37187" lon="5.66759">
        <ele>548</ele>
        <time>2015-06-21T07:42:26Z</time>
      </trkpt>
      <trkpt lat="45.37194" lon="5.6677">
        <ele>547</ele>
        <time>2015-06-21T07:42:33Z</time>
      </trkpt>
      <trkpt lat="45.37202" lon="5.66778">
        <ele>546</ele>
        <time>2015-06-21T07:42:38Z</time>
      </trkpt>
      <trkpt lat="45.37208" lon="5.66789">
        <ele>546</ele>
        <time>2015-06-21T07:42:43Z</time>
      </trkpt>
      <trkpt lat="45.37215" lon="5.66799">
        <ele>545</ele>
        <time>2015-06-21T07:42:48Z</time>
      </trkpt>
      <trkpt lat="45.37224" lon="5.66809">
        <ele>543</ele>
        <time>2015-06-21T07:42:53Z</time>
      </trkpt>
      <trkpt lat="45.37232" lon="5.66816">
        <ele>540</ele>
        <time>2015-06-21T07:42:57Z</time>
      </trkpt>
      <trkpt lat="45.3724" lon="5.66825">
        <ele>536</ele>
        <time>2015-06-21T07:43:02Z</time>
      </trkpt>
      <trkpt lat="45.37248" lon="5.66831">
        <ele>530</ele>
        <time>2015-06-21T07:43:07Z</time>
      </trkpt>
      <trkpt lat="45.37257" lon="5.66834">
        <ele>529</ele>
        <time>2015-06-21T07:43:13Z</time>
      </trkpt>
      <trkpt lat="45.37255" lon="5.66848">
        <ele>530</ele>
        <time>2015-06-21T07:43:22Z</time>
      </trkpt>
      <trkpt lat="45.37252" lon="5.66863">
        <ele>531</ele>
        <time>2015-06-21T07:43:29Z</time>
      </trkpt>
      <trkpt lat="45.3725" lon="5.66877">
        <ele>542</ele>
        <time>2015-06-21T07:43:36Z</time>
      </trkpt>
      <trkpt lat="45.37248" lon="5.6689">
        <ele>542</ele>
        <time>2015-06-21T07:43:48Z</time>
      </trkpt>
      <trkpt lat="45.37247" lon="5.66903">
        <ele>539</ele>
        <time>2015-06-21T07:44:03Z</time>
      </trkpt>
      <trkpt lat="45.37242" lon="5.66914">
        <ele>537</ele>
        <time>2015-06-21T07:44:25Z</time>
      </trkpt>
      <trkpt lat="45.37239" lon="5.66926">
        <ele>541</ele>
        <time>2015-06-21T07:44:45Z</time>
      </trkpt>
      <trkpt lat="45.37239" lon="5.66939">
        <ele>544</ele>
        <time>2015-06-21T07:44:58Z</time>
      </trkpt>
      <trkpt lat="45.37243" lon="5.66952">
        <ele>545</ele>
        <time>2015-06-21T07:45:09Z</time>
      </trkpt>
      <trkpt lat="45.37248" lon="5.66963">
        <ele>546</ele>
        <time>2015-06-21T07:45:14Z</time>
      </trkpt>
      <trkpt lat="45.37252" lon="5.66975">
        <ele>538</ele>
        <time>2015-06-21T07:45:19Z</time>
      </trkpt>
      <trkpt lat="45.37256" lon="5.6699">
        <ele>539</ele>
        <time>2015-06-21T07:45:24Z</time>
      </trkpt>
      <trkpt lat="45.37255" lon="5.67003">
        <ele>541</ele>
        <time>2015-06-21T07:45:29Z</time>
      </trkpt>
      <trkpt lat="45.37259" lon="5.67017">
        <ele>542</ele>
        <time>2015-06-21T07:45:35Z</time>
      </trkpt>
      <trkpt lat="45.37264" lon="5.67031">
        <ele>542</ele>
        <time>2015-06-21T07:45:42Z</time>
      </trkpt>
      <trkpt lat="45.37264" lon="5.67044">
        <ele>543</ele>
        <time>2015-06-21T07:45:47Z</time>
      </trkpt>
      <trkpt lat="45.37262" lon="5.67059">
        <ele>543</ele>
        <time>2015-06-21T07:45:52Z</time>
      </trkpt>
      <trkpt lat="45.3726" lon="5.67073">
        <ele>543</ele>
        <time>2015-06-21T07:45:57Z</time>
      </trkpt>
      <trkpt lat="45.3726" lon="5.67087">
        <ele>544</ele>
        <time>2015-06-21T07:46:03Z</time>
      </trkpt>
      <trkpt lat="45.37258" lon="5.671">
        <ele>545</ele>
        <time>2015-06-21T07:46:07Z</time>
      </trkpt>
      <trkpt lat="45.37253" lon="5.67112">
        <ele>545</ele>
        <time>2015-06-21T07:46:11Z</time>
      </trkpt>
      <trkpt lat="45.37251" lon="5.67125">
        <ele>546</ele>
        <time>2015-06-21T07:46:17Z</time>
      </trkpt>
      <trkpt lat="45.37247" lon="5.67139">
        <ele>547</ele>
        <time>2015-06-21T07:46:23Z</time>
      </trkpt>
      <trkpt lat="45.37246" lon="5.67153">
        <ele>547</ele>
        <time>2015-06-21T07:46:30Z</time>
      </trkpt>
      <trkpt lat="45.37242" lon="5.67166">
        <ele>547</ele>
        <time>2015-06-21T07:46:35Z</time>
      </trkpt>
      <trkpt lat="45.37241" lon="5.6718">
        <ele>546</ele>
        <time>2015-06-21T07:46:40Z</time>
      </trkpt>
      <trkpt lat="45.37241" lon="5.67194">
        <ele>546</ele>
        <time>2015-06-21T07:46:46Z</time>
      </trkpt>
      <trkpt lat="45.37234" lon="5.67205">
        <ele>546</ele>
        <time>2015-06-21T07:46:52Z</time>
      </trkpt>
      <trkpt lat="45.3723" lon="5.67217">
        <ele>546</ele>
        <time>2015-06-21T07:46:57Z</time>
      </trkpt>
      <trkpt lat="45.37228" lon="5.67232">
        <ele>545</ele>
        <time>2015-06-21T07:47:03Z</time>
      </trkpt>
      <trkpt lat="45.37222" lon="5.67242">
        <ele>545</ele>
        <time>2015-06-21T07:47:09Z</time>
      </trkpt>
      <trkpt lat="45.37212" lon="5.67243">
        <ele>545</ele>
        <time>2015-06-21T07:47:18Z</time>
      </trkpt>
      <trkpt lat="45.37203" lon="5.67246">
        <ele>545</ele>
        <time>2015-06-21T07:47:28Z</time>
      </trkpt>
      <trkpt lat="45.37193" lon="5.67244">
        <ele>545</ele>
        <time>2015-06-21T07:47:36Z</time>
      </trkpt>
      <trkpt lat="45.37184" lon="5.67242">
        <ele>545</ele>
        <time>2015-06-21T07:47:43Z</time>
      </trkpt>
      <trkpt lat="45.37175" lon="5.6724">
        <ele>545</ele>
        <time>2015-06-21T07:47:49Z</time>
      </trkpt>
      <trkpt lat="45.37165" lon="5.67237">
        <ele>545</ele>
        <time>2015-06-21T07:47:55Z</time>
      </trkpt>
      <trkpt lat="45.37155" lon="5.67236">
        <ele>546</ele>
        <time>2015-06-21T07:47:59Z</time>
      </trkpt>
      <trkpt lat="45.37146" lon="5.67231">
        <ele>547</ele>
        <time>2015-06-21T07:48:03Z</time>
      </trkpt>
      <trkpt lat="45.37139" lon="5.67221">
        <ele>548</ele>
        <time>2015-06-21T07:48:08Z</time>
      </trkpt>
      <trkpt lat="45.37137" lon="5.67208">
        <ele>548</ele>
        <time>2015-06-21T07:48:14Z</time>
      </trkpt>
      <trkpt lat="45.37136" lon="5.67195">
        <ele>549</ele>
        <time>2015-06-21T07:48:21Z</time>
      </trkpt>
      <trkpt lat="45.37135" lon="5.67182">
        <ele>550</ele>
        <time>2015-06-21T07:48:27Z</time>
      </trkpt>
      <trkpt lat="45.37135" lon="5.67168">
        <ele>551</ele>
        <time>2015-06-21T07:48:33Z</time>
      </trkpt>
      <trkpt lat="45.37133" lon="5.67154">
        <ele>556</ele>
        <time>2015-06-21T07:48:40Z</time>
      </trkpt>
      <trkpt lat="45.3713" lon="5.67141">
        <ele>556</ele>
        <time>2015-06-21T07:48:47Z</time>
      </trkpt>
      <trkpt lat="45.37126" lon="5.67128">
        <ele>557</ele>
        <time>2015-06-21T07:48:54Z</time>
      </trkpt>
      <trkpt lat="45.37121" lon="5.67116">
        <ele>557</ele>
        <time>2015-06-21T07:49:00Z</time>
      </trkpt>
      <trkpt lat="45.37111" lon="5.67112">
        <ele>558</ele>
        <time>2015-06-21T07:49:06Z</time>
      </trkpt>
      <trkpt lat="45.37101" lon="5.67109">
        <ele>559</ele>
        <time>2015-06-21T07:49:12Z</time>
      </trkpt>
      <trkpt lat="45.37092" lon="5.67109">
        <ele>559</ele>
        <time>2015-06-21T07:49:18Z</time>
      </trkpt>
      <trkpt lat="45.37081" lon="5.67109">
        <ele>563</ele>
        <time>2015-06-21T07:49:23Z</time>
      </trkpt>
      <trkpt lat="45.3707" lon="5.67107">
        <ele>564</ele>
        <time>2015-06-21T07:49:27Z</time>
      </trkpt>
      <trkpt lat="45.37059" lon="5.67105">
        <ele>564</ele>
        <time>2015-06-21T07:49:30Z</time>
      </trkpt>
      <trkpt lat="45.37047" lon="5.67107">
        <ele>564</ele>
        <time>2015-06-21T07:49:33Z</time>
      </trkpt>
      <trkpt lat="45.37037" lon="5.67107">
        <ele>565</ele>
        <time>2015-06-21T07:49:36Z</time>
      </trkpt>
      <trkpt lat="45.37026" lon="5.67109">
        <ele>565</ele>
        <time>2015-06-21T07:49:40Z</time>
      </trkpt>
      <trkpt lat="45.37017" lon="5.67112">
        <ele>565</ele>
        <time>2015-06-21T07:49:44Z</time>
      </trkpt>
      <trkpt lat="45.37007" lon="5.67114">
        <ele>565</ele>
        <time>2015-06-21T07:49:49Z</time>
      </trkpt>
      <trkpt lat="45.36997" lon="5.6712">
        <ele>570</ele>
        <time>2015-06-21T07:49:54Z</time>
      </trkpt>
      <trkpt lat="45.36989" lon="5.67125">
        <ele>570</ele>
        <time>2015-06-21T07:49:58Z</time>
      </trkpt>
      <trkpt lat="45.3698" lon="5.67129">
        <ele>570</ele>
        <time>2015-06-21T07:50:03Z</time>
      </trkpt>
      <trkpt lat="45.36974" lon="5.67139">
        <ele>570</ele>
        <time>2015-06-21T07:50:09Z</time>
      </trkpt>
      <trkpt lat="45.36966" lon="5.67148">
        <ele>570</ele>
        <time>2015-06-21T07:50:14Z</time>
      </trkpt>
      <trkpt lat="45.36958" lon="5.67162">
        <ele>570</ele>
        <time>2015-06-21T07:50:18Z</time>
      </trkpt>
      <trkpt lat="45.36954" lon="5.67174">
        <ele>561</ele>
        <time>2015-06-21T07:50:22Z</time>
      </trkpt>
      <trkpt lat="45.36962" lon="5.6718">
        <ele>559</ele>
        <time>2015-06-21T07:50:31Z</time>
      </trkpt>
      <trkpt lat="45.36958" lon="5.67192">
        <ele>559</ele>
        <time>2015-06-21T07:50:36Z</time>
      </trkpt>
      <trkpt lat="45.36956" lon="5.67205">
        <ele>558</ele>
        <time>2015-06-21T07:50:42Z</time>
      </trkpt>
      <trkpt lat="45.36963" lon="5.67213">
        <ele>557</ele>
        <time>2015-06-21T07:50:47Z</time>
      </trkpt>
      <trkpt lat="45.36957" lon="5.67226">
        <ele>556</ele>
        <time>2015-06-21T07:50:53Z</time>
      </trkpt>
      <trkpt lat="45.36947" lon="5.67232">
        <ele>556</ele>
        <time>2015-06-21T07:50:57Z</time>
      </trkpt>
      <trkpt lat="45.36938" lon="5.67241">
        <ele>555</ele>
        <time>2015-06-21T07:51:02Z</time>
      </trkpt>
      <trkpt lat="45.36929" lon="5.67246">
        <ele>555</ele>
        <time>2015-06-21T07:51:05Z</time>
      </trkpt>
      <trkpt lat="45.36921" lon="5.67257">
        <ele>549</ele>
        <time>2015-06-21T07:51:09Z</time>
      </trkpt>
      <trkpt lat="45.36911" lon="5.67267">
        <ele>550</ele>
        <time>2015-06-21T07:51:13Z</time>
      </trkpt>
      <trkpt lat="45.36901" lon="5.67272">
        <ele>549</ele>
        <time>2015-06-21T07:51:16Z</time>
      </trkpt>
      <trkpt lat="45.36894" lon="5.67281">
        <ele>548</ele>
        <time>2015-06-21T07:51:19Z</time>
      </trkpt>
      <trkpt lat="45.36887" lon="5.6729">
        <ele>548</ele>
        <time>2015-06-21T07:51:22Z</time>
      </trkpt>
      <trkpt lat="45.36878" lon="5.67298">
        <ele>547</ele>
        <time>2015-06-21T07:51:25Z</time>
      </trkpt>
      <trkpt lat="45.36868" lon="5.67304">
        <ele>547</ele>
        <time>2015-06-21T07:51:29Z</time>
      </trkpt>
      <trkpt lat="45.36859" lon="5.67312">
        <ele>546</ele>
        <time>2015-06-21T07:51:32Z</time>
      </trkpt>
      <trkpt lat="45.36853" lon="5.67325">
        <ele>545</ele>
        <time>2015-06-21T07:51:36Z</time>
      </trkpt>
      <trkpt lat="45.36846" lon="5.67336">
        <ele>539</ele>
        <time>2015-06-21T07:51:39Z</time>
      </trkpt>
      <trkpt lat="45.36845" lon="5.67351">
        <ele>537</ele>
        <time>2015-06-21T07:51:42Z</time>
      </trkpt>
      <trkpt lat="45.36844" lon="5.67366">
        <ele>536</ele>
        <time>2015-06-21T07:51:45Z</time>
      </trkpt>
      <trkpt lat="45.36843" lon="5.67379">
        <ele>534</ele>
        <time>2015-06-21T07:51:49Z</time>
      </trkpt>
      <trkpt lat="45.36835" lon="5.67389">
        <ele>534</ele>
        <time>2015-06-21T07:51:53Z</time>
      </trkpt>
      <trkpt lat="45.3683" lon="5.674">
        <ele>534</ele>
        <time>2015-06-21T07:51:56Z</time>
      </trkpt>
      <trkpt lat="45.36826" lon="5.67414">
        <ele>533</ele>
        <time>2015-06-21T07:52:00Z</time>
      </trkpt>
      <trkpt lat="45.36822" lon="5.67429">
        <ele>529</ele>
        <time>2015-06-21T07:52:03Z</time>
      </trkpt>
      <trkpt lat="45.36817" lon="5.67441">
        <ele>527</ele>
        <time>2015-06-21T07:52:05Z</time>
      </trkpt>
      <trkpt lat="45.36812" lon="5.67457">
        <ele>526</ele>
        <time>2015-06-21T07:52:07Z</time>
      </trkpt>
      <trkpt lat="45.36808" lon="5.67468">
        <ele>525</ele>
        <time>2015-06-21T07:52:10Z</time>
      </trkpt>
      <trkpt lat="45.36809" lon="5.67481">
        <ele>524</ele>
        <time>2015-06-21T07:52:14Z</time>
      </trkpt>
      <trkpt lat="45.36815" lon="5.67492">
        <ele>524</ele>
        <time>2015-06-21T07:52:18Z</time>
      </trkpt>
      <trkpt lat="45.36823" lon="5.67505">
        <ele>518</ele>
        <time>2015-06-21T07:52:21Z</time>
      </trkpt>
      <trkpt lat="45.36828" lon="5.6752">
        <ele>516</ele>
        <time>2015-06-21T07:52:24Z</time>
      </trkpt>
      <trkpt lat="45.36832" lon="5.67533">
        <ele>514</ele>
        <time>2015-06-21T07:52:28Z</time>
      </trkpt>
      <trkpt lat="45.36836" lon="5.67545">
        <ele>509</ele>
        <time>2015-06-21T07:52:31Z</time>
      </trkpt>
      <trkpt lat="45.36843" lon="5.67556">
        <ele>507</ele>
        <time>2015-06-21T07:52:34Z</time>
      </trkpt>
      <trkpt lat="45.3685" lon="5.67564">
        <ele>507</ele>
        <time>2015-06-21T07:52:42Z</time>
      </trkpt>
      <trkpt lat="45.3686" lon="5.67567">
        <ele>506</ele>
        <time>2015-06-21T07:52:48Z</time>
      </trkpt>
      <trkpt lat="45.36871" lon="5.67571">
        <ele>506</ele>
        <time>2015-06-21T07:52:53Z</time>
      </trkpt>
      <trkpt lat="45.36882" lon="5.67573">
        <ele>505</ele>
        <time>2015-06-21T07:52:58Z</time>
      </trkpt>
      <trkpt lat="45.36892" lon="5.67577">
        <ele>503</ele>
        <time>2015-06-21T07:53:03Z</time>
      </trkpt>
      <trkpt lat="45.36901" lon="5.67587">
        <ele>494</ele>
        <time>2015-06-21T07:53:09Z</time>
      </trkpt>
      <trkpt lat="45.36904" lon="5.67599">
        <ele>493</ele>
        <time>2015-06-21T07:53:12Z</time>
      </trkpt>
      <trkpt lat="45.36902" lon="5.67612">
        <ele>491</ele>
        <time>2015-06-21T07:53:17Z</time>
      </trkpt>
      <trkpt lat="45.36903" lon="5.67627">
        <ele>489</ele>
        <time>2015-06-21T07:53:21Z</time>
      </trkpt>
      <trkpt lat="45.36902" lon="5.67642">
        <ele>487</ele>
        <time>2015-06-21T07:53:24Z</time>
      </trkpt>
      <trkpt lat="45.36897" lon="5.67657">
        <ele>485</ele>
        <time>2015-06-21T07:53:27Z</time>
      </trkpt>
      <trkpt lat="45.36893" lon="5.6767">
        <ele>476</ele>
        <time>2015-06-21T07:53:32Z</time>
      </trkpt>
      <trkpt lat="45.36894" lon="5.67684">
        <ele>475</ele>
        <time>2015-06-21T07:53:37Z</time>
      </trkpt>
      <trkpt lat="45.36894" lon="5.67697">
        <ele>474</ele>
        <time>2015-06-21T07:53:42Z</time>
      </trkpt>
      <trkpt lat="45.36889" lon="5.67709">
        <ele>473</ele>
        <time>2015-06-21T07:53:47Z</time>
      </trkpt>
      <trkpt lat="45.36881" lon="5.67715">
        <ele>473</ele>
        <time>2015-06-21T07:53:54Z</time>
      </trkpt>
      <trkpt lat="45.36872" lon="5.67715">
        <ele>473</ele>
        <time>2015-06-21T07:54:09Z</time>
      </trkpt>
      <trkpt lat="45.36863" lon="5.6772">
        <ele>473</ele>
        <time>2015-06-21T07:54:18Z</time>
      </trkpt>
      <trkpt lat="45.36858" lon="5.67731">
        <ele>472</ele>
        <time>2015-06-21T07:54:23Z</time>
      </trkpt>
      <trkpt lat="45.36848" lon="5.67733">
        <ele>472</ele>
        <time>2015-06-21T07:54:28Z</time>
      </trkpt>
      <trkpt lat="45.36838" lon="5.67734">
        <ele>472</ele>
        <time>2015-06-21T07:54:33Z</time>
      </trkpt>
      <trkpt lat="45.36828" lon="5.67737">
        <ele>471</ele>
        <time>2015-06-21T07:54:38Z</time>
      </trkpt>
      <trkpt lat="45.3682" lon="5.67746">
        <ele>471</ele>
        <time>2015-06-21T07:54:44Z</time>
      </trkpt>
      <trkpt lat="45.36814" lon="5.67756">
        <ele>462</ele>
        <time>2015-06-21T07:54:49Z</time>
      </trkpt>
      <trkpt lat="45.36807" lon="5.67767">
        <ele>460</ele>
        <time>2015-06-21T07:54:54Z</time>
      </trkpt>
      <trkpt lat="45.36801" lon="5.67779">
        <ele>458</ele>
        <time>2015-06-21T07:55:01Z</time>
      </trkpt>
      <trkpt lat="45.36796" lon="5.67792">
        <ele>456</ele>
        <time>2015-06-21T07:55:06Z</time>
      </trkpt>
      <trkpt lat="45.36792" lon="5.67806">
        <ele>454</ele>
        <time>2015-06-21T07:55:12Z</time>
      </trkpt>
      <trkpt lat="45.36789" lon="5.67818">
        <ele>452</ele>
        <time>2015-06-21T07:55:20Z</time>
      </trkpt>
      <trkpt lat="45.36783" lon="5.67828">
        <ele>451</ele>
        <time>2015-06-21T07:55:28Z</time>
      </trkpt>
      <trkpt lat="45.36777" lon="5.67841">
        <ele>439</ele>
        <time>2015-06-21T07:55:33Z</time>
      </trkpt>
      <trkpt lat="45.36768" lon="5.67841">
        <ele>439</ele>
        <time>2015-06-21T07:55:37Z</time>
      </trkpt>
      <trkpt lat="45.36759" lon="5.67845">
        <ele>439</ele>
        <time>2015-06-21T07:55:41Z</time>
      </trkpt>
      <trkpt lat="45.36763" lon="5.67859">
        <ele>438</ele>
        <time>2015-06-21T07:55:46Z</time>
      </trkpt>
      <trkpt lat="45.36771" lon="5.67865">
        <ele>437</ele>
        <time>2015-06-21T07:55:49Z</time>
      </trkpt>
      <trkpt lat="45.36781" lon="5.67872">
        <ele>437</ele>
        <time>2015-06-21T07:55:52Z</time>
      </trkpt>
      <trkpt lat="45.36791" lon="5.67878">
        <ele>437</ele>
        <time>2015-06-21T07:55:55Z</time>
      </trkpt>
      <trkpt lat="45.368" lon="5.67886">
        <ele>436</ele>
        <time>2015-06-21T07:55:58Z</time>
      </trkpt>
      <trkpt lat="45.3681" lon="5.67893">
        <ele>436</ele>
        <time>2015-06-21T07:56:01Z</time>
      </trkpt>
      <trkpt lat="45.36821" lon="5.67898">
        <ele>435</ele>
        <time>2015-06-21T07:56:04Z</time>
      </trkpt>
      <trkpt lat="45.36832" lon="5.67904">
        <ele>434</ele>
        <time>2015-06-21T07:56:07Z</time>
      </trkpt>
      <trkpt lat="45.36844" lon="5.6791">
        <ele>435</ele>
        <time>2015-06-21T07:56:10Z</time>
      </trkpt>
      <trkpt lat="45.36855" lon="5.67916">
        <ele>436</ele>
        <time>2015-06-21T07:56:13Z</time>
      </trkpt>
      <trkpt lat="45.36867" lon="5.67922">
        <ele>429</ele>
        <time>2015-06-21T07:56:16Z</time>
      </trkpt>
      <trkpt lat="45.36879" lon="5.67928">
        <ele>429</ele>
        <time>2015-06-21T07:56:19Z</time>
      </trkpt>
      <trkpt lat="45.36888" lon="5.67932">
        <ele>429</ele>
        <time>2015-06-21T07:56:21Z</time>
      </trkpt>
      <trkpt lat="45.36898" lon="5.67934">
        <ele>429</ele>
        <time>2015-06-21T07:56:23Z</time>
      </trkpt>
      <trkpt lat="45.36909" lon="5.67935">
        <ele>429</ele>
        <time>2015-06-21T07:56:25Z</time>
      </trkpt>
      <trkpt lat="45.36922" lon="5.67936">
        <ele>429</ele>
        <time>2015-06-21T07:56:28Z</time>
      </trkpt>
      <trkpt lat="45.36932" lon="5.67938">
        <ele>429</ele>
        <time>2015-06-21T07:56:30Z</time>
      </trkpt>
      <trkpt lat="45.36943" lon="5.6794">
        <ele>428</ele>
        <time>2015-06-21T07:56:32Z</time>
      </trkpt>
      <trkpt lat="45.36953" lon="5.67944">
        <ele>428</ele>
        <time>2015-06-21T07:56:34Z</time>
      </trkpt>
      <trkpt lat="45.36963" lon="5.67948">
        <ele>428</ele>
        <time>2015-06-21T07:56:36Z</time>
      </trkpt>
      <trkpt lat="45.36973" lon="5.67954">
        <ele>428</ele>
        <time>2015-06-21T07:56:38Z</time>
      </trkpt>
      <trkpt lat="45.36984" lon="5.6796">
        <ele>427</ele>
        <time>2015-06-21T07:56:40Z</time>
      </trkpt>
      <trkpt lat="45.36994" lon="5.67964">
        <ele>427</ele>
        <time>2015-06-21T07:56:42Z</time>
      </trkpt>
      <trkpt lat="45.37004" lon="5.67968">
        <ele>427</ele>
        <time>2015-06-21T07:56:44Z</time>
      </trkpt>
      <trkpt lat="45.37013" lon="5.67973">
        <ele>427</ele>
        <time>2015-06-21T07:56:46Z</time>
      </trkpt>
      <trkpt lat="45.37022" lon="5.67976">
        <ele>427</ele>
        <time>2015-06-21T07:56:48Z</time>
      </trkpt>
      <trkpt lat="45.37032" lon="5.67979">
        <ele>427</ele>
        <time>2015-06-21T07:56:50Z</time>
      </trkpt>
      <trkpt lat="45.37042" lon="5.67982">
        <ele>427</ele>
        <time>2015-06-21T07:56:52Z</time>
      </trkpt>
      <trkpt lat="45.37052" lon="5.67986">
        <ele>427</ele>
        <time>2015-06-21T07:56:54Z</time>
      </trkpt>
      <trkpt lat="45.37063" lon="5.67989">
        <ele>426</ele>
        <time>2015-06-21T07:56:56Z</time>
      </trkpt>
      <trkpt lat="45.37073" lon="5.67992">
        <ele>425</ele>
        <time>2015-06-21T07:56:58Z</time>
      </trkpt>
      <trkpt lat="45.37083" lon="5.67996">
        <ele>424</ele>
        <time>2015-06-21T07:57:00Z</time>
      </trkpt>
      <trkpt lat="45.37094" lon="5.68">
        <ele>424</ele>
        <time>2015-06-21T07:57:02Z</time>
      </trkpt>
      <trkpt lat="45.37105" lon="5.68002">
        <ele>421</ele>
        <time>2015-06-21T07:57:04Z</time>
      </trkpt>
      <trkpt lat="45.37116" lon="5.68003">
        <ele>420</ele>
        <time>2015-06-21T07:57:06Z</time>
      </trkpt>
      <trkpt lat="45.37127" lon="5.68002">
        <ele>420</ele>
        <time>2015-06-21T07:57:08Z</time>
      </trkpt>
      <trkpt lat="45.37138" lon="5.68003">
        <ele>419</ele>
        <time>2015-06-21T07:57:10Z</time>
      </trkpt>
      <trkpt lat="45.37149" lon="5.68003">
        <ele>419</ele>
        <time>2015-06-21T07:57:12Z</time>
      </trkpt>
      <trkpt lat="45.3716" lon="5.68003">
        <ele>418</ele>
        <time>2015-06-21T07:57:14Z</time>
      </trkpt>
      <trkpt lat="45.37173" lon="5.68003">
        <ele>418</ele>
        <time>2015-06-21T07:57:16Z</time>
      </trkpt>
      <trkpt lat="45.37185" lon="5.68003">
        <ele>418</ele>
        <time>2015-06-21T07:57:18Z</time>
      </trkpt>
      <trkpt lat="45.37197" lon="5.68">
        <ele>420</ele>
        <time>2015-06-21T07:57:20Z</time>
      </trkpt>
      <trkpt lat="45.37207" lon="5.67997">
        <ele>420</ele>
        <time>2015-06-21T07:57:22Z</time>
      </trkpt>
      <trkpt lat="45.37218" lon="5.67994">
        <ele>420</ele>
        <time>2015-06-21T07:57:24Z</time>
      </trkpt>
      <trkpt lat="45.37228" lon="5.67989">
        <ele>420</ele>
        <time>2015-06-21T07:57:26Z</time>
      </trkpt>
      <trkpt lat="45.37238" lon="5.67984">
        <ele>420</ele>
        <time>2015-06-21T07:57:29Z</time>
      </trkpt>
      <trkpt lat="45.37247" lon="5.6798">
        <ele>420</ele>
        <time>2015-06-21T07:57:33Z</time>
      </trkpt>
      <trkpt lat="45.37256" lon="5.67975">
        <ele>425</ele>
        <time>2015-06-21T07:57:38Z</time>
      </trkpt>
      <trkpt lat="45.37263" lon="5.67966">
        <ele>426</ele>
        <time>2015-06-21T07:58:00Z</time>
      </trkpt>
      <trkpt lat="45.37275" lon="5.67959">
        <ele>428</ele>
        <time>2015-06-21T07:58:09Z</time>
      </trkpt>
      <trkpt lat="45.37289" lon="5.67972">
        <ele>428</ele>
        <time>2015-06-21T07:58:16Z</time>
      </trkpt>
      <trkpt lat="45.37304" lon="5.67984">
        <ele>428</ele>
        <time>2015-06-21T07:58:20Z</time>
      </trkpt>
      <trkpt lat="45.37314" lon="5.67994">
        <ele>428</ele>
        <time>2015-06-21T07:58:24Z</time>
      </trkpt>
      <trkpt lat="45.37323" lon="5.68003">
        <ele>424</ele>
        <time>2015-06-21T07:58:27Z</time>
      </trkpt>
      <trkpt lat="45.37334" lon="5.68015">
        <ele>427</ele>
        <time>2015-06-21T07:58:30Z</time>
      </trkpt>
      <trkpt lat="45.37343" lon="5.68026">
        <ele>426</ele>
        <time>2015-06-21T07:58:33Z</time>
      </trkpt>
      <trkpt lat="45.37352" lon="5.68034">
        <ele>426</ele>
        <time>2015-06-21T07:58:36Z</time>
      </trkpt>
      <trkpt lat="45.37362" lon="5.68043">
        <ele>426</ele>
        <time>2015-06-21T07:58:39Z</time>
      </trkpt>
      <trkpt lat="45.37372" lon="5.68054">
        <ele>425</ele>
        <time>2015-06-21T07:58:42Z</time>
      </trkpt>
      <trkpt lat="45.37382" lon="5.68066">
        <ele>425</ele>
        <time>2015-06-21T07:58:45Z</time>
      </trkpt>
      <trkpt lat="45.37391" lon="5.68078">
        <ele>425</ele>
        <time>2015-06-21T07:58:48Z</time>
      </trkpt>
      <trkpt lat="45.37398" lon="5.68087">
        <ele>420</ele>
        <time>2015-06-21T07:58:50Z</time>
      </trkpt>
      <trkpt lat="45.37409" lon="5.68099">
        <ele>420</ele>
        <time>2015-06-21T07:58:53Z</time>
      </trkpt>
      <trkpt lat="45.37418" lon="5.68109">
        <ele>423</ele>
        <time>2015-06-21T07:58:56Z</time>
      </trkpt>
      <trkpt lat="45.37428" lon="5.68119">
        <ele>423</ele>
        <time>2015-06-21T07:58:59Z</time>
      </trkpt>
      <trkpt lat="45.37436" lon="5.68128">
        <ele>422</ele>
        <time>2015-06-21T07:59:02Z</time>
      </trkpt>
      <trkpt lat="45.37442" lon="5.68139">
        <ele>422</ele>
        <time>2015-06-21T07:59:05Z</time>
      </trkpt>
      <trkpt lat="45.37449" lon="5.68153">
        <ele>421</ele>
        <time>2015-06-21T07:59:08Z</time>
      </trkpt>
      <trkpt lat="45.37459" lon="5.68165">
        <ele>421</ele>
        <time>2015-06-21T07:59:11Z</time>
      </trkpt>
      <trkpt lat="45.37469" lon="5.68176">
        <ele>416</ele>
        <time>2015-06-21T07:59:14Z</time>
      </trkpt>
      <trkpt lat="45.37477" lon="5.68183">
        <ele>416</ele>
        <time>2015-06-21T07:59:16Z</time>
      </trkpt>
      <trkpt lat="45.37485" lon="5.68189">
        <ele>416</ele>
        <time>2015-06-21T07:59:18Z</time>
      </trkpt>
      <trkpt lat="45.37497" lon="5.68196">
        <ele>416</ele>
        <time>2015-06-21T07:59:21Z</time>
      </trkpt>
      <trkpt lat="45.37509" lon="5.68201">
        <ele>419</ele>
        <time>2015-06-21T07:59:24Z</time>
      </trkpt>
      <trkpt lat="45.3752" lon="5.68205">
        <ele>419</ele>
        <time>2015-06-21T07:59:27Z</time>
      </trkpt>
      <trkpt lat="45.37531" lon="5.68208">
        <ele>420</ele>
        <time>2015-06-21T07:59:30Z</time>
      </trkpt>
      <trkpt lat="45.37541" lon="5.68209">
        <ele>420</ele>
        <time>2015-06-21T07:59:33Z</time>
      </trkpt>
      <trkpt lat="45.37551" lon="5.68209">
        <ele>421</ele>
        <time>2015-06-21T07:59:36Z</time>
      </trkpt>
      <trkpt lat="45.3756" lon="5.68212">
        <ele>421</ele>
        <time>2015-06-21T07:59:39Z</time>
      </trkpt>
      <trkpt lat="45.37571" lon="5.68216">
        <ele>421</ele>
        <time>2015-06-21T07:59:43Z</time>
      </trkpt>
      <trkpt lat="45.37581" lon="5.68221">
        <ele>421</ele>
        <time>2015-06-21T07:59:47Z</time>
      </trkpt>
      <trkpt lat="45.3759" lon="5.68226">
        <ele>425</ele>
        <time>2015-06-21T07:59:51Z</time>
      </trkpt>
      <trkpt lat="45.376" lon="5.68231">
        <ele>425</ele>
        <time>2015-06-21T07:59:55Z</time>
      </trkpt>
      <trkpt lat="45.37609" lon="5.68237">
        <ele>426</ele>
        <time>2015-06-21T07:59:59Z</time>
      </trkpt>
      <trkpt lat="45.37619" lon="5.68241">
        <ele>427</ele>
        <time>2015-06-21T08:00:04Z</time>
      </trkpt>
      <trkpt lat="45.37629" lon="5.68244">
        <ele>427</ele>
        <time>2015-06-21T08:00:09Z</time>
      </trkpt>
      <trkpt lat="45.37639" lon="5.68243">
        <ele>428</ele>
        <time>2015-06-21T08:00:14Z</time>
      </trkpt>
      <trkpt lat="45.37648" lon="5.68239">
        <ele>429</ele>
        <time>2015-06-21T08:00:19Z</time>
      </trkpt>
      <trkpt lat="45.37656" lon="5.68231">
        <ele>429</ele>
        <time>2015-06-21T08:00:24Z</time>
      </trkpt>
      <trkpt lat="45.37656" lon="5.6821">
        <ele>430</ele>
        <time>2015-06-21T08:00:32Z</time>
      </trkpt>
      <trkpt lat="45.37651" lon="5.68199">
        <ele>430</ele>
        <time>2015-06-21T08:00:36Z</time>
      </trkpt>
      <trkpt lat="45.37645" lon="5.68188">
        <ele>431</ele>
        <time>2015-06-21T08:00:40Z</time>
      </trkpt>
      <trkpt lat="45.37637" lon="5.68177">
        <ele>431</ele>
        <time>2015-06-21T08:00:44Z</time>
      </trkpt>
      <trkpt lat="45.3763" lon="5.68167">
        <ele>430</ele>
        <time>2015-06-21T08:00:48Z</time>
      </trkpt>
      <trkpt lat="45.37625" lon="5.68157">
        <ele>437</ele>
        <time>2015-06-21T08:00:52Z</time>
      </trkpt>
      <trkpt lat="45.37613" lon="5.68142">
        <ele>437</ele>
        <time>2015-06-21T08:01:00Z</time>
      </trkpt>
      <trkpt lat="45.376" lon="5.68131">
        <ele>437</ele>
        <time>2015-06-21T08:01:08Z</time>
      </trkpt>
      <trkpt lat="45.37591" lon="5.68113">
        <ele>439</ele>
        <time>2015-06-21T08:01:16Z</time>
      </trkpt>
      <trkpt lat="45.37588" lon="5.6809">
        <ele>442</ele>
        <time>2015-06-21T08:01:24Z</time>
      </trkpt>
      <trkpt lat="45.37586" lon="5.68069">
        <ele>446</ele>
        <time>2015-06-21T08:01:32Z</time>
      </trkpt>
      <trkpt lat="45.37585" lon="5.68056">
        <ele>448</ele>
        <time>2015-06-21T08:01:40Z</time>
      </trkpt>
      <trkpt lat="45.37583" lon="5.68038">
        <ele>446</ele>
        <time>2015-06-21T08:01:48Z</time>
      </trkpt>
      <trkpt lat="45.37578" lon="5.6802">
        <ele>448</ele>
        <time>2015-06-21T08:01:56Z</time>
      </trkpt>
      <trkpt lat="45.37571" lon="5.68005">
        <ele>449</ele>
        <time>2015-06-21T08:02:04Z</time>
      </trkpt>
      <trkpt lat="45.37564" lon="5.67996">
        <ele>453</ele>
        <time>2015-06-21T08:02:14Z</time>
      </trkpt>
      <trkpt lat="45.37568" lon="5.67983">
        <ele>453</ele>
        <time>2015-06-21T08:02:22Z</time>
      </trkpt>
      <trkpt lat="45.37573" lon="5.67972">
        <ele>454</ele>
        <time>2015-06-21T08:02:30Z</time>
      </trkpt>
      <trkpt lat="45.37577" lon="5.6796">
        <ele>455</ele>
        <time>2015-06-21T08:02:37Z</time>
      </trkpt>
      <trkpt lat="45.3758" lon="5.67946">
        <ele>456</ele>
        <time>2015-06-21T08:02:44Z</time>
      </trkpt>
      <trkpt lat="45.37583" lon="5.67934">
        <ele>458</ele>
        <time>2015-06-21T08:02:51Z</time>
      </trkpt>
      <trkpt lat="45.37587" lon="5.67921">
        <ele>462</ele>
        <time>2015-06-21T08:03:00Z</time>
      </trkpt>
      <trkpt lat="45.37588" lon="5.67907">
        <ele>465</ele>
        <time>2015-06-21T08:03:09Z</time>
      </trkpt>
      <trkpt lat="45.37589" lon="5.67893">
        <ele>467</ele>
        <time>2015-06-21T08:03:18Z</time>
      </trkpt>
      <trkpt lat="45.37589" lon="5.6788">
        <ele>469</ele>
        <time>2015-06-21T08:03:26Z</time>
      </trkpt>
      <trkpt lat="45.37588" lon="5.67867">
        <ele>470</ele>
        <time>2015-06-21T08:03:36Z</time>
      </trkpt>
      <trkpt lat="45.37585" lon="5.67853">
        <ele>471</ele>
        <time>2015-06-21T08:03:44Z</time>
      </trkpt>
      <trkpt lat="45.37585" lon="5.67839">
        <ele>471</ele>
        <time>2015-06-21T08:03:53Z</time>
      </trkpt>
      <trkpt lat="45.37584" lon="5.67826">
        <ele>474</ele>
        <time>2015-06-21T08:04:01Z</time>
      </trkpt>
      <trkpt lat="45.3759" lon="5.67814">
        <ele>478</ele>
        <time>2015-06-21T08:04:09Z</time>
      </trkpt>
      <trkpt lat="45.37598" lon="5.67809">
        <ele>479</ele>
        <time>2015-06-21T08:04:16Z</time>
      </trkpt>
      <trkpt lat="45.37592" lon="5.67799">
        <ele>481</ele>
        <time>2015-06-21T08:04:26Z</time>
      </trkpt>
      <trkpt lat="45.37584" lon="5.67792">
        <ele>482</ele>
        <time>2015-06-21T08:04:33Z</time>
      </trkpt>
      <trkpt lat="45.37576" lon="5.67786">
        <ele>478</ele>
        <time>2015-06-21T08:04:40Z</time>
      </trkpt>
      <trkpt lat="45.37566" lon="5.67781">
        <ele>478</ele>
        <time>2015-06-21T08:04:46Z</time>
      </trkpt>
      <trkpt lat="45.37575" lon="5.67774">
        <ele>480</ele>
        <time>2015-06-21T08:05:06Z</time>
      </trkpt>
      <trkpt lat="45.37584" lon="5.67773">
        <ele>484</ele>
        <time>2015-06-21T08:05:14Z</time>
      </trkpt>
      <trkpt lat="45.37594" lon="5.67771">
        <ele>484</ele>
        <time>2015-06-21T08:05:21Z</time>
      </trkpt>
      <trkpt lat="45.37602" lon="5.67764">
        <ele>485</ele>
        <time>2015-06-21T08:05:30Z</time>
      </trkpt>
      <trkpt lat="45.3761" lon="5.67754">
        <ele>485</ele>
        <time>2015-06-21T08:05:37Z</time>
      </trkpt>
      <trkpt lat="45.37617" lon="5.67744">
        <ele>493</ele>
        <time>2015-06-21T08:05:44Z</time>
      </trkpt>
      <trkpt lat="45.37628" lon="5.67743">
        <ele>493</ele>
        <time>2015-06-21T08:05:50Z</time>
      </trkpt>
      <trkpt lat="45.37638" lon="5.67746">
        <ele>493</ele>
        <time>2015-06-21T08:05:53Z</time>
      </trkpt>
      <trkpt lat="45.37649" lon="5.67749">
        <ele>493</ele>
        <time>2015-06-21T08:05:57Z</time>
      </trkpt>
      <trkpt lat="45.37659" lon="5.67754">
        <ele>489</ele>
        <time>2015-06-21T08:06:01Z</time>
      </trkpt>
      <trkpt lat="45.37668" lon="5.67762">
        <ele>490</ele>
        <time>2015-06-21T08:06:05Z</time>
      </trkpt>
      <trkpt lat="45.37677" lon="5.67768">
        <ele>490</ele>
        <time>2015-06-21T08:06:09Z</time>
      </trkpt>
      <trkpt lat="45.37685" lon="5.67776">
        <ele>490</ele>
        <time>2015-06-21T08:06:13Z</time>
      </trkpt>
      <trkpt lat="45.37694" lon="5.67783">
        <ele>490</ele>
        <time>2015-06-21T08:06:17Z</time>
      </trkpt>
      <trkpt lat="45.37702" lon="5.67787">
        <ele>490</ele>
        <time>2015-06-21T08:06:21Z</time>
      </trkpt>
      <trkpt lat="45.37712" lon="5.67789">
        <ele>490</ele>
        <time>2015-06-21T08:06:26Z</time>
      </trkpt>
      <trkpt lat="45.3772" lon="5.67782">
        <ele>491</ele>
        <time>2015-06-21T08:06:31Z</time>
      </trkpt>
      <trkpt lat="45.37712" lon="5.67773">
        <ele>491</ele>
        <time>2015-06-21T08:06:36Z</time>
      </trkpt>
      <trkpt lat="45.37707" lon="5.67762">
        <ele>491</ele>
        <time>2015-06-21T08:06:42Z</time>
      </trkpt>
      <trkpt lat="45.37711" lon="5.67749">
        <ele>498</ele>
        <time>2015-06-21T08:06:48Z</time>
      </trkpt>
      <trkpt lat="45.37718" lon="5.67738">
        <ele>499</ele>
        <time>2015-06-21T08:06:55Z</time>
      </trkpt>
      <trkpt lat="45.37724" lon="5.67726">
        <ele>500</ele>
        <time>2015-06-21T08:07:02Z</time>
      </trkpt>
      <trkpt lat="45.37729" lon="5.67715">
        <ele>501</ele>
        <time>2015-06-21T08:07:09Z</time>
      </trkpt>
      <trkpt lat="45.37735" lon="5.67703">
        <ele>502</ele>
        <time>2015-06-21T08:07:17Z</time>
      </trkpt>
      <trkpt lat="45.37737" lon="5.6769">
        <ele>504</ele>
        <time>2015-06-21T08:07:25Z</time>
      </trkpt>
      <trkpt lat="45.37731" lon="5.67679">
        <ele>505</ele>
        <time>2015-06-21T08:07:32Z</time>
      </trkpt>
      <trkpt lat="45.37723" lon="5.67671">
        <ele>504</ele>
        <time>2015-06-21T08:07:38Z</time>
      </trkpt>
      <trkpt lat="45.37716" lon="5.67661">
        <ele>513</ele>
        <time>2015-06-21T08:07:45Z</time>
      </trkpt>
      <trkpt lat="45.37708" lon="5.67652">
        <ele>513</ele>
        <time>2015-06-21T08:07:52Z</time>
      </trkpt>
      <trkpt lat="45.377" lon="5.67644">
        <ele>513</ele>
        <time>2015-06-21T08:07:58Z</time>
      </trkpt>
      <trkpt lat="45.37691" lon="5.67637">
        <ele>513</ele>
        <time>2015-06-21T08:08:04Z</time>
      </trkpt>
      <trkpt lat="45.37683" lon="5.67629">
        <ele>514</ele>
        <time>2015-06-21T08:08:10Z</time>
      </trkpt>
      <trkpt lat="45.37676" lon="5.67621">
        <ele>515</ele>
        <time>2015-06-21T08:08:16Z</time>
      </trkpt>
      <trkpt lat="45.3767" lon="5.67611">
        <ele>516</ele>
        <time>2015-06-21T08:08:23Z</time>
      </trkpt>
      <trkpt lat="45.37665" lon="5.67599">
        <ele>514</ele>
        <time>2015-06-21T08:08:30Z</time>
      </trkpt>
      <trkpt lat="45.37659" lon="5.67588">
        <ele>516</ele>
        <time>2015-06-21T08:08:37Z</time>
      </trkpt>
      <trkpt lat="45.37655" lon="5.67577">
        <ele>521</ele>
        <time>2015-06-21T08:08:44Z</time>
      </trkpt>
      <trkpt lat="45.37649" lon="5.67566">
        <ele>522</ele>
        <time>2015-06-21T08:08:51Z</time>
      </trkpt>
      <trkpt lat="45.37644" lon="5.67554">
        <ele>524</ele>
        <time>2015-06-21T08:08:59Z</time>
      </trkpt>
      <trkpt lat="45.37638" lon="5.67544">
        <ele>525</ele>
        <time>2015-06-21T08:09:07Z</time>
      </trkpt>
      <trkpt lat="45.37631" lon="5.67534">
        <ele>525</ele>
        <time>2015-06-21T08:09:15Z</time>
      </trkpt>
      <trkpt lat="45.37623" lon="5.67525">
        <ele>526</ele>
        <time>2015-06-21T08:09:23Z</time>
      </trkpt>
      <trkpt lat="45.37616" lon="5.67514">
        <ele>527</ele>
        <time>2015-06-21T08:09:31Z</time>
      </trkpt>
      <trkpt lat="45.37613" lon="5.67502">
        <ele>527</ele>
        <time>2015-06-21T08:09:40Z</time>
      </trkpt>
      <trkpt lat="45.37614" lon="5.67489">
        <ele>537</ele>
        <time>2015-06-21T08:09:48Z</time>
      </trkpt>
      <trkpt lat="45.37617" lon="5.67477">
        <ele>538</ele>
        <time>2015-06-21T08:09:56Z</time>
      </trkpt>
      <trkpt lat="45.3762" lon="5.67464">
        <ele>539</ele>
        <time>2015-06-21T08:10:03Z</time>
      </trkpt>
      <trkpt lat="45.37625" lon="5.67452">
        <ele>540</ele>
        <time>2015-06-21T08:10:11Z</time>
      </trkpt>
      <trkpt lat="45.3763" lon="5.67442">
        <ele>541</ele>
        <time>2015-06-21T08:10:20Z</time>
      </trkpt>
      <trkpt lat="45.37639" lon="5.67437">
        <ele>542</ele>
        <time>2015-06-21T08:10:33Z</time>
      </trkpt>
      <trkpt lat="45.37647" lon="5.67445">
        <ele>542</ele>
        <time>2015-06-21T08:10:47Z</time>
      </trkpt>
      <trkpt lat="45.37656" lon="5.67451">
        <ele>542</ele>
        <time>2015-06-21T08:10:55Z</time>
      </trkpt>
      <trkpt lat="45.37665" lon="5.6745">
        <ele>542</ele>
        <time>2015-06-21T08:11:01Z</time>
      </trkpt>
      <trkpt lat="45.37675" lon="5.6745">
        <ele>549</ele>
        <time>2015-06-21T08:11:07Z</time>
      </trkpt>
      <trkpt lat="45.37684" lon="5.6745">
        <ele>549</ele>
        <time>2015-06-21T08:11:13Z</time>
      </trkpt>
      <trkpt lat="45.37694" lon="5.67453">
        <ele>549</ele>
        <time>2015-06-21T08:11:19Z</time>
      </trkpt>
      <trkpt lat="45.37702" lon="5.67459">
        <ele>549</ele>
        <time>2015-06-21T08:14:23Z</time>
      </trkpt>
      <trkpt lat="45.37712" lon="5.67458">
        <ele>550</ele>
        <time>2015-06-21T08:20:41Z</time>
      </trkpt>
      <trkpt lat="45.37721" lon="5.6746">
        <ele>550</ele>
        <time>2015-06-21T08:20:46Z</time>
      </trkpt>
      <trkpt lat="45.37731" lon="5.67462">
        <ele>551</ele>
        <time>2015-06-21T08:20:52Z</time>
      </trkpt>
      <trkpt lat="45.37741" lon="5.67463">
        <ele>551</ele>
        <time>2015-06-21T08:20:58Z</time>
      </trkpt>
      <trkpt lat="45.37752" lon="5.67465">
        <ele>557</ele>
        <time>2015-06-21T08:21:04Z</time>
      </trkpt>
      <trkpt lat="45.3776" lon="5.67469">
        <ele>556</ele>
        <time>2015-06-21T08:21:08Z</time>
      </trkpt>
      <trkpt lat="45.3777" lon="5.67474">
        <ele>556</ele>
        <time>2015-06-21T08:21:13Z</time>
      </trkpt>
      <trkpt lat="45.37779" lon="5.67476">
        <ele>557</ele>
        <time>2015-06-21T08:21:18Z</time>
      </trkpt>
      <trkpt lat="45.37789" lon="5.6748">
        <ele>557</ele>
        <time>2015-06-21T08:21:23Z</time>
      </trkpt>
      <trkpt lat="45.37798" lon="5.67484">
        <ele>558</ele>
        <time>2015-06-21T08:21:28Z</time>
      </trkpt>
      <trkpt lat="45.37808" lon="5.67486">
        <ele>558</ele>
        <time>2015-06-21T08:21:33Z</time>
      </trkpt>
      <trkpt lat="45.37817" lon="5.67487">
        <ele>558</ele>
        <time>2015-06-21T08:21:37Z</time>
      </trkpt>
      <trkpt lat="45.37827" lon="5.67491">
        <ele>558</ele>
        <time>2015-06-21T08:21:41Z</time>
      </trkpt>
      <trkpt lat="45.37836" lon="5.67495">
        <ele>559</ele>
        <time>2015-06-21T08:21:45Z</time>
      </trkpt>
      <trkpt lat="45.37845" lon="5.675">
        <ele>561</ele>
        <time>2015-06-21T08:21:50Z</time>
      </trkpt>
      <trkpt lat="45.37853" lon="5.67506">
        <ele>555</ele>
        <time>2015-06-21T08:21:55Z</time>
      </trkpt>
      <trkpt lat="45.37862" lon="5.67511">
        <ele>555</ele>
        <time>2015-06-21T08:22:00Z</time>
      </trkpt>
      <trkpt lat="45.37873" lon="5.67515">
        <ele>555</ele>
        <time>2015-06-21T08:22:06Z</time>
      </trkpt>
      <trkpt lat="45.37882" lon="5.67519">
        <ele>555</ele>
        <time>2015-06-21T08:22:11Z</time>
      </trkpt>
      <trkpt lat="45.37891" lon="5.67521">
        <ele>556</ele>
        <time>2015-06-21T08:22:15Z</time>
      </trkpt>
      <trkpt lat="45.37901" lon="5.67526">
        <ele>556</ele>
        <time>2015-06-21T08:22:19Z</time>
      </trkpt>
      <trkpt lat="45.37911" lon="5.67528">
        <ele>556</ele>
        <time>2015-06-21T08:22:22Z</time>
      </trkpt>
      <trkpt lat="45.3792" lon="5.67529">
        <ele>560</ele>
        <time>2015-06-21T08:22:24Z</time>
      </trkpt>
      <trkpt lat="45.37931" lon="5.67524">
        <ele>560</ele>
        <time>2015-06-21T08:22:27Z</time>
      </trkpt>
      <trkpt lat="45.37941" lon="5.67517">
        <ele>561</ele>
        <time>2015-06-21T08:22:32Z</time>
      </trkpt>
      <trkpt lat="45.3795" lon="5.67516">
        <ele>561</ele>
        <time>2015-06-21T08:22:37Z</time>
      </trkpt>
      <trkpt lat="45.3796" lon="5.67518">
        <ele>561</ele>
        <time>2015-06-21T08:22:43Z</time>
      </trkpt>
      <trkpt lat="45.3797" lon="5.67519">
        <ele>561</ele>
        <time>2015-06-21T08:22:47Z</time>
      </trkpt>
      <trkpt lat="45.37981" lon="5.67519">
        <ele>562</ele>
        <time>2015-06-21T08:22:51Z</time>
      </trkpt>
      <trkpt lat="45.37992" lon="5.67517">
        <ele>563</ele>
        <time>2015-06-21T08:22:55Z</time>
      </trkpt>
      <trkpt lat="45.38003" lon="5.67517">
        <ele>568</ele>
        <time>2015-06-21T08:22:59Z</time>
      </trkpt>
      <trkpt lat="45.38012" lon="5.67519">
        <ele>568</ele>
        <time>2015-06-21T08:23:03Z</time>
      </trkpt>
      <trkpt lat="45.38023" lon="5.67526">
        <ele>568</ele>
        <time>2015-06-21T08:23:07Z</time>
      </trkpt>
      <trkpt lat="45.38032" lon="5.67534">
        <ele>568</ele>
        <time>2015-06-21T08:23:10Z</time>
      </trkpt>
      <trkpt lat="45.38042" lon="5.67542">
        <ele>567</ele>
        <time>2015-06-21T08:23:14Z</time>
      </trkpt>
      <trkpt lat="45.38052" lon="5.67547">
        <ele>568</ele>
        <time>2015-06-21T08:23:18Z</time>
      </trkpt>
      <trkpt lat="45.38061" lon="5.67549">
        <ele>568</ele>
        <time>2015-06-21T08:23:24Z</time>
      </trkpt>
      <trkpt lat="45.38071" lon="5.67548">
        <ele>569</ele>
        <time>2015-06-21T08:23:34Z</time>
      </trkpt>
      <trkpt lat="45.3808" lon="5.67547">
        <ele>569</ele>
        <time>2015-06-21T08:23:42Z</time>
      </trkpt>
      <trkpt lat="45.38089" lon="5.67545">
        <ele>578</ele>
        <time>2015-06-21T08:23:55Z</time>
      </trkpt>
      <trkpt lat="45.38099" lon="5.67547">
        <ele>578</ele>
        <time>2015-06-21T08:24:07Z</time>
      </trkpt>
      <trkpt lat="45.38108" lon="5.6755">
        <ele>579</ele>
        <time>2015-06-21T08:24:17Z</time>
      </trkpt>
      <trkpt lat="45.38116" lon="5.67553">
        <ele>579</ele>
        <time>2015-06-21T08:24:27Z</time>
      </trkpt>
      <trkpt lat="45.38123" lon="5.67562">
        <ele>579</ele>
        <time>2015-06-21T08:24:38Z</time>
      </trkpt>
      <trkpt lat="45.38131" lon="5.67569">
        <ele>579</ele>
        <time>2015-06-21T08:24:50Z</time>
      </trkpt>
      <trkpt lat="45.38138" lon="5.67578">
        <ele>580</ele>
        <time>2015-06-21T08:24:57Z</time>
      </trkpt>
      <trkpt lat="45.38147" lon="5.67581">
        <ele>580</ele>
        <time>2015-06-21T08:25:05Z</time>
      </trkpt>
      <trkpt lat="45.38156" lon="5.67582">
        <ele>580</ele>
        <time>2015-06-21T08:25:13Z</time>
      </trkpt>
      <trkpt lat="45.38166" lon="5.6758">
        <ele>580</ele>
        <time>2015-06-21T08:25:23Z</time>
      </trkpt>
      <trkpt lat="45.38175" lon="5.67577">
        <ele>584</ele>
        <time>2015-06-21T08:25:30Z</time>
      </trkpt>
      <trkpt lat="45.38184" lon="5.67576">
        <ele>586</ele>
        <time>2015-06-21T08:25:37Z</time>
      </trkpt>
      <trkpt lat="45.38193" lon="5.67571">
        <ele>588</ele>
        <time>2015-06-21T08:25:43Z</time>
      </trkpt>
      <trkpt lat="45.38202" lon="5.67565">
        <ele>589</ele>
        <time>2015-06-21T08:25:49Z</time>
      </trkpt>
      <trkpt lat="45.38211" lon="5.67562">
        <ele>590</ele>
        <time>2015-06-21T08:25:56Z</time>
      </trkpt>
      <trkpt lat="45.3822" lon="5.67556">
        <ele>590</ele>
        <time>2015-06-21T08:26:03Z</time>
      </trkpt>
      <trkpt lat="45.38228" lon="5.67548">
        <ele>591</ele>
        <time>2015-06-21T08:26:09Z</time>
      </trkpt>
      <trkpt lat="45.38235" lon="5.67537">
        <ele>593</ele>
        <time>2015-06-21T08:26:16Z</time>
      </trkpt>
      <trkpt lat="45.38241" lon="5.67526">
        <ele>594</ele>
        <time>2015-06-21T08:26:24Z</time>
      </trkpt>
      <trkpt lat="45.38248" lon="5.67516">
        <ele>596</ele>
        <time>2015-06-21T08:26:32Z</time>
      </trkpt>
      <trkpt lat="45.38253" lon="5.67506">
        <ele>600</ele>
        <time>2015-06-21T08:26:47Z</time>
      </trkpt>
      <trkpt lat="45.38261" lon="5.67501">
        <ele>600</ele>
        <time>2015-06-21T08:27:12Z</time>
      </trkpt>
      <trkpt lat="45.3827" lon="5.67497">
        <ele>607</ele>
        <time>2015-06-21T08:27:33Z</time>
      </trkpt>
      <trkpt lat="45.38279" lon="5.67493">
        <ele>608</ele>
        <time>2015-06-21T08:27:45Z</time>
      </trkpt>
      <trkpt lat="45.38288" lon="5.6749">
        <ele>609</ele>
        <time>2015-06-21T08:28:01Z</time>
      </trkpt>
      <trkpt lat="45.38297" lon="5.67487">
        <ele>610</ele>
        <time>2015-06-21T08:28:17Z</time>
      </trkpt>
      <trkpt lat="45.38306" lon="5.67482">
        <ele>610</ele>
        <time>2015-06-21T08:28:30Z</time>
      </trkpt>
      <trkpt lat="45.38314" lon="5.67476">
        <ele>611</ele>
        <time>2015-06-21T08:28:42Z</time>
      </trkpt>
      <trkpt lat="45.38323" lon="5.67472">
        <ele>611</ele>
        <time>2015-06-21T08:28:55Z</time>
      </trkpt>
      <trkpt lat="45.38324" lon="5.67458">
        <ele>613</ele>
        <time>2015-06-21T08:29:11Z</time>
      </trkpt>
      <trkpt lat="45.38329" lon="5.67447">
        <ele>614</ele>
        <time>2015-06-21T08:29:23Z</time>
      </trkpt>
      <trkpt lat="45.38335" lon="5.67436">
        <ele>621</ele>
        <time>2015-06-21T08:29:37Z</time>
      </trkpt>
      <trkpt lat="45.38336" lon="5.67423">
        <ele>622</ele>
        <time>2015-06-21T08:29:57Z</time>
      </trkpt>
      <trkpt lat="45.38333" lon="5.6741">
        <ele>623</ele>
        <time>2015-06-21T08:30:08Z</time>
      </trkpt>
      <trkpt lat="45.38329" lon="5.67398">
        <ele>624</ele>
        <time>2015-06-21T08:30:17Z</time>
      </trkpt>
      <trkpt lat="45.38324" lon="5.67387">
        <ele>625</ele>
        <time>2015-06-21T08:30:25Z</time>
      </trkpt>
      <trkpt lat="45.38316" lon="5.67377">
        <ele>626</ele>
        <time>2015-06-21T08:30:32Z</time>
      </trkpt>
      <trkpt lat="45.38308" lon="5.67369">
        <ele>627</ele>
        <time>2015-06-21T08:30:38Z</time>
      </trkpt>
      <trkpt lat="45.38302" lon="5.67358">
        <ele>627</ele>
        <time>2015-06-21T08:30:44Z</time>
      </trkpt>
      <trkpt lat="45.38298" lon="5.67345">
        <ele>628</ele>
        <time>2015-06-21T08:30:54Z</time>
      </trkpt>
      <trkpt lat="45.38297" lon="5.67332">
        <ele>637</ele>
        <time>2015-06-21T08:31:05Z</time>
      </trkpt>
      <trkpt lat="45.38301" lon="5.6732">
        <ele>637</ele>
        <time>2015-06-21T08:31:17Z</time>
      </trkpt>
      <trkpt lat="45.38308" lon="5.67311">
        <ele>638</ele>
        <time>2015-06-21T08:31:33Z</time>
      </trkpt>
      <trkpt lat="45.38317" lon="5.67307">
        <ele>639</ele>
        <time>2015-06-21T08:31:51Z</time>
      </trkpt>
      <trkpt lat="45.38325" lon="5.67303">
        <ele>640</ele>
        <time>2015-06-21T08:32:05Z</time>
      </trkpt>
      <trkpt lat="45.38334" lon="5.67305">
        <ele>647</ele>
        <time>2015-06-21T08:32:15Z</time>
      </trkpt>
      <trkpt lat="45.38344" lon="5.67306">
        <ele>648</ele>
        <time>2015-06-21T08:32:31Z</time>
      </trkpt>
      <trkpt lat="45.38354" lon="5.67309">
        <ele>648</ele>
        <time>2015-06-21T08:32:42Z</time>
      </trkpt>
      <trkpt lat="45.38364" lon="5.67312">
        <ele>649</ele>
        <time>2015-06-21T08:32:50Z</time>
      </trkpt>
      <trkpt lat="45.38373" lon="5.67315">
        <ele>650</ele>
        <time>2015-06-21T08:32:56Z</time>
      </trkpt>
      <trkpt lat="45.38383" lon="5.67319">
        <ele>650</ele>
        <time>2015-06-21T08:33:02Z</time>
      </trkpt>
      <trkpt lat="45.38391" lon="5.67327">
        <ele>651</ele>
        <time>2015-06-21T08:33:08Z</time>
      </trkpt>
      <trkpt lat="45.384" lon="5.67328">
        <ele>651</ele>
        <time>2015-06-21T08:33:14Z</time>
      </trkpt>
      <trkpt lat="45.38409" lon="5.67325">
        <ele>651</ele>
        <time>2015-06-21T08:33:20Z</time>
      </trkpt>
      <trkpt lat="45.38419" lon="5.67327">
        <ele>653</ele>
        <time>2015-06-21T08:33:26Z</time>
      </trkpt>
      <trkpt lat="45.38428" lon="5.67325">
        <ele>654</ele>
        <time>2015-06-21T08:33:32Z</time>
      </trkpt>
      <trkpt lat="45.38439" lon="5.67322">
        <ele>656</ele>
        <time>2015-06-21T08:33:38Z</time>
      </trkpt>
      <trkpt lat="45.38449" lon="5.67324">
        <ele>656</ele>
        <time>2015-06-21T08:33:42Z</time>
      </trkpt>
      <trkpt lat="45.38458" lon="5.67322">
        <ele>657</ele>
        <time>2015-06-21T08:33:49Z</time>
      </trkpt>
      <trkpt lat="45.38469" lon="5.67322">
        <ele>657</ele>
        <time>2015-06-21T08:33:55Z</time>
      </trkpt>
      <trkpt lat="45.38478" lon="5.67323">
        <ele>657</ele>
        <time>2015-06-21T08:33:59Z</time>
      </trkpt>
      <trkpt lat="45.38488" lon="5.67322">
        <ele>656</ele>
        <time>2015-06-21T08:34:02Z</time>
      </trkpt>
      <trkpt lat="45.38495" lon="5.67331">
        <ele>656</ele>
        <time>2015-06-21T08:34:06Z</time>
      </trkpt>
      <trkpt lat="45.38502" lon="5.6734">
        <ele>655</ele>
        <time>2015-06-21T08:34:09Z</time>
      </trkpt>
      <trkpt lat="45.38508" lon="5.67353">
        <ele>654</ele>
        <time>2015-06-21T08:34:12Z</time>
      </trkpt>
      <trkpt lat="45.38514" lon="5.67365">
        <ele>653</ele>
        <time>2015-06-21T08:34:15Z</time>
      </trkpt>
      <trkpt lat="45.38521" lon="5.67378">
        <ele>653</ele>
        <time>2015-06-21T08:34:19Z</time>
      </trkpt>
      <trkpt lat="45.38529" lon="5.67385">
        <ele>653</ele>
        <time>2015-06-21T08:34:24Z</time>
      </trkpt>
      <trkpt lat="45.3854" lon="5.67387">
        <ele>653</ele>
        <time>2015-06-21T08:34:30Z</time>
      </trkpt>
      <trkpt lat="45.3855" lon="5.67391">
        <ele>654</ele>
        <time>2015-06-21T08:34:34Z</time>
      </trkpt>
      <trkpt lat="45.38559" lon="5.67394">
        <ele>654</ele>
        <time>2015-06-21T08:34:39Z</time>
      </trkpt>
      <trkpt lat="45.38568" lon="5.67395">
        <ele>655</ele>
        <time>2015-06-21T08:34:45Z</time>
      </trkpt>
      <trkpt lat="45.38574" lon="5.67385">
        <ele>655</ele>
        <time>2015-06-21T08:34:54Z</time>
      </trkpt>
      <trkpt lat="45.38578" lon="5.67372">
        <ele>656</ele>
        <time>2015-06-21T08:35:02Z</time>
      </trkpt>
      <trkpt lat="45.38584" lon="5.67361">
        <ele>663</ele>
        <time>2015-06-21T08:35:10Z</time>
      </trkpt>
      <trkpt lat="45.38591" lon="5.67351">
        <ele>663</ele>
        <time>2015-06-21T08:35:18Z</time>
      </trkpt>
      <trkpt lat="45.38598" lon="5.67343">
        <ele>663</ele>
        <time>2015-06-21T08:35:25Z</time>
      </trkpt>
      <trkpt lat="45.38607" lon="5.67336">
        <ele>664</ele>
        <time>2015-06-21T08:35:32Z</time>
      </trkpt>
      <trkpt lat="45.38615" lon="5.6733">
        <ele>668</ele>
        <time>2015-06-21T08:35:38Z</time>
      </trkpt>
      <trkpt lat="45.38624" lon="5.67325">
        <ele>668</ele>
        <time>2015-06-21T08:35:44Z</time>
      </trkpt>
      <trkpt lat="45.38634" lon="5.6732">
        <ele>669</ele>
        <time>2015-06-21T08:35:50Z</time>
      </trkpt>
      <trkpt lat="45.38643" lon="5.67315">
        <ele>670</ele>
        <time>2015-06-21T08:35:56Z</time>
      </trkpt>
      <trkpt lat="45.38652" lon="5.67311">
        <ele>670</ele>
        <time>2015-06-21T08:36:02Z</time>
      </trkpt>
      <trkpt lat="45.38661" lon="5.67307">
        <ele>670</ele>
        <time>2015-06-21T08:36:07Z</time>
      </trkpt>
      <trkpt lat="45.38671" lon="5.67306">
        <ele>673</ele>
        <time>2015-06-21T08:36:14Z</time>
      </trkpt>
      <trkpt lat="45.38681" lon="5.67303">
        <ele>674</ele>
        <time>2015-06-21T08:36:20Z</time>
      </trkpt>
      <trkpt lat="45.38691" lon="5.67302">
        <ele>674</ele>
        <time>2015-06-21T08:36:26Z</time>
      </trkpt>
      <trkpt lat="45.38701" lon="5.673">
        <ele>674</ele>
        <time>2015-06-21T08:36:31Z</time>
      </trkpt>
      <trkpt lat="45.38712" lon="5.67299">
        <ele>675</ele>
        <time>2015-06-21T08:36:36Z</time>
      </trkpt>
      <trkpt lat="45.38722" lon="5.67297">
        <ele>675</ele>
        <time>2015-06-21T08:36:41Z</time>
      </trkpt>
      <trkpt lat="45.38733" lon="5.67296">
        <ele>675</ele>
        <time>2015-06-21T08:36:46Z</time>
      </trkpt>
      <trkpt lat="45.38744" lon="5.67292">
        <ele>675</ele>
        <time>2015-06-21T08:36:50Z</time>
      </trkpt>
      <trkpt lat="45.38754" lon="5.67292">
        <ele>676</ele>
        <time>2015-06-21T08:36:54Z</time>
      </trkpt>
      <trkpt lat="45.38764" lon="5.6729">
        <ele>676</ele>
        <time>2015-06-21T08:37:01Z</time>
      </trkpt>
      <trkpt lat="45.38773" lon="5.67289">
        <ele>676</ele>
        <time>2015-06-21T08:37:07Z</time>
      </trkpt>
      <trkpt lat="45.38783" lon="5.67292">
        <ele>676</ele>
        <time>2015-06-21T08:37:13Z</time>
      </trkpt>
      <trkpt lat="45.38793" lon="5.67296">
        <ele>677</ele>
        <time>2015-06-21T08:37:18Z</time>
      </trkpt>
      <trkpt lat="45.38801" lon="5.67308">
        <ele>678</ele>
        <time>2015-06-21T08:37:22Z</time>
      </trkpt>
      <trkpt lat="45.38808" lon="5.6732">
        <ele>679</ele>
        <time>2015-06-21T08:37:25Z</time>
      </trkpt>
      <trkpt lat="45.38814" lon="5.67334">
        <ele>682</ele>
        <time>2015-06-21T08:37:28Z</time>
      </trkpt>
      <trkpt lat="45.38819" lon="5.67349">
        <ele>682</ele>
        <time>2015-06-21T08:37:32Z</time>
      </trkpt>
      <trkpt lat="45.38823" lon="5.67363">
        <ele>681</ele>
        <time>2015-06-21T08:37:37Z</time>
      </trkpt>
      <trkpt lat="45.38828" lon="5.67376">
        <ele>681</ele>
        <time>2015-06-21T08:37:43Z</time>
      </trkpt>
      <trkpt lat="45.38833" lon="5.67387">
        <ele>681</ele>
        <time>2015-06-21T08:37:48Z</time>
      </trkpt>
      <trkpt lat="45.38839" lon="5.67399">
        <ele>683</ele>
        <time>2015-06-21T08:37:53Z</time>
      </trkpt>
      <trkpt lat="45.38845" lon="5.6741">
        <ele>682</ele>
        <time>2015-06-21T08:37:57Z</time>
      </trkpt>
      <trkpt lat="45.38854" lon="5.6742">
        <ele>681</ele>
        <time>2015-06-21T08:38:02Z</time>
      </trkpt>
      <trkpt lat="45.3886" lon="5.67429">
        <ele>680</ele>
        <time>2015-06-21T08:38:06Z</time>
      </trkpt>
      <trkpt lat="45.38866" lon="5.67441">
        <ele>680</ele>
        <time>2015-06-21T08:38:10Z</time>
      </trkpt>
      <trkpt lat="45.38875" lon="5.67449">
        <ele>680</ele>
        <time>2015-06-21T08:38:14Z</time>
      </trkpt>
      <trkpt lat="45.38884" lon="5.67458">
        <ele>680</ele>
        <time>2015-06-21T08:38:18Z</time>
      </trkpt>
      <trkpt lat="45.38893" lon="5.67464">
        <ele>680</ele>
        <time>2015-06-21T08:38:21Z</time>
      </trkpt>
      <trkpt lat="45.38901" lon="5.67471">
        <ele>679</ele>
        <time>2015-06-21T08:38:24Z</time>
      </trkpt>
      <trkpt lat="45.38911" lon="5.67476">
        <ele>679</ele>
        <time>2015-06-21T08:38:28Z</time>
      </trkpt>
      <trkpt lat="45.38921" lon="5.67482">
        <ele>679</ele>
        <time>2015-06-21T08:38:32Z</time>
      </trkpt>
      <trkpt lat="45.38931" lon="5.67487">
        <ele>679</ele>
        <time>2015-06-21T08:38:35Z</time>
      </trkpt>
      <trkpt lat="45.38943" lon="5.67493">
        <ele>679</ele>
        <time>2015-06-21T08:38:38Z</time>
      </trkpt>
      <trkpt lat="45.38952" lon="5.675">
        <ele>679</ele>
        <time>2015-06-21T08:38:41Z</time>
      </trkpt>
      <trkpt lat="45.38961" lon="5.67505">
        <ele>674</ele>
        <time>2015-06-21T08:38:45Z</time>
      </trkpt>
      <trkpt lat="45.38969" lon="5.67509">
        <ele>674</ele>
        <time>2015-06-21T08:38:48Z</time>
      </trkpt>
      <trkpt lat="45.38978" lon="5.67521">
        <ele>674</ele>
        <time>2015-06-21T08:38:51Z</time>
      </trkpt>
      <trkpt lat="45.38985" lon="5.67534">
        <ele>673</ele>
        <time>2015-06-21T08:38:54Z</time>
      </trkpt>
      <trkpt lat="45.38992" lon="5.67543">
        <ele>672</ele>
        <time>2015-06-21T08:38:56Z</time>
      </trkpt>
      <trkpt lat="45.39" lon="5.67551">
        <ele>670</ele>
        <time>2015-06-21T08:38:58Z</time>
      </trkpt>
      <trkpt lat="45.39011" lon="5.67555">
        <ele>670</ele>
        <time>2015-06-21T08:39:00Z</time>
      </trkpt>
      <trkpt lat="45.39021" lon="5.67554">
        <ele>670</ele>
        <time>2015-06-21T08:39:03Z</time>
      </trkpt>
      <trkpt lat="45.3903" lon="5.6755">
        <ele>670</ele>
        <time>2015-06-21T08:39:06Z</time>
      </trkpt>
      <trkpt lat="45.3904" lon="5.67543">
        <ele>670</ele>
        <time>2015-06-21T08:39:09Z</time>
      </trkpt>
      <trkpt lat="45.39052" lon="5.67542">
        <ele>669</ele>
        <time>2015-06-21T08:39:12Z</time>
      </trkpt>
      <trkpt lat="45.39063" lon="5.67543">
        <ele>669</ele>
        <time>2015-06-21T08:39:15Z</time>
      </trkpt>
      <trkpt lat="45.39073" lon="5.67548">
        <ele>668</ele>
        <time>2015-06-21T08:39:20Z</time>
      </trkpt>
      <trkpt lat="45.39082" lon="5.67552">
        <ele>668</ele>
        <time>2015-06-21T08:39:24Z</time>
      </trkpt>
      <trkpt lat="45.39091" lon="5.67558">
        <ele>664</ele>
        <time>2015-06-21T08:39:28Z</time>
      </trkpt>
      <trkpt lat="45.39099" lon="5.67565">
        <ele>664</ele>
        <time>2015-06-21T08:39:32Z</time>
      </trkpt>
      <trkpt lat="45.39104" lon="5.67577">
        <ele>664</ele>
        <time>2015-06-21T08:39:36Z</time>
      </trkpt>
      <trkpt lat="45.39108" lon="5.6759">
        <ele>663</ele>
        <time>2015-06-21T08:39:39Z</time>
      </trkpt>
      <trkpt lat="45.39113" lon="5.67602">
        <ele>662</ele>
        <time>2015-06-21T08:39:42Z</time>
      </trkpt>
      <trkpt lat="45.39118" lon="5.67614">
        <ele>662</ele>
        <time>2015-06-21T08:39:45Z</time>
      </trkpt>
      <trkpt lat="45.39123" lon="5.67625">
        <ele>662</ele>
        <time>2015-06-21T08:39:48Z</time>
      </trkpt>
      <trkpt lat="45.39128" lon="5.67638">
        <ele>661</ele>
        <time>2015-06-21T08:39:52Z</time>
      </trkpt>
      <trkpt lat="45.39128" lon="5.67652">
        <ele>661</ele>
        <time>2015-06-21T08:39:56Z</time>
      </trkpt>
      <trkpt lat="45.39131" lon="5.67667">
        <ele>660</ele>
        <time>2015-06-21T08:40:00Z</time>
      </trkpt>
      <trkpt lat="45.39135" lon="5.6768">
        <ele>659</ele>
        <time>2015-06-21T08:40:04Z</time>
      </trkpt>
      <trkpt lat="45.39135" lon="5.67695">
        <ele>659</ele>
        <time>2015-06-21T08:40:09Z</time>
      </trkpt>
      <trkpt lat="45.39134" lon="5.67709">
        <ele>659</ele>
        <time>2015-06-21T08:40:13Z</time>
      </trkpt>
      <trkpt lat="45.39136" lon="5.67725">
        <ele>659</ele>
        <time>2015-06-21T08:40:18Z</time>
      </trkpt>
      <trkpt lat="45.39139" lon="5.6774">
        <ele>659</ele>
        <time>2015-06-21T08:40:22Z</time>
      </trkpt>
      <trkpt lat="45.39141" lon="5.67754">
        <ele>656</ele>
        <time>2015-06-21T08:40:26Z</time>
      </trkpt>
      <trkpt lat="45.39143" lon="5.6777">
        <ele>656</ele>
        <time>2015-06-21T08:40:30Z</time>
      </trkpt>
      <trkpt lat="45.39145" lon="5.67782">
        <ele>656</ele>
        <time>2015-06-21T08:40:34Z</time>
      </trkpt>
      <trkpt lat="45.39151" lon="5.67794">
        <ele>655</ele>
        <time>2015-06-21T08:40:38Z</time>
      </trkpt>
      <trkpt lat="45.39157" lon="5.67808">
        <ele>655</ele>
        <time>2015-06-21T08:40:41Z</time>
      </trkpt>
      <trkpt lat="45.39167" lon="5.67814">
        <ele>655</ele>
        <time>2015-06-21T08:40:45Z</time>
      </trkpt>
      <trkpt lat="45.39176" lon="5.67823">
        <ele>655</ele>
        <time>2015-06-21T08:40:49Z</time>
      </trkpt>
      <trkpt lat="45.39182" lon="5.67835">
        <ele>654</ele>
        <time>2015-06-21T08:40:53Z</time>
      </trkpt>
      <trkpt lat="45.39188" lon="5.67847">
        <ele>653</ele>
        <time>2015-06-21T08:40:57Z</time>
      </trkpt>
      <trkpt lat="45.39194" lon="5.6786">
        <ele>653</ele>
        <time>2015-06-21T08:41:02Z</time>
      </trkpt>
      <trkpt lat="45.39203" lon="5.67868">
        <ele>653</ele>
        <time>2015-06-21T08:41:06Z</time>
      </trkpt>
      <trkpt lat="45.39213" lon="5.67875">
        <ele>653</ele>
        <time>2015-06-21T08:41:09Z</time>
      </trkpt>
      <trkpt lat="45.3922" lon="5.67887">
        <ele>653</ele>
        <time>2015-06-21T08:41:12Z</time>
      </trkpt>
      <trkpt lat="45.3923" lon="5.67898">
        <ele>653</ele>
        <time>2015-06-21T08:41:15Z</time>
      </trkpt>
      <trkpt lat="45.39238" lon="5.67908">
        <ele>653</ele>
        <time>2015-06-21T08:41:18Z</time>
      </trkpt>
      <trkpt lat="45.39246" lon="5.67913">
        <ele>653</ele>
        <time>2015-06-21T08:41:21Z</time>
      </trkpt>
      <trkpt lat="45.39253" lon="5.67922">
        <ele>652</ele>
        <time>2015-06-21T08:41:25Z</time>
      </trkpt>
      <trkpt lat="45.3926" lon="5.67933">
        <ele>652</ele>
        <time>2015-06-21T08:41:30Z</time>
      </trkpt>
      <trkpt lat="45.39268" lon="5.67945">
        <ele>651</ele>
        <time>2015-06-21T08:41:34Z</time>
      </trkpt>
      <trkpt lat="45.39277" lon="5.67952">
        <ele>651</ele>
        <time>2015-06-21T08:41:37Z</time>
      </trkpt>
      <trkpt lat="45.39286" lon="5.67955">
        <ele>651</ele>
        <time>2015-06-21T08:41:40Z</time>
      </trkpt>
      <trkpt lat="45.39296" lon="5.67955">
        <ele>651</ele>
        <time>2015-06-21T08:41:43Z</time>
      </trkpt>
      <trkpt lat="45.39307" lon="5.67961">
        <ele>650</ele>
        <time>2015-06-21T08:41:47Z</time>
      </trkpt>
      <trkpt lat="45.39317" lon="5.67965">
        <ele>650</ele>
        <time>2015-06-21T08:41:51Z</time>
      </trkpt>
      <trkpt lat="45.39327" lon="5.67971">
        <ele>650</ele>
        <time>2015-06-21T08:41:55Z</time>
      </trkpt>
      <trkpt lat="45.39337" lon="5.67968">
        <ele>648</ele>
        <time>2015-06-21T08:41:59Z</time>
      </trkpt>
      <trkpt lat="45.39347" lon="5.67967">
        <ele>648</ele>
        <time>2015-06-21T08:42:08Z</time>
      </trkpt>
      <trkpt lat="45.39358" lon="5.67972">
        <ele>648</ele>
        <time>2015-06-21T08:42:16Z</time>
      </trkpt>
      <trkpt lat="45.39366" lon="5.67979">
        <ele>647</ele>
        <time>2015-06-21T08:42:20Z</time>
      </trkpt>
      <trkpt lat="45.39374" lon="5.67987">
        <ele>647</ele>
        <time>2015-06-21T08:42:24Z</time>
      </trkpt>
      <trkpt lat="45.39384" lon="5.67992">
        <ele>647</ele>
        <time>2015-06-21T08:42:28Z</time>
      </trkpt>
      <trkpt lat="45.39394" lon="5.67998">
        <ele>646</ele>
        <time>2015-06-21T08:42:31Z</time>
      </trkpt>
      <trkpt lat="45.39403" lon="5.68004">
        <ele>644</ele>
        <time>2015-06-21T08:42:34Z</time>
      </trkpt>
      <trkpt lat="45.39413" lon="5.6801">
        <ele>644</ele>
        <time>2015-06-21T08:42:38Z</time>
      </trkpt>
      <trkpt lat="45.39421" lon="5.68019">
        <ele>641</ele>
        <time>2015-06-21T08:42:42Z</time>
      </trkpt>
      <trkpt lat="45.3943" lon="5.68025">
        <ele>641</ele>
        <time>2015-06-21T08:42:45Z</time>
      </trkpt>
      <trkpt lat="45.3944" lon="5.68033">
        <ele>640</ele>
        <time>2015-06-21T08:42:48Z</time>
      </trkpt>
      <trkpt lat="45.39449" lon="5.68044">
        <ele>640</ele>
        <time>2015-06-21T08:42:51Z</time>
      </trkpt>
      <trkpt lat="45.39459" lon="5.68051">
        <ele>639</ele>
        <time>2015-06-21T08:42:55Z</time>
      </trkpt>
      <trkpt lat="45.39468" lon="5.68063">
        <ele>638</ele>
        <time>2015-06-21T08:42:59Z</time>
      </trkpt>
      <trkpt lat="45.39476" lon="5.6807">
        <ele>638</ele>
        <time>2015-06-21T08:43:02Z</time>
      </trkpt>
      <trkpt lat="45.39486" lon="5.68079">
        <ele>636</ele>
        <time>2015-06-21T08:43:05Z</time>
      </trkpt>
      <trkpt lat="45.39496" lon="5.6809">
        <ele>636</ele>
        <time>2015-06-21T08:43:08Z</time>
      </trkpt>
      <trkpt lat="45.39504" lon="5.68099">
        <ele>634</ele>
        <time>2015-06-21T08:43:10Z</time>
      </trkpt>
      <trkpt lat="45.39512" lon="5.68106">
        <ele>634</ele>
        <time>2015-06-21T08:43:12Z</time>
      </trkpt>
      <trkpt lat="45.39522" lon="5.68117">
        <ele>634</ele>
        <time>2015-06-21T08:43:15Z</time>
      </trkpt>
      <trkpt lat="45.3953" lon="5.68127">
        <ele>634</ele>
        <time>2015-06-21T08:43:18Z</time>
      </trkpt>
      <trkpt lat="45.39535" lon="5.68137">
        <ele>634</ele>
        <time>2015-06-21T08:43:21Z</time>
      </trkpt>
      <trkpt lat="45.39543" lon="5.68148">
        <ele>634</ele>
        <time>2015-06-21T08:43:24Z</time>
      </trkpt>
      <trkpt lat="45.39551" lon="5.6816">
        <ele>634</ele>
        <time>2015-06-21T08:43:28Z</time>
      </trkpt>
      <trkpt lat="45.39558" lon="5.68169">
        <ele>636</ele>
        <time>2015-06-21T08:43:32Z</time>
      </trkpt>
      <trkpt lat="45.39565" lon="5.68177">
        <ele>636</ele>
        <time>2015-06-21T08:43:35Z</time>
      </trkpt>
      <trkpt lat="45.39573" lon="5.68186">
        <ele>636</ele>
        <time>2015-06-21T08:43:38Z</time>
      </trkpt>
      <trkpt lat="45.3958" lon="5.68197">
        <ele>636</ele>
        <time>2015-06-21T08:43:42Z</time>
      </trkpt>
      <trkpt lat="45.39586" lon="5.68207">
        <ele>635</ele>
        <time>2015-06-21T08:43:46Z</time>
      </trkpt>
      <trkpt lat="45.39592" lon="5.68217">
        <ele>635</ele>
        <time>2015-06-21T08:43:50Z</time>
      </trkpt>
      <trkpt lat="45.39597" lon="5.68228">
        <ele>636</ele>
        <time>2015-06-21T08:43:53Z</time>
      </trkpt>
      <trkpt lat="45.39604" lon="5.6824">
        <ele>636</ele>
        <time>2015-06-21T08:43:56Z</time>
      </trkpt>
      <trkpt lat="45.39613" lon="5.68253">
        <ele>636</ele>
        <time>2015-06-21T08:43:59Z</time>
      </trkpt>
      <trkpt lat="45.3962" lon="5.68266">
        <ele>635</ele>
        <time>2015-06-21T08:44:03Z</time>
      </trkpt>
      <trkpt lat="45.39626" lon="5.68278">
        <ele>635</ele>
        <time>2015-06-21T08:44:07Z</time>
      </trkpt>
      <trkpt lat="45.39633" lon="5.68292">
        <ele>634</ele>
        <time>2015-06-21T08:44:11Z</time>
      </trkpt>
      <trkpt lat="45.3964" lon="5.68302">
        <ele>634</ele>
        <time>2015-06-21T08:44:14Z</time>
      </trkpt>
      <trkpt lat="45.39647" lon="5.68314">
        <ele>633</ele>
        <time>2015-06-21T08:44:18Z</time>
      </trkpt>
      <trkpt lat="45.39653" lon="5.68327">
        <ele>633</ele>
        <time>2015-06-21T08:44:22Z</time>
      </trkpt>
      <trkpt lat="45.39659" lon="5.68339">
        <ele>631</ele>
        <time>2015-06-21T08:44:26Z</time>
      </trkpt>
      <trkpt lat="45.39663" lon="5.68351">
        <ele>630</ele>
        <time>2015-06-21T08:44:30Z</time>
      </trkpt>
      <trkpt lat="45.3967" lon="5.68362">
        <ele>629</ele>
        <time>2015-06-21T08:44:35Z</time>
      </trkpt>
      <trkpt lat="45.39677" lon="5.68372">
        <ele>628</ele>
        <time>2015-06-21T08:44:39Z</time>
      </trkpt>
      <trkpt lat="45.39684" lon="5.68388">
        <ele>628</ele>
        <time>2015-06-21T08:44:42Z</time>
      </trkpt>
      <trkpt lat="45.3969" lon="5.684">
        <ele>627</ele>
        <time>2015-06-21T08:44:44Z</time>
      </trkpt>
      <trkpt lat="45.39698" lon="5.68406">
        <ele>627</ele>
        <time>2015-06-21T08:44:46Z</time>
      </trkpt>
      <trkpt lat="45.3971" lon="5.6841">
        <ele>627</ele>
        <time>2015-06-21T08:44:50Z</time>
      </trkpt>
      <trkpt lat="45.39718" lon="5.68415">
        <ele>627</ele>
        <time>2015-06-21T08:44:54Z</time>
      </trkpt>
      <trkpt lat="45.39727" lon="5.68421">
        <ele>624</ele>
        <time>2015-06-21T08:44:59Z</time>
      </trkpt>
      <trkpt lat="45.39738" lon="5.68424">
        <ele>624</ele>
        <time>2015-06-21T08:45:04Z</time>
      </trkpt>
      <trkpt lat="45.39747" lon="5.68423">
        <ele>624</ele>
        <time>2015-06-21T08:45:09Z</time>
      </trkpt>
      <trkpt lat="45.39756" lon="5.68422">
        <ele>625</ele>
        <time>2015-06-21T08:45:15Z</time>
      </trkpt>
      <trkpt lat="45.39768" lon="5.68424">
        <ele>626</ele>
        <time>2015-06-21T08:45:20Z</time>
      </trkpt>
      <trkpt lat="45.39775" lon="5.68415">
        <ele>630</ele>
        <time>2015-06-21T08:45:24Z</time>
      </trkpt>
      <trkpt lat="45.39777" lon="5.684">
        <ele>630</ele>
        <time>2015-06-21T08:45:27Z</time>
      </trkpt>
      <trkpt lat="45.3978" lon="5.68387">
        <ele>631</ele>
        <time>2015-06-21T08:45:32Z</time>
      </trkpt>
      <trkpt lat="45.39788" lon="5.6838">
        <ele>632</ele>
        <time>2015-06-21T08:45:42Z</time>
      </trkpt>
      <trkpt lat="45.39797" lon="5.6838">
        <ele>632</ele>
        <time>2015-06-21T08:45:50Z</time>
      </trkpt>
      <trkpt lat="45.39808" lon="5.68379">
        <ele>633</ele>
        <time>2015-06-21T08:45:58Z</time>
      </trkpt>
      <trkpt lat="45.39817" lon="5.68375">
        <ele>633</ele>
        <time>2015-06-21T08:46:03Z</time>
      </trkpt>
      <trkpt lat="45.39824" lon="5.68366">
        <ele>634</ele>
        <time>2015-06-21T08:46:10Z</time>
      </trkpt>
      <trkpt lat="45.39825" lon="5.68353">
        <ele>636</ele>
        <time>2015-06-21T08:46:20Z</time>
      </trkpt>
      <trkpt lat="45.39818" lon="5.68344">
        <ele>636</ele>
        <time>2015-06-21T08:46:29Z</time>
      </trkpt>
      <trkpt lat="45.39809" lon="5.68338">
        <ele>635</ele>
        <time>2015-06-21T08:46:37Z</time>
      </trkpt>
      <trkpt lat="45.398" lon="5.68329">
        <ele>637</ele>
        <time>2015-06-21T08:46:43Z</time>
      </trkpt>
      <trkpt lat="45.39794" lon="5.68318">
        <ele>637</ele>
        <time>2015-06-21T08:46:49Z</time>
      </trkpt>
      <trkpt lat="45.39787" lon="5.68307">
        <ele>637</ele>
        <time>2015-06-21T08:46:55Z</time>
      </trkpt>
      <trkpt lat="45.39781" lon="5.6829">
        <ele>637</ele>
        <time>2015-06-21T08:46:59Z</time>
      </trkpt>
      <trkpt lat="45.39775" lon="5.68278">
        <ele>637</ele>
        <time>2015-06-21T08:47:01Z</time>
      </trkpt>
      <trkpt lat="45.39767" lon="5.68263">
        <ele>638</ele>
        <time>2015-06-21T08:47:04Z</time>
      </trkpt>
      <trkpt lat="45.39767" lon="5.68249">
        <ele>638</ele>
        <time>2015-06-21T08:47:08Z</time>
      </trkpt>
      <trkpt lat="45.3977" lon="5.68235">
        <ele>637</ele>
        <time>2015-06-21T08:47:13Z</time>
      </trkpt>
      <trkpt lat="45.39764" lon="5.68225">
        <ele>637</ele>
        <time>2015-06-21T08:47:18Z</time>
      </trkpt>
      <trkpt lat="45.39756" lon="5.68218">
        <ele>637</ele>
        <time>2015-06-21T08:47:21Z</time>
      </trkpt>
      <trkpt lat="45.39749" lon="5.6821">
        <ele>636</ele>
        <time>2015-06-21T08:47:24Z</time>
      </trkpt>
      <trkpt lat="45.3974" lon="5.68202">
        <ele>636</ele>
        <time>2015-06-21T08:47:29Z</time>
      </trkpt>
      <trkpt lat="45.39739" lon="5.68186">
        <ele>636</ele>
        <time>2015-06-21T08:47:34Z</time>
      </trkpt>
      <trkpt lat="45.39738" lon="5.68173">
        <ele>636</ele>
        <time>2015-06-21T08:47:37Z</time>
      </trkpt>
      <trkpt lat="45.39739" lon="5.6816">
        <ele>633</ele>
        <time>2015-06-21T08:47:40Z</time>
      </trkpt>
      <trkpt lat="45.39737" lon="5.68146">
        <ele>631</ele>
        <time>2015-06-21T08:47:44Z</time>
      </trkpt>
      <trkpt lat="45.39744" lon="5.68138">
        <ele>631</ele>
        <time>2015-06-21T08:47:52Z</time>
      </trkpt>
      <trkpt lat="45.39752" lon="5.68132">
        <ele>626</ele>
        <time>2015-06-21T08:47:57Z</time>
      </trkpt>
      <trkpt lat="45.39762" lon="5.68126">
        <ele>625</ele>
        <time>2015-06-21T08:48:00Z</time>
      </trkpt>
      <trkpt lat="45.39772" lon="5.68125">
        <ele>624</ele>
        <time>2015-06-21T08:48:03Z</time>
      </trkpt>
      <trkpt lat="45.39785" lon="5.68124">
        <ele>623</ele>
        <time>2015-06-21T08:48:06Z</time>
      </trkpt>
      <trkpt lat="45.39795" lon="5.68126">
        <ele>623</ele>
        <time>2015-06-21T08:48:09Z</time>
      </trkpt>
      <trkpt lat="45.39806" lon="5.68129">
        <ele>623</ele>
        <time>2015-06-21T08:48:14Z</time>
      </trkpt>
      <trkpt lat="45.39815" lon="5.68129">
        <ele>623</ele>
        <time>2015-06-21T08:48:19Z</time>
      </trkpt>
      <trkpt lat="45.39824" lon="5.6813">
        <ele>623</ele>
        <time>2015-06-21T08:48:28Z</time>
      </trkpt>
      <trkpt lat="45.39835" lon="5.6813">
        <ele>616</ele>
        <time>2015-06-21T08:48:41Z</time>
      </trkpt>
      <trkpt lat="45.39846" lon="5.68136">
        <ele>617</ele>
        <time>2015-06-21T08:48:44Z</time>
      </trkpt>
      <trkpt lat="45.39858" lon="5.68143">
        <ele>616</ele>
        <time>2015-06-21T08:48:47Z</time>
      </trkpt>
      <trkpt lat="45.39869" lon="5.68149">
        <ele>616</ele>
        <time>2015-06-21T08:48:50Z</time>
      </trkpt>
      <trkpt lat="45.39878" lon="5.68154">
        <ele>615</ele>
        <time>2015-06-21T08:48:53Z</time>
      </trkpt>
      <trkpt lat="45.39888" lon="5.68163">
        <ele>614</ele>
        <time>2015-06-21T08:48:56Z</time>
      </trkpt>
      <trkpt lat="45.39896" lon="5.68172">
        <ele>623</ele>
        <time>2015-06-21T08:48:59Z</time>
      </trkpt>
      <trkpt lat="45.39905" lon="5.68183">
        <ele>622</ele>
        <time>2015-06-21T08:49:03Z</time>
      </trkpt>
      <trkpt lat="45.39913" lon="5.6819">
        <ele>623</ele>
        <time>2015-06-21T08:49:06Z</time>
      </trkpt>
      <trkpt lat="45.39921" lon="5.68205">
        <ele>617</ele>
        <time>2015-06-21T08:49:10Z</time>
      </trkpt>
      <trkpt lat="45.39928" lon="5.68215">
        <ele>618</ele>
        <time>2015-06-21T08:49:13Z</time>
      </trkpt>
      <trkpt lat="45.39935" lon="5.68224">
        <ele>619</ele>
        <time>2015-06-21T08:49:16Z</time>
      </trkpt>
      <trkpt lat="45.39945" lon="5.68229">
        <ele>619</ele>
        <time>2015-06-21T08:49:18Z</time>
      </trkpt>
      <trkpt lat="45.39956" lon="5.68234">
        <ele>618</ele>
        <time>2015-06-21T08:49:21Z</time>
      </trkpt>
      <trkpt lat="45.39969" lon="5.68239">
        <ele>617</ele>
        <time>2015-06-21T08:49:24Z</time>
      </trkpt>
      <trkpt lat="45.39977" lon="5.68246">
        <ele>617</ele>
        <time>2015-06-21T08:49:27Z</time>
      </trkpt>
      <trkpt lat="45.39988" lon="5.68253">
        <ele>622</ele>
        <time>2015-06-21T08:49:31Z</time>
      </trkpt>
      <trkpt lat="45.39997" lon="5.68257">
        <ele>620</ele>
        <time>2015-06-21T08:49:33Z</time>
      </trkpt>
      <trkpt lat="45.40006" lon="5.6826">
        <ele>619</ele>
        <time>2015-06-21T08:49:35Z</time>
      </trkpt>
      <trkpt lat="45.40016" lon="5.6826">
        <ele>620</ele>
        <time>2015-06-21T08:49:37Z</time>
      </trkpt>
      <trkpt lat="45.40027" lon="5.68255">
        <ele>620</ele>
        <time>2015-06-21T08:49:39Z</time>
      </trkpt>
      <trkpt lat="45.4004" lon="5.6825">
        <ele>620</ele>
        <time>2015-06-21T08:49:41Z</time>
      </trkpt>
      <trkpt lat="45.40052" lon="5.68245">
        <ele>610</ele>
        <time>2015-06-21T08:49:43Z</time>
      </trkpt>
      <trkpt lat="45.40063" lon="5.68241">
        <ele>610</ele>
        <time>2015-06-21T08:49:45Z</time>
      </trkpt>
      <trkpt lat="45.40073" lon="5.68234">
        <ele>610</ele>
        <time>2015-06-21T08:49:47Z</time>
      </trkpt>
      <trkpt lat="45.40078" lon="5.68223">
        <ele>609</ele>
        <time>2015-06-21T08:49:50Z</time>
      </trkpt>
      <trkpt lat="45.40075" lon="5.68211">
        <ele>608</ele>
        <time>2015-06-21T08:49:54Z</time>
      </trkpt>
      <trkpt lat="45.40078" lon="5.68195">
        <ele>607</ele>
        <time>2015-06-21T08:49:59Z</time>
      </trkpt>
      <trkpt lat="45.40082" lon="5.68183">
        <ele>605</ele>
        <time>2015-06-21T08:50:02Z</time>
      </trkpt>
      <trkpt lat="45.4009" lon="5.68172">
        <ele>604</ele>
        <time>2015-06-21T08:50:06Z</time>
      </trkpt>
      <trkpt lat="45.40098" lon="5.6816">
        <ele>604</ele>
        <time>2015-06-21T08:50:09Z</time>
      </trkpt>
      <trkpt lat="45.40107" lon="5.68153">
        <ele>605</ele>
        <time>2015-06-21T08:50:11Z</time>
      </trkpt>
      <trkpt lat="45.40118" lon="5.68151">
        <ele>605</ele>
        <time>2015-06-21T08:50:14Z</time>
      </trkpt>
      <trkpt lat="45.40127" lon="5.6815">
        <ele>606</ele>
        <time>2015-06-21T08:50:18Z</time>
      </trkpt>
      <trkpt lat="45.40136" lon="5.68145">
        <ele>606</ele>
        <time>2015-06-21T08:50:25Z</time>
      </trkpt>
      <trkpt lat="45.40145" lon="5.6814">
        <ele>607</ele>
        <time>2015-06-21T08:50:32Z</time>
      </trkpt>
      <trkpt lat="45.40154" lon="5.68138">
        <ele>607</ele>
        <time>2015-06-21T08:50:37Z</time>
      </trkpt>
      <trkpt lat="45.40164" lon="5.68135">
        <ele>607</ele>
        <time>2015-06-21T08:50:46Z</time>
      </trkpt>
      <trkpt lat="45.40174" lon="5.68136">
        <ele>610</ele>
        <time>2015-06-21T08:50:53Z</time>
      </trkpt>
      <trkpt lat="45.40183" lon="5.68136">
        <ele>610</ele>
        <time>2015-06-21T08:50:59Z</time>
      </trkpt>
      <trkpt lat="45.40192" lon="5.68137">
        <ele>611</ele>
        <time>2015-06-21T08:51:05Z</time>
      </trkpt>
      <trkpt lat="45.40202" lon="5.68139">
        <ele>611</ele>
        <time>2015-06-21T08:51:11Z</time>
      </trkpt>
      <trkpt lat="45.40211" lon="5.68142">
        <ele>611</ele>
        <time>2015-06-21T08:51:18Z</time>
      </trkpt>
      <trkpt lat="45.4022" lon="5.68147">
        <ele>611</ele>
        <time>2015-06-21T08:51:29Z</time>
      </trkpt>
      <trkpt lat="45.40227" lon="5.68155">
        <ele>611</ele>
        <time>2015-06-21T08:51:42Z</time>
      </trkpt>
      <trkpt lat="45.40237" lon="5.68158">
        <ele>611</ele>
        <time>2015-06-21T08:52:01Z</time>
      </trkpt>
      <trkpt lat="45.40245" lon="5.68165">
        <ele>611</ele>
        <time>2015-06-21T08:52:16Z</time>
      </trkpt>
      <trkpt lat="45.40254" lon="5.68172">
        <ele>613</ele>
        <time>2015-06-21T08:52:25Z</time>
      </trkpt>
      <trkpt lat="45.4026" lon="5.68181">
        <ele>614</ele>
        <time>2015-06-21T08:52:33Z</time>
      </trkpt>
      <trkpt lat="45.40268" lon="5.6819">
        <ele>616</ele>
        <time>2015-06-21T08:52:40Z</time>
      </trkpt>
      <trkpt lat="45.40276" lon="5.68197">
        <ele>617</ele>
        <time>2015-06-21T08:52:47Z</time>
      </trkpt>
      <trkpt lat="45.40285" lon="5.68205">
        <ele>617</ele>
        <time>2015-06-21T08:52:52Z</time>
      </trkpt>
      <trkpt lat="45.40294" lon="5.68211">
        <ele>618</ele>
        <time>2015-06-21T08:52:56Z</time>
      </trkpt>
      <trkpt lat="45.40303" lon="5.68217">
        <ele>618</ele>
        <time>2015-06-21T08:53:00Z</time>
      </trkpt>
      <trkpt lat="45.40314" lon="5.68219">
        <ele>618</ele>
        <time>2015-06-21T08:53:04Z</time>
      </trkpt>
      <trkpt lat="45.40323" lon="5.68221">
        <ele>618</ele>
        <time>2015-06-21T08:53:10Z</time>
      </trkpt>
      <trkpt lat="45.40332" lon="5.68224">
        <ele>619</ele>
        <time>2015-06-21T08:53:15Z</time>
      </trkpt>
      <trkpt lat="45.40343" lon="5.68227">
        <ele>619</ele>
        <time>2015-06-21T08:53:22Z</time>
      </trkpt>
      <trkpt lat="45.40353" lon="5.68231">
        <ele>619</ele>
        <time>2015-06-21T08:53:30Z</time>
      </trkpt>
      <trkpt lat="45.40363" lon="5.68233">
        <ele>619</ele>
        <time>2015-06-21T08:53:36Z</time>
      </trkpt>
      <trkpt lat="45.40372" lon="5.6824">
        <ele>619</ele>
        <time>2015-06-21T08:53:43Z</time>
      </trkpt>
      <trkpt lat="45.4038" lon="5.68246">
        <ele>619</ele>
        <time>2015-06-21T08:53:47Z</time>
      </trkpt>
      <trkpt lat="45.40389" lon="5.68252">
        <ele>625</ele>
        <time>2015-06-21T08:53:53Z</time>
      </trkpt>
      <trkpt lat="45.40396" lon="5.6826">
        <ele>624</ele>
        <time>2015-06-21T08:53:59Z</time>
      </trkpt>
      <trkpt lat="45.40405" lon="5.68267">
        <ele>624</ele>
        <time>2015-06-21T08:54:05Z</time>
      </trkpt>
      <trkpt lat="45.40414" lon="5.68275">
        <ele>625</ele>
        <time>2015-06-21T08:54:10Z</time>
      </trkpt>
      <trkpt lat="45.40422" lon="5.68279">
        <ele>621</ele>
        <time>2015-06-21T08:54:14Z</time>
      </trkpt>
      <trkpt lat="45.40432" lon="5.68287">
        <ele>621</ele>
        <time>2015-06-21T08:54:19Z</time>
      </trkpt>
      <trkpt lat="45.40441" lon="5.68294">
        <ele>621</ele>
        <time>2015-06-21T08:54:24Z</time>
      </trkpt>
      <trkpt lat="45.40446" lon="5.68306">
        <ele>622</ele>
        <time>2015-06-21T08:54:30Z</time>
      </trkpt>
      <trkpt lat="45.40454" lon="5.68313">
        <ele>621</ele>
        <time>2015-06-21T08:54:35Z</time>
      </trkpt>
      <trkpt lat="45.40463" lon="5.68319">
        <ele>620</ele>
        <time>2015-06-21T08:54:39Z</time>
      </trkpt>
      <trkpt lat="45.40472" lon="5.68324">
        <ele>619</ele>
        <time>2015-06-21T08:54:43Z</time>
      </trkpt>
      <trkpt lat="45.40483" lon="5.68328">
        <ele>618</ele>
        <time>2015-06-21T08:54:47Z</time>
      </trkpt>
      <trkpt lat="45.40493" lon="5.68329">
        <ele>617</ele>
        <time>2015-06-21T08:54:50Z</time>
      </trkpt>
      <trkpt lat="45.40503" lon="5.68332">
        <ele>614</ele>
        <time>2015-06-21T08:54:53Z</time>
      </trkpt>
      <trkpt lat="45.40514" lon="5.68336">
        <ele>616</ele>
        <time>2015-06-21T08:54:56Z</time>
      </trkpt>
      <trkpt lat="45.40524" lon="5.68341">
        <ele>616</ele>
        <time>2015-06-21T08:54:59Z</time>
      </trkpt>
      <trkpt lat="45.40534" lon="5.68346">
        <ele>616</ele>
        <time>2015-06-21T08:55:02Z</time>
      </trkpt>
      <trkpt lat="45.40543" lon="5.68351">
        <ele>616</ele>
        <time>2015-06-21T08:55:05Z</time>
      </trkpt>
      <trkpt lat="45.40553" lon="5.68356">
        <ele>615</ele>
        <time>2015-06-21T08:55:08Z</time>
      </trkpt>
      <trkpt lat="45.40562" lon="5.68353">
        <ele>614</ele>
        <time>2015-06-21T08:55:12Z</time>
      </trkpt>
      <trkpt lat="45.4057" lon="5.68358">
        <ele>614</ele>
        <time>2015-06-21T08:55:15Z</time>
      </trkpt>
      <trkpt lat="45.40579" lon="5.68365">
        <ele>615</ele>
        <time>2015-06-21T08:55:18Z</time>
      </trkpt>
      <trkpt lat="45.4059" lon="5.68373">
        <ele>611</ele>
        <time>2015-06-21T08:55:21Z</time>
      </trkpt>
      <trkpt lat="45.406" lon="5.68382">
        <ele>611</ele>
        <time>2015-06-21T08:55:24Z</time>
      </trkpt>
      <trkpt lat="45.40611" lon="5.68387">
        <ele>611</ele>
        <time>2015-06-21T08:55:27Z</time>
      </trkpt>
      <trkpt lat="45.40623" lon="5.68393">
        <ele>611</ele>
        <time>2015-06-21T08:55:30Z</time>
      </trkpt>
      <trkpt lat="45.40634" lon="5.68399">
        <ele>611</ele>
        <time>2015-06-21T08:55:33Z</time>
      </trkpt>
      <trkpt lat="45.40645" lon="5.68405">
        <ele>611</ele>
        <time>2015-06-21T08:55:36Z</time>
      </trkpt>
      <trkpt lat="45.40655" lon="5.68414">
        <ele>612</ele>
        <time>2015-06-21T08:55:39Z</time>
      </trkpt>
      <trkpt lat="45.40665" lon="5.68422">
        <ele>614</ele>
        <time>2015-06-21T08:55:42Z</time>
      </trkpt>
      <trkpt lat="45.40673" lon="5.68431">
        <ele>613</ele>
        <time>2015-06-21T08:55:45Z</time>
      </trkpt>
      <trkpt lat="45.4068" lon="5.6844">
        <ele>613</ele>
        <time>2015-06-21T08:55:48Z</time>
      </trkpt>
      <trkpt lat="45.40686" lon="5.68452">
        <ele>614</ele>
        <time>2015-06-21T08:55:52Z</time>
      </trkpt>
      <trkpt lat="45.40691" lon="5.68466">
        <ele>614</ele>
        <time>2015-06-21T08:55:56Z</time>
      </trkpt>
      <trkpt lat="45.40697" lon="5.68481">
        <ele>615</ele>
        <time>2015-06-21T08:56:00Z</time>
      </trkpt>
      <trkpt lat="45.40702" lon="5.68493">
        <ele>615</ele>
        <time>2015-06-21T08:56:03Z</time>
      </trkpt>
      <trkpt lat="45.40707" lon="5.68506">
        <ele>619</ele>
        <time>2015-06-21T08:56:06Z</time>
      </trkpt>
      <trkpt lat="45.40712" lon="5.68518">
        <ele>619</ele>
        <time>2015-06-21T08:56:09Z</time>
      </trkpt>
      <trkpt lat="45.40716" lon="5.68529">
        <ele>619</ele>
        <time>2015-06-21T08:56:12Z</time>
      </trkpt>
      <trkpt lat="45.4072" lon="5.6854">
        <ele>620</ele>
        <time>2015-06-21T08:56:15Z</time>
      </trkpt>
      <trkpt lat="45.40723" lon="5.68553">
        <ele>620</ele>
        <time>2015-06-21T08:56:18Z</time>
      </trkpt>
      <trkpt lat="45.40726" lon="5.68566">
        <ele>620</ele>
        <time>2015-06-21T08:56:21Z</time>
      </trkpt>
      <trkpt lat="45.4073" lon="5.68578">
        <ele>619</ele>
        <time>2015-06-21T08:56:24Z</time>
      </trkpt>
      <trkpt lat="45.40735" lon="5.68593">
        <ele>623</ele>
        <time>2015-06-21T08:56:28Z</time>
      </trkpt>
      <trkpt lat="45.40741" lon="5.68608">
        <ele>624</ele>
        <time>2015-06-21T08:56:32Z</time>
      </trkpt>
      <trkpt lat="45.40745" lon="5.6862">
        <ele>625</ele>
        <time>2015-06-21T08:56:35Z</time>
      </trkpt>
      <trkpt lat="45.40749" lon="5.68632">
        <ele>626</ele>
        <time>2015-06-21T08:56:38Z</time>
      </trkpt>
      <trkpt lat="45.40752" lon="5.68645">
        <ele>619</ele>
        <time>2015-06-21T08:56:41Z</time>
      </trkpt>
      <trkpt lat="45.40755" lon="5.68657">
        <ele>620</ele>
        <time>2015-06-21T08:56:44Z</time>
      </trkpt>
      <trkpt lat="45.40759" lon="5.6867">
        <ele>622</ele>
        <time>2015-06-21T08:56:47Z</time>
      </trkpt>
      <trkpt lat="45.4076" lon="5.68683">
        <ele>621</ele>
        <time>2015-06-21T08:56:50Z</time>
      </trkpt>
      <trkpt lat="45.40765" lon="5.68696">
        <ele>621</ele>
        <time>2015-06-21T08:56:54Z</time>
      </trkpt>
      <trkpt lat="45.40772" lon="5.68704">
        <ele>620</ele>
        <time>2015-06-21T08:56:58Z</time>
      </trkpt>
      <trkpt lat="45.40777" lon="5.68717">
        <ele>621</ele>
        <time>2015-06-21T08:57:02Z</time>
      </trkpt>
      <trkpt lat="45.40781" lon="5.68733">
        <ele>621</ele>
        <time>2015-06-21T08:57:06Z</time>
      </trkpt>
      <trkpt lat="45.40786" lon="5.68744">
        <ele>621</ele>
        <time>2015-06-21T08:57:10Z</time>
      </trkpt>
      <trkpt lat="45.40797" lon="5.68746">
        <ele>619</ele>
        <time>2015-06-21T08:57:13Z</time>
      </trkpt>
      <trkpt lat="45.40807" lon="5.68747">
        <ele>618</ele>
        <time>2015-06-21T08:57:15Z</time>
      </trkpt>
      <trkpt lat="45.40818" lon="5.68747">
        <ele>617</ele>
        <time>2015-06-21T08:57:18Z</time>
      </trkpt>
      <trkpt lat="45.40828" lon="5.68742">
        <ele>616</ele>
        <time>2015-06-21T08:57:22Z</time>
      </trkpt>
      <trkpt lat="45.40842" lon="5.68744">
        <ele>614</ele>
        <time>2015-06-21T08:57:25Z</time>
      </trkpt>
      <trkpt lat="45.40851" lon="5.68748">
        <ele>613</ele>
        <time>2015-06-21T08:57:27Z</time>
      </trkpt>
      <trkpt lat="45.40859" lon="5.68753">
        <ele>615</ele>
        <time>2015-06-21T08:57:29Z</time>
      </trkpt>
      <trkpt lat="45.40867" lon="5.6876">
        <ele>615</ele>
        <time>2015-06-21T08:57:31Z</time>
      </trkpt>
      <trkpt lat="45.40875" lon="5.68767">
        <ele>615</ele>
        <time>2015-06-21T08:57:33Z</time>
      </trkpt>
      <trkpt lat="45.40886" lon="5.6877">
        <ele>614</ele>
        <time>2015-06-21T08:57:37Z</time>
      </trkpt>
      <trkpt lat="45.40895" lon="5.68765">
        <ele>614</ele>
        <time>2015-06-21T08:57:39Z</time>
      </trkpt>
      <trkpt lat="45.40905" lon="5.6876">
        <ele>613</ele>
        <time>2015-06-21T08:57:42Z</time>
      </trkpt>
      <trkpt lat="45.40916" lon="5.68767">
        <ele>613</ele>
        <time>2015-06-21T08:57:47Z</time>
      </trkpt>
      <trkpt lat="45.40924" lon="5.68774">
        <ele>611</ele>
        <time>2015-06-21T08:57:51Z</time>
      </trkpt>
      <trkpt lat="45.40932" lon="5.68785">
        <ele>611</ele>
        <time>2015-06-21T08:57:54Z</time>
      </trkpt>
      <trkpt lat="45.40937" lon="5.68795">
        <ele>611</ele>
        <time>2015-06-21T08:57:57Z</time>
      </trkpt>
      <trkpt lat="45.40946" lon="5.68801">
        <ele>611</ele>
        <time>2015-06-21T08:58:00Z</time>
      </trkpt>
      <trkpt lat="45.40956" lon="5.68809">
        <ele>611</ele>
        <time>2015-06-21T08:58:04Z</time>
      </trkpt>
      <trkpt lat="45.40968" lon="5.6881">
        <ele>610</ele>
        <time>2015-06-21T08:58:07Z</time>
      </trkpt>
      <trkpt lat="45.40978" lon="5.68807">
        <ele>610</ele>
        <time>2015-06-21T08:58:10Z</time>
      </trkpt>
      <trkpt lat="45.4099" lon="5.688">
        <ele>610</ele>
        <time>2015-06-21T08:58:13Z</time>
      </trkpt>
      <trkpt lat="45.41002" lon="5.68798">
        <ele>606</ele>
        <time>2015-06-21T08:58:16Z</time>
      </trkpt>
      <trkpt lat="45.41014" lon="5.68801">
        <ele>606</ele>
        <time>2015-06-21T08:58:19Z</time>
      </trkpt>
      <trkpt lat="45.41027" lon="5.68803">
        <ele>606</ele>
        <time>2015-06-21T08:58:22Z</time>
      </trkpt>
      <trkpt lat="45.4104" lon="5.68806">
        <ele>606</ele>
        <time>2015-06-21T08:58:25Z</time>
      </trkpt>
      <trkpt lat="45.41051" lon="5.68804">
        <ele>605</ele>
        <time>2015-06-21T08:58:28Z</time>
      </trkpt>
      <trkpt lat="45.41061" lon="5.68801">
        <ele>605</ele>
        <time>2015-06-21T08:58:32Z</time>
      </trkpt>
      <trkpt lat="45.41072" lon="5.68801">
        <ele>605</ele>
        <time>2015-06-21T08:58:37Z</time>
      </trkpt>
      <trkpt lat="45.41083" lon="5.68798">
        <ele>605</ele>
        <time>2015-06-21T08:58:42Z</time>
      </trkpt>
      <trkpt lat="45.41092" lon="5.68795">
        <ele>603</ele>
        <time>2015-06-21T08:58:47Z</time>
      </trkpt>
      <trkpt lat="45.41099" lon="5.68788">
        <ele>603</ele>
        <time>2015-06-21T08:58:52Z</time>
      </trkpt>
      <trkpt lat="45.41107" lon="5.68778">
        <ele>602</ele>
        <time>2015-06-21T08:58:58Z</time>
      </trkpt>
      <trkpt lat="45.41113" lon="5.68768">
        <ele>602</ele>
        <time>2015-06-21T08:59:02Z</time>
      </trkpt>
      <trkpt lat="45.41119" lon="5.68758">
        <ele>602</ele>
        <time>2015-06-21T08:59:07Z</time>
      </trkpt>
      <trkpt lat="45.41127" lon="5.68748">
        <ele>601</ele>
        <time>2015-06-21T08:59:13Z</time>
      </trkpt>
      <trkpt lat="45.41135" lon="5.68744">
        <ele>601</ele>
        <time>2015-06-21T08:59:18Z</time>
      </trkpt>
      <trkpt lat="45.41146" lon="5.68741">
        <ele>602</ele>
        <time>2015-06-21T08:59:23Z</time>
      </trkpt>
      <trkpt lat="45.41156" lon="5.68739">
        <ele>602</ele>
        <time>2015-06-21T08:59:28Z</time>
      </trkpt>
      <trkpt lat="45.41167" lon="5.68739">
        <ele>602</ele>
        <time>2015-06-21T08:59:33Z</time>
      </trkpt>
      <trkpt lat="45.41177" lon="5.6874">
        <ele>602</ele>
        <time>2015-06-21T08:59:36Z</time>
      </trkpt>
      <trkpt lat="45.41188" lon="5.68746">
        <ele>602</ele>
        <time>2015-06-21T08:59:41Z</time>
      </trkpt>
      <trkpt lat="45.41197" lon="5.68751">
        <ele>602</ele>
        <time>2015-06-21T08:59:45Z</time>
      </trkpt>
      <trkpt lat="45.41207" lon="5.68754">
        <ele>602</ele>
        <time>2015-06-21T08:59:49Z</time>
      </trkpt>
      <trkpt lat="45.41217" lon="5.68751">
        <ele>602</ele>
        <time>2015-06-21T08:59:52Z</time>
      </trkpt>
      <trkpt lat="45.41228" lon="5.68749">
        <ele>601</ele>
        <time>2015-06-21T08:59:55Z</time>
      </trkpt>
      <trkpt lat="45.41238" lon="5.68747">
        <ele>601</ele>
        <time>2015-06-21T08:59:58Z</time>
      </trkpt>
      <trkpt lat="45.41248" lon="5.68744">
        <ele>600</ele>
        <time>2015-06-21T09:00:01Z</time>
      </trkpt>
      <trkpt lat="45.41257" lon="5.68745">
        <ele>600</ele>
        <time>2015-06-21T09:00:04Z</time>
      </trkpt>
      <trkpt lat="45.41262" lon="5.68757">
        <ele>601</ele>
        <time>2015-06-21T09:00:08Z</time>
      </trkpt>
      <trkpt lat="45.41265" lon="5.68774">
        <ele>601</ele>
        <time>2015-06-21T09:00:12Z</time>
      </trkpt>
      <trkpt lat="45.41268" lon="5.68787">
        <ele>601</ele>
        <time>2015-06-21T09:00:15Z</time>
      </trkpt>
      <trkpt lat="45.41272" lon="5.68801">
        <ele>601</ele>
        <time>2015-06-21T09:00:18Z</time>
      </trkpt>
      <trkpt lat="45.41275" lon="5.68816">
        <ele>601</ele>
        <time>2015-06-21T09:00:21Z</time>
      </trkpt>
      <trkpt lat="45.41278" lon="5.68831">
        <ele>601</ele>
        <time>2015-06-21T09:00:24Z</time>
      </trkpt>
      <trkpt lat="45.41279" lon="5.68846">
        <ele>600</ele>
        <time>2015-06-21T09:00:27Z</time>
      </trkpt>
      <trkpt lat="45.41282" lon="5.68862">
        <ele>600</ele>
        <time>2015-06-21T09:00:30Z</time>
      </trkpt>
      <trkpt lat="45.41284" lon="5.68876">
        <ele>599</ele>
        <time>2015-06-21T09:00:33Z</time>
      </trkpt>
      <trkpt lat="45.41287" lon="5.68891">
        <ele>599</ele>
        <time>2015-06-21T09:00:36Z</time>
      </trkpt>
      <trkpt lat="45.41292" lon="5.68907">
        <ele>599</ele>
        <time>2015-06-21T09:00:39Z</time>
      </trkpt>
      <trkpt lat="45.41296" lon="5.68922">
        <ele>596</ele>
        <time>2015-06-21T09:00:42Z</time>
      </trkpt>
      <trkpt lat="45.41301" lon="5.68937">
        <ele>596</ele>
        <time>2015-06-21T09:00:45Z</time>
      </trkpt>
      <trkpt lat="45.41306" lon="5.68952">
        <ele>596</ele>
        <time>2015-06-21T09:00:48Z</time>
      </trkpt>
      <trkpt lat="45.41312" lon="5.68968">
        <ele>595</ele>
        <time>2015-06-21T09:00:51Z</time>
      </trkpt>
      <trkpt lat="45.41317" lon="5.68984">
        <ele>595</ele>
        <time>2015-06-21T09:00:54Z</time>
      </trkpt>
      <trkpt lat="45.41322" lon="5.69001">
        <ele>594</ele>
        <time>2015-06-21T09:00:57Z</time>
      </trkpt>
      <trkpt lat="45.41327" lon="5.69017">
        <ele>594</ele>
        <time>2015-06-21T09:01:00Z</time>
      </trkpt>
      <trkpt lat="45.41332" lon="5.69033">
        <ele>595</ele>
        <time>2015-06-21T09:01:03Z</time>
      </trkpt>
      <trkpt lat="45.41337" lon="5.69049">
        <ele>598</ele>
        <time>2015-06-21T09:01:06Z</time>
      </trkpt>
      <trkpt lat="45.41343" lon="5.69065">
        <ele>598</ele>
        <time>2015-06-21T09:01:09Z</time>
      </trkpt>
      <trkpt lat="45.41348" lon="5.69081">
        <ele>597</ele>
        <time>2015-06-21T09:01:12Z</time>
      </trkpt>
      <trkpt lat="45.41353" lon="5.69096">
        <ele>598</ele>
        <time>2015-06-21T09:01:15Z</time>
      </trkpt>
      <trkpt lat="45.41359" lon="5.69111">
        <ele>599</ele>
        <time>2015-06-21T09:01:18Z</time>
      </trkpt>
      <trkpt lat="45.41364" lon="5.69127">
        <ele>599</ele>
        <time>2015-06-21T09:01:21Z</time>
      </trkpt>
      <trkpt lat="45.41372" lon="5.69132">
        <ele>600</ele>
        <time>2015-06-21T09:01:24Z</time>
      </trkpt>
      <trkpt lat="45.41383" lon="5.69137">
        <ele>600</ele>
        <time>2015-06-21T09:01:28Z</time>
      </trkpt>
      <trkpt lat="45.41394" lon="5.69144">
        <ele>601</ele>
        <time>2015-06-21T09:01:32Z</time>
      </trkpt>
      <trkpt lat="45.41405" lon="5.69149">
        <ele>602</ele>
        <time>2015-06-21T09:01:36Z</time>
      </trkpt>
      <trkpt lat="45.41416" lon="5.69153">
        <ele>602</ele>
        <time>2015-06-21T09:01:40Z</time>
      </trkpt>
      <trkpt lat="45.41425" lon="5.69157">
        <ele>607</ele>
        <time>2015-06-21T09:01:44Z</time>
      </trkpt>
      <trkpt lat="45.41434" lon="5.69159">
        <ele>608</ele>
        <time>2015-06-21T09:01:49Z</time>
      </trkpt>
      <trkpt lat="45.41443" lon="5.69161">
        <ele>609</ele>
        <time>2015-06-21T09:01:56Z</time>
      </trkpt>
      <trkpt lat="45.41452" lon="5.69169">
        <ele>609</ele>
        <time>2015-06-21T09:02:06Z</time>
      </trkpt>
      <trkpt lat="45.41461" lon="5.69175">
        <ele>610</ele>
        <time>2015-06-21T09:02:15Z</time>
      </trkpt>
      <trkpt lat="45.41469" lon="5.69182">
        <ele>611</ele>
        <time>2015-06-21T09:02:23Z</time>
      </trkpt>
      <trkpt lat="45.41477" lon="5.6919">
        <ele>611</ele>
        <time>2015-06-21T09:02:30Z</time>
      </trkpt>
      <trkpt lat="45.41487" lon="5.69193">
        <ele>612</ele>
        <time>2015-06-21T09:02:38Z</time>
      </trkpt>
      <trkpt lat="45.41496" lon="5.69195">
        <ele>612</ele>
        <time>2015-06-21T09:02:44Z</time>
      </trkpt>
      <trkpt lat="45.41505" lon="5.69195">
        <ele>618</ele>
        <time>2015-06-21T09:02:51Z</time>
      </trkpt>
      <trkpt lat="45.41514" lon="5.69195">
        <ele>619</ele>
        <time>2015-06-21T09:03:05Z</time>
      </trkpt>
      <trkpt lat="45.41523" lon="5.69191">
        <ele>619</ele>
        <time>2015-06-21T09:03:32Z</time>
      </trkpt>
      <trkpt lat="45.41532" lon="5.69192">
        <ele>620</ele>
        <time>2015-06-21T09:03:48Z</time>
      </trkpt>
      <trkpt lat="45.41541" lon="5.69197">
        <ele>620</ele>
        <time>2015-06-21T09:03:59Z</time>
      </trkpt>
      <trkpt lat="45.41551" lon="5.69198">
        <ele>621</ele>
        <time>2015-06-21T09:04:10Z</time>
      </trkpt>
      <trkpt lat="45.4156" lon="5.69196">
        <ele>622</ele>
        <time>2015-06-21T09:04:22Z</time>
      </trkpt>
      <trkpt lat="45.41569" lon="5.69196">
        <ele>622</ele>
        <time>2015-06-21T09:04:34Z</time>
      </trkpt>
      <trkpt lat="45.41578" lon="5.69198">
        <ele>623</ele>
        <time>2015-06-21T09:04:44Z</time>
      </trkpt>
      <trkpt lat="45.41588" lon="5.69198">
        <ele>629</ele>
        <time>2015-06-21T09:04:56Z</time>
      </trkpt>
      <trkpt lat="45.41598" lon="5.69196">
        <ele>629</ele>
        <time>2015-06-21T09:05:07Z</time>
      </trkpt>
      <trkpt lat="45.41608" lon="5.69196">
        <ele>630</ele>
        <time>2015-06-21T09:05:20Z</time>
      </trkpt>
      <trkpt lat="45.41617" lon="5.69197">
        <ele>630</ele>
        <time>2015-06-21T09:05:28Z</time>
      </trkpt>
      <trkpt lat="45.41626" lon="5.69199">
        <ele>631</ele>
        <time>2015-06-21T09:05:39Z</time>
      </trkpt>
      <trkpt lat="45.41635" lon="5.69202">
        <ele>631</ele>
        <time>2015-06-21T09:05:53Z</time>
      </trkpt>
      <trkpt lat="45.41643" lon="5.69195">
        <ele>632</ele>
        <time>2015-06-21T09:06:03Z</time>
      </trkpt>
      <trkpt lat="45.41648" lon="5.69184">
        <ele>633</ele>
        <time>2015-06-21T09:06:15Z</time>
      </trkpt>
      <trkpt lat="45.41654" lon="5.69174">
        <ele>634</ele>
        <time>2015-06-21T09:06:25Z</time>
      </trkpt>
      <trkpt lat="45.41659" lon="5.69162">
        <ele>636</ele>
        <time>2015-06-21T09:06:34Z</time>
      </trkpt>
      <trkpt lat="45.41663" lon="5.69149">
        <ele>636</ele>
        <time>2015-06-21T09:06:46Z</time>
      </trkpt>
      <trkpt lat="45.41666" lon="5.69135">
        <ele>636</ele>
        <time>2015-06-21T09:06:53Z</time>
      </trkpt>
      <trkpt lat="45.41668" lon="5.69122">
        <ele>645</ele>
        <time>2015-06-21T09:06:59Z</time>
      </trkpt>
      <trkpt lat="45.41668" lon="5.69107">
        <ele>645</ele>
        <time>2015-06-21T09:07:06Z</time>
      </trkpt>
      <trkpt lat="45.41666" lon="5.69093">
        <ele>639</ele>
        <time>2015-06-21T09:07:12Z</time>
      </trkpt>
      <trkpt lat="45.41659" lon="5.6908">
        <ele>641</ele>
        <time>2015-06-21T09:07:19Z</time>
      </trkpt>
      <trkpt lat="45.41653" lon="5.6907">
        <ele>641</ele>
        <time>2015-06-21T09:07:23Z</time>
      </trkpt>
      <trkpt lat="45.41648" lon="5.69059">
        <ele>641</ele>
        <time>2015-06-21T09:07:27Z</time>
      </trkpt>
      <trkpt lat="45.41641" lon="5.69048">
        <ele>641</ele>
        <time>2015-06-21T09:07:33Z</time>
      </trkpt>
      <trkpt lat="45.41632" lon="5.69039">
        <ele>641</ele>
        <time>2015-06-21T09:07:38Z</time>
      </trkpt>
      <trkpt lat="45.4163" lon="5.69024">
        <ele>641</ele>
        <time>2015-06-21T09:07:44Z</time>
      </trkpt>
      <trkpt lat="45.4163" lon="5.69011">
        <ele>641</ele>
        <time>2015-06-21T09:07:50Z</time>
      </trkpt>
      <trkpt lat="45.41634" lon="5.68999">
        <ele>640</ele>
        <time>2015-06-21T09:07:56Z</time>
      </trkpt>
      <trkpt lat="45.41633" lon="5.68984">
        <ele>639</ele>
        <time>2015-06-21T09:08:02Z</time>
      </trkpt>
      <trkpt lat="45.41633" lon="5.68969">
        <ele>638</ele>
        <time>2015-06-21T09:08:08Z</time>
      </trkpt>
      <trkpt lat="45.41636" lon="5.68956">
        <ele>638</ele>
        <time>2015-06-21T09:08:12Z</time>
      </trkpt>
      <trkpt lat="45.41641" lon="5.68945">
        <ele>637</ele>
        <time>2015-06-21T09:08:17Z</time>
      </trkpt>
      <trkpt lat="45.4165" lon="5.68938">
        <ele>638</ele>
        <time>2015-06-21T09:08:25Z</time>
      </trkpt>
      <trkpt lat="45.41659" lon="5.68936">
        <ele>638</ele>
        <time>2015-06-21T09:08:34Z</time>
      </trkpt>
      <trkpt lat="45.41669" lon="5.68935">
        <ele>641</ele>
        <time>2015-06-21T09:08:43Z</time>
      </trkpt>
      <trkpt lat="45.41679" lon="5.68936">
        <ele>641</ele>
        <time>2015-06-21T09:08:52Z</time>
      </trkpt>
      <trkpt lat="45.41688" lon="5.6894">
        <ele>642</ele>
        <time>2015-06-21T09:09:01Z</time>
      </trkpt>
      <trkpt lat="45.41698" lon="5.68943">
        <ele>642</ele>
        <time>2015-06-21T09:09:08Z</time>
      </trkpt>
      <trkpt lat="45.41707" lon="5.68948">
        <ele>642</ele>
        <time>2015-06-21T09:09:13Z</time>
      </trkpt>
      <trkpt lat="45.41719" lon="5.68953">
        <ele>642</ele>
        <time>2015-06-21T09:09:16Z</time>
      </trkpt>
      <trkpt lat="45.41727" lon="5.6896">
        <ele>643</ele>
        <time>2015-06-21T09:09:20Z</time>
      </trkpt>
      <trkpt lat="45.41735" lon="5.68967">
        <ele>644</ele>
        <time>2015-06-21T09:09:27Z</time>
      </trkpt>
      <trkpt lat="45.41743" lon="5.68972">
        <ele>646</ele>
        <time>2015-06-21T09:09:33Z</time>
      </trkpt>
      <trkpt lat="45.41753" lon="5.68977">
        <ele>648</ele>
        <time>2015-06-21T09:09:40Z</time>
      </trkpt>
      <trkpt lat="45.41761" lon="5.68985">
        <ele>649</ele>
        <time>2015-06-21T09:09:47Z</time>
      </trkpt>
      <trkpt lat="45.4177" lon="5.68992">
        <ele>649</ele>
        <time>2015-06-21T09:09:54Z</time>
      </trkpt>
      <trkpt lat="45.41779" lon="5.68997">
        <ele>648</ele>
        <time>2015-06-21T09:10:00Z</time>
      </trkpt>
      <trkpt lat="45.41788" lon="5.69002">
        <ele>657</ele>
        <time>2015-06-21T09:10:05Z</time>
      </trkpt>
      <trkpt lat="45.41798" lon="5.69007">
        <ele>657</ele>
        <time>2015-06-21T09:10:12Z</time>
      </trkpt>
      <trkpt lat="45.41803" lon="5.69018">
        <ele>657</ele>
        <time>2015-06-21T09:10:21Z</time>
      </trkpt>
      <trkpt lat="45.41811" lon="5.69025">
        <ele>657</ele>
        <time>2015-06-21T09:10:28Z</time>
      </trkpt>
      <trkpt lat="45.4182" lon="5.69034">
        <ele>658</ele>
        <time>2015-06-21T09:10:34Z</time>
      </trkpt>
      <trkpt lat="45.41828" lon="5.69043">
        <ele>659</ele>
        <time>2015-06-21T09:10:41Z</time>
      </trkpt>
      <trkpt lat="45.41836" lon="5.69052">
        <ele>662</ele>
        <time>2015-06-21T09:10:47Z</time>
      </trkpt>
      <trkpt lat="45.41843" lon="5.6906">
        <ele>663</ele>
        <time>2015-06-21T09:10:53Z</time>
      </trkpt>
      <trkpt lat="45.41849" lon="5.69071">
        <ele>664</ele>
        <time>2015-06-21T09:11:00Z</time>
      </trkpt>
      <trkpt lat="45.41855" lon="5.69082">
        <ele>664</ele>
        <time>2015-06-21T09:11:07Z</time>
      </trkpt>
      <trkpt lat="45.4186" lon="5.69093">
        <ele>668</ele>
        <time>2015-06-21T09:11:14Z</time>
      </trkpt>
      <trkpt lat="45.41867" lon="5.69103">
        <ele>669</ele>
        <time>2015-06-21T09:11:21Z</time>
      </trkpt>
      <trkpt lat="45.41873" lon="5.69113">
        <ele>669</ele>
        <time>2015-06-21T09:11:30Z</time>
      </trkpt>
      <trkpt lat="45.41881" lon="5.69123">
        <ele>669</ele>
        <time>2015-06-21T09:11:39Z</time>
      </trkpt>
      <trkpt lat="45.41887" lon="5.69133">
        <ele>670</ele>
        <time>2015-06-21T09:11:47Z</time>
      </trkpt>
      <trkpt lat="45.41893" lon="5.69145">
        <ele>670</ele>
        <time>2015-06-21T09:11:54Z</time>
      </trkpt>
      <trkpt lat="45.41897" lon="5.69158">
        <ele>671</ele>
        <time>2015-06-21T09:12:02Z</time>
      </trkpt>
      <trkpt lat="45.41901" lon="5.6917">
        <ele>670</ele>
        <time>2015-06-21T09:12:10Z</time>
      </trkpt>
      <trkpt lat="45.41905" lon="5.69182">
        <ele>670</ele>
        <time>2015-06-21T09:12:18Z</time>
      </trkpt>
      <trkpt lat="45.41896" lon="5.69188">
        <ele>669</ele>
        <time>2015-06-21T09:12:39Z</time>
      </trkpt>
      <trkpt lat="45.41887" lon="5.69182">
        <ele>668</ele>
        <time>2015-06-21T09:12:50Z</time>
      </trkpt>
      <trkpt lat="45.41877" lon="5.69183">
        <ele>668</ele>
        <time>2015-06-21T09:12:59Z</time>
      </trkpt>
      <trkpt lat="45.41867" lon="5.69183">
        <ele>667</ele>
        <time>2015-06-21T09:13:05Z</time>
      </trkpt>
      <trkpt lat="45.41857" lon="5.69183">
        <ele>667</ele>
        <time>2015-06-21T09:13:09Z</time>
      </trkpt>
      <trkpt lat="45.41846" lon="5.6918">
        <ele>667</ele>
        <time>2015-06-21T09:13:14Z</time>
      </trkpt>
      <trkpt lat="45.41837" lon="5.69178">
        <ele>667</ele>
        <time>2015-06-21T09:13:18Z</time>
      </trkpt>
      <trkpt lat="45.41826" lon="5.69179">
        <ele>664</ele>
        <time>2015-06-21T09:13:22Z</time>
      </trkpt>
      <trkpt lat="45.41821" lon="5.6919">
        <ele>662</ele>
        <time>2015-06-21T09:13:28Z</time>
      </trkpt>
      <trkpt lat="45.4182" lon="5.69203">
        <ele>661</ele>
        <time>2015-06-21T09:13:35Z</time>
      </trkpt>
      <trkpt lat="45.41813" lon="5.69214">
        <ele>661</ele>
        <time>2015-06-21T09:13:43Z</time>
      </trkpt>
      <trkpt lat="45.41821" lon="5.69224">
        <ele>661</ele>
        <time>2015-06-21T09:13:53Z</time>
      </trkpt>
      <trkpt lat="45.41828" lon="5.69232">
        <ele>661</ele>
        <time>2015-06-21T09:14:01Z</time>
      </trkpt>
      <trkpt lat="45.41837" lon="5.69238">
        <ele>663</ele>
        <time>2015-06-21T09:14:07Z</time>
      </trkpt>
      <trkpt lat="45.41847" lon="5.69244">
        <ele>664</ele>
        <time>2015-06-21T09:14:14Z</time>
      </trkpt>
      <trkpt lat="45.41856" lon="5.69247">
        <ele>664</ele>
        <time>2015-06-21T09:14:20Z</time>
      </trkpt>
      <trkpt lat="45.41865" lon="5.69249">
        <ele>665</ele>
        <time>2015-06-21T09:14:25Z</time>
      </trkpt>
      <trkpt lat="45.41875" lon="5.69251">
        <ele>661</ele>
        <time>2015-06-21T09:14:31Z</time>
      </trkpt>
      <trkpt lat="45.41885" lon="5.6925">
        <ele>662</ele>
        <time>2015-06-21T09:14:36Z</time>
      </trkpt>
      <trkpt lat="45.41894" lon="5.69248">
        <ele>666</ele>
        <time>2015-06-21T09:14:41Z</time>
      </trkpt>
      <trkpt lat="45.41902" lon="5.69256">
        <ele>663</ele>
        <time>2015-06-21T09:14:49Z</time>
      </trkpt>
      <trkpt lat="45.41911" lon="5.6926">
        <ele>664</ele>
        <time>2015-06-21T09:14:55Z</time>
      </trkpt>
      <trkpt lat="45.41921" lon="5.69263">
        <ele>666</ele>
        <time>2015-06-21T09:15:01Z</time>
      </trkpt>
      <trkpt lat="45.41929" lon="5.69268">
        <ele>666</ele>
        <time>2015-06-21T09:15:07Z</time>
      </trkpt>
      <trkpt lat="45.41938" lon="5.69274">
        <ele>666</ele>
        <time>2015-06-21T09:15:11Z</time>
      </trkpt>
      <trkpt lat="45.41947" lon="5.6928">
        <ele>666</ele>
        <time>2015-06-21T09:15:17Z</time>
      </trkpt>
      <trkpt lat="45.41958" lon="5.69284">
        <ele>667</ele>
        <time>2015-06-21T09:15:23Z</time>
      </trkpt>
      <trkpt lat="45.41967" lon="5.69287">
        <ele>667</ele>
        <time>2015-06-21T09:15:26Z</time>
      </trkpt>
      <trkpt lat="45.41969" lon="5.693">
        <ele>666</ele>
        <time>2015-06-21T09:15:30Z</time>
      </trkpt>
      <trkpt lat="45.41967" lon="5.69313">
        <ele>666</ele>
        <time>2015-06-21T09:15:33Z</time>
      </trkpt>
      <trkpt lat="45.41967" lon="5.69327">
        <ele>665</ele>
        <time>2015-06-21T09:15:36Z</time>
      </trkpt>
      <trkpt lat="45.41973" lon="5.69338">
        <ele>660</ele>
        <time>2015-06-21T09:15:41Z</time>
      </trkpt>
      <trkpt lat="45.41981" lon="5.69348">
        <ele>661</ele>
        <time>2015-06-21T09:15:45Z</time>
      </trkpt>
      <trkpt lat="45.41988" lon="5.69357">
        <ele>660</ele>
        <time>2015-06-21T09:15:49Z</time>
      </trkpt>
      <trkpt lat="45.41997" lon="5.69365">
        <ele>660</ele>
        <time>2015-06-21T09:15:54Z</time>
      </trkpt>
      <trkpt lat="45.42004" lon="5.69375">
        <ele>665</ele>
        <time>2015-06-21T09:16:01Z</time>
      </trkpt>
      <trkpt lat="45.42014" lon="5.6938">
        <ele>665</ele>
        <time>2015-06-21T09:16:07Z</time>
      </trkpt>
      <trkpt lat="45.42023" lon="5.69385">
        <ele>665</ele>
        <time>2015-06-21T09:16:13Z</time>
      </trkpt>
      <trkpt lat="45.4203" lon="5.69395">
        <ele>665</ele>
        <time>2015-06-21T09:16:19Z</time>
      </trkpt>
      <trkpt lat="45.42038" lon="5.69403">
        <ele>665</ele>
        <time>2015-06-21T09:16:24Z</time>
      </trkpt>
      <trkpt lat="45.42045" lon="5.69412">
        <ele>666</ele>
        <time>2015-06-21T09:16:28Z</time>
      </trkpt>
      <trkpt lat="45.42052" lon="5.69423">
        <ele>662</ele>
        <time>2015-06-21T09:16:32Z</time>
      </trkpt>
      <trkpt lat="45.4206" lon="5.69435">
        <ele>662</ele>
        <time>2015-06-21T09:16:36Z</time>
      </trkpt>
      <trkpt lat="45.42066" lon="5.69448">
        <ele>662</ele>
        <time>2015-06-21T09:16:40Z</time>
      </trkpt>
      <trkpt lat="45.42074" lon="5.69459">
        <ele>661</ele>
        <time>2015-06-21T09:16:45Z</time>
      </trkpt>
      <trkpt lat="45.42082" lon="5.69466">
        <ele>661</ele>
        <time>2015-06-21T09:16:49Z</time>
      </trkpt>
      <trkpt lat="45.42087" lon="5.69477">
        <ele>668</ele>
        <time>2015-06-21T09:16:53Z</time>
      </trkpt>
      <trkpt lat="45.42093" lon="5.69486">
        <ele>667</ele>
        <time>2015-06-21T09:16:57Z</time>
      </trkpt>
      <trkpt lat="45.421" lon="5.69497">
        <ele>667</ele>
        <time>2015-06-21T09:17:02Z</time>
      </trkpt>
      <trkpt lat="45.42109" lon="5.69504">
        <ele>663</ele>
        <time>2015-06-21T09:17:06Z</time>
      </trkpt>
      <trkpt lat="45.42117" lon="5.69513">
        <ele>664</ele>
        <time>2015-06-21T09:17:11Z</time>
      </trkpt>
      <trkpt lat="45.42124" lon="5.69527">
        <ele>664</ele>
        <time>2015-06-21T09:17:16Z</time>
      </trkpt>
      <trkpt lat="45.4213" lon="5.69539">
        <ele>664</ele>
        <time>2015-06-21T09:17:20Z</time>
      </trkpt>
      <trkpt lat="45.42137" lon="5.69551">
        <ele>664</ele>
        <time>2015-06-21T09:17:24Z</time>
      </trkpt>
      <trkpt lat="45.42143" lon="5.69563">
        <ele>664</ele>
        <time>2015-06-21T09:17:28Z</time>
      </trkpt>
      <trkpt lat="45.42149" lon="5.69574">
        <ele>664</ele>
        <time>2015-06-21T09:17:32Z</time>
      </trkpt>
      <trkpt lat="45.42156" lon="5.69586">
        <ele>661</ele>
        <time>2015-06-21T09:17:36Z</time>
      </trkpt>
      <trkpt lat="45.4216" lon="5.69598">
        <ele>659</ele>
        <time>2015-06-21T09:17:39Z</time>
      </trkpt>
      <trkpt lat="45.42166" lon="5.69613">
        <ele>657</ele>
        <time>2015-06-21T09:17:42Z</time>
      </trkpt>
      <trkpt lat="45.42168" lon="5.69626">
        <ele>663</ele>
        <time>2015-06-21T09:17:46Z</time>
      </trkpt>
      <trkpt lat="45.42174" lon="5.69637">
        <ele>662</ele>
        <time>2015-06-21T09:17:52Z</time>
      </trkpt>
      <trkpt lat="45.42178" lon="5.6965">
        <ele>660</ele>
        <time>2015-06-21T09:17:56Z</time>
      </trkpt>
      <trkpt lat="45.42182" lon="5.69663">
        <ele>658</ele>
        <time>2015-06-21T09:17:59Z</time>
      </trkpt>
      <trkpt lat="45.42188" lon="5.69674">
        <ele>653</ele>
        <time>2015-06-21T09:18:02Z</time>
      </trkpt>
      <trkpt lat="45.42196" lon="5.69683">
        <ele>653</ele>
        <time>2015-06-21T09:18:06Z</time>
      </trkpt>
      <trkpt lat="45.42204" lon="5.69692">
        <ele>653</ele>
        <time>2015-06-21T09:18:10Z</time>
      </trkpt>
      <trkpt lat="45.42211" lon="5.69701">
        <ele>653</ele>
        <time>2015-06-21T09:18:13Z</time>
      </trkpt>
      <trkpt lat="45.42218" lon="5.69711">
        <ele>653</ele>
        <time>2015-06-21T09:18:16Z</time>
      </trkpt>
      <trkpt lat="45.42226" lon="5.69721">
        <ele>653</ele>
        <time>2015-06-21T09:18:19Z</time>
      </trkpt>
      <trkpt lat="45.42232" lon="5.69731">
        <ele>653</ele>
        <time>2015-06-21T09:18:23Z</time>
      </trkpt>
      <trkpt lat="45.4224" lon="5.6974">
        <ele>653</ele>
        <time>2015-06-21T09:18:26Z</time>
      </trkpt>
      <trkpt lat="45.42245" lon="5.69751">
        <ele>651</ele>
        <time>2015-06-21T09:18:29Z</time>
      </trkpt>
      <trkpt lat="45.4225" lon="5.69763">
        <ele>649</ele>
        <time>2015-06-21T09:18:32Z</time>
      </trkpt>
      <trkpt lat="45.42257" lon="5.69774">
        <ele>655</ele>
        <time>2015-06-21T09:18:36Z</time>
      </trkpt>
      <trkpt lat="45.42264" lon="5.69786">
        <ele>654</ele>
        <time>2015-06-21T09:18:41Z</time>
      </trkpt>
      <trkpt lat="45.42272" lon="5.69798">
        <ele>654</ele>
        <time>2015-06-21T09:18:46Z</time>
      </trkpt>
      <trkpt lat="45.42278" lon="5.69808">
        <ele>654</ele>
        <time>2015-06-21T09:18:51Z</time>
      </trkpt>
      <trkpt lat="45.42284" lon="5.69819">
        <ele>654</ele>
        <time>2015-06-21T09:18:58Z</time>
      </trkpt>
      <trkpt lat="45.42289" lon="5.6983">
        <ele>654</ele>
        <time>2015-06-21T09:19:05Z</time>
      </trkpt>
      <trkpt lat="45.42295" lon="5.69842">
        <ele>649</ele>
        <time>2015-06-21T09:19:11Z</time>
      </trkpt>
      <trkpt lat="45.423" lon="5.69855">
        <ele>649</ele>
        <time>2015-06-21T09:19:18Z</time>
      </trkpt>
      <trkpt lat="45.42304" lon="5.69869">
        <ele>649</ele>
        <time>2015-06-21T09:19:24Z</time>
      </trkpt>
      <trkpt lat="45.42308" lon="5.69881">
        <ele>648</ele>
        <time>2015-06-21T09:19:30Z</time>
      </trkpt>
      <trkpt lat="45.42313" lon="5.69894">
        <ele>648</ele>
        <time>2015-06-21T09:19:35Z</time>
      </trkpt>
      <trkpt lat="45.42318" lon="5.69907">
        <ele>649</ele>
        <time>2015-06-21T09:19:41Z</time>
      </trkpt>
      <trkpt lat="45.42325" lon="5.69918">
        <ele>646</ele>
        <time>2015-06-21T09:19:46Z</time>
      </trkpt>
      <trkpt lat="45.42331" lon="5.69928">
        <ele>644</ele>
        <time>2015-06-21T09:19:51Z</time>
      </trkpt>
      <trkpt lat="45.42339" lon="5.69937">
        <ele>651</ele>
        <time>2015-06-21T09:19:57Z</time>
      </trkpt>
      <trkpt lat="45.42347" lon="5.69946">
        <ele>651</ele>
        <time>2015-06-21T09:20:05Z</time>
      </trkpt>
      <trkpt lat="45.42355" lon="5.69951">
        <ele>651</ele>
        <time>2015-06-21T09:20:15Z</time>
      </trkpt>
      <trkpt lat="45.42364" lon="5.69954">
        <ele>651</ele>
        <time>2015-06-21T09:20:26Z</time>
      </trkpt>
      <trkpt lat="45.42373" lon="5.69953">
        <ele>652</ele>
        <time>2015-06-21T09:20:44Z</time>
      </trkpt>
      <trkpt lat="45.42382" lon="5.69954">
        <ele>653</ele>
        <time>2015-06-21T09:21:04Z</time>
      </trkpt>
      <trkpt lat="45.42387" lon="5.69966">
        <ele>652</ele>
        <time>2015-06-21T09:21:11Z</time>
      </trkpt>
      <trkpt lat="45.42391" lon="5.69979">
        <ele>652</ele>
        <time>2015-06-21T09:21:18Z</time>
      </trkpt>
      <trkpt lat="45.42398" lon="5.69989">
        <ele>652</ele>
        <time>2015-06-21T09:21:24Z</time>
      </trkpt>
      <trkpt lat="45.42408" lon="5.69992">
        <ele>653</ele>
        <time>2015-06-21T09:21:31Z</time>
      </trkpt>
      <trkpt lat="45.42416" lon="5.7">
        <ele>653</ele>
        <time>2015-06-21T09:21:38Z</time>
      </trkpt>
      <trkpt lat="45.42424" lon="5.70005">
        <ele>654</ele>
        <time>2015-06-21T09:21:46Z</time>
      </trkpt>
      <trkpt lat="45.42432" lon="5.70014">
        <ele>655</ele>
        <time>2015-06-21T09:21:54Z</time>
      </trkpt>
      <trkpt lat="45.42439" lon="5.70022">
        <ele>656</ele>
        <time>2015-06-21T09:22:02Z</time>
      </trkpt>
      <trkpt lat="45.42447" lon="5.70033">
        <ele>656</ele>
        <time>2015-06-21T09:22:10Z</time>
      </trkpt>
      <trkpt lat="45.42451" lon="5.70044">
        <ele>656</ele>
        <time>2015-06-21T09:22:16Z</time>
      </trkpt>
      <trkpt lat="45.42453" lon="5.70058">
        <ele>655</ele>
        <time>2015-06-21T09:22:21Z</time>
      </trkpt>
      <trkpt lat="45.42454" lon="5.70073">
        <ele>653</ele>
        <time>2015-06-21T09:22:25Z</time>
      </trkpt>
      <trkpt lat="45.42453" lon="5.70086">
        <ele>643</ele>
        <time>2015-06-21T09:22:29Z</time>
      </trkpt>
      <trkpt lat="45.42453" lon="5.70099">
        <ele>642</ele>
        <time>2015-06-21T09:22:35Z</time>
      </trkpt>
      <trkpt lat="45.42459" lon="5.7011">
        <ele>643</ele>
        <time>2015-06-21T09:22:41Z</time>
      </trkpt>
      <trkpt lat="45.42466" lon="5.70119">
        <ele>643</ele>
        <time>2015-06-21T09:22:48Z</time>
      </trkpt>
      <trkpt lat="45.42474" lon="5.70127">
        <ele>643</ele>
        <time>2015-06-21T09:22:54Z</time>
      </trkpt>
      <trkpt lat="45.42482" lon="5.70134">
        <ele>643</ele>
        <time>2015-06-21T09:23:00Z</time>
      </trkpt>
      <trkpt lat="45.42491" lon="5.70141">
        <ele>643</ele>
        <time>2015-06-21T09:23:07Z</time>
      </trkpt>
      <trkpt lat="45.42499" lon="5.70146">
        <ele>643</ele>
        <time>2015-06-21T09:23:13Z</time>
      </trkpt>
      <trkpt lat="45.42507" lon="5.70153">
        <ele>652</ele>
        <time>2015-06-21T09:23:20Z</time>
      </trkpt>
      <trkpt lat="45.42514" lon="5.70162">
        <ele>652</ele>
        <time>2015-06-21T09:23:28Z</time>
      </trkpt>
      <trkpt lat="45.42521" lon="5.70173">
        <ele>647</ele>
        <time>2015-06-21T09:23:36Z</time>
      </trkpt>
      <trkpt lat="45.42529" lon="5.70181">
        <ele>648</ele>
        <time>2015-06-21T09:23:44Z</time>
      </trkpt>
      <trkpt lat="45.42538" lon="5.70185">
        <ele>649</ele>
        <time>2015-06-21T09:23:50Z</time>
      </trkpt>
      <trkpt lat="45.42548" lon="5.70192">
        <ele>650</ele>
        <time>2015-06-21T09:23:56Z</time>
      </trkpt>
      <trkpt lat="45.42555" lon="5.70201">
        <ele>651</ele>
        <time>2015-06-21T09:24:01Z</time>
      </trkpt>
      <trkpt lat="45.42562" lon="5.7021">
        <ele>651</ele>
        <time>2015-06-21T09:24:06Z</time>
      </trkpt>
      <trkpt lat="45.42571" lon="5.70218">
        <ele>651</ele>
        <time>2015-06-21T09:24:11Z</time>
      </trkpt>
      <trkpt lat="45.4258" lon="5.70225">
        <ele>651</ele>
        <time>2015-06-21T09:24:16Z</time>
      </trkpt>
      <trkpt lat="45.42589" lon="5.7023">
        <ele>660</ele>
        <time>2015-06-21T09:24:21Z</time>
      </trkpt>
      <trkpt lat="45.42598" lon="5.70235">
        <ele>660</ele>
        <time>2015-06-21T09:24:25Z</time>
      </trkpt>
      <trkpt lat="45.42608" lon="5.70239">
        <ele>661</ele>
        <time>2015-06-21T09:24:30Z</time>
      </trkpt>
      <trkpt lat="45.42618" lon="5.70245">
        <ele>662</ele>
        <time>2015-06-21T09:24:36Z</time>
      </trkpt>
      <trkpt lat="45.42628" lon="5.70248">
        <ele>663</ele>
        <time>2015-06-21T09:24:42Z</time>
      </trkpt>
      <trkpt lat="45.42638" lon="5.70253">
        <ele>657</ele>
        <time>2015-06-21T09:24:48Z</time>
      </trkpt>
      <trkpt lat="45.42648" lon="5.70257">
        <ele>659</ele>
        <time>2015-06-21T09:24:54Z</time>
      </trkpt>
      <trkpt lat="45.42656" lon="5.70263">
        <ele>660</ele>
        <time>2015-06-21T09:24:59Z</time>
      </trkpt>
      <trkpt lat="45.42664" lon="5.70272">
        <ele>659</ele>
        <time>2015-06-21T09:25:05Z</time>
      </trkpt>
      <trkpt lat="45.42673" lon="5.70277">
        <ele>664</ele>
        <time>2015-06-21T09:25:11Z</time>
      </trkpt>
      <trkpt lat="45.42682" lon="5.70281">
        <ele>664</ele>
        <time>2015-06-21T09:25:15Z</time>
      </trkpt>
      <trkpt lat="45.42691" lon="5.70287">
        <ele>664</ele>
        <time>2015-06-21T09:25:20Z</time>
      </trkpt>
      <trkpt lat="45.42701" lon="5.70292">
        <ele>664</ele>
        <time>2015-06-21T09:25:26Z</time>
      </trkpt>
      <trkpt lat="45.42711" lon="5.70298">
        <ele>664</ele>
        <time>2015-06-21T09:25:32Z</time>
      </trkpt>
      <trkpt lat="45.42719" lon="5.70307">
        <ele>664</ele>
        <time>2015-06-21T09:25:37Z</time>
      </trkpt>
      <trkpt lat="45.42727" lon="5.70319">
        <ele>664</ele>
        <time>2015-06-21T09:25:41Z</time>
      </trkpt>
      <trkpt lat="45.42735" lon="5.70328">
        <ele>663</ele>
        <time>2015-06-21T09:25:44Z</time>
      </trkpt>
      <trkpt lat="45.42743" lon="5.70336">
        <ele>660</ele>
        <time>2015-06-21T09:25:47Z</time>
      </trkpt>
      <trkpt lat="45.4275" lon="5.70345">
        <ele>661</ele>
        <time>2015-06-21T09:25:50Z</time>
      </trkpt>
      <trkpt lat="45.4276" lon="5.70354">
        <ele>660</ele>
        <time>2015-06-21T09:25:54Z</time>
      </trkpt>
      <trkpt lat="45.42769" lon="5.70362">
        <ele>659</ele>
        <time>2015-06-21T09:25:58Z</time>
      </trkpt>
      <trkpt lat="45.42778" lon="5.7037">
        <ele>659</ele>
        <time>2015-06-21T09:26:02Z</time>
      </trkpt>
      <trkpt lat="45.42787" lon="5.70377">
        <ele>658</ele>
        <time>2015-06-21T09:26:06Z</time>
      </trkpt>
      <trkpt lat="45.42797" lon="5.70382">
        <ele>659</ele>
        <time>2015-06-21T09:26:10Z</time>
      </trkpt>
      <trkpt lat="45.42807" lon="5.70384">
        <ele>659</ele>
        <time>2015-06-21T09:26:13Z</time>
      </trkpt>
      <trkpt lat="45.42817" lon="5.70387">
        <ele>659</ele>
        <time>2015-06-21T09:26:16Z</time>
      </trkpt>
      <trkpt lat="45.42828" lon="5.70389">
        <ele>659</ele>
        <time>2015-06-21T09:26:20Z</time>
      </trkpt>
      <trkpt lat="45.42836" lon="5.70393">
        <ele>662</ele>
        <time>2015-06-21T09:26:23Z</time>
      </trkpt>
      <trkpt lat="45.42848" lon="5.70397">
        <ele>662</ele>
        <time>2015-06-21T09:26:26Z</time>
      </trkpt>
      <trkpt lat="45.42857" lon="5.70403">
        <ele>662</ele>
        <time>2015-06-21T09:26:28Z</time>
      </trkpt>
      <trkpt lat="45.42864" lon="5.70411">
        <ele>662</ele>
        <time>2015-06-21T09:26:30Z</time>
      </trkpt>
      <trkpt lat="45.42872" lon="5.7042">
        <ele>655</ele>
        <time>2015-06-21T09:26:32Z</time>
      </trkpt>
      <trkpt lat="45.42878" lon="5.70432">
        <ele>654</ele>
        <time>2015-06-21T09:26:36Z</time>
      </trkpt>
      <trkpt lat="45.42877" lon="5.70448">
        <ele>653</ele>
        <time>2015-06-21T09:26:39Z</time>
      </trkpt>
      <trkpt lat="45.42874" lon="5.70466">
        <ele>652</ele>
        <time>2015-06-21T09:26:42Z</time>
      </trkpt>
      <trkpt lat="45.42873" lon="5.70485">
        <ele>651</ele>
        <time>2015-06-21T09:26:45Z</time>
      </trkpt>
      <trkpt lat="45.42872" lon="5.705">
        <ele>650</ele>
        <time>2015-06-21T09:26:48Z</time>
      </trkpt>
      <trkpt lat="45.42869" lon="5.70516">
        <ele>641</ele>
        <time>2015-06-21T09:26:52Z</time>
      </trkpt>
      <trkpt lat="45.42867" lon="5.70529">
        <ele>640</ele>
        <time>2015-06-21T09:26:56Z</time>
      </trkpt>
      <trkpt lat="45.42866" lon="5.70543">
        <ele>639</ele>
        <time>2015-06-21T09:26:59Z</time>
      </trkpt>
      <trkpt lat="45.42869" lon="5.70556">
        <ele>638</ele>
        <time>2015-06-21T09:27:01Z</time>
      </trkpt>
      <trkpt lat="45.42871" lon="5.7057">
        <ele>637</ele>
        <time>2015-06-21T09:27:03Z</time>
      </trkpt>
      <trkpt lat="45.42874" lon="5.70584">
        <ele>627</ele>
        <time>2015-06-21T09:27:06Z</time>
      </trkpt>
      <trkpt lat="45.42879" lon="5.70596">
        <ele>627</ele>
        <time>2015-06-21T09:27:10Z</time>
      </trkpt>
      <trkpt lat="45.42882" lon="5.7061">
        <ele>626</ele>
        <time>2015-06-21T09:27:14Z</time>
      </trkpt>
      <trkpt lat="45.42873" lon="5.70616">
        <ele>625</ele>
        <time>2015-06-21T09:27:17Z</time>
      </trkpt>
      <trkpt lat="45.42864" lon="5.70619">
        <ele>624</ele>
        <time>2015-06-21T09:27:19Z</time>
      </trkpt>
      <trkpt lat="45.42854" lon="5.70627">
        <ele>623</ele>
        <time>2015-06-21T09:27:22Z</time>
      </trkpt>
      <trkpt lat="45.42858" lon="5.70647">
        <ele>621</ele>
        <time>2015-06-21T09:27:25Z</time>
      </trkpt>
      <trkpt lat="45.42864" lon="5.70661">
        <ele>621</ele>
        <time>2015-06-21T09:27:27Z</time>
      </trkpt>
      <trkpt lat="45.42866" lon="5.70677">
        <ele>612</ele>
        <time>2015-06-21T09:27:29Z</time>
      </trkpt>
      <trkpt lat="45.42868" lon="5.70691">
        <ele>612</ele>
        <time>2015-06-21T09:27:31Z</time>
      </trkpt>
      <trkpt lat="45.42872" lon="5.70703">
        <ele>611</ele>
        <time>2015-06-21T09:27:33Z</time>
      </trkpt>
      <trkpt lat="45.42877" lon="5.70716">
        <ele>610</ele>
        <time>2015-06-21T09:27:35Z</time>
      </trkpt>
      <trkpt lat="45.42881" lon="5.70732">
        <ele>609</ele>
        <time>2015-06-21T09:27:38Z</time>
      </trkpt>
      <trkpt lat="45.42878" lon="5.70747">
        <ele>608</ele>
        <time>2015-06-21T09:27:42Z</time>
      </trkpt>
      <trkpt lat="45.42876" lon="5.70761">
        <ele>601</ele>
        <time>2015-06-21T09:27:45Z</time>
      </trkpt>
      <trkpt lat="45.4288" lon="5.70776">
        <ele>601</ele>
        <time>2015-06-21T09:27:48Z</time>
      </trkpt>
      <trkpt lat="45.42885" lon="5.70787">
        <ele>601</ele>
        <time>2015-06-21T09:27:51Z</time>
      </trkpt>
      <trkpt lat="45.4289" lon="5.70799">
        <ele>601</ele>
        <time>2015-06-21T09:27:55Z</time>
      </trkpt>
      <trkpt lat="45.42894" lon="5.70814">
        <ele>601</ele>
        <time>2015-06-21T09:28:00Z</time>
      </trkpt>
      <trkpt lat="45.42898" lon="5.70826">
        <ele>601</ele>
        <time>2015-06-21T09:28:04Z</time>
      </trkpt>
      <trkpt lat="45.42904" lon="5.7084">
        <ele>597</ele>
        <time>2015-06-21T09:28:08Z</time>
      </trkpt>
      <trkpt lat="45.42912" lon="5.70851">
        <ele>596</ele>
        <time>2015-06-21T09:28:12Z</time>
      </trkpt>
      <trkpt lat="45.42922" lon="5.70859">
        <ele>600</ele>
        <time>2015-06-21T09:28:16Z</time>
      </trkpt>
      <trkpt lat="45.42926" lon="5.70872">
        <ele>600</ele>
        <time>2015-06-21T09:28:20Z</time>
      </trkpt>
      <trkpt lat="45.42929" lon="5.70886">
        <ele>598</ele>
        <time>2015-06-21T09:28:25Z</time>
      </trkpt>
      <trkpt lat="45.42937" lon="5.70894">
        <ele>598</ele>
        <time>2015-06-21T09:28:29Z</time>
      </trkpt>
      <trkpt lat="45.42945" lon="5.70901">
        <ele>598</ele>
        <time>2015-06-21T09:28:33Z</time>
      </trkpt>
      <trkpt lat="45.42955" lon="5.70906">
        <ele>599</ele>
        <time>2015-06-21T09:28:37Z</time>
      </trkpt>
      <trkpt lat="45.42966" lon="5.70907">
        <ele>600</ele>
        <time>2015-06-21T09:28:41Z</time>
      </trkpt>
      <trkpt lat="45.42977" lon="5.7091">
        <ele>600</ele>
        <time>2015-06-21T09:28:45Z</time>
      </trkpt>
      <trkpt lat="45.42985" lon="5.70917">
        <ele>600</ele>
        <time>2015-06-21T09:28:48Z</time>
      </trkpt>
      <trkpt lat="45.42993" lon="5.70924">
        <ele>596</ele>
        <time>2015-06-21T09:28:51Z</time>
      </trkpt>
      <trkpt lat="45.43002" lon="5.70935">
        <ele>599</ele>
        <time>2015-06-21T09:28:54Z</time>
      </trkpt>
      <trkpt lat="45.43008" lon="5.70945">
        <ele>598</ele>
        <time>2015-06-21T09:28:56Z</time>
      </trkpt>
      <trkpt lat="45.43014" lon="5.70956">
        <ele>597</ele>
        <time>2015-06-21T09:28:58Z</time>
      </trkpt>
      <trkpt lat="45.43022" lon="5.70969">
        <ele>596</ele>
        <time>2015-06-21T09:29:01Z</time>
      </trkpt>
      <trkpt lat="45.43031" lon="5.70978">
        <ele>596</ele>
        <time>2015-06-21T09:29:04Z</time>
      </trkpt>
      <trkpt lat="45.43041" lon="5.7099">
        <ele>596</ele>
        <time>2015-06-21T09:29:07Z</time>
      </trkpt>
      <trkpt lat="45.4305" lon="5.70997">
        <ele>596</ele>
        <time>2015-06-21T09:29:09Z</time>
      </trkpt>
      <trkpt lat="45.43059" lon="5.71003">
        <ele>590</ele>
        <time>2015-06-21T09:29:11Z</time>
      </trkpt>
      <trkpt lat="45.43069" lon="5.71014">
        <ele>591</ele>
        <time>2015-06-21T09:29:14Z</time>
      </trkpt>
      <trkpt lat="45.43077" lon="5.71023">
        <ele>590</ele>
        <time>2015-06-21T09:29:18Z</time>
      </trkpt>
      <trkpt lat="45.43083" lon="5.71033">
        <ele>589</ele>
        <time>2015-06-21T09:29:23Z</time>
      </trkpt>
      <trkpt lat="45.43089" lon="5.71043">
        <ele>596</ele>
        <time>2015-06-21T09:29:28Z</time>
      </trkpt>
      <trkpt lat="45.43096" lon="5.71055">
        <ele>595</ele>
        <time>2015-06-21T09:29:34Z</time>
      </trkpt>
      <trkpt lat="45.43102" lon="5.71065">
        <ele>595</ele>
        <time>2015-06-21T09:29:39Z</time>
      </trkpt>
      <trkpt lat="45.4311" lon="5.71075">
        <ele>595</ele>
        <time>2015-06-21T09:29:45Z</time>
      </trkpt>
      <trkpt lat="45.43119" lon="5.71083">
        <ele>596</ele>
        <time>2015-06-21T09:29:52Z</time>
      </trkpt>
      <trkpt lat="45.43127" lon="5.71089">
        <ele>590</ele>
        <time>2015-06-21T09:29:57Z</time>
      </trkpt>
      <trkpt lat="45.43135" lon="5.71097">
        <ele>591</ele>
        <time>2015-06-21T09:30:02Z</time>
      </trkpt>
      <trkpt lat="45.43143" lon="5.71105">
        <ele>591</ele>
        <time>2015-06-21T09:30:07Z</time>
      </trkpt>
      <trkpt lat="45.43151" lon="5.71112">
        <ele>591</ele>
        <time>2015-06-21T09:30:11Z</time>
      </trkpt>
      <trkpt lat="45.43159" lon="5.71118">
        <ele>591</ele>
        <time>2015-06-21T09:30:15Z</time>
      </trkpt>
      <trkpt lat="45.43169" lon="5.71124">
        <ele>597</ele>
        <time>2015-06-21T09:30:19Z</time>
      </trkpt>
      <trkpt lat="45.43179" lon="5.71129">
        <ele>597</ele>
        <time>2015-06-21T09:30:23Z</time>
      </trkpt>
      <trkpt lat="45.43188" lon="5.71135">
        <ele>596</ele>
        <time>2015-06-21T09:30:27Z</time>
      </trkpt>
      <trkpt lat="45.43198" lon="5.71141">
        <ele>597</ele>
        <time>2015-06-21T09:30:31Z</time>
      </trkpt>
      <trkpt lat="45.43208" lon="5.71146">
        <ele>597</ele>
        <time>2015-06-21T09:30:35Z</time>
      </trkpt>
      <trkpt lat="45.43219" lon="5.71152">
        <ele>597</ele>
        <time>2015-06-21T09:30:39Z</time>
      </trkpt>
      <trkpt lat="45.43228" lon="5.71157">
        <ele>597</ele>
        <time>2015-06-21T09:30:43Z</time>
      </trkpt>
      <trkpt lat="45.43237" lon="5.71163">
        <ele>597</ele>
        <time>2015-06-21T09:30:47Z</time>
      </trkpt>
      <trkpt lat="45.43246" lon="5.71168">
        <ele>594</ele>
        <time>2015-06-21T09:30:51Z</time>
      </trkpt>
      <trkpt lat="45.43256" lon="5.71176">
        <ele>595</ele>
        <time>2015-06-21T09:30:55Z</time>
      </trkpt>
      <trkpt lat="45.43266" lon="5.71182">
        <ele>595</ele>
        <time>2015-06-21T09:30:59Z</time>
      </trkpt>
      <trkpt lat="45.43276" lon="5.71187">
        <ele>595</ele>
        <time>2015-06-21T09:31:03Z</time>
      </trkpt>
      <trkpt lat="45.43287" lon="5.71193">
        <ele>595</ele>
        <time>2015-06-21T09:31:07Z</time>
      </trkpt>
      <trkpt lat="45.43298" lon="5.71198">
        <ele>596</ele>
        <time>2015-06-21T09:31:11Z</time>
      </trkpt>
      <trkpt lat="45.43309" lon="5.71204">
        <ele>596</ele>
        <time>2015-06-21T09:31:15Z</time>
      </trkpt>
      <trkpt lat="45.43319" lon="5.71208">
        <ele>596</ele>
        <time>2015-06-21T09:31:19Z</time>
      </trkpt>
      <trkpt lat="45.43329" lon="5.71211">
        <ele>596</ele>
        <time>2015-06-21T09:31:24Z</time>
      </trkpt>
      <trkpt lat="45.43336" lon="5.712">
        <ele>601</ele>
        <time>2015-06-21T09:31:31Z</time>
      </trkpt>
      <trkpt lat="45.43343" lon="5.71192">
        <ele>601</ele>
        <time>2015-06-21T09:31:38Z</time>
      </trkpt>
      <trkpt lat="45.43352" lon="5.71197">
        <ele>601</ele>
        <time>2015-06-21T09:31:43Z</time>
      </trkpt>
      <trkpt lat="45.43363" lon="5.71203">
        <ele>601</ele>
        <time>2015-06-21T09:31:48Z</time>
      </trkpt>
      <trkpt lat="45.43372" lon="5.7121">
        <ele>600</ele>
        <time>2015-06-21T09:31:53Z</time>
      </trkpt>
      <trkpt lat="45.43382" lon="5.71215">
        <ele>600</ele>
        <time>2015-06-21T09:31:58Z</time>
      </trkpt>
      <trkpt lat="45.43391" lon="5.71214">
        <ele>601</ele>
        <time>2015-06-21T09:32:02Z</time>
      </trkpt>
      <trkpt lat="45.43399" lon="5.71205">
        <ele>601</ele>
        <time>2015-06-21T09:32:09Z</time>
      </trkpt>
      <trkpt lat="45.43408" lon="5.71201">
        <ele>601</ele>
        <time>2015-06-21T09:32:17Z</time>
      </trkpt>
      <trkpt lat="45.43417" lon="5.71205">
        <ele>602</ele>
        <time>2015-06-21T09:32:52Z</time>
      </trkpt>
      <trkpt lat="45.43425" lon="5.71211">
        <ele>602</ele>
        <time>2015-06-21T09:33:02Z</time>
      </trkpt>
      <trkpt lat="45.43434" lon="5.71216">
        <ele>602</ele>
        <time>2015-06-21T09:33:07Z</time>
      </trkpt>
      <trkpt lat="45.43445" lon="5.71219">
        <ele>602</ele>
        <time>2015-06-21T09:33:11Z</time>
      </trkpt>
      <trkpt lat="45.43454" lon="5.71229">
        <ele>602</ele>
        <time>2015-06-21T09:33:14Z</time>
      </trkpt>
      <trkpt lat="45.43462" lon="5.71235">
        <ele>602</ele>
        <time>2015-06-21T09:33:16Z</time>
      </trkpt>
      <trkpt lat="45.43471" lon="5.71239">
        <ele>601</ele>
        <time>2015-06-21T09:33:18Z</time>
      </trkpt>
      <trkpt lat="45.4348" lon="5.71242">
        <ele>601</ele>
        <time>2015-06-21T09:33:20Z</time>
      </trkpt>
      <trkpt lat="45.4349" lon="5.71246">
        <ele>600</ele>
        <time>2015-06-21T09:33:22Z</time>
      </trkpt>
      <trkpt lat="45.43501" lon="5.71251">
        <ele>599</ele>
        <time>2015-06-21T09:33:24Z</time>
      </trkpt>
      <trkpt lat="45.43511" lon="5.71254">
        <ele>597</ele>
        <time>2015-06-21T09:33:26Z</time>
      </trkpt>
      <trkpt lat="45.43521" lon="5.71258">
        <ele>596</ele>
        <time>2015-06-21T09:33:28Z</time>
      </trkpt>
      <trkpt lat="45.43532" lon="5.71262">
        <ele>595</ele>
        <time>2015-06-21T09:33:30Z</time>
      </trkpt>
      <trkpt lat="45.43543" lon="5.71269">
        <ele>595</ele>
        <time>2015-06-21T09:33:32Z</time>
      </trkpt>
      <trkpt lat="45.43553" lon="5.71274">
        <ele>595</ele>
        <time>2015-06-21T09:33:34Z</time>
      </trkpt>
      <trkpt lat="45.43562" lon="5.71281">
        <ele>594</ele>
        <time>2015-06-21T09:33:36Z</time>
      </trkpt>
      <trkpt lat="45.43571" lon="5.7129">
        <ele>594</ele>
        <time>2015-06-21T09:33:38Z</time>
      </trkpt>
      <trkpt lat="45.4358" lon="5.71299">
        <ele>593</ele>
        <time>2015-06-21T09:33:40Z</time>
      </trkpt>
      <trkpt lat="45.43589" lon="5.71307">
        <ele>589</ele>
        <time>2015-06-21T09:33:42Z</time>
      </trkpt>
      <trkpt lat="45.43597" lon="5.71315">
        <ele>589</ele>
        <time>2015-06-21T09:33:44Z</time>
      </trkpt>
      <trkpt lat="45.43607" lon="5.71319">
        <ele>588</ele>
        <time>2015-06-21T09:33:47Z</time>
      </trkpt>
      <trkpt lat="45.43619" lon="5.71317">
        <ele>588</ele>
        <time>2015-06-21T09:33:50Z</time>
      </trkpt>
      <trkpt lat="45.43629" lon="5.71321">
        <ele>587</ele>
        <time>2015-06-21T09:33:54Z</time>
      </trkpt>
      <trkpt lat="45.43636" lon="5.7133">
        <ele>587</ele>
        <time>2015-06-21T09:34:18Z</time>
      </trkpt>
      <trkpt lat="45.43642" lon="5.71342">
        <ele>581</ele>
        <time>2015-06-21T09:34:26Z</time>
      </trkpt>
      <trkpt lat="45.43647" lon="5.71353">
        <ele>581</ele>
        <time>2015-06-21T09:34:29Z</time>
      </trkpt>
      <trkpt lat="45.43656" lon="5.7136">
        <ele>580</ele>
        <time>2015-06-21T09:34:33Z</time>
      </trkpt>
      <trkpt lat="45.43666" lon="5.71368">
        <ele>580</ele>
        <time>2015-06-21T09:34:37Z</time>
      </trkpt>
      <trkpt lat="45.43673" lon="5.71377">
        <ele>573</ele>
        <time>2015-06-21T09:34:40Z</time>
      </trkpt>
      <trkpt lat="45.43679" lon="5.71388">
        <ele>572</ele>
        <time>2015-06-21T09:34:43Z</time>
      </trkpt>
      <trkpt lat="45.43687" lon="5.71397">
        <ele>572</ele>
        <time>2015-06-21T09:34:46Z</time>
      </trkpt>
      <trkpt lat="45.43697" lon="5.71406">
        <ele>571</ele>
        <time>2015-06-21T09:34:49Z</time>
      </trkpt>
      <trkpt lat="45.43706" lon="5.71418">
        <ele>562</ele>
        <time>2015-06-21T09:34:52Z</time>
      </trkpt>
      <trkpt lat="45.43713" lon="5.71425">
        <ele>561</ele>
        <time>2015-06-21T09:34:55Z</time>
      </trkpt>
      <trkpt lat="45.43707" lon="5.71435">
        <ele>562</ele>
        <time>2015-06-21T09:35:00Z</time>
      </trkpt>
      <trkpt lat="45.43715" lon="5.71443">
        <ele>560</ele>
        <time>2015-06-21T09:35:08Z</time>
      </trkpt>
      <trkpt lat="45.43724" lon="5.71455">
        <ele>559</ele>
        <time>2015-06-21T09:35:12Z</time>
      </trkpt>
      <trkpt lat="45.43732" lon="5.71462">
        <ele>557</ele>
        <time>2015-06-21T09:35:16Z</time>
      </trkpt>
      <trkpt lat="45.4374" lon="5.71471">
        <ele>555</ele>
        <time>2015-06-21T09:35:20Z</time>
      </trkpt>
      <trkpt lat="45.43749" lon="5.71475">
        <ele>553</ele>
        <time>2015-06-21T09:35:25Z</time>
      </trkpt>
      <trkpt lat="45.4376" lon="5.71476">
        <ele>547</ele>
        <time>2015-06-21T09:35:32Z</time>
      </trkpt>
      <trkpt lat="45.43769" lon="5.71467">
        <ele>548</ele>
        <time>2015-06-21T09:35:35Z</time>
      </trkpt>
      <trkpt lat="45.43779" lon="5.71459">
        <ele>548</ele>
        <time>2015-06-21T09:35:38Z</time>
      </trkpt>
      <trkpt lat="45.43788" lon="5.71466">
        <ele>547</ele>
        <time>2015-06-21T09:35:43Z</time>
      </trkpt>
      <trkpt lat="45.43798" lon="5.71473">
        <ele>546</ele>
        <time>2015-06-21T09:35:48Z</time>
      </trkpt>
      <trkpt lat="45.43807" lon="5.71474">
        <ele>545</ele>
        <time>2015-06-21T09:35:54Z</time>
      </trkpt>
      <trkpt lat="45.43816" lon="5.71469">
        <ele>545</ele>
        <time>2015-06-21T09:36:00Z</time>
      </trkpt>
      <trkpt lat="45.43824" lon="5.71463">
        <ele>546</ele>
        <time>2015-06-21T09:36:10Z</time>
      </trkpt>
      <trkpt lat="45.43833" lon="5.71468">
        <ele>545</ele>
        <time>2015-06-21T09:36:18Z</time>
      </trkpt>
      <trkpt lat="45.43842" lon="5.71476">
        <ele>542</ele>
        <time>2015-06-21T09:36:22Z</time>
      </trkpt>
      <trkpt lat="45.43849" lon="5.71486">
        <ele>541</ele>
        <time>2015-06-21T09:36:27Z</time>
      </trkpt>
      <trkpt lat="45.43856" lon="5.71496">
        <ele>541</ele>
        <time>2015-06-21T09:36:34Z</time>
      </trkpt>
      <trkpt lat="45.43855" lon="5.71509">
        <ele>527</ele>
        <time>2015-06-21T09:36:42Z</time>
      </trkpt>
      <trkpt lat="45.43862" lon="5.71517">
        <ele>525</ele>
        <time>2015-06-21T09:36:49Z</time>
      </trkpt>
      <trkpt lat="45.43871" lon="5.71516">
        <ele>525</ele>
        <time>2015-06-21T09:37:00Z</time>
      </trkpt>
      <trkpt lat="45.43878" lon="5.71525">
        <ele>524</ele>
        <time>2015-06-21T09:37:15Z</time>
      </trkpt>
      <trkpt lat="45.43878" lon="5.71538">
        <ele>522</ele>
        <time>2015-06-21T09:37:31Z</time>
      </trkpt>
      <trkpt lat="45.43874" lon="5.7155">
        <ele>520</ele>
        <time>2015-06-21T09:37:41Z</time>
      </trkpt>
      <trkpt lat="45.43869" lon="5.71562">
        <ele>518</ele>
        <time>2015-06-21T09:37:49Z</time>
      </trkpt>
      <trkpt lat="45.43862" lon="5.71569">
        <ele>517</ele>
        <time>2015-06-21T09:38:00Z</time>
      </trkpt>
      <trkpt lat="45.43857" lon="5.71581">
        <ele>516</ele>
        <time>2015-06-21T09:38:16Z</time>
      </trkpt>
      <trkpt lat="45.43867" lon="5.71582">
        <ele>516</ele>
        <time>2015-06-21T09:38:24Z</time>
      </trkpt>
      <trkpt lat="45.43873" lon="5.71596">
        <ele>502</ele>
        <time>2015-06-21T09:38:52Z</time>
      </trkpt>
      <trkpt lat="45.43883" lon="5.71602">
        <ele>501</ele>
        <time>2015-06-21T09:39:12Z</time>
      </trkpt>
      <trkpt lat="45.43889" lon="5.71614">
        <ele>500</ele>
        <time>2015-06-21T09:39:20Z</time>
      </trkpt>
      <trkpt lat="45.43894" lon="5.71631">
        <ele>497</ele>
        <time>2015-06-21T09:39:28Z</time>
      </trkpt>
      <trkpt lat="45.43897" lon="5.71647">
        <ele>494</ele>
        <time>2015-06-21T09:39:36Z</time>
      </trkpt>
      <trkpt lat="45.43899" lon="5.71662">
        <ele>491</ele>
        <time>2015-06-21T09:39:44Z</time>
      </trkpt>
      <trkpt lat="45.43903" lon="5.71674">
        <ele>486</ele>
        <time>2015-06-21T09:40:00Z</time>
      </trkpt>
      <trkpt lat="45.43901" lon="5.71688">
        <ele>488</ele>
        <time>2015-06-21T09:40:16Z</time>
      </trkpt>
      <trkpt lat="45.4391" lon="5.717">
        <ele>488</ele>
        <time>2015-06-21T09:40:24Z</time>
      </trkpt>
      <trkpt lat="45.43922" lon="5.71709">
        <ele>479</ele>
        <time>2015-06-21T09:40:32Z</time>
      </trkpt>
      <trkpt lat="45.43935" lon="5.71714">
        <ele>479</ele>
        <time>2015-06-21T09:40:40Z</time>
      </trkpt>
      <trkpt lat="45.43949" lon="5.71717">
        <ele>478</ele>
        <time>2015-06-21T09:40:48Z</time>
      </trkpt>
      <trkpt lat="45.43964" lon="5.71726">
        <ele>476</ele>
        <time>2015-06-21T09:40:56Z</time>
      </trkpt>
      <trkpt lat="45.43972" lon="5.71733">
        <ele>475</ele>
        <time>2015-06-21T09:41:02Z</time>
      </trkpt>
      <trkpt lat="45.43981" lon="5.71738">
        <ele>473</ele>
        <time>2015-06-21T09:41:09Z</time>
      </trkpt>
      <trkpt lat="45.4399" lon="5.71741">
        <ele>471</ele>
        <time>2015-06-21T09:41:16Z</time>
      </trkpt>
      <trkpt lat="45.44002" lon="5.71741">
        <ele>468</ele>
        <time>2015-06-21T09:41:23Z</time>
      </trkpt>
      <trkpt lat="45.44011" lon="5.71742">
        <ele>469</ele>
        <time>2015-06-21T09:41:31Z</time>
      </trkpt>
      <trkpt lat="45.44022" lon="5.7174">
        <ele>470</ele>
        <time>2015-06-21T09:41:43Z</time>
      </trkpt>
      <trkpt lat="45.44033" lon="5.71734">
        <ele>472</ele>
        <time>2015-06-21T09:41:55Z</time>
      </trkpt>
      <trkpt lat="45.44043" lon="5.71732">
        <ele>472</ele>
        <time>2015-06-21T09:42:03Z</time>
      </trkpt>
      <trkpt lat="45.44057" lon="5.71732">
        <ele>471</ele>
        <time>2015-06-21T09:42:11Z</time>
      </trkpt>
      <trkpt lat="45.44072" lon="5.71731">
        <ele>470</ele>
        <time>2015-06-21T09:42:19Z</time>
      </trkpt>
      <trkpt lat="45.44084" lon="5.71736">
        <ele>469</ele>
        <time>2015-06-21T09:42:27Z</time>
      </trkpt>
      <trkpt lat="45.44098" lon="5.7174">
        <ele>470</ele>
        <time>2015-06-21T09:42:35Z</time>
      </trkpt>
      <trkpt lat="45.44114" lon="5.71742">
        <ele>473</ele>
        <time>2015-06-21T09:42:43Z</time>
      </trkpt>
      <trkpt lat="45.44123" lon="5.71742">
        <ele>474</ele>
        <time>2015-06-21T09:42:47Z</time>
      </trkpt>
      <trkpt lat="45.44137" lon="5.71745">
        <ele>474</ele>
        <time>2015-06-21T09:42:55Z</time>
      </trkpt>
      <trkpt lat="45.44152" lon="5.7175">
        <ele>472</ele>
        <time>2015-06-21T09:43:03Z</time>
      </trkpt>
      <trkpt lat="45.44171" lon="5.71749">
        <ele>471</ele>
        <time>2015-06-21T09:43:11Z</time>
      </trkpt>
      <trkpt lat="45.44185" lon="5.71745">
        <ele>477</ele>
        <time>2015-06-21T09:43:19Z</time>
      </trkpt>
      <trkpt lat="45.44197" lon="5.71743">
        <ele>480</ele>
        <time>2015-06-21T09:43:27Z</time>
      </trkpt>
      <trkpt lat="45.44212" lon="5.71738">
        <ele>482</ele>
        <time>2015-06-21T09:43:35Z</time>
      </trkpt>
      <trkpt lat="45.44226" lon="5.71742">
        <ele>482</ele>
        <time>2015-06-21T09:43:43Z</time>
      </trkpt>
      <trkpt lat="45.44239" lon="5.71755">
        <ele>472</ele>
        <time>2015-06-21T09:43:51Z</time>
      </trkpt>
      <trkpt lat="45.44252" lon="5.71762">
        <ele>476</ele>
        <time>2015-06-21T09:43:59Z</time>
      </trkpt>
      <trkpt lat="45.44269" lon="5.71764">
        <ele>475</ele>
        <time>2015-06-21T09:44:07Z</time>
      </trkpt>
      <trkpt lat="45.44279" lon="5.71767">
        <ele>475</ele>
        <time>2015-06-21T09:44:11Z</time>
      </trkpt>
      <trkpt lat="45.4429" lon="5.71777">
        <ele>475</ele>
        <time>2015-06-21T09:44:15Z</time>
      </trkpt>
      <trkpt lat="45.44303" lon="5.71785">
        <ele>475</ele>
        <time>2015-06-21T09:44:19Z</time>
      </trkpt>
      <trkpt lat="45.44321" lon="5.71786">
        <ele>477</ele>
        <time>2015-06-21T09:44:23Z</time>
      </trkpt>
      <trkpt lat="45.44333" lon="5.71789">
        <ele>476</ele>
        <time>2015-06-21T09:44:27Z</time>
      </trkpt>
      <trkpt lat="45.44342" lon="5.71794">
        <ele>483</ele>
        <time>2015-06-21T09:44:31Z</time>
      </trkpt>
      <trkpt lat="45.44352" lon="5.71798">
        <ele>483</ele>
        <time>2015-06-21T09:44:35Z</time>
      </trkpt>
      <trkpt lat="45.44362" lon="5.718">
        <ele>484</ele>
        <time>2015-06-21T09:44:39Z</time>
      </trkpt>
      <trkpt lat="45.44372" lon="5.71803">
        <ele>484</ele>
        <time>2015-06-21T09:44:43Z</time>
      </trkpt>
      <trkpt lat="45.4438" lon="5.71808">
        <ele>484</ele>
        <time>2015-06-21T09:44:47Z</time>
      </trkpt>
      <trkpt lat="45.44395" lon="5.71815">
        <ele>483</ele>
        <time>2015-06-21T09:44:55Z</time>
      </trkpt>
      <trkpt lat="45.4441" lon="5.71817">
        <ele>482</ele>
        <time>2015-06-21T09:45:03Z</time>
      </trkpt>
      <trkpt lat="45.44423" lon="5.71817">
        <ele>489</ele>
        <time>2015-06-21T09:45:11Z</time>
      </trkpt>
      <trkpt lat="45.44433" lon="5.71821">
        <ele>491</ele>
        <time>2015-06-21T09:45:19Z</time>
      </trkpt>
      <trkpt lat="45.44449" lon="5.71818">
        <ele>495</ele>
        <time>2015-06-21T09:45:27Z</time>
      </trkpt>
      <trkpt lat="45.44461" lon="5.71818">
        <ele>497</ele>
        <time>2015-06-21T09:45:35Z</time>
      </trkpt>
      <trkpt lat="45.44467" lon="5.71809">
        <ele>499</ele>
        <time>2015-06-21T09:47:03Z</time>
      </trkpt>
      <trkpt lat="45.44462" lon="5.71796">
        <ele>500</ele>
        <time>2015-06-21T09:47:19Z</time>
      </trkpt>
      <trkpt lat="45.4445" lon="5.71792">
        <ele>500</ele>
        <time>2015-06-21T09:47:55Z</time>
      </trkpt>
      <trkpt lat="45.44441" lon="5.71788">
        <ele>500</ele>
        <time>2015-06-21T09:48:03Z</time>
      </trkpt>
      <trkpt lat="45.44432" lon="5.71783">
        <ele>500</ele>
        <time>2015-06-21T09:48:11Z</time>
      </trkpt>
      <trkpt lat="45.44422" lon="5.71778">
        <ele>501</ele>
        <time>2015-06-21T09:48:19Z</time>
      </trkpt>
      <trkpt lat="45.44414" lon="5.71769">
        <ele>495</ele>
        <time>2015-06-21T09:48:27Z</time>
      </trkpt>
      <trkpt lat="45.44406" lon="5.7176">
        <ele>497</ele>
        <time>2015-06-21T09:48:35Z</time>
      </trkpt>
      <trkpt lat="45.44393" lon="5.71749">
        <ele>510</ele>
        <time>2015-06-21T09:48:43Z</time>
      </trkpt>
      <trkpt lat="45.44382" lon="5.71739">
        <ele>510</ele>
        <time>2015-06-21T09:48:51Z</time>
      </trkpt>
      <trkpt lat="45.44373" lon="5.71728">
        <ele>511</ele>
        <time>2015-06-21T09:48:59Z</time>
      </trkpt>
      <trkpt lat="45.44363" lon="5.71715">
        <ele>512</ele>
        <time>2015-06-21T09:49:07Z</time>
      </trkpt>
      <trkpt lat="45.44355" lon="5.71706">
        <ele>513</ele>
        <time>2015-06-21T09:49:15Z</time>
      </trkpt>
      <trkpt lat="45.44347" lon="5.71696">
        <ele>515</ele>
        <time>2015-06-21T09:49:23Z</time>
      </trkpt>
      <trkpt lat="45.4434" lon="5.71686">
        <ele>516</ele>
        <time>2015-06-21T09:49:31Z</time>
      </trkpt>
      <trkpt lat="45.44333" lon="5.71674">
        <ele>515</ele>
        <time>2015-06-21T09:49:43Z</time>
      </trkpt>
      <trkpt lat="45.44326" lon="5.71661">
        <ele>522</ele>
        <time>2015-06-21T09:49:55Z</time>
      </trkpt>
      <trkpt lat="45.44317" lon="5.71652">
        <ele>522</ele>
        <time>2015-06-21T09:50:07Z</time>
      </trkpt>
      <trkpt lat="45.44298" lon="5.71645">
        <ele>522</ele>
        <time>2015-06-21T09:50:19Z</time>
      </trkpt>
      <trkpt lat="45.44282" lon="5.71634">
        <ele>521</ele>
        <time>2015-06-21T09:50:23Z</time>
      </trkpt>
      <trkpt lat="45.44264" lon="5.71621">
        <ele>522</ele>
        <time>2015-06-21T09:50:27Z</time>
      </trkpt>
      <trkpt lat="45.44247" lon="5.71608">
        <ele>518</ele>
        <time>2015-06-21T09:50:31Z</time>
      </trkpt>
      <trkpt lat="45.44232" lon="5.71598">
        <ele>519</ele>
        <time>2015-06-21T09:50:35Z</time>
      </trkpt>
      <trkpt lat="45.44223" lon="5.71592">
        <ele>519</ele>
        <time>2015-06-21T09:50:39Z</time>
      </trkpt>
      <trkpt lat="45.44213" lon="5.71585">
        <ele>518</ele>
        <time>2015-06-21T09:50:47Z</time>
      </trkpt>
      <trkpt lat="45.44206" lon="5.71574">
        <ele>536</ele>
        <time>2015-06-21T09:50:59Z</time>
      </trkpt>
      <trkpt lat="45.44195" lon="5.71571">
        <ele>535</ele>
        <time>2015-06-21T09:51:11Z</time>
      </trkpt>
      <trkpt lat="45.44183" lon="5.71571">
        <ele>533</ele>
        <time>2015-06-21T09:51:23Z</time>
      </trkpt>
      <trkpt lat="45.44173" lon="5.71573">
        <ele>530</ele>
        <time>2015-06-21T09:51:35Z</time>
      </trkpt>
      <trkpt lat="45.44162" lon="5.71584">
        <ele>521</ele>
        <time>2015-06-21T09:51:43Z</time>
      </trkpt>
      <trkpt lat="45.44151" lon="5.71588">
        <ele>516</ele>
        <time>2015-06-21T09:51:51Z</time>
      </trkpt>
      <trkpt lat="45.44142" lon="5.7158">
        <ele>530</ele>
        <time>2015-06-21T09:51:59Z</time>
      </trkpt>
      <trkpt lat="45.4413" lon="5.71572">
        <ele>532</ele>
        <time>2015-06-21T09:52:07Z</time>
      </trkpt>
      <trkpt lat="45.44123" lon="5.71562">
        <ele>533</ele>
        <time>2015-06-21T09:52:15Z</time>
      </trkpt>
      <trkpt lat="45.44116" lon="5.71553">
        <ele>534</ele>
        <time>2015-06-21T09:52:23Z</time>
      </trkpt>
      <trkpt lat="45.44105" lon="5.71546">
        <ele>534</ele>
        <time>2015-06-21T09:52:35Z</time>
      </trkpt>
      <trkpt lat="45.44097" lon="5.71537">
        <ele>536</ele>
        <time>2015-06-21T09:52:47Z</time>
      </trkpt>
      <trkpt lat="45.44089" lon="5.71527">
        <ele>538</ele>
        <time>2015-06-21T09:52:59Z</time>
      </trkpt>
      <trkpt lat="45.44091" lon="5.71512">
        <ele>541</ele>
        <time>2015-06-21T09:53:19Z</time>
      </trkpt>
      <trkpt lat="45.44103" lon="5.71512">
        <ele>540</ele>
        <time>2015-06-21T09:53:35Z</time>
      </trkpt>
      <trkpt lat="45.4411" lon="5.7152">
        <ele>539</ele>
        <time>2015-06-21T09:53:43Z</time>
      </trkpt>
      <trkpt lat="45.44119" lon="5.71524">
        <ele>538</ele>
        <time>2015-06-21T09:53:51Z</time>
      </trkpt>
      <trkpt lat="45.44131" lon="5.71524">
        <ele>538</ele>
        <time>2015-06-21T09:53:59Z</time>
      </trkpt>
      <trkpt lat="45.44144" lon="5.71524">
        <ele>539</ele>
        <time>2015-06-21T09:54:07Z</time>
      </trkpt>
      <trkpt lat="45.44156" lon="5.71523">
        <ele>540</ele>
        <time>2015-06-21T09:54:15Z</time>
      </trkpt>
      <trkpt lat="45.44166" lon="5.71527">
        <ele>540</ele>
        <time>2015-06-21T09:54:23Z</time>
      </trkpt>
      <trkpt lat="45.4418" lon="5.71533">
        <ele>541</ele>
        <time>2015-06-21T09:54:31Z</time>
      </trkpt>
      <trkpt lat="45.44194" lon="5.71533">
        <ele>541</ele>
        <time>2015-06-21T09:54:39Z</time>
      </trkpt>
      <trkpt lat="45.44207" lon="5.7154">
        <ele>540</ele>
        <time>2015-06-21T09:54:47Z</time>
      </trkpt>
      <trkpt lat="45.44216" lon="5.71549">
        <ele>539</ele>
        <time>2015-06-21T09:54:51Z</time>
      </trkpt>
      <trkpt lat="45.44232" lon="5.71555">
        <ele>538</ele>
        <time>2015-06-21T09:54:55Z</time>
      </trkpt>
      <trkpt lat="45.44252" lon="5.71563">
        <ele>541</ele>
        <time>2015-06-21T09:54:59Z</time>
      </trkpt>
      <trkpt lat="45.44274" lon="5.71578">
        <ele>542</ele>
        <time>2015-06-21T09:55:03Z</time>
      </trkpt>
      <trkpt lat="45.44291" lon="5.71602">
        <ele>527</ele>
        <time>2015-06-21T09:55:07Z</time>
      </trkpt>
      <trkpt lat="45.44308" lon="5.71614">
        <ele>527</ele>
        <time>2015-06-21T09:55:11Z</time>
      </trkpt>
      <trkpt lat="45.44319" lon="5.71616">
        <ele>528</ele>
        <time>2015-06-21T09:55:15Z</time>
      </trkpt>
      <trkpt lat="45.44335" lon="5.71614">
        <ele>538</ele>
        <time>2015-06-21T09:55:23Z</time>
      </trkpt>
      <trkpt lat="45.44348" lon="5.71611">
        <ele>539</ele>
        <time>2015-06-21T09:55:31Z</time>
      </trkpt>
      <trkpt lat="45.44363" lon="5.71606">
        <ele>540</ele>
        <time>2015-06-21T09:55:39Z</time>
      </trkpt>
      <trkpt lat="45.44375" lon="5.71602">
        <ele>542</ele>
        <time>2015-06-21T09:55:47Z</time>
      </trkpt>
      <trkpt lat="45.44385" lon="5.71599">
        <ele>543</ele>
        <time>2015-06-21T09:55:55Z</time>
      </trkpt>
      <trkpt lat="45.44396" lon="5.71597">
        <ele>546</ele>
        <time>2015-06-21T09:56:03Z</time>
      </trkpt>
      <trkpt lat="45.44405" lon="5.716">
        <ele>547</ele>
        <time>2015-06-21T09:56:11Z</time>
      </trkpt>
      <trkpt lat="45.44416" lon="5.71602">
        <ele>547</ele>
        <time>2015-06-21T09:56:19Z</time>
      </trkpt>
      <trkpt lat="45.44427" lon="5.71613">
        <ele>553</ele>
        <time>2015-06-21T09:56:27Z</time>
      </trkpt>
      <trkpt lat="45.44439" lon="5.71625">
        <ele>551</ele>
        <time>2015-06-21T09:56:35Z</time>
      </trkpt>
      <trkpt lat="45.44451" lon="5.71634">
        <ele>551</ele>
        <time>2015-06-21T09:56:43Z</time>
      </trkpt>
      <trkpt lat="45.4446" lon="5.7164">
        <ele>551</ele>
        <time>2015-06-21T09:56:47Z</time>
      </trkpt>
      <trkpt lat="45.44469" lon="5.71647">
        <ele>551</ele>
        <time>2015-06-21T09:56:51Z</time>
      </trkpt>
      <trkpt lat="45.44482" lon="5.71647">
        <ele>551</ele>
        <time>2015-06-21T09:56:59Z</time>
      </trkpt>
      <trkpt lat="45.44488" lon="5.71635">
        <ele>553</ele>
        <time>2015-06-21T09:57:07Z</time>
      </trkpt>
      <trkpt lat="45.44489" lon="5.71621">
        <ele>556</ele>
        <time>2015-06-21T09:57:19Z</time>
      </trkpt>
      <trkpt lat="45.44481" lon="5.7161">
        <ele>557</ele>
        <time>2015-06-21T09:57:35Z</time>
      </trkpt>
      <trkpt lat="45.4447" lon="5.71592">
        <ele>558</ele>
        <time>2015-06-21T09:57:47Z</time>
      </trkpt>
      <trkpt lat="45.44463" lon="5.71579">
        <ele>571</ele>
        <time>2015-06-21T09:57:51Z</time>
      </trkpt>
      <trkpt lat="45.44455" lon="5.71566">
        <ele>571</ele>
        <time>2015-06-21T09:57:59Z</time>
      </trkpt>
      <trkpt lat="45.44444" lon="5.7156">
        <ele>571</ele>
        <time>2015-06-21T09:58:07Z</time>
      </trkpt>
      <trkpt lat="45.44436" lon="5.7155">
        <ele>572</ele>
        <time>2015-06-21T09:58:15Z</time>
      </trkpt>
      <trkpt lat="45.44425" lon="5.71542">
        <ele>573</ele>
        <time>2015-06-21T09:58:23Z</time>
      </trkpt>
      <trkpt lat="45.44414" lon="5.71531">
        <ele>568</ele>
        <time>2015-06-21T09:58:31Z</time>
      </trkpt>
      <trkpt lat="45.44403" lon="5.71519">
        <ele>570</ele>
        <time>2015-06-21T09:58:39Z</time>
      </trkpt>
      <trkpt lat="45.44394" lon="5.71512">
        <ele>570</ele>
        <time>2015-06-21T09:58:47Z</time>
      </trkpt>
      <trkpt lat="45.44385" lon="5.71506">
        <ele>569</ele>
        <time>2015-06-21T09:58:55Z</time>
      </trkpt>
      <trkpt lat="45.44377" lon="5.71496">
        <ele>580</ele>
        <time>2015-06-21T09:59:03Z</time>
      </trkpt>
      <trkpt lat="45.44367" lon="5.71489">
        <ele>579</ele>
        <time>2015-06-21T09:59:11Z</time>
      </trkpt>
      <trkpt lat="45.44358" lon="5.71485">
        <ele>578</ele>
        <time>2015-06-21T09:59:18Z</time>
      </trkpt>
      <trkpt lat="45.44348" lon="5.71479">
        <ele>578</ele>
        <time>2015-06-21T09:59:26Z</time>
      </trkpt>
      <trkpt lat="45.44338" lon="5.71475">
        <ele>578</ele>
        <time>2015-06-21T09:59:33Z</time>
      </trkpt>
      <trkpt lat="45.44331" lon="5.71465">
        <ele>573</ele>
        <time>2015-06-21T09:59:39Z</time>
      </trkpt>
      <trkpt lat="45.44325" lon="5.71455">
        <ele>574</ele>
        <time>2015-06-21T09:59:46Z</time>
      </trkpt>
      <trkpt lat="45.44319" lon="5.71443">
        <ele>576</ele>
        <time>2015-06-21T09:59:53Z</time>
      </trkpt>
      <trkpt lat="45.44314" lon="5.71431">
        <ele>578</ele>
        <time>2015-06-21T10:00:00Z</time>
      </trkpt>
      <trkpt lat="45.44309" lon="5.71419">
        <ele>578</ele>
        <time>2015-06-21T10:00:06Z</time>
      </trkpt>
      <trkpt lat="45.44305" lon="5.71406">
        <ele>586</ele>
        <time>2015-06-21T10:00:21Z</time>
      </trkpt>
      <trkpt lat="45.443" lon="5.71394">
        <ele>586</ele>
        <time>2015-06-21T10:00:32Z</time>
      </trkpt>
      <trkpt lat="45.44294" lon="5.71384">
        <ele>586</ele>
        <time>2015-06-21T10:00:42Z</time>
      </trkpt>
      <trkpt lat="45.44286" lon="5.71378">
        <ele>586</ele>
        <time>2015-06-21T10:01:30Z</time>
      </trkpt>
      <trkpt lat="45.44282" lon="5.71366">
        <ele>587</ele>
        <time>2015-06-21T10:01:44Z</time>
      </trkpt>
      <trkpt lat="45.44277" lon="5.71356">
        <ele>588</ele>
        <time>2015-06-21T10:01:54Z</time>
      </trkpt>
      <trkpt lat="45.44269" lon="5.71348">
        <ele>588</ele>
        <time>2015-06-21T10:02:02Z</time>
      </trkpt>
      <trkpt lat="45.44261" lon="5.7134">
        <ele>589</ele>
        <time>2015-06-21T10:02:10Z</time>
      </trkpt>
      <trkpt lat="45.44252" lon="5.71334">
        <ele>590</ele>
        <time>2015-06-21T10:02:17Z</time>
      </trkpt>
      <trkpt lat="45.44243" lon="5.71331">
        <ele>591</ele>
        <time>2015-06-21T10:02:25Z</time>
      </trkpt>
      <trkpt lat="45.44233" lon="5.71327">
        <ele>592</ele>
        <time>2015-06-21T10:02:33Z</time>
      </trkpt>
      <trkpt lat="45.44224" lon="5.71321">
        <ele>592</ele>
        <time>2015-06-21T10:02:41Z</time>
      </trkpt>
      <trkpt lat="45.44216" lon="5.71312">
        <ele>593</ele>
        <time>2015-06-21T10:02:48Z</time>
      </trkpt>
      <trkpt lat="45.4421" lon="5.71301">
        <ele>593</ele>
        <time>2015-06-21T10:02:55Z</time>
      </trkpt>
      <trkpt lat="45.44203" lon="5.71291">
        <ele>593</ele>
        <time>2015-06-21T10:03:03Z</time>
      </trkpt>
      <trkpt lat="45.44197" lon="5.7128">
        <ele>594</ele>
        <time>2015-06-21T10:03:11Z</time>
      </trkpt>
      <trkpt lat="45.4419" lon="5.71272">
        <ele>594</ele>
        <time>2015-06-21T10:03:17Z</time>
      </trkpt>
      <trkpt lat="45.44181" lon="5.71263">
        <ele>594</ele>
        <time>2015-06-21T10:03:23Z</time>
      </trkpt>
      <trkpt lat="45.44172" lon="5.71255">
        <ele>594</ele>
        <time>2015-06-21T10:03:27Z</time>
      </trkpt>
      <trkpt lat="45.44166" lon="5.71244">
        <ele>594</ele>
        <time>2015-06-21T10:03:30Z</time>
      </trkpt>
      <trkpt lat="45.44159" lon="5.71235">
        <ele>594</ele>
        <time>2015-06-21T10:03:32Z</time>
      </trkpt>
      <trkpt lat="45.4415" lon="5.7123">
        <ele>594</ele>
        <time>2015-06-21T10:03:34Z</time>
      </trkpt>
      <trkpt lat="45.44138" lon="5.71227">
        <ele>594</ele>
        <time>2015-06-21T10:03:36Z</time>
      </trkpt>
      <trkpt lat="45.44125" lon="5.71224">
        <ele>594</ele>
        <time>2015-06-21T10:03:38Z</time>
      </trkpt>
      <trkpt lat="45.44113" lon="5.71219">
        <ele>594</ele>
        <time>2015-06-21T10:03:40Z</time>
      </trkpt>
      <trkpt lat="45.44103" lon="5.71213">
        <ele>594</ele>
        <time>2015-06-21T10:03:42Z</time>
      </trkpt>
      <trkpt lat="45.44093" lon="5.71208">
        <ele>594</ele>
        <time>2015-06-21T10:03:44Z</time>
      </trkpt>
      <trkpt lat="45.44072" lon="5.71195">
        <ele>594</ele>
        <time>2015-06-21T10:03:47Z</time>
      </trkpt>
      <trkpt lat="45.44054" lon="5.71194">
        <ele>593</ele>
        <time>2015-06-21T10:03:51Z</time>
      </trkpt>
      <trkpt lat="45.44044" lon="5.71193">
        <ele>593</ele>
        <time>2015-06-21T10:03:55Z</time>
      </trkpt>
      <trkpt lat="45.44034" lon="5.71193">
        <ele>593</ele>
        <time>2015-06-21T10:03:59Z</time>
      </trkpt>
      <trkpt lat="45.44024" lon="5.71191">
        <ele>594</ele>
        <time>2015-06-21T10:04:04Z</time>
      </trkpt>
      <trkpt lat="45.44015" lon="5.71185">
        <ele>595</ele>
        <time>2015-06-21T10:04:10Z</time>
      </trkpt>
      <trkpt lat="45.43999" lon="5.7118">
        <ele>595</ele>
        <time>2015-06-21T10:04:16Z</time>
      </trkpt>
      <trkpt lat="45.43989" lon="5.71178">
        <ele>595</ele>
        <time>2015-06-21T10:04:20Z</time>
      </trkpt>
      <trkpt lat="45.43981" lon="5.71171">
        <ele>595</ele>
        <time>2015-06-21T10:04:24Z</time>
      </trkpt>
      <trkpt lat="45.43974" lon="5.71162">
        <ele>604</ele>
        <time>2015-06-21T10:04:28Z</time>
      </trkpt>
      <trkpt lat="45.43965" lon="5.71151">
        <ele>605</ele>
        <time>2015-06-21T10:04:32Z</time>
      </trkpt>
      <trkpt lat="45.43954" lon="5.71141">
        <ele>606</ele>
        <time>2015-06-21T10:04:36Z</time>
      </trkpt>
      <trkpt lat="45.43943" lon="5.71132">
        <ele>607</ele>
        <time>2015-06-21T10:04:40Z</time>
      </trkpt>
      <trkpt lat="45.43933" lon="5.71123">
        <ele>608</ele>
        <time>2015-06-21T10:04:44Z</time>
      </trkpt>
      <trkpt lat="45.43924" lon="5.71116">
        <ele>609</ele>
        <time>2015-06-21T10:04:48Z</time>
      </trkpt>
      <trkpt lat="45.43915" lon="5.7111">
        <ele>607</ele>
        <time>2015-06-21T10:04:52Z</time>
      </trkpt>
      <trkpt lat="45.43906" lon="5.71102">
        <ele>608</ele>
        <time>2015-06-21T10:04:56Z</time>
      </trkpt>
      <trkpt lat="45.43896" lon="5.71093">
        <ele>608</ele>
        <time>2015-06-21T10:05:00Z</time>
      </trkpt>
      <trkpt lat="45.43886" lon="5.71086">
        <ele>607</ele>
        <time>2015-06-21T10:05:04Z</time>
      </trkpt>
      <trkpt lat="45.43876" lon="5.71082">
        <ele>617</ele>
        <time>2015-06-21T10:05:08Z</time>
      </trkpt>
      <trkpt lat="45.43859" lon="5.71085">
        <ele>605</ele>
        <time>2015-06-21T10:05:16Z</time>
      </trkpt>
      <trkpt lat="45.43844" lon="5.7109">
        <ele>605</ele>
        <time>2015-06-21T10:05:24Z</time>
      </trkpt>
      <trkpt lat="45.43827" lon="5.71088">
        <ele>606</ele>
        <time>2015-06-21T10:05:32Z</time>
      </trkpt>
      <trkpt lat="45.43813" lon="5.7108">
        <ele>611</ele>
        <time>2015-06-21T10:05:40Z</time>
      </trkpt>
      <trkpt lat="45.43801" lon="5.71073">
        <ele>612</ele>
        <time>2015-06-21T10:05:47Z</time>
      </trkpt>
      <trkpt lat="45.43792" lon="5.71068">
        <ele>612</ele>
        <time>2015-06-21T10:05:52Z</time>
      </trkpt>
      <trkpt lat="45.43781" lon="5.71063">
        <ele>613</ele>
        <time>2015-06-21T10:05:57Z</time>
      </trkpt>
      <trkpt lat="45.43771" lon="5.71062">
        <ele>613</ele>
        <time>2015-06-21T10:06:01Z</time>
      </trkpt>
      <trkpt lat="45.43762" lon="5.71064">
        <ele>612</ele>
        <time>2015-06-21T10:06:05Z</time>
      </trkpt>
      <trkpt lat="45.43753" lon="5.71066">
        <ele>612</ele>
        <time>2015-06-21T10:06:09Z</time>
      </trkpt>
      <trkpt lat="45.43743" lon="5.7106">
        <ele>613</ele>
        <time>2015-06-21T10:06:15Z</time>
      </trkpt>
      <trkpt lat="45.43734" lon="5.71053">
        <ele>614</ele>
        <time>2015-06-21T10:06:22Z</time>
      </trkpt>
      <trkpt lat="45.43724" lon="5.71047">
        <ele>614</ele>
        <time>2015-06-21T10:06:29Z</time>
      </trkpt>
      <trkpt lat="45.43713" lon="5.71043">
        <ele>615</ele>
        <time>2015-06-21T10:06:35Z</time>
      </trkpt>
      <trkpt lat="45.43703" lon="5.71042">
        <ele>615</ele>
        <time>2015-06-21T10:06:39Z</time>
      </trkpt>
      <trkpt lat="45.43693" lon="5.71039">
        <ele>615</ele>
        <time>2015-06-21T10:06:43Z</time>
      </trkpt>
      <trkpt lat="45.43683" lon="5.71031">
        <ele>616</ele>
        <time>2015-06-21T10:06:48Z</time>
      </trkpt>
      <trkpt lat="45.43672" lon="5.71027">
        <ele>616</ele>
        <time>2015-06-21T10:06:52Z</time>
      </trkpt>
      <trkpt lat="45.43664" lon="5.7102">
        <ele>617</ele>
        <time>2015-06-21T10:06:57Z</time>
      </trkpt>
      <trkpt lat="45.43657" lon="5.71012">
        <ele>618</ele>
        <time>2015-06-21T10:07:01Z</time>
      </trkpt>
      <trkpt lat="45.43648" lon="5.71002">
        <ele>617</ele>
        <time>2015-06-21T10:07:05Z</time>
      </trkpt>
      <trkpt lat="45.43642" lon="5.70992">
        <ele>619</ele>
        <time>2015-06-21T10:07:08Z</time>
      </trkpt>
      <trkpt lat="45.43635" lon="5.70983">
        <ele>619</ele>
        <time>2015-06-21T10:07:11Z</time>
      </trkpt>
      <trkpt lat="45.43626" lon="5.70977">
        <ele>618</ele>
        <time>2015-06-21T10:07:15Z</time>
      </trkpt>
      <trkpt lat="45.43618" lon="5.70971">
        <ele>618</ele>
        <time>2015-06-21T10:07:19Z</time>
      </trkpt>
      <trkpt lat="45.43607" lon="5.70964">
        <ele>618</ele>
        <time>2015-06-21T10:07:23Z</time>
      </trkpt>
      <trkpt lat="45.43596" lon="5.70958">
        <ele>618</ele>
        <time>2015-06-21T10:07:27Z</time>
      </trkpt>
      <trkpt lat="45.43585" lon="5.70953">
        <ele>618</ele>
        <time>2015-06-21T10:07:30Z</time>
      </trkpt>
      <trkpt lat="45.43576" lon="5.70947">
        <ele>617</ele>
        <time>2015-06-21T10:07:33Z</time>
      </trkpt>
      <trkpt lat="45.43566" lon="5.70941">
        <ele>617</ele>
        <time>2015-06-21T10:07:37Z</time>
      </trkpt>
      <trkpt lat="45.43555" lon="5.70939">
        <ele>618</ele>
        <time>2015-06-21T10:07:42Z</time>
      </trkpt>
      <trkpt lat="45.43547" lon="5.70933">
        <ele>618</ele>
        <time>2015-06-21T10:07:47Z</time>
      </trkpt>
      <trkpt lat="45.43552" lon="5.70921">
        <ele>618</ele>
        <time>2015-06-21T10:07:54Z</time>
      </trkpt>
      <trkpt lat="45.43558" lon="5.70912">
        <ele>622</ele>
        <time>2015-06-21T10:08:00Z</time>
      </trkpt>
      <trkpt lat="45.43564" lon="5.70901">
        <ele>622</ele>
        <time>2015-06-21T10:08:06Z</time>
      </trkpt>
      <trkpt lat="45.43562" lon="5.70887">
        <ele>623</ele>
        <time>2015-06-21T10:08:14Z</time>
      </trkpt>
      <trkpt lat="45.43553" lon="5.70882">
        <ele>623</ele>
        <time>2015-06-21T10:08:21Z</time>
      </trkpt>
      <trkpt lat="45.43543" lon="5.70878">
        <ele>624</ele>
        <time>2015-06-21T10:08:29Z</time>
      </trkpt>
      <trkpt lat="45.43535" lon="5.70872">
        <ele>624</ele>
        <time>2015-06-21T10:08:38Z</time>
      </trkpt>
      <trkpt lat="45.43526" lon="5.70867">
        <ele>625</ele>
        <time>2015-06-21T10:08:48Z</time>
      </trkpt>
      <trkpt lat="45.43517" lon="5.70859">
        <ele>626</ele>
        <time>2015-06-21T10:08:59Z</time>
      </trkpt>
      <trkpt lat="45.43511" lon="5.70848">
        <ele>627</ele>
        <time>2015-06-21T10:09:08Z</time>
      </trkpt>
      <trkpt lat="45.43509" lon="5.70833">
        <ele>632</ele>
        <time>2015-06-21T10:09:19Z</time>
      </trkpt>
      <trkpt lat="45.43502" lon="5.70823">
        <ele>632</ele>
        <time>2015-06-21T10:09:27Z</time>
      </trkpt>
      <trkpt lat="45.43493" lon="5.70816">
        <ele>633</ele>
        <time>2015-06-21T10:09:34Z</time>
      </trkpt>
      <trkpt lat="45.43484" lon="5.70813">
        <ele>633</ele>
        <time>2015-06-21T10:09:40Z</time>
      </trkpt>
      <trkpt lat="45.43474" lon="5.70813">
        <ele>633</ele>
        <time>2015-06-21T10:09:46Z</time>
      </trkpt>
      <trkpt lat="45.43464" lon="5.70813">
        <ele>633</ele>
        <time>2015-06-21T10:09:52Z</time>
      </trkpt>
      <trkpt lat="45.43456" lon="5.70807">
        <ele>634</ele>
        <time>2015-06-21T10:09:59Z</time>
      </trkpt>
      <trkpt lat="45.43447" lon="5.708">
        <ele>634</ele>
        <time>2015-06-21T10:10:06Z</time>
      </trkpt>
      <trkpt lat="45.43439" lon="5.70788">
        <ele>634</ele>
        <time>2015-06-21T10:10:12Z</time>
      </trkpt>
      <trkpt lat="45.43428" lon="5.70786">
        <ele>634</ele>
        <time>2015-06-21T10:10:14Z</time>
      </trkpt>
      <trkpt lat="45.43415" lon="5.70785">
        <ele>633</ele>
        <time>2015-06-21T10:10:16Z</time>
      </trkpt>
      <trkpt lat="45.43404" lon="5.70785">
        <ele>633</ele>
        <time>2015-06-21T10:10:18Z</time>
      </trkpt>
      <trkpt lat="45.43393" lon="5.70785">
        <ele>632</ele>
        <time>2015-06-21T10:10:20Z</time>
      </trkpt>
      <trkpt lat="45.43383" lon="5.70784">
        <ele>632</ele>
        <time>2015-06-21T10:10:22Z</time>
      </trkpt>
      <trkpt lat="45.43372" lon="5.70784">
        <ele>632</ele>
        <time>2015-06-21T10:10:24Z</time>
      </trkpt>
      <trkpt lat="45.4336" lon="5.70783">
        <ele>631</ele>
        <time>2015-06-21T10:10:27Z</time>
      </trkpt>
      <trkpt lat="45.43362" lon="5.7077">
        <ele>632</ele>
        <time>2015-06-21T10:10:37Z</time>
      </trkpt>
      <trkpt lat="45.43365" lon="5.70757">
        <ele>632</ele>
        <time>2015-06-21T10:10:44Z</time>
      </trkpt>
      <trkpt lat="45.43367" lon="5.70744">
        <ele>637</ele>
        <time>2015-06-21T10:10:51Z</time>
      </trkpt>
      <trkpt lat="45.43369" lon="5.70731">
        <ele>638</ele>
        <time>2015-06-21T10:10:58Z</time>
      </trkpt>
      <trkpt lat="45.43371" lon="5.70717">
        <ele>639</ele>
        <time>2015-06-21T10:11:05Z</time>
      </trkpt>
      <trkpt lat="45.43374" lon="5.70705">
        <ele>639</ele>
        <time>2015-06-21T10:11:12Z</time>
      </trkpt>
      <trkpt lat="45.43377" lon="5.70693">
        <ele>640</ele>
        <time>2015-06-21T10:11:19Z</time>
      </trkpt>
      <trkpt lat="45.43381" lon="5.70679">
        <ele>641</ele>
        <time>2015-06-21T10:11:27Z</time>
      </trkpt>
      <trkpt lat="45.43385" lon="5.70668">
        <ele>641</ele>
        <time>2015-06-21T10:11:34Z</time>
      </trkpt>
      <trkpt lat="45.43388" lon="5.70655">
        <ele>650</ele>
        <time>2015-06-21T10:11:42Z</time>
      </trkpt>
      <trkpt lat="45.43389" lon="5.70642">
        <ele>651</ele>
        <time>2015-06-21T10:11:58Z</time>
      </trkpt>
      <trkpt lat="45.4338" lon="5.70636">
        <ele>652</ele>
        <time>2015-06-21T10:12:31Z</time>
      </trkpt>
      <trkpt lat="45.43373" lon="5.70627">
        <ele>652</ele>
        <time>2015-06-21T10:12:39Z</time>
      </trkpt>
      <trkpt lat="45.43365" lon="5.7062">
        <ele>653</ele>
        <time>2015-06-21T10:12:45Z</time>
      </trkpt>
      <trkpt lat="45.43358" lon="5.70613">
        <ele>654</ele>
        <time>2015-06-21T10:12:50Z</time>
      </trkpt>
      <trkpt lat="45.4335" lon="5.70605">
        <ele>655</ele>
        <time>2015-06-21T10:12:56Z</time>
      </trkpt>
      <trkpt lat="45.43343" lon="5.70598">
        <ele>656</ele>
        <time>2015-06-21T10:13:02Z</time>
      </trkpt>
      <trkpt lat="45.43335" lon="5.70591">
        <ele>657</ele>
        <time>2015-06-21T10:13:08Z</time>
      </trkpt>
      <trkpt lat="45.43327" lon="5.70582">
        <ele>660</ele>
        <time>2015-06-21T10:13:14Z</time>
      </trkpt>
      <trkpt lat="45.43319" lon="5.70573">
        <ele>662</ele>
        <time>2015-06-21T10:13:20Z</time>
      </trkpt>
      <trkpt lat="45.43311" lon="5.70564">
        <ele>663</ele>
        <time>2015-06-21T10:13:26Z</time>
      </trkpt>
      <trkpt lat="45.43303" lon="5.70556">
        <ele>664</ele>
        <time>2015-06-21T10:13:32Z</time>
      </trkpt>
      <trkpt lat="45.43294" lon="5.70549">
        <ele>665</ele>
        <time>2015-06-21T10:13:38Z</time>
      </trkpt>
      <trkpt lat="45.43286" lon="5.70542">
        <ele>665</ele>
        <time>2015-06-21T10:13:44Z</time>
      </trkpt>
      <trkpt lat="45.43278" lon="5.70534">
        <ele>666</ele>
        <time>2015-06-21T10:13:50Z</time>
      </trkpt>
      <trkpt lat="45.4327" lon="5.70527">
        <ele>666</ele>
        <time>2015-06-21T10:13:56Z</time>
      </trkpt>
      <trkpt lat="45.43262" lon="5.7052">
        <ele>667</ele>
        <time>2015-06-21T10:14:02Z</time>
      </trkpt>
      <trkpt lat="45.43253" lon="5.70514">
        <ele>668</ele>
        <time>2015-06-21T10:14:08Z</time>
      </trkpt>
      <trkpt lat="45.43244" lon="5.70506">
        <ele>668</ele>
        <time>2015-06-21T10:14:14Z</time>
      </trkpt>
      <trkpt lat="45.43237" lon="5.70499">
        <ele>672</ele>
        <time>2015-06-21T10:14:19Z</time>
      </trkpt>
      <trkpt lat="45.43229" lon="5.70491">
        <ele>673</ele>
        <time>2015-06-21T10:14:24Z</time>
      </trkpt>
      <trkpt lat="45.43222" lon="5.70483">
        <ele>674</ele>
        <time>2015-06-21T10:14:29Z</time>
      </trkpt>
      <trkpt lat="45.43214" lon="5.70476">
        <ele>674</ele>
        <time>2015-06-21T10:14:34Z</time>
      </trkpt>
      <trkpt lat="45.43205" lon="5.70469">
        <ele>675</ele>
        <time>2015-06-21T10:14:41Z</time>
      </trkpt>
      <trkpt lat="45.43197" lon="5.70461">
        <ele>675</ele>
        <time>2015-06-21T10:14:46Z</time>
      </trkpt>
      <trkpt lat="45.43187" lon="5.70454">
        <ele>676</ele>
        <time>2015-06-21T10:14:51Z</time>
      </trkpt>
      <trkpt lat="45.43179" lon="5.70446">
        <ele>676</ele>
        <time>2015-06-21T10:14:56Z</time>
      </trkpt>
      <trkpt lat="45.43171" lon="5.70438">
        <ele>677</ele>
        <time>2015-06-21T10:15:01Z</time>
      </trkpt>
      <trkpt lat="45.43162" lon="5.7043">
        <ele>678</ele>
        <time>2015-06-21T10:15:06Z</time>
      </trkpt>
      <trkpt lat="45.43153" lon="5.70423">
        <ele>678</ele>
        <time>2015-06-21T10:15:11Z</time>
      </trkpt>
      <trkpt lat="45.43145" lon="5.70414">
        <ele>683</ele>
        <time>2015-06-21T10:15:16Z</time>
      </trkpt>
      <trkpt lat="45.43138" lon="5.70406">
        <ele>683</ele>
        <time>2015-06-21T10:15:21Z</time>
      </trkpt>
      <trkpt lat="45.43128" lon="5.70394">
        <ele>684</ele>
        <time>2015-06-21T10:15:27Z</time>
      </trkpt>
      <trkpt lat="45.43118" lon="5.70378">
        <ele>685</ele>
        <time>2015-06-21T10:15:35Z</time>
      </trkpt>
      <trkpt lat="45.43105" lon="5.70368">
        <ele>685</ele>
        <time>2015-06-21T10:15:41Z</time>
      </trkpt>
      <trkpt lat="45.43097" lon="5.7036">
        <ele>686</ele>
        <time>2015-06-21T10:15:46Z</time>
      </trkpt>
      <trkpt lat="45.43089" lon="5.70353">
        <ele>687</ele>
        <time>2015-06-21T10:15:50Z</time>
      </trkpt>
      <trkpt lat="45.4308" lon="5.70346">
        <ele>687</ele>
        <time>2015-06-21T10:15:54Z</time>
      </trkpt>
      <trkpt lat="45.43071" lon="5.70339">
        <ele>687</ele>
        <time>2015-06-21T10:15:59Z</time>
      </trkpt>
      <trkpt lat="45.43063" lon="5.70332">
        <ele>691</ele>
        <time>2015-06-21T10:16:03Z</time>
      </trkpt>
      <trkpt lat="45.43055" lon="5.70324">
        <ele>691</ele>
        <time>2015-06-21T10:16:07Z</time>
      </trkpt>
      <trkpt lat="45.43049" lon="5.70315">
        <ele>691</ele>
        <time>2015-06-21T10:16:11Z</time>
      </trkpt>
      <trkpt lat="45.43042" lon="5.70303">
        <ele>692</ele>
        <time>2015-06-21T10:16:16Z</time>
      </trkpt>
      <trkpt lat="45.43035" lon="5.70293">
        <ele>692</ele>
        <time>2015-06-21T10:16:20Z</time>
      </trkpt>
      <trkpt lat="45.43028" lon="5.7028">
        <ele>693</ele>
        <time>2015-06-21T10:16:25Z</time>
      </trkpt>
      <trkpt lat="45.4302" lon="5.70268">
        <ele>693</ele>
        <time>2015-06-21T10:16:29Z</time>
      </trkpt>
      <trkpt lat="45.43013" lon="5.70259">
        <ele>694</ele>
        <time>2015-06-21T10:16:32Z</time>
      </trkpt>
      <trkpt lat="45.43004" lon="5.70247">
        <ele>696</ele>
        <time>2015-06-21T10:16:36Z</time>
      </trkpt>
      <trkpt lat="45.42997" lon="5.70238">
        <ele>695</ele>
        <time>2015-06-21T10:16:39Z</time>
      </trkpt>
      <trkpt lat="45.4299" lon="5.70229">
        <ele>695</ele>
        <time>2015-06-21T10:16:42Z</time>
      </trkpt>
      <trkpt lat="45.42983" lon="5.70219">
        <ele>696</ele>
        <time>2015-06-21T10:16:45Z</time>
      </trkpt>
      <trkpt lat="45.42976" lon="5.70209">
        <ele>696</ele>
        <time>2015-06-21T10:16:48Z</time>
      </trkpt>
      <trkpt lat="45.4297" lon="5.702">
        <ele>696</ele>
        <time>2015-06-21T10:16:51Z</time>
      </trkpt>
      <trkpt lat="45.42962" lon="5.70189">
        <ele>696</ele>
        <time>2015-06-21T10:16:55Z</time>
      </trkpt>
      <trkpt lat="45.42956" lon="5.70176">
        <ele>697</ele>
        <time>2015-06-21T10:16:59Z</time>
      </trkpt>
      <trkpt lat="45.42952" lon="5.70162">
        <ele>702</ele>
        <time>2015-06-21T10:17:03Z</time>
      </trkpt>
      <trkpt lat="45.42947" lon="5.7015">
        <ele>703</ele>
        <time>2015-06-21T10:17:07Z</time>
      </trkpt>
      <trkpt lat="45.42941" lon="5.70141">
        <ele>703</ele>
        <time>2015-06-21T10:17:12Z</time>
      </trkpt>
      <trkpt lat="45.42932" lon="5.70132">
        <ele>703</ele>
        <time>2015-06-21T10:17:19Z</time>
      </trkpt>
      <trkpt lat="45.42924" lon="5.70139">
        <ele>703</ele>
        <time>2015-06-21T10:17:35Z</time>
      </trkpt>
      <trkpt lat="45.42915" lon="5.70138">
        <ele>700</ele>
        <time>2015-06-21T10:19:43Z</time>
      </trkpt>
      <trkpt lat="45.42923" lon="5.7013">
        <ele>703</ele>
        <time>2015-06-21T10:25:23Z</time>
      </trkpt>
      <trkpt lat="45.42932" lon="5.70131">
        <ele>704</ele>
        <time>2015-06-21T10:25:42Z</time>
      </trkpt>
      <trkpt lat="45.42941" lon="5.70141">
        <ele>703</ele>
        <time>2015-06-21T10:25:48Z</time>
      </trkpt>
      <trkpt lat="45.42949" lon="5.70146">
        <ele>703</ele>
        <time>2015-06-21T10:25:52Z</time>
      </trkpt>
      <trkpt lat="45.42959" lon="5.70147">
        <ele>703</ele>
        <time>2015-06-21T10:25:59Z</time>
      </trkpt>
      <trkpt lat="45.42968" lon="5.70144">
        <ele>704</ele>
        <time>2015-06-21T10:26:09Z</time>
      </trkpt>
      <trkpt lat="45.42977" lon="5.70141">
        <ele>704</ele>
        <time>2015-06-21T10:26:17Z</time>
      </trkpt>
      <trkpt lat="45.42987" lon="5.70136">
        <ele>704</ele>
        <time>2015-06-21T10:26:25Z</time>
      </trkpt>
      <trkpt lat="45.42996" lon="5.70132">
        <ele>705</ele>
        <time>2015-06-21T10:26:32Z</time>
      </trkpt>
      <trkpt lat="45.43006" lon="5.7013">
        <ele>708</ele>
        <time>2015-06-21T10:26:39Z</time>
      </trkpt>
      <trkpt lat="45.43016" lon="5.7013">
        <ele>709</ele>
        <time>2015-06-21T10:26:48Z</time>
      </trkpt>
      <trkpt lat="45.43025" lon="5.70131">
        <ele>709</ele>
        <time>2015-06-21T10:26:56Z</time>
      </trkpt>
      <trkpt lat="45.43036" lon="5.7013">
        <ele>709</ele>
        <time>2015-06-21T10:27:03Z</time>
      </trkpt>
      <trkpt lat="45.43046" lon="5.70129">
        <ele>710</ele>
        <time>2015-06-21T10:27:08Z</time>
      </trkpt>
      <trkpt lat="45.43055" lon="5.70129">
        <ele>710</ele>
        <time>2015-06-21T10:27:13Z</time>
      </trkpt>
      <trkpt lat="45.43066" lon="5.70127">
        <ele>711</ele>
        <time>2015-06-21T10:27:18Z</time>
      </trkpt>
      <trkpt lat="45.43076" lon="5.70121">
        <ele>711</ele>
        <time>2015-06-21T10:27:23Z</time>
      </trkpt>
      <trkpt lat="45.43084" lon="5.70115">
        <ele>715</ele>
        <time>2015-06-21T10:27:28Z</time>
      </trkpt>
      <trkpt lat="45.43092" lon="5.70109">
        <ele>715</ele>
        <time>2015-06-21T10:27:33Z</time>
      </trkpt>
      <trkpt lat="45.43102" lon="5.70102">
        <ele>716</ele>
        <time>2015-06-21T10:27:39Z</time>
      </trkpt>
      <trkpt lat="45.43111" lon="5.70098">
        <ele>716</ele>
        <time>2015-06-21T10:27:43Z</time>
      </trkpt>
      <trkpt lat="45.4312" lon="5.70096">
        <ele>715</ele>
        <time>2015-06-21T10:27:49Z</time>
      </trkpt>
      <trkpt lat="45.43129" lon="5.70095">
        <ele>716</ele>
        <time>2015-06-21T10:27:54Z</time>
      </trkpt>
      <trkpt lat="45.43139" lon="5.70095">
        <ele>716</ele>
        <time>2015-06-21T10:27:58Z</time>
      </trkpt>
      <trkpt lat="45.43148" lon="5.70095">
        <ele>717</ele>
        <time>2015-06-21T10:28:02Z</time>
      </trkpt>
      <trkpt lat="45.43158" lon="5.70094">
        <ele>717</ele>
        <time>2015-06-21T10:28:06Z</time>
      </trkpt>
      <trkpt lat="45.43168" lon="5.70096">
        <ele>718</ele>
        <time>2015-06-21T10:28:10Z</time>
      </trkpt>
      <trkpt lat="45.43179" lon="5.70098">
        <ele>718</ele>
        <time>2015-06-21T10:28:14Z</time>
      </trkpt>
      <trkpt lat="45.43188" lon="5.70102">
        <ele>717</ele>
        <time>2015-06-21T10:28:18Z</time>
      </trkpt>
      <trkpt lat="45.43198" lon="5.70106">
        <ele>717</ele>
        <time>2015-06-21T10:28:22Z</time>
      </trkpt>
      <trkpt lat="45.43207" lon="5.70107">
        <ele>717</ele>
        <time>2015-06-21T10:28:26Z</time>
      </trkpt>
      <trkpt lat="45.43218" lon="5.70108">
        <ele>717</ele>
        <time>2015-06-21T10:28:32Z</time>
      </trkpt>
      <trkpt lat="45.43227" lon="5.70109">
        <ele>717</ele>
        <time>2015-06-21T10:28:38Z</time>
      </trkpt>
      <trkpt lat="45.43236" lon="5.70107">
        <ele>718</ele>
        <time>2015-06-21T10:28:43Z</time>
      </trkpt>
      <trkpt lat="45.43246" lon="5.70102">
        <ele>718</ele>
        <time>2015-06-21T10:28:48Z</time>
      </trkpt>
      <trkpt lat="45.43253" lon="5.70094">
        <ele>720</ele>
        <time>2015-06-21T10:28:53Z</time>
      </trkpt>
      <trkpt lat="45.4326" lon="5.70085">
        <ele>720</ele>
        <time>2015-06-21T10:28:58Z</time>
      </trkpt>
      <trkpt lat="45.43266" lon="5.70074">
        <ele>724</ele>
        <time>2015-06-21T10:29:04Z</time>
      </trkpt>
      <trkpt lat="45.4327" lon="5.7006">
        <ele>725</ele>
        <time>2015-06-21T10:29:10Z</time>
      </trkpt>
      <trkpt lat="45.43271" lon="5.70047">
        <ele>726</ele>
        <time>2015-06-21T10:29:16Z</time>
      </trkpt>
      <trkpt lat="45.4327" lon="5.70032">
        <ele>727</ele>
        <time>2015-06-21T10:29:23Z</time>
      </trkpt>
      <trkpt lat="45.43269" lon="5.70019">
        <ele>728</ele>
        <time>2015-06-21T10:29:29Z</time>
      </trkpt>
      <trkpt lat="45.43264" lon="5.70008">
        <ele>729</ele>
        <time>2015-06-21T10:29:39Z</time>
      </trkpt>
      <trkpt lat="45.43255" lon="5.70003">
        <ele>729</ele>
        <time>2015-06-21T10:29:48Z</time>
      </trkpt>
      <trkpt lat="45.43246" lon="5.70004">
        <ele>729</ele>
        <time>2015-06-21T10:29:56Z</time>
      </trkpt>
      <trkpt lat="45.43238" lon="5.7001">
        <ele>728</ele>
        <time>2015-06-21T10:30:03Z</time>
      </trkpt>
      <trkpt lat="45.43229" lon="5.70003">
        <ele>728</ele>
        <time>2015-06-21T10:30:09Z</time>
      </trkpt>
      <trkpt lat="45.43218" lon="5.7">
        <ele>727</ele>
        <time>2015-06-21T10:30:14Z</time>
      </trkpt>
      <trkpt lat="45.43209" lon="5.70002">
        <ele>727</ele>
        <time>2015-06-21T10:30:17Z</time>
      </trkpt>
      <trkpt lat="45.432" lon="5.69998">
        <ele>733</ele>
        <time>2015-06-21T10:30:21Z</time>
      </trkpt>
      <trkpt lat="45.43192" lon="5.69989">
        <ele>733</ele>
        <time>2015-06-21T10:30:27Z</time>
      </trkpt>
      <trkpt lat="45.43186" lon="5.69979">
        <ele>734</ele>
        <time>2015-06-21T10:30:34Z</time>
      </trkpt>
      <trkpt lat="45.43177" lon="5.69972">
        <ele>734</ele>
        <time>2015-06-21T10:30:41Z</time>
      </trkpt>
      <trkpt lat="45.43174" lon="5.6996">
        <ele>735</ele>
        <time>2015-06-21T10:30:47Z</time>
      </trkpt>
      <trkpt lat="45.43172" lon="5.69946">
        <ele>736</ele>
        <time>2015-06-21T10:30:55Z</time>
      </trkpt>
      <trkpt lat="45.43174" lon="5.69934">
        <ele>737</ele>
        <time>2015-06-21T10:31:02Z</time>
      </trkpt>
      <trkpt lat="45.43176" lon="5.69921">
        <ele>738</ele>
        <time>2015-06-21T10:31:08Z</time>
      </trkpt>
      <trkpt lat="45.43176" lon="5.69907">
        <ele>742</ele>
        <time>2015-06-21T10:31:16Z</time>
      </trkpt>
      <trkpt lat="45.43172" lon="5.69895">
        <ele>743</ele>
        <time>2015-06-21T10:31:24Z</time>
      </trkpt>
      <trkpt lat="45.43165" lon="5.69886">
        <ele>743</ele>
        <time>2015-06-21T10:31:31Z</time>
      </trkpt>
      <trkpt lat="45.43157" lon="5.69879">
        <ele>744</ele>
        <time>2015-06-21T10:31:38Z</time>
      </trkpt>
      <trkpt lat="45.43149" lon="5.69872">
        <ele>745</ele>
        <time>2015-06-21T10:31:44Z</time>
      </trkpt>
      <trkpt lat="45.4314" lon="5.69865">
        <ele>745</ele>
        <time>2015-06-21T10:31:50Z</time>
      </trkpt>
      <trkpt lat="45.4313" lon="5.69862">
        <ele>745</ele>
        <time>2015-06-21T10:31:56Z</time>
      </trkpt>
      <trkpt lat="45.43121" lon="5.6986">
        <ele>745</ele>
        <time>2015-06-21T10:32:01Z</time>
      </trkpt>
      <trkpt lat="45.43111" lon="5.69856">
        <ele>746</ele>
        <time>2015-06-21T10:32:07Z</time>
      </trkpt>
      <trkpt lat="45.43101" lon="5.69856">
        <ele>746</ele>
        <time>2015-06-21T10:32:15Z</time>
      </trkpt>
      <trkpt lat="45.43093" lon="5.69849">
        <ele>747</ele>
        <time>2015-06-21T10:32:23Z</time>
      </trkpt>
      <trkpt lat="45.43084" lon="5.69844">
        <ele>748</ele>
        <time>2015-06-21T10:32:30Z</time>
      </trkpt>
      <trkpt lat="45.43076" lon="5.69835">
        <ele>748</ele>
        <time>2015-06-21T10:32:37Z</time>
      </trkpt>
      <trkpt lat="45.43069" lon="5.69827">
        <ele>750</ele>
        <time>2015-06-21T10:32:43Z</time>
      </trkpt>
      <trkpt lat="45.43064" lon="5.69814">
        <ele>751</ele>
        <time>2015-06-21T10:32:49Z</time>
      </trkpt>
      <trkpt lat="45.43058" lon="5.69803">
        <ele>751</ele>
        <time>2015-06-21T10:32:55Z</time>
      </trkpt>
      <trkpt lat="45.43052" lon="5.69793">
        <ele>751</ele>
        <time>2015-06-21T10:33:01Z</time>
      </trkpt>
      <trkpt lat="45.43045" lon="5.69783">
        <ele>751</ele>
        <time>2015-06-21T10:33:08Z</time>
      </trkpt>
      <trkpt lat="45.43038" lon="5.69772">
        <ele>752</ele>
        <time>2015-06-21T10:33:15Z</time>
      </trkpt>
      <trkpt lat="45.43033" lon="5.69761">
        <ele>752</ele>
        <time>2015-06-21T10:33:21Z</time>
      </trkpt>
      <trkpt lat="45.4303" lon="5.69748">
        <ele>757</ele>
        <time>2015-06-21T10:33:28Z</time>
      </trkpt>
      <trkpt lat="45.43028" lon="5.69735">
        <ele>757</ele>
        <time>2015-06-21T10:33:35Z</time>
      </trkpt>
      <trkpt lat="45.43026" lon="5.69722">
        <ele>758</ele>
        <time>2015-06-21T10:33:41Z</time>
      </trkpt>
      <trkpt lat="45.43025" lon="5.69707">
        <ele>758</ele>
        <time>2015-06-21T10:33:47Z</time>
      </trkpt>
      <trkpt lat="45.43024" lon="5.69694">
        <ele>759</ele>
        <time>2015-06-21T10:33:54Z</time>
      </trkpt>
      <trkpt lat="45.43025" lon="5.6968">
        <ele>760</ele>
        <time>2015-06-21T10:34:01Z</time>
      </trkpt>
      <trkpt lat="45.43024" lon="5.69667">
        <ele>760</ele>
        <time>2015-06-21T10:34:08Z</time>
      </trkpt>
      <trkpt lat="45.43022" lon="5.69653">
        <ele>764</ele>
        <time>2015-06-21T10:34:16Z</time>
      </trkpt>
      <trkpt lat="45.4302" lon="5.69641">
        <ele>765</ele>
        <time>2015-06-21T10:34:23Z</time>
      </trkpt>
      <trkpt lat="45.4302" lon="5.69627">
        <ele>766</ele>
        <time>2015-06-21T10:34:31Z</time>
      </trkpt>
      <trkpt lat="45.43021" lon="5.69614">
        <ele>766</ele>
        <time>2015-06-21T10:34:39Z</time>
      </trkpt>
      <trkpt lat="45.43023" lon="5.696">
        <ele>767</ele>
        <time>2015-06-21T10:34:48Z</time>
      </trkpt>
      <trkpt lat="45.43026" lon="5.69587">
        <ele>767</ele>
        <time>2015-06-21T10:34:56Z</time>
      </trkpt>
      <trkpt lat="45.4303" lon="5.69574">
        <ele>772</ele>
        <time>2015-06-21T10:35:04Z</time>
      </trkpt>
      <trkpt lat="45.43035" lon="5.69563">
        <ele>773</ele>
        <time>2015-06-21T10:35:10Z</time>
      </trkpt>
      <trkpt lat="45.43039" lon="5.69551">
        <ele>773</ele>
        <time>2015-06-21T10:35:19Z</time>
      </trkpt>
      <trkpt lat="45.43043" lon="5.69539">
        <ele>774</ele>
        <time>2015-06-21T10:35:32Z</time>
      </trkpt>
      <trkpt lat="45.43048" lon="5.69528">
        <ele>775</ele>
        <time>2015-06-21T10:37:28Z</time>
      </trkpt>
      <trkpt lat="45.43058" lon="5.69532">
        <ele>775</ele>
        <time>2015-06-21T10:37:38Z</time>
      </trkpt>
      <trkpt lat="45.43064" lon="5.69543">
        <ele>775</ele>
        <time>2015-06-21T10:37:47Z</time>
      </trkpt>
      <trkpt lat="45.43065" lon="5.69558">
        <ele>774</ele>
        <time>2015-06-21T10:37:53Z</time>
      </trkpt>
      <trkpt lat="45.43069" lon="5.69571">
        <ele>773</ele>
        <time>2015-06-21T10:37:56Z</time>
      </trkpt>
      <trkpt lat="45.43076" lon="5.69585">
        <ele>771</ele>
        <time>2015-06-21T10:37:59Z</time>
      </trkpt>
      <trkpt lat="45.43083" lon="5.69599">
        <ele>770</ele>
        <time>2015-06-21T10:38:02Z</time>
      </trkpt>
      <trkpt lat="45.4309" lon="5.69608">
        <ele>772</ele>
        <time>2015-06-21T10:38:04Z</time>
      </trkpt>
      <trkpt lat="45.43098" lon="5.69621">
        <ele>771</ele>
        <time>2015-06-21T10:38:06Z</time>
      </trkpt>
      <trkpt lat="45.43107" lon="5.69633">
        <ele>771</ele>
        <time>2015-06-21T10:38:08Z</time>
      </trkpt>
      <trkpt lat="45.43116" lon="5.69644">
        <ele>770</ele>
        <time>2015-06-21T10:38:10Z</time>
      </trkpt>
      <trkpt lat="45.43126" lon="5.69653">
        <ele>770</ele>
        <time>2015-06-21T10:38:12Z</time>
      </trkpt>
      <trkpt lat="45.43136" lon="5.69659">
        <ele>770</ele>
        <time>2015-06-21T10:38:14Z</time>
      </trkpt>
      <trkpt lat="45.43145" lon="5.69665">
        <ele>771</ele>
        <time>2015-06-21T10:38:16Z</time>
      </trkpt>
      <trkpt lat="45.43156" lon="5.69672">
        <ele>767</ele>
        <time>2015-06-21T10:38:19Z</time>
      </trkpt>
      <trkpt lat="45.43164" lon="5.69676">
        <ele>767</ele>
        <time>2015-06-21T10:38:22Z</time>
      </trkpt>
      <trkpt lat="45.43174" lon="5.6968">
        <ele>767</ele>
        <time>2015-06-21T10:38:26Z</time>
      </trkpt>
      <trkpt lat="45.43182" lon="5.69685">
        <ele>766</ele>
        <time>2015-06-21T10:38:29Z</time>
      </trkpt>
      <trkpt lat="45.43191" lon="5.6969">
        <ele>766</ele>
        <time>2015-06-21T10:38:33Z</time>
      </trkpt>
      <trkpt lat="45.43201" lon="5.69698">
        <ele>765</ele>
        <time>2015-06-21T10:38:37Z</time>
      </trkpt>
      <trkpt lat="45.43207" lon="5.6971">
        <ele>764</ele>
        <time>2015-06-21T10:38:40Z</time>
      </trkpt>
      <trkpt lat="45.43211" lon="5.69723">
        <ele>764</ele>
        <time>2015-06-21T10:38:42Z</time>
      </trkpt>
      <trkpt lat="45.43217" lon="5.69734">
        <ele>763</ele>
        <time>2015-06-21T10:38:44Z</time>
      </trkpt>
      <trkpt lat="45.43225" lon="5.69748">
        <ele>763</ele>
        <time>2015-06-21T10:38:47Z</time>
      </trkpt>
      <trkpt lat="45.43227" lon="5.69761">
        <ele>757</ele>
        <time>2015-06-21T10:38:49Z</time>
      </trkpt>
      <trkpt lat="45.43233" lon="5.69778">
        <ele>756</ele>
        <time>2015-06-21T10:38:52Z</time>
      </trkpt>
      <trkpt lat="45.43242" lon="5.69791">
        <ele>755</ele>
        <time>2015-06-21T10:38:55Z</time>
      </trkpt>
      <trkpt lat="45.43249" lon="5.698">
        <ele>755</ele>
        <time>2015-06-21T10:38:57Z</time>
      </trkpt>
      <trkpt lat="45.43255" lon="5.69817">
        <ele>755</ele>
        <time>2015-06-21T10:39:00Z</time>
      </trkpt>
      <trkpt lat="45.4326" lon="5.6983">
        <ele>754</ele>
        <time>2015-06-21T10:39:02Z</time>
      </trkpt>
      <trkpt lat="45.43265" lon="5.69843">
        <ele>751</ele>
        <time>2015-06-21T10:39:04Z</time>
      </trkpt>
      <trkpt lat="45.43272" lon="5.69856">
        <ele>750</ele>
        <time>2015-06-21T10:39:06Z</time>
      </trkpt>
      <trkpt lat="45.4328" lon="5.69871">
        <ele>749</ele>
        <time>2015-06-21T10:39:08Z</time>
      </trkpt>
      <trkpt lat="45.43287" lon="5.69884">
        <ele>748</ele>
        <time>2015-06-21T10:39:10Z</time>
      </trkpt>
      <trkpt lat="45.43295" lon="5.69894">
        <ele>748</ele>
        <time>2015-06-21T10:39:12Z</time>
      </trkpt>
      <trkpt lat="45.43303" lon="5.69902">
        <ele>748</ele>
        <time>2015-06-21T10:39:14Z</time>
      </trkpt>
      <trkpt lat="45.43311" lon="5.69909">
        <ele>748</ele>
        <time>2015-06-21T10:39:16Z</time>
      </trkpt>
      <trkpt lat="45.43322" lon="5.69915">
        <ele>748</ele>
        <time>2015-06-21T10:39:19Z</time>
      </trkpt>
      <trkpt lat="45.43333" lon="5.69918">
        <ele>747</ele>
        <time>2015-06-21T10:39:22Z</time>
      </trkpt>
      <trkpt lat="45.43342" lon="5.69922">
        <ele>747</ele>
        <time>2015-06-21T10:39:25Z</time>
      </trkpt>
      <trkpt lat="45.43352" lon="5.69926">
        <ele>747</ele>
        <time>2015-06-21T10:39:28Z</time>
      </trkpt>
      <trkpt lat="45.43362" lon="5.69929">
        <ele>747</ele>
        <time>2015-06-21T10:39:32Z</time>
      </trkpt>
      <trkpt lat="45.43371" lon="5.69933">
        <ele>747</ele>
        <time>2015-06-21T10:39:36Z</time>
      </trkpt>
      <trkpt lat="45.4338" lon="5.69937">
        <ele>747</ele>
        <time>2015-06-21T10:39:40Z</time>
      </trkpt>
      <trkpt lat="45.4339" lon="5.6994">
        <ele>748</ele>
        <time>2015-06-21T10:39:45Z</time>
      </trkpt>
      <trkpt lat="45.43401" lon="5.69942">
        <ele>749</ele>
        <time>2015-06-21T10:39:49Z</time>
      </trkpt>
      <trkpt lat="45.43412" lon="5.69944">
        <ele>749</ele>
        <time>2015-06-21T10:39:52Z</time>
      </trkpt>
      <trkpt lat="45.43421" lon="5.69943">
        <ele>753</ele>
        <time>2015-06-21T10:39:54Z</time>
      </trkpt>
      <trkpt lat="45.43431" lon="5.69945">
        <ele>753</ele>
        <time>2015-06-21T10:39:57Z</time>
      </trkpt>
      <trkpt lat="45.43442" lon="5.69948">
        <ele>753</ele>
        <time>2015-06-21T10:40:00Z</time>
      </trkpt>
      <trkpt lat="45.43453" lon="5.6995">
        <ele>753</ele>
        <time>2015-06-21T10:40:03Z</time>
      </trkpt>
      <trkpt lat="45.43464" lon="5.69953">
        <ele>753</ele>
        <time>2015-06-21T10:40:06Z</time>
      </trkpt>
      <trkpt lat="45.43473" lon="5.69955">
        <ele>753</ele>
        <time>2015-06-21T10:40:10Z</time>
      </trkpt>
      <trkpt lat="45.43483" lon="5.69952">
        <ele>754</ele>
        <time>2015-06-21T10:40:16Z</time>
      </trkpt>
      <trkpt lat="45.43493" lon="5.69953">
        <ele>754</ele>
        <time>2015-06-21T10:40:23Z</time>
      </trkpt>
      <trkpt lat="45.43501" lon="5.69947">
        <ele>758</ele>
        <time>2015-06-21T10:40:33Z</time>
      </trkpt>
      <trkpt lat="45.43506" lon="5.69936">
        <ele>759</ele>
        <time>2015-06-21T10:40:44Z</time>
      </trkpt>
      <trkpt lat="45.43509" lon="5.69923">
        <ele>761</ele>
        <time>2015-06-21T10:40:56Z</time>
      </trkpt>
      <trkpt lat="45.43506" lon="5.6991">
        <ele>766</ele>
        <time>2015-06-21T10:41:06Z</time>
      </trkpt>
      <trkpt lat="45.43502" lon="5.69898">
        <ele>767</ele>
        <time>2015-06-21T10:41:15Z</time>
      </trkpt>
      <trkpt lat="45.43493" lon="5.69892">
        <ele>766</ele>
        <time>2015-06-21T10:41:23Z</time>
      </trkpt>
      <trkpt lat="45.43484" lon="5.69887">
        <ele>766</ele>
        <time>2015-06-21T10:41:31Z</time>
      </trkpt>
      <trkpt lat="45.43477" lon="5.69877">
        <ele>767</ele>
        <time>2015-06-21T10:41:39Z</time>
      </trkpt>
      <trkpt lat="45.43471" lon="5.69866">
        <ele>767</ele>
        <time>2015-06-21T10:41:46Z</time>
      </trkpt>
      <trkpt lat="45.43463" lon="5.69858">
        <ele>767</ele>
        <time>2015-06-21T10:41:53Z</time>
      </trkpt>
      <trkpt lat="45.43456" lon="5.69848">
        <ele>768</ele>
        <time>2015-06-21T10:42:00Z</time>
      </trkpt>
      <trkpt lat="45.43449" lon="5.6984">
        <ele>768</ele>
        <time>2015-06-21T10:42:06Z</time>
      </trkpt>
      <trkpt lat="45.43443" lon="5.69829">
        <ele>773</ele>
        <time>2015-06-21T10:42:12Z</time>
      </trkpt>
      <trkpt lat="45.43437" lon="5.69819">
        <ele>773</ele>
        <time>2015-06-21T10:42:18Z</time>
      </trkpt>
      <trkpt lat="45.43432" lon="5.69807">
        <ele>774</ele>
        <time>2015-06-21T10:42:23Z</time>
      </trkpt>
      <trkpt lat="45.43428" lon="5.69796">
        <ele>774</ele>
        <time>2015-06-21T10:42:28Z</time>
      </trkpt>
      <trkpt lat="45.43423" lon="5.69783">
        <ele>775</ele>
        <time>2015-06-21T10:42:34Z</time>
      </trkpt>
      <trkpt lat="45.43422" lon="5.69769">
        <ele>776</ele>
        <time>2015-06-21T10:42:42Z</time>
      </trkpt>
      <trkpt lat="45.4342" lon="5.69755">
        <ele>776</ele>
        <time>2015-06-21T10:42:50Z</time>
      </trkpt>
      <trkpt lat="45.43418" lon="5.69741">
        <ele>778</ele>
        <time>2015-06-21T10:42:58Z</time>
      </trkpt>
      <trkpt lat="45.43417" lon="5.69728">
        <ele>781</ele>
        <time>2015-06-21T10:43:06Z</time>
      </trkpt>
      <trkpt lat="45.43416" lon="5.69714">
        <ele>776</ele>
        <time>2015-06-21T10:43:14Z</time>
      </trkpt>
      <trkpt lat="45.43413" lon="5.69701">
        <ele>777</ele>
        <time>2015-06-21T10:43:23Z</time>
      </trkpt>
      <trkpt lat="45.43404" lon="5.69696">
        <ele>777</ele>
        <time>2015-06-21T10:43:32Z</time>
      </trkpt>
      <trkpt lat="45.43397" lon="5.69688">
        <ele>777</ele>
        <time>2015-06-21T10:43:40Z</time>
      </trkpt>
      <trkpt lat="45.43388" lon="5.69683">
        <ele>777</ele>
        <time>2015-06-21T10:43:54Z</time>
      </trkpt>
      <trkpt lat="45.43378" lon="5.69678">
        <ele>776</ele>
        <time>2015-06-21T10:44:01Z</time>
      </trkpt>
      <trkpt lat="45.43369" lon="5.69675">
        <ele>776</ele>
        <time>2015-06-21T10:44:09Z</time>
      </trkpt>
      <trkpt lat="45.4336" lon="5.69671">
        <ele>775</ele>
        <time>2015-06-21T10:44:16Z</time>
      </trkpt>
      <trkpt lat="45.43351" lon="5.69666">
        <ele>779</ele>
        <time>2015-06-21T10:44:21Z</time>
      </trkpt>
      <trkpt lat="45.4335" lon="5.69652">
        <ele>779</ele>
        <time>2015-06-21T10:44:31Z</time>
      </trkpt>
      <trkpt lat="45.43347" lon="5.69638">
        <ele>781</ele>
        <time>2015-06-21T10:44:38Z</time>
      </trkpt>
      <trkpt lat="45.43343" lon="5.69625">
        <ele>782</ele>
        <time>2015-06-21T10:44:44Z</time>
      </trkpt>
      <trkpt lat="45.43341" lon="5.69612">
        <ele>783</ele>
        <time>2015-06-21T10:44:51Z</time>
      </trkpt>
      <trkpt lat="45.43338" lon="5.69599">
        <ele>783</ele>
        <time>2015-06-21T10:44:57Z</time>
      </trkpt>
      <trkpt lat="45.43337" lon="5.69586">
        <ele>784</ele>
        <time>2015-06-21T10:45:03Z</time>
      </trkpt>
      <trkpt lat="45.43332" lon="5.69573">
        <ele>786</ele>
        <time>2015-06-21T10:45:11Z</time>
      </trkpt>
      <trkpt lat="45.43328" lon="5.69562">
        <ele>787</ele>
        <time>2015-06-21T10:45:22Z</time>
      </trkpt>
      <trkpt lat="45.43324" lon="5.6955">
        <ele>789</ele>
        <time>2015-06-21T10:45:32Z</time>
      </trkpt>
      <trkpt lat="45.4332" lon="5.69537">
        <ele>790</ele>
        <time>2015-06-21T10:45:43Z</time>
      </trkpt>
      <trkpt lat="45.43318" lon="5.69524">
        <ele>791</ele>
        <time>2015-06-21T10:45:54Z</time>
      </trkpt>
      <trkpt lat="45.43314" lon="5.69512">
        <ele>792</ele>
        <time>2015-06-21T10:46:04Z</time>
      </trkpt>
      <trkpt lat="45.4331" lon="5.695">
        <ele>792</ele>
        <time>2015-06-21T10:46:15Z</time>
      </trkpt>
      <trkpt lat="45.43309" lon="5.69487">
        <ele>798</ele>
        <time>2015-06-21T10:46:27Z</time>
      </trkpt>
      <trkpt lat="45.43312" lon="5.69475">
        <ele>799</ele>
        <time>2015-06-21T10:46:40Z</time>
      </trkpt>
      <trkpt lat="45.43317" lon="5.69464">
        <ele>800</ele>
        <time>2015-06-21T10:46:57Z</time>
      </trkpt>
      <trkpt lat="45.43325" lon="5.69455">
        <ele>801</ele>
        <time>2015-06-21T10:47:09Z</time>
      </trkpt>
      <trkpt lat="45.43332" lon="5.69445">
        <ele>802</ele>
        <time>2015-06-21T10:47:25Z</time>
      </trkpt>
      <trkpt lat="45.43341" lon="5.69439">
        <ele>804</ele>
        <time>2015-06-21T10:47:33Z</time>
      </trkpt>
      <trkpt lat="45.43346" lon="5.69428">
        <ele>804</ele>
        <time>2015-06-21T10:47:40Z</time>
      </trkpt>
      <trkpt lat="45.4335" lon="5.69417">
        <ele>805</ele>
        <time>2015-06-21T10:47:46Z</time>
      </trkpt>
      <trkpt lat="45.43355" lon="5.69404">
        <ele>807</ele>
        <time>2015-06-21T10:47:52Z</time>
      </trkpt>
      <trkpt lat="45.43356" lon="5.6939">
        <ele>808</ele>
        <time>2015-06-21T10:47:58Z</time>
      </trkpt>
      <trkpt lat="45.43347" lon="5.69388">
        <ele>808</ele>
        <time>2015-06-21T10:48:11Z</time>
      </trkpt>
      <trkpt lat="45.43337" lon="5.6939">
        <ele>807</ele>
        <time>2015-06-21T10:48:21Z</time>
      </trkpt>
      <trkpt lat="45.43328" lon="5.69387">
        <ele>807</ele>
        <time>2015-06-21T10:48:30Z</time>
      </trkpt>
      <trkpt lat="45.43318" lon="5.69382">
        <ele>807</ele>
        <time>2015-06-21T10:48:36Z</time>
      </trkpt>
      <trkpt lat="45.43308" lon="5.69378">
        <ele>807</ele>
        <time>2015-06-21T10:48:41Z</time>
      </trkpt>
      <trkpt lat="45.43299" lon="5.69377">
        <ele>807</ele>
        <time>2015-06-21T10:48:46Z</time>
      </trkpt>
      <trkpt lat="45.43289" lon="5.69375">
        <ele>807</ele>
        <time>2015-06-21T10:48:52Z</time>
      </trkpt>
      <trkpt lat="45.43279" lon="5.69374">
        <ele>807</ele>
        <time>2015-06-21T10:48:56Z</time>
      </trkpt>
      <trkpt lat="45.43269" lon="5.69373">
        <ele>807</ele>
        <time>2015-06-21T10:48:59Z</time>
      </trkpt>
      <trkpt lat="45.43258" lon="5.69371">
        <ele>807</ele>
        <time>2015-06-21T10:49:02Z</time>
      </trkpt>
      <trkpt lat="45.43248" lon="5.69369">
        <ele>806</ele>
        <time>2015-06-21T10:49:06Z</time>
      </trkpt>
      <trkpt lat="45.43237" lon="5.69367">
        <ele>806</ele>
        <time>2015-06-21T10:49:11Z</time>
      </trkpt>
      <trkpt lat="45.43226" lon="5.69363">
        <ele>805</ele>
        <time>2015-06-21T10:49:16Z</time>
      </trkpt>
      <trkpt lat="45.43216" lon="5.69362">
        <ele>805</ele>
        <time>2015-06-21T10:49:20Z</time>
      </trkpt>
      <trkpt lat="45.43207" lon="5.69362">
        <ele>805</ele>
        <time>2015-06-21T10:49:24Z</time>
      </trkpt>
      <trkpt lat="45.43196" lon="5.69364">
        <ele>804</ele>
        <time>2015-06-21T10:49:29Z</time>
      </trkpt>
      <trkpt lat="45.43186" lon="5.69364">
        <ele>804</ele>
        <time>2015-06-21T10:49:33Z</time>
      </trkpt>
      <trkpt lat="45.43177" lon="5.6936">
        <ele>804</ele>
        <time>2015-06-21T10:49:36Z</time>
      </trkpt>
      <trkpt lat="45.43166" lon="5.69357">
        <ele>802</ele>
        <time>2015-06-21T10:49:39Z</time>
      </trkpt>
      <trkpt lat="45.43154" lon="5.69356">
        <ele>802</ele>
        <time>2015-06-21T10:49:42Z</time>
      </trkpt>
      <trkpt lat="45.43144" lon="5.69356">
        <ele>801</ele>
        <time>2015-06-21T10:49:44Z</time>
      </trkpt>
      <trkpt lat="45.43133" lon="5.69358">
        <ele>801</ele>
        <time>2015-06-21T10:49:47Z</time>
      </trkpt>
      <trkpt lat="45.43124" lon="5.69364">
        <ele>800</ele>
        <time>2015-06-21T10:49:52Z</time>
      </trkpt>
      <trkpt lat="45.43123" lon="5.69379">
        <ele>799</ele>
        <time>2015-06-21T10:49:59Z</time>
      </trkpt>
      <trkpt lat="45.43119" lon="5.69395">
        <ele>798</ele>
        <time>2015-06-21T10:50:02Z</time>
      </trkpt>
      <trkpt lat="45.43114" lon="5.69408">
        <ele>797</ele>
        <time>2015-06-21T10:50:08Z</time>
      </trkpt>
      <trkpt lat="45.43108" lon="5.69419">
        <ele>791</ele>
        <time>2015-06-21T10:50:13Z</time>
      </trkpt>
      <trkpt lat="45.43104" lon="5.69431">
        <ele>791</ele>
        <time>2015-06-21T10:50:17Z</time>
      </trkpt>
      <trkpt lat="45.43095" lon="5.69443">
        <ele>790</ele>
        <time>2015-06-21T10:50:21Z</time>
      </trkpt>
      <trkpt lat="45.43086" lon="5.6945">
        <ele>789</ele>
        <time>2015-06-21T10:50:26Z</time>
      </trkpt>
      <trkpt lat="45.43079" lon="5.69459">
        <ele>784</ele>
        <time>2015-06-21T10:50:32Z</time>
      </trkpt>
      <trkpt lat="45.43072" lon="5.69469">
        <ele>783</ele>
        <time>2015-06-21T10:50:36Z</time>
      </trkpt>
      <trkpt lat="45.43065" lon="5.69478">
        <ele>782</ele>
        <time>2015-06-21T10:50:40Z</time>
      </trkpt>
      <trkpt lat="45.43057" lon="5.69488">
        <ele>782</ele>
        <time>2015-06-21T10:50:44Z</time>
      </trkpt>
      <trkpt lat="45.43049" lon="5.69497">
        <ele>781</ele>
        <time>2015-06-21T10:50:50Z</time>
      </trkpt>
      <trkpt lat="45.43043" lon="5.69511">
        <ele>775</ele>
        <time>2015-06-21T10:50:55Z</time>
      </trkpt>
      <trkpt lat="45.43036" lon="5.69524">
        <ele>775</ele>
        <time>2015-06-21T10:50:59Z</time>
      </trkpt>
      <trkpt lat="45.43028" lon="5.69533">
        <ele>774</ele>
        <time>2015-06-21T10:51:03Z</time>
      </trkpt>
      <trkpt lat="45.4302" lon="5.69545">
        <ele>773</ele>
        <time>2015-06-21T10:51:07Z</time>
      </trkpt>
      <trkpt lat="45.4301" lon="5.69553">
        <ele>772</ele>
        <time>2015-06-21T10:51:11Z</time>
      </trkpt>
      <trkpt lat="45.42998" lon="5.69562">
        <ele>768</ele>
        <time>2015-06-21T10:51:15Z</time>
      </trkpt>
      <trkpt lat="45.42987" lon="5.69567">
        <ele>768</ele>
        <time>2015-06-21T10:51:17Z</time>
      </trkpt>
      <trkpt lat="45.42977" lon="5.69573">
        <ele>768</ele>
        <time>2015-06-21T10:51:19Z</time>
      </trkpt>
      <trkpt lat="45.42965" lon="5.69582">
        <ele>767</ele>
        <time>2015-06-21T10:51:22Z</time>
      </trkpt>
      <trkpt lat="45.42956" lon="5.69593">
        <ele>762</ele>
        <time>2015-06-21T10:51:26Z</time>
      </trkpt>
      <trkpt lat="45.42948" lon="5.69603">
        <ele>762</ele>
        <time>2015-06-21T10:51:30Z</time>
      </trkpt>
      <trkpt lat="45.42939" lon="5.69612">
        <ele>761</ele>
        <time>2015-06-21T10:51:34Z</time>
      </trkpt>
      <trkpt lat="45.42929" lon="5.69621">
        <ele>761</ele>
        <time>2015-06-21T10:51:37Z</time>
      </trkpt>
      <trkpt lat="45.42919" lon="5.6963">
        <ele>760</ele>
        <time>2015-06-21T10:51:40Z</time>
      </trkpt>
      <trkpt lat="45.4291" lon="5.69638">
        <ele>756</ele>
        <time>2015-06-21T10:51:43Z</time>
      </trkpt>
      <trkpt lat="45.42902" lon="5.69644">
        <ele>755</ele>
        <time>2015-06-21T10:51:45Z</time>
      </trkpt>
      <trkpt lat="45.42894" lon="5.69656">
        <ele>755</ele>
        <time>2015-06-21T10:51:48Z</time>
      </trkpt>
      <trkpt lat="45.42887" lon="5.69669">
        <ele>750</ele>
        <time>2015-06-21T10:51:51Z</time>
      </trkpt>
      <trkpt lat="45.42881" lon="5.6968">
        <ele>749</ele>
        <time>2015-06-21T10:51:53Z</time>
      </trkpt>
      <trkpt lat="45.42876" lon="5.69694">
        <ele>748</ele>
        <time>2015-06-21T10:51:56Z</time>
      </trkpt>
      <trkpt lat="45.42871" lon="5.69708">
        <ele>748</ele>
        <time>2015-06-21T10:51:59Z</time>
      </trkpt>
      <trkpt lat="45.42865" lon="5.69717">
        <ele>747</ele>
        <time>2015-06-21T10:52:04Z</time>
      </trkpt>
      <trkpt lat="45.42858" lon="5.69724">
        <ele>746</ele>
        <time>2015-06-21T10:52:14Z</time>
      </trkpt>
      <trkpt lat="45.42849" lon="5.69724">
        <ele>746</ele>
        <time>2015-06-21T10:52:22Z</time>
      </trkpt>
      <trkpt lat="45.4284" lon="5.69719">
        <ele>746</ele>
        <time>2015-06-21T10:52:31Z</time>
      </trkpt>
      <trkpt lat="45.42831" lon="5.69723">
        <ele>741</ele>
        <time>2015-06-21T10:52:36Z</time>
      </trkpt>
      <trkpt lat="45.42821" lon="5.6973">
        <ele>741</ele>
        <time>2015-06-21T10:52:42Z</time>
      </trkpt>
      <trkpt lat="45.42811" lon="5.69738">
        <ele>740</ele>
        <time>2015-06-21T10:52:45Z</time>
      </trkpt>
      <trkpt lat="45.42802" lon="5.69746">
        <ele>739</ele>
        <time>2015-06-21T10:52:49Z</time>
      </trkpt>
      <trkpt lat="45.42794" lon="5.69757">
        <ele>734</ele>
        <time>2015-06-21T10:52:55Z</time>
      </trkpt>
      <trkpt lat="45.42788" lon="5.69768">
        <ele>733</ele>
        <time>2015-06-21T10:53:00Z</time>
      </trkpt>
      <trkpt lat="45.42783" lon="5.6978">
        <ele>733</ele>
        <time>2015-06-21T10:53:05Z</time>
      </trkpt>
      <trkpt lat="45.4278" lon="5.69794">
        <ele>732</ele>
        <time>2015-06-21T10:53:09Z</time>
      </trkpt>
      <trkpt lat="45.42776" lon="5.69807">
        <ele>731</ele>
        <time>2015-06-21T10:53:15Z</time>
      </trkpt>
      <trkpt lat="45.42771" lon="5.69821">
        <ele>730</ele>
        <time>2015-06-21T10:53:21Z</time>
      </trkpt>
      <trkpt lat="45.42762" lon="5.69828">
        <ele>728</ele>
        <time>2015-06-21T10:53:26Z</time>
      </trkpt>
      <trkpt lat="45.42751" lon="5.69829">
        <ele>726</ele>
        <time>2015-06-21T10:53:31Z</time>
      </trkpt>
      <trkpt lat="45.42742" lon="5.69831">
        <ele>724</ele>
        <time>2015-06-21T10:53:37Z</time>
      </trkpt>
      <trkpt lat="45.42734" lon="5.69837">
        <ele>721</ele>
        <time>2015-06-21T10:53:44Z</time>
      </trkpt>
      <trkpt lat="45.42725" lon="5.69844">
        <ele>719</ele>
        <time>2015-06-21T10:53:48Z</time>
      </trkpt>
      <trkpt lat="45.42716" lon="5.69846">
        <ele>719</ele>
        <time>2015-06-21T10:53:51Z</time>
      </trkpt>
      <trkpt lat="45.42706" lon="5.6984">
        <ele>718</ele>
        <time>2015-06-21T10:53:54Z</time>
      </trkpt>
      <trkpt lat="45.42697" lon="5.69836">
        <ele>717</ele>
        <time>2015-06-21T10:54:00Z</time>
      </trkpt>
      <trkpt lat="45.42687" lon="5.69835">
        <ele>717</ele>
        <time>2015-06-21T10:54:14Z</time>
      </trkpt>
      <trkpt lat="45.42676" lon="5.69832">
        <ele>718</ele>
        <time>2015-06-21T10:54:17Z</time>
      </trkpt>
      <trkpt lat="45.42665" lon="5.69831">
        <ele>716</ele>
        <time>2015-06-21T10:54:20Z</time>
      </trkpt>
      <trkpt lat="45.42652" lon="5.69825">
        <ele>715</ele>
        <time>2015-06-21T10:54:23Z</time>
      </trkpt>
      <trkpt lat="45.42643" lon="5.6982">
        <ele>714</ele>
        <time>2015-06-21T10:54:26Z</time>
      </trkpt>
      <trkpt lat="45.42633" lon="5.6982">
        <ele>713</ele>
        <time>2015-06-21T10:54:28Z</time>
      </trkpt>
      <trkpt lat="45.42623" lon="5.6982">
        <ele>713</ele>
        <time>2015-06-21T10:54:30Z</time>
      </trkpt>
      <trkpt lat="45.42612" lon="5.69819">
        <ele>712</ele>
        <time>2015-06-21T10:54:32Z</time>
      </trkpt>
      <trkpt lat="45.426" lon="5.69815">
        <ele>711</ele>
        <time>2015-06-21T10:54:34Z</time>
      </trkpt>
      <trkpt lat="45.42586" lon="5.69811">
        <ele>710</ele>
        <time>2015-06-21T10:54:36Z</time>
      </trkpt>
      <trkpt lat="45.42576" lon="5.69807">
        <ele>706</ele>
        <time>2015-06-21T10:54:38Z</time>
      </trkpt>
      <trkpt lat="45.42563" lon="5.69801">
        <ele>706</ele>
        <time>2015-06-21T10:54:41Z</time>
      </trkpt>
      <trkpt lat="45.42555" lon="5.69794">
        <ele>706</ele>
        <time>2015-06-21T10:54:43Z</time>
      </trkpt>
      <trkpt lat="45.42547" lon="5.69787">
        <ele>706</ele>
        <time>2015-06-21T10:54:47Z</time>
      </trkpt>
      <trkpt lat="45.42538" lon="5.6978">
        <ele>705</ele>
        <time>2015-06-21T10:54:53Z</time>
      </trkpt>
      <trkpt lat="45.42532" lon="5.6977">
        <ele>705</ele>
        <time>2015-06-21T10:55:01Z</time>
      </trkpt>
      <trkpt lat="45.42531" lon="5.69757">
        <ele>705</ele>
        <time>2015-06-21T10:55:13Z</time>
      </trkpt>
      <trkpt lat="45.42531" lon="5.69743">
        <ele>709</ele>
        <time>2015-06-21T10:55:25Z</time>
      </trkpt>
      <trkpt lat="45.4253" lon="5.69729">
        <ele>710</ele>
        <time>2015-06-21T10:55:35Z</time>
      </trkpt>
      <trkpt lat="45.42533" lon="5.69715">
        <ele>710</ele>
        <time>2015-06-21T10:55:43Z</time>
      </trkpt>
      <trkpt lat="45.42531" lon="5.69703">
        <ele>711</ele>
        <time>2015-06-21T10:55:50Z</time>
      </trkpt>
      <trkpt lat="45.42529" lon="5.69689">
        <ele>711</ele>
        <time>2015-06-21T10:55:59Z</time>
      </trkpt>
      <trkpt lat="45.42526" lon="5.69676">
        <ele>712</ele>
        <time>2015-06-21T10:56:08Z</time>
      </trkpt>
      <trkpt lat="45.42526" lon="5.69663">
        <ele>717</ele>
        <time>2015-06-21T10:56:18Z</time>
      </trkpt>
      <trkpt lat="45.42531" lon="5.69651">
        <ele>718</ele>
        <time>2015-06-21T10:56:30Z</time>
      </trkpt>
      <trkpt lat="45.42535" lon="5.69638">
        <ele>719</ele>
        <time>2015-06-21T10:56:38Z</time>
      </trkpt>
      <trkpt lat="45.42537" lon="5.69624">
        <ele>719</ele>
        <time>2015-06-21T10:56:47Z</time>
      </trkpt>
      <trkpt lat="45.4254" lon="5.69611">
        <ele>720</ele>
        <time>2015-06-21T10:56:56Z</time>
      </trkpt>
      <trkpt lat="45.42543" lon="5.69598">
        <ele>721</ele>
        <time>2015-06-21T10:57:04Z</time>
      </trkpt>
      <trkpt lat="45.42543" lon="5.69585">
        <ele>721</ele>
        <time>2015-06-21T10:57:14Z</time>
      </trkpt>
      <trkpt lat="45.42546" lon="5.69572">
        <ele>727</ele>
        <time>2015-06-21T10:57:29Z</time>
      </trkpt>
      <trkpt lat="45.42552" lon="5.69563">
        <ele>727</ele>
        <time>2015-06-21T10:57:41Z</time>
      </trkpt>
      <trkpt lat="45.42557" lon="5.69552">
        <ele>728</ele>
        <time>2015-06-21T10:57:58Z</time>
      </trkpt>
      <trkpt lat="45.42566" lon="5.69545">
        <ele>728</ele>
        <time>2015-06-21T10:58:06Z</time>
      </trkpt>
      <trkpt lat="45.42569" lon="5.69533">
        <ele>729</ele>
        <time>2015-06-21T10:58:15Z</time>
      </trkpt>
      <trkpt lat="45.42566" lon="5.69519">
        <ele>730</ele>
        <time>2015-06-21T10:58:23Z</time>
      </trkpt>
      <trkpt lat="45.42561" lon="5.69506">
        <ele>731</ele>
        <time>2015-06-21T10:58:29Z</time>
      </trkpt>
      <trkpt lat="45.42554" lon="5.69497">
        <ele>734</ele>
        <time>2015-06-21T10:58:36Z</time>
      </trkpt>
      <trkpt lat="45.42548" lon="5.69486">
        <ele>734</ele>
        <time>2015-06-21T10:58:42Z</time>
      </trkpt>
      <trkpt lat="45.42546" lon="5.69473">
        <ele>734</ele>
        <time>2015-06-21T10:58:47Z</time>
      </trkpt>
      <trkpt lat="45.42545" lon="5.6946">
        <ele>735</ele>
        <time>2015-06-21T10:58:51Z</time>
      </trkpt>
      <trkpt lat="45.42545" lon="5.69447">
        <ele>735</ele>
        <time>2015-06-21T10:58:56Z</time>
      </trkpt>
      <trkpt lat="45.42543" lon="5.69433">
        <ele>736</ele>
        <time>2015-06-21T10:59:02Z</time>
      </trkpt>
      <trkpt lat="45.42539" lon="5.69421">
        <ele>736</ele>
        <time>2015-06-21T10:59:09Z</time>
      </trkpt>
      <trkpt lat="45.42527" lon="5.69419">
        <ele>735</ele>
        <time>2015-06-21T10:59:15Z</time>
      </trkpt>
      <trkpt lat="45.42517" lon="5.69414">
        <ele>737</ele>
        <time>2015-06-21T10:59:19Z</time>
      </trkpt>
      <trkpt lat="45.4251" lon="5.69407">
        <ele>737</ele>
        <time>2015-06-21T10:59:23Z</time>
      </trkpt>
      <trkpt lat="45.42504" lon="5.69397">
        <ele>737</ele>
        <time>2015-06-21T10:59:28Z</time>
      </trkpt>
      <trkpt lat="45.42498" lon="5.69387">
        <ele>733</ele>
        <time>2015-06-21T10:59:31Z</time>
      </trkpt>
      <trkpt lat="45.42489" lon="5.69379">
        <ele>733</ele>
        <time>2015-06-21T10:59:33Z</time>
      </trkpt>
      <trkpt lat="45.42479" lon="5.69371">
        <ele>733</ele>
        <time>2015-06-21T10:59:36Z</time>
      </trkpt>
      <trkpt lat="45.42473" lon="5.69361">
        <ele>733</ele>
        <time>2015-06-21T10:59:41Z</time>
      </trkpt>
      <trkpt lat="45.42472" lon="5.69347">
        <ele>734</ele>
        <time>2015-06-21T10:59:46Z</time>
      </trkpt>
      <trkpt lat="45.42471" lon="5.69332">
        <ele>736</ele>
        <time>2015-06-21T10:59:55Z</time>
      </trkpt>
      <trkpt lat="45.42469" lon="5.69317">
        <ele>736</ele>
        <time>2015-06-21T11:00:02Z</time>
      </trkpt>
      <trkpt lat="45.42471" lon="5.69304">
        <ele>736</ele>
        <time>2015-06-21T11:00:09Z</time>
      </trkpt>
      <trkpt lat="45.42473" lon="5.6929">
        <ele>737</ele>
        <time>2015-06-21T11:00:16Z</time>
      </trkpt>
      <trkpt lat="45.42478" lon="5.69278">
        <ele>738</ele>
        <time>2015-06-21T11:00:24Z</time>
      </trkpt>
      <trkpt lat="45.42483" lon="5.69266">
        <ele>739</ele>
        <time>2015-06-21T11:00:33Z</time>
      </trkpt>
      <trkpt lat="45.42488" lon="5.69254">
        <ele>740</ele>
        <time>2015-06-21T11:00:43Z</time>
      </trkpt>
      <trkpt lat="45.4249" lon="5.69241">
        <ele>743</ele>
        <time>2015-06-21T11:00:52Z</time>
      </trkpt>
      <trkpt lat="45.42482" lon="5.69232">
        <ele>742</ele>
        <time>2015-06-21T11:01:00Z</time>
      </trkpt>
      <trkpt lat="45.42475" lon="5.69224">
        <ele>742</ele>
        <time>2015-06-21T11:01:06Z</time>
      </trkpt>
      <trkpt lat="45.42467" lon="5.69215">
        <ele>742</ele>
        <time>2015-06-21T11:01:12Z</time>
      </trkpt>
      <trkpt lat="45.4246" lon="5.69204">
        <ele>742</ele>
        <time>2015-06-21T11:01:20Z</time>
      </trkpt>
      <trkpt lat="45.42455" lon="5.69192">
        <ele>742</ele>
        <time>2015-06-21T11:01:25Z</time>
      </trkpt>
      <trkpt lat="45.42449" lon="5.69182">
        <ele>742</ele>
        <time>2015-06-21T11:01:28Z</time>
      </trkpt>
      <trkpt lat="45.42439" lon="5.6917">
        <ele>741</ele>
        <time>2015-06-21T11:01:31Z</time>
      </trkpt>
      <trkpt lat="45.42432" lon="5.69162">
        <ele>742</ele>
        <time>2015-06-21T11:01:33Z</time>
      </trkpt>
      <trkpt lat="45.42423" lon="5.6916">
        <ele>741</ele>
        <time>2015-06-21T11:01:35Z</time>
      </trkpt>
      <trkpt lat="45.4241" lon="5.69165">
        <ele>738</ele>
        <time>2015-06-21T11:01:38Z</time>
      </trkpt>
      <trkpt lat="45.42398" lon="5.69166">
        <ele>736</ele>
        <time>2015-06-21T11:01:41Z</time>
      </trkpt>
      <trkpt lat="45.42389" lon="5.69159">
        <ele>735</ele>
        <time>2015-06-21T11:01:43Z</time>
      </trkpt>
      <trkpt lat="45.42381" lon="5.69149">
        <ele>735</ele>
        <time>2015-06-21T11:01:45Z</time>
      </trkpt>
      <trkpt lat="45.42372" lon="5.6914">
        <ele>734</ele>
        <time>2015-06-21T11:01:47Z</time>
      </trkpt>
      <trkpt lat="45.42363" lon="5.69131">
        <ele>733</ele>
        <time>2015-06-21T11:01:49Z</time>
      </trkpt>
      <trkpt lat="45.42357" lon="5.69119">
        <ele>733</ele>
        <time>2015-06-21T11:01:51Z</time>
      </trkpt>
      <trkpt lat="45.42359" lon="5.69107">
        <ele>733</ele>
        <time>2015-06-21T11:01:57Z</time>
      </trkpt>
      <trkpt lat="45.42358" lon="5.69092">
        <ele>733</ele>
        <time>2015-06-21T11:02:04Z</time>
      </trkpt>
      <trkpt lat="45.42361" lon="5.69079">
        <ele>734</ele>
        <time>2015-06-21T11:02:09Z</time>
      </trkpt>
      <trkpt lat="45.4236" lon="5.69066">
        <ele>735</ele>
        <time>2015-06-21T11:02:13Z</time>
      </trkpt>
      <trkpt lat="45.4236" lon="5.69053">
        <ele>735</ele>
        <time>2015-06-21T11:02:19Z</time>
      </trkpt>
      <trkpt lat="45.42355" lon="5.6904">
        <ele>735</ele>
        <time>2015-06-21T11:02:23Z</time>
      </trkpt>
      <trkpt lat="45.42346" lon="5.69029">
        <ele>735</ele>
        <time>2015-06-21T11:02:27Z</time>
      </trkpt>
      <trkpt lat="45.42338" lon="5.69019">
        <ele>734</ele>
        <time>2015-06-21T11:02:30Z</time>
      </trkpt>
      <trkpt lat="45.42331" lon="5.6901">
        <ele>731</ele>
        <time>2015-06-21T11:02:33Z</time>
      </trkpt>
      <trkpt lat="45.42322" lon="5.68998">
        <ele>732</ele>
        <time>2015-06-21T11:02:36Z</time>
      </trkpt>
      <trkpt lat="45.42313" lon="5.68987">
        <ele>732</ele>
        <time>2015-06-21T11:02:39Z</time>
      </trkpt>
      <trkpt lat="45.42306" lon="5.68974">
        <ele>732</ele>
        <time>2015-06-21T11:02:42Z</time>
      </trkpt>
      <trkpt lat="45.42293" lon="5.68954">
        <ele>732</ele>
        <time>2015-06-21T11:02:45Z</time>
      </trkpt>
      <trkpt lat="45.42277" lon="5.68935">
        <ele>731</ele>
        <time>2015-06-21T11:02:49Z</time>
      </trkpt>
      <trkpt lat="45.42266" lon="5.68927">
        <ele>730</ele>
        <time>2015-06-21T11:02:52Z</time>
      </trkpt>
      <trkpt lat="45.42258" lon="5.68918">
        <ele>728</ele>
        <time>2015-06-21T11:02:54Z</time>
      </trkpt>
      <trkpt lat="45.42249" lon="5.68909">
        <ele>726</ele>
        <time>2015-06-21T11:02:56Z</time>
      </trkpt>
      <trkpt lat="45.4224" lon="5.68904">
        <ele>725</ele>
        <time>2015-06-21T11:02:58Z</time>
      </trkpt>
      <trkpt lat="45.42231" lon="5.68898">
        <ele>724</ele>
        <time>2015-06-21T11:03:01Z</time>
      </trkpt>
      <trkpt lat="45.42228" lon="5.68886">
        <ele>724</ele>
        <time>2015-06-21T11:03:07Z</time>
      </trkpt>
      <trkpt lat="45.4223" lon="5.68873">
        <ele>724</ele>
        <time>2015-06-21T11:03:15Z</time>
      </trkpt>
      <trkpt lat="45.42236" lon="5.68861">
        <ele>725</ele>
        <time>2015-06-21T11:03:24Z</time>
      </trkpt>
      <trkpt lat="45.42238" lon="5.68846">
        <ele>726</ele>
        <time>2015-06-21T11:03:31Z</time>
      </trkpt>
      <trkpt lat="45.42239" lon="5.68834">
        <ele>727</ele>
        <time>2015-06-21T11:03:37Z</time>
      </trkpt>
      <trkpt lat="45.42245" lon="5.68823">
        <ele>727</ele>
        <time>2015-06-21T11:03:45Z</time>
      </trkpt>
      <trkpt lat="45.42246" lon="5.6881">
        <ele>726</ele>
        <time>2015-06-21T11:03:52Z</time>
      </trkpt>
      <trkpt lat="45.42243" lon="5.68797">
        <ele>726</ele>
        <time>2015-06-21T11:03:59Z</time>
      </trkpt>
      <trkpt lat="45.42245" lon="5.68784">
        <ele>727</ele>
        <time>2015-06-21T11:04:08Z</time>
      </trkpt>
      <trkpt lat="45.42253" lon="5.68776">
        <ele>736</ele>
        <time>2015-06-21T11:04:19Z</time>
      </trkpt>
      <trkpt lat="45.42261" lon="5.6877">
        <ele>736</ele>
        <time>2015-06-21T11:04:30Z</time>
      </trkpt>
      <trkpt lat="45.42267" lon="5.6876">
        <ele>736</ele>
        <time>2015-06-21T11:04:39Z</time>
      </trkpt>
      <trkpt lat="45.42274" lon="5.68751">
        <ele>737</ele>
        <time>2015-06-21T11:04:47Z</time>
      </trkpt>
      <trkpt lat="45.42282" lon="5.68743">
        <ele>739</ele>
        <time>2015-06-21T11:04:53Z</time>
      </trkpt>
      <trkpt lat="45.42289" lon="5.68735">
        <ele>740</ele>
        <time>2015-06-21T11:05:00Z</time>
      </trkpt>
      <trkpt lat="45.42297" lon="5.68727">
        <ele>740</ele>
        <time>2015-06-21T11:05:08Z</time>
      </trkpt>
      <trkpt lat="45.42307" lon="5.68721">
        <ele>741</ele>
        <time>2015-06-21T11:05:15Z</time>
      </trkpt>
      <trkpt lat="45.42315" lon="5.68713">
        <ele>741</ele>
        <time>2015-06-21T11:05:22Z</time>
      </trkpt>
      <trkpt lat="45.42323" lon="5.68706">
        <ele>741</ele>
        <time>2015-06-21T11:05:28Z</time>
      </trkpt>
      <trkpt lat="45.42331" lon="5.68698">
        <ele>742</ele>
        <time>2015-06-21T11:05:35Z</time>
      </trkpt>
      <trkpt lat="45.42338" lon="5.68691">
        <ele>746</ele>
        <time>2015-06-21T11:05:43Z</time>
      </trkpt>
      <trkpt lat="45.42347" lon="5.68685">
        <ele>746</ele>
        <time>2015-06-21T11:05:50Z</time>
      </trkpt>
      <trkpt lat="45.42354" lon="5.68678">
        <ele>747</ele>
        <time>2015-06-21T11:05:58Z</time>
      </trkpt>
      <trkpt lat="45.42362" lon="5.6867">
        <ele>747</ele>
        <time>2015-06-21T11:06:06Z</time>
      </trkpt>
      <trkpt lat="45.42371" lon="5.68665">
        <ele>749</ele>
        <time>2015-06-21T11:06:14Z</time>
      </trkpt>
      <trkpt lat="45.4238" lon="5.68665">
        <ele>750</ele>
        <time>2015-06-21T11:06:21Z</time>
      </trkpt>
      <trkpt lat="45.4239" lon="5.68666">
        <ele>751</ele>
        <time>2015-06-21T11:06:29Z</time>
      </trkpt>
      <trkpt lat="45.424" lon="5.68668">
        <ele>750</ele>
        <time>2015-06-21T11:06:35Z</time>
      </trkpt>
      <trkpt lat="45.4241" lon="5.68671">
        <ele>751</ele>
        <time>2015-06-21T11:06:41Z</time>
      </trkpt>
      <trkpt lat="45.42419" lon="5.68676">
        <ele>753</ele>
        <time>2015-06-21T11:06:46Z</time>
      </trkpt>
      <trkpt lat="45.42428" lon="5.6868">
        <ele>754</ele>
        <time>2015-06-21T11:06:51Z</time>
      </trkpt>
      <trkpt lat="45.42437" lon="5.68686">
        <ele>755</ele>
        <time>2015-06-21T11:06:57Z</time>
      </trkpt>
      <trkpt lat="45.42446" lon="5.68693">
        <ele>756</ele>
        <time>2015-06-21T11:07:02Z</time>
      </trkpt>
      <trkpt lat="45.42454" lon="5.68701">
        <ele>757</ele>
        <time>2015-06-21T11:07:07Z</time>
      </trkpt>
      <trkpt lat="45.42463" lon="5.6871">
        <ele>757</ele>
        <time>2015-06-21T11:07:13Z</time>
      </trkpt>
      <trkpt lat="45.42471" lon="5.68721">
        <ele>757</ele>
        <time>2015-06-21T11:07:18Z</time>
      </trkpt>
      <trkpt lat="45.42477" lon="5.68731">
        <ele>758</ele>
        <time>2015-06-21T11:07:23Z</time>
      </trkpt>
      <trkpt lat="45.42485" lon="5.68743">
        <ele>758</ele>
        <time>2015-06-21T11:07:28Z</time>
      </trkpt>
      <trkpt lat="45.42493" lon="5.68755">
        <ele>758</ele>
        <time>2015-06-21T11:07:32Z</time>
      </trkpt>
      <trkpt lat="45.42501" lon="5.68767">
        <ele>762</ele>
        <time>2015-06-21T11:07:36Z</time>
      </trkpt>
      <trkpt lat="45.42508" lon="5.68779">
        <ele>763</ele>
        <time>2015-06-21T11:07:40Z</time>
      </trkpt>
      <trkpt lat="45.42514" lon="5.6879">
        <ele>763</ele>
        <time>2015-06-21T11:07:44Z</time>
      </trkpt>
      <trkpt lat="45.42521" lon="5.68802">
        <ele>763</ele>
        <time>2015-06-21T11:07:48Z</time>
      </trkpt>
      <trkpt lat="45.42528" lon="5.68811">
        <ele>763</ele>
        <time>2015-06-21T11:07:51Z</time>
      </trkpt>
      <trkpt lat="45.42537" lon="5.68823">
        <ele>763</ele>
        <time>2015-06-21T11:07:55Z</time>
      </trkpt>
      <trkpt lat="45.42545" lon="5.68833">
        <ele>764</ele>
        <time>2015-06-21T11:07:58Z</time>
      </trkpt>
      <trkpt lat="45.42554" lon="5.68843">
        <ele>762</ele>
        <time>2015-06-21T11:08:02Z</time>
      </trkpt>
      <trkpt lat="45.42561" lon="5.68853">
        <ele>762</ele>
        <time>2015-06-21T11:08:05Z</time>
      </trkpt>
      <trkpt lat="45.42569" lon="5.68865">
        <ele>762</ele>
        <time>2015-06-21T11:08:09Z</time>
      </trkpt>
      <trkpt lat="45.42575" lon="5.68876">
        <ele>762</ele>
        <time>2015-06-21T11:08:12Z</time>
      </trkpt>
      <trkpt lat="45.42581" lon="5.68889">
        <ele>761</ele>
        <time>2015-06-21T11:08:16Z</time>
      </trkpt>
      <trkpt lat="45.42587" lon="5.68901">
        <ele>762</ele>
        <time>2015-06-21T11:08:19Z</time>
      </trkpt>
      <trkpt lat="45.42593" lon="5.68912">
        <ele>762</ele>
        <time>2015-06-21T11:08:22Z</time>
      </trkpt>
      <trkpt lat="45.426" lon="5.68924">
        <ele>761</ele>
        <time>2015-06-21T11:08:25Z</time>
      </trkpt>
      <trkpt lat="45.42607" lon="5.68933">
        <ele>761</ele>
        <time>2015-06-21T11:08:28Z</time>
      </trkpt>
      <trkpt lat="45.42617" lon="5.68945">
        <ele>761</ele>
        <time>2015-06-21T11:08:31Z</time>
      </trkpt>
      <trkpt lat="45.42624" lon="5.68955">
        <ele>762</ele>
        <time>2015-06-21T11:08:34Z</time>
      </trkpt>
      <trkpt lat="45.42631" lon="5.68965">
        <ele>762</ele>
        <time>2015-06-21T11:08:37Z</time>
      </trkpt>
      <trkpt lat="45.42635" lon="5.68977">
        <ele>762</ele>
        <time>2015-06-21T11:08:41Z</time>
      </trkpt>
      <trkpt lat="45.42639" lon="5.6899">
        <ele>762</ele>
        <time>2015-06-21T11:08:46Z</time>
      </trkpt>
      <trkpt lat="45.42645" lon="5.69001">
        <ele>761</ele>
        <time>2015-06-21T11:08:51Z</time>
      </trkpt>
      <trkpt lat="45.42652" lon="5.69009">
        <ele>761</ele>
        <time>2015-06-21T11:09:08Z</time>
      </trkpt>
      <trkpt lat="45.42661" lon="5.6901">
        <ele>762</ele>
        <time>2015-06-21T11:09:29Z</time>
      </trkpt>
      <trkpt lat="45.4267" lon="5.69008">
        <ele>763</ele>
        <time>2015-06-21T11:09:50Z</time>
      </trkpt>
      <trkpt lat="45.42661" lon="5.69009">
        <ele>762</ele>
        <time>2015-06-21T11:11:35Z</time>
      </trkpt>
      <trkpt lat="45.42667" lon="5.6902">
        <ele>764</ele>
        <time>2015-06-21T11:11:51Z</time>
      </trkpt>
      <trkpt lat="45.42672" lon="5.69031">
        <ele>764</ele>
        <time>2015-06-21T11:11:56Z</time>
      </trkpt>
      <trkpt lat="45.4267" lon="5.69046">
        <ele>764</ele>
        <time>2015-06-21T11:12:04Z</time>
      </trkpt>
      <trkpt lat="45.42674" lon="5.69059">
        <ele>764</ele>
        <time>2015-06-21T11:12:09Z</time>
      </trkpt>
      <trkpt lat="45.4268" lon="5.69069">
        <ele>764</ele>
        <time>2015-06-21T11:12:13Z</time>
      </trkpt>
      <trkpt lat="45.4268" lon="5.69084">
        <ele>763</ele>
        <time>2015-06-21T11:12:19Z</time>
      </trkpt>
      <trkpt lat="45.4268" lon="5.69097">
        <ele>763</ele>
        <time>2015-06-21T11:12:24Z</time>
      </trkpt>
      <trkpt lat="45.42685" lon="5.69108">
        <ele>763</ele>
        <time>2015-06-21T11:12:29Z</time>
      </trkpt>
      <trkpt lat="45.4269" lon="5.69121">
        <ele>763</ele>
        <time>2015-06-21T11:12:34Z</time>
      </trkpt>
      <trkpt lat="45.42697" lon="5.69131">
        <ele>764</ele>
        <time>2015-06-21T11:12:40Z</time>
      </trkpt>
      <trkpt lat="45.42706" lon="5.69136">
        <ele>764</ele>
        <time>2015-06-21T11:12:45Z</time>
      </trkpt>
      <trkpt lat="45.42716" lon="5.69145">
        <ele>764</ele>
        <time>2015-06-21T11:12:49Z</time>
      </trkpt>
      <trkpt lat="45.42726" lon="5.6915">
        <ele>765</ele>
        <time>2015-06-21T11:12:53Z</time>
      </trkpt>
      <trkpt lat="45.42736" lon="5.69151">
        <ele>765</ele>
        <time>2015-06-21T11:12:58Z</time>
      </trkpt>
      <trkpt lat="45.42746" lon="5.69151">
        <ele>766</ele>
        <time>2015-06-21T11:13:05Z</time>
      </trkpt>
      <trkpt lat="45.42755" lon="5.6915">
        <ele>769</ele>
        <time>2015-06-21T11:13:11Z</time>
      </trkpt>
      <trkpt lat="45.42765" lon="5.69148">
        <ele>769</ele>
        <time>2015-06-21T11:13:18Z</time>
      </trkpt>
      <trkpt lat="45.42774" lon="5.69144">
        <ele>770</ele>
        <time>2015-06-21T11:13:23Z</time>
      </trkpt>
      <trkpt lat="45.42783" lon="5.69141">
        <ele>770</ele>
        <time>2015-06-21T11:13:28Z</time>
      </trkpt>
      <trkpt lat="45.42792" lon="5.69139">
        <ele>771</ele>
        <time>2015-06-21T11:13:33Z</time>
      </trkpt>
      <trkpt lat="45.42801" lon="5.69135">
        <ele>771</ele>
        <time>2015-06-21T11:13:38Z</time>
      </trkpt>
      <trkpt lat="45.4281" lon="5.6913">
        <ele>771</ele>
        <time>2015-06-21T11:13:43Z</time>
      </trkpt>
      <trkpt lat="45.42819" lon="5.69127">
        <ele>772</ele>
        <time>2015-06-21T11:13:48Z</time>
      </trkpt>
      <trkpt lat="45.42828" lon="5.69124">
        <ele>772</ele>
        <time>2015-06-21T11:13:54Z</time>
      </trkpt>
      <trkpt lat="45.42838" lon="5.69117">
        <ele>778</ele>
        <time>2015-06-21T11:14:00Z</time>
      </trkpt>
      <trkpt lat="45.42847" lon="5.69114">
        <ele>779</ele>
        <time>2015-06-21T11:14:05Z</time>
      </trkpt>
      <trkpt lat="45.42856" lon="5.69109">
        <ele>779</ele>
        <time>2015-06-21T11:14:10Z</time>
      </trkpt>
      <trkpt lat="45.42866" lon="5.69105">
        <ele>780</ele>
        <time>2015-06-21T11:14:15Z</time>
      </trkpt>
      <trkpt lat="45.42875" lon="5.69101">
        <ele>780</ele>
        <time>2015-06-21T11:14:21Z</time>
      </trkpt>
      <trkpt lat="45.42884" lon="5.69096">
        <ele>781</ele>
        <time>2015-06-21T11:14:28Z</time>
      </trkpt>
      <trkpt lat="45.42893" lon="5.6909">
        <ele>782</ele>
        <time>2015-06-21T11:14:34Z</time>
      </trkpt>
      <trkpt lat="45.42902" lon="5.69082">
        <ele>784</ele>
        <time>2015-06-21T11:14:41Z</time>
      </trkpt>
      <trkpt lat="45.4291" lon="5.69075">
        <ele>784</ele>
        <time>2015-06-21T11:14:48Z</time>
      </trkpt>
      <trkpt lat="45.42919" lon="5.6907">
        <ele>788</ele>
        <time>2015-06-21T11:14:55Z</time>
      </trkpt>
      <trkpt lat="45.42927" lon="5.69063">
        <ele>790</ele>
        <time>2015-06-21T11:15:01Z</time>
      </trkpt>
      <trkpt lat="45.42935" lon="5.69056">
        <ele>791</ele>
        <time>2015-06-21T11:15:07Z</time>
      </trkpt>
      <trkpt lat="45.42944" lon="5.69052">
        <ele>791</ele>
        <time>2015-06-21T11:15:13Z</time>
      </trkpt>
      <trkpt lat="45.42953" lon="5.69048">
        <ele>792</ele>
        <time>2015-06-21T11:15:24Z</time>
      </trkpt>
      <trkpt lat="45.42963" lon="5.6905">
        <ele>793</ele>
        <time>2015-06-21T11:15:36Z</time>
      </trkpt>
      <trkpt lat="45.42972" lon="5.69051">
        <ele>794</ele>
        <time>2015-06-21T11:15:47Z</time>
      </trkpt>
      <trkpt lat="45.42982" lon="5.6905">
        <ele>795</ele>
        <time>2015-06-21T11:15:57Z</time>
      </trkpt>
      <trkpt lat="45.42991" lon="5.69053">
        <ele>795</ele>
        <time>2015-06-21T11:16:05Z</time>
      </trkpt>
      <trkpt lat="45.43001" lon="5.69057">
        <ele>801</ele>
        <time>2015-06-21T11:16:13Z</time>
      </trkpt>
      <trkpt lat="45.4301" lon="5.69056">
        <ele>801</ele>
        <time>2015-06-21T11:16:23Z</time>
      </trkpt>
      <trkpt lat="45.43019" lon="5.69057">
        <ele>801</ele>
        <time>2015-06-21T11:16:32Z</time>
      </trkpt>
      <trkpt lat="45.43028" lon="5.69058">
        <ele>802</ele>
        <time>2015-06-21T11:16:40Z</time>
      </trkpt>
      <trkpt lat="45.43038" lon="5.69058">
        <ele>802</ele>
        <time>2015-06-21T11:16:47Z</time>
      </trkpt>
      <trkpt lat="45.43048" lon="5.69054">
        <ele>802</ele>
        <time>2015-06-21T11:16:54Z</time>
      </trkpt>
      <trkpt lat="45.43057" lon="5.69049">
        <ele>803</ele>
        <time>2015-06-21T11:17:00Z</time>
      </trkpt>
      <trkpt lat="45.43066" lon="5.69042">
        <ele>803</ele>
        <time>2015-06-21T11:17:07Z</time>
      </trkpt>
      <trkpt lat="45.43073" lon="5.69034">
        <ele>803</ele>
        <time>2015-06-21T11:17:14Z</time>
      </trkpt>
      <trkpt lat="45.43081" lon="5.69023">
        <ele>804</ele>
        <time>2015-06-21T11:17:21Z</time>
      </trkpt>
      <trkpt lat="45.43089" lon="5.69014">
        <ele>806</ele>
        <time>2015-06-21T11:17:28Z</time>
      </trkpt>
      <trkpt lat="45.43097" lon="5.69004">
        <ele>806</ele>
        <time>2015-06-21T11:17:33Z</time>
      </trkpt>
      <trkpt lat="45.43102" lon="5.68993">
        <ele>807</ele>
        <time>2015-06-21T11:17:38Z</time>
      </trkpt>
      <trkpt lat="45.43109" lon="5.68985">
        <ele>808</ele>
        <time>2015-06-21T11:17:43Z</time>
      </trkpt>
      <trkpt lat="45.43118" lon="5.68976">
        <ele>808</ele>
        <time>2015-06-21T11:17:51Z</time>
      </trkpt>
      <trkpt lat="45.43126" lon="5.68968">
        <ele>808</ele>
        <time>2015-06-21T11:17:56Z</time>
      </trkpt>
      <trkpt lat="45.43134" lon="5.68963">
        <ele>808</ele>
        <time>2015-06-21T11:18:03Z</time>
      </trkpt>
      <trkpt lat="45.43144" lon="5.68963">
        <ele>808</ele>
        <time>2015-06-21T11:18:11Z</time>
      </trkpt>
      <trkpt lat="45.43154" lon="5.68961">
        <ele>808</ele>
        <time>2015-06-21T11:18:18Z</time>
      </trkpt>
      <trkpt lat="45.43162" lon="5.68953">
        <ele>809</ele>
        <time>2015-06-21T11:18:25Z</time>
      </trkpt>
      <trkpt lat="45.4317" lon="5.68944">
        <ele>808</ele>
        <time>2015-06-21T11:18:32Z</time>
      </trkpt>
      <trkpt lat="45.43177" lon="5.68934">
        <ele>809</ele>
        <time>2015-06-21T11:18:37Z</time>
      </trkpt>
      <trkpt lat="45.43185" lon="5.68926">
        <ele>809</ele>
        <time>2015-06-21T11:18:42Z</time>
      </trkpt>
      <trkpt lat="45.43192" lon="5.68917">
        <ele>809</ele>
        <time>2015-06-21T11:18:48Z</time>
      </trkpt>
      <trkpt lat="45.43201" lon="5.68908">
        <ele>811</ele>
        <time>2015-06-21T11:18:54Z</time>
      </trkpt>
      <trkpt lat="45.43208" lon="5.68899">
        <ele>811</ele>
        <time>2015-06-21T11:19:00Z</time>
      </trkpt>
      <trkpt lat="45.43217" lon="5.68896">
        <ele>811</ele>
        <time>2015-06-21T11:19:06Z</time>
      </trkpt>
      <trkpt lat="45.43226" lon="5.689">
        <ele>811</ele>
        <time>2015-06-21T11:19:13Z</time>
      </trkpt>
      <trkpt lat="45.43235" lon="5.68904">
        <ele>811</ele>
        <time>2015-06-21T11:19:18Z</time>
      </trkpt>
      <trkpt lat="45.43244" lon="5.68909">
        <ele>811</ele>
        <time>2015-06-21T11:19:22Z</time>
      </trkpt>
      <trkpt lat="45.43253" lon="5.68916">
        <ele>810</ele>
        <time>2015-06-21T11:19:26Z</time>
      </trkpt>
      <trkpt lat="45.43264" lon="5.68922">
        <ele>809</ele>
        <time>2015-06-21T11:19:30Z</time>
      </trkpt>
      <trkpt lat="45.43274" lon="5.68929">
        <ele>808</ele>
        <time>2015-06-21T11:19:34Z</time>
      </trkpt>
      <trkpt lat="45.43282" lon="5.68934">
        <ele>808</ele>
        <time>2015-06-21T11:19:37Z</time>
      </trkpt>
      <trkpt lat="45.43292" lon="5.6894">
        <ele>807</ele>
        <time>2015-06-21T11:19:40Z</time>
      </trkpt>
      <trkpt lat="45.43303" lon="5.68946">
        <ele>807</ele>
        <time>2015-06-21T11:19:43Z</time>
      </trkpt>
      <trkpt lat="45.43313" lon="5.68952">
        <ele>807</ele>
        <time>2015-06-21T11:19:46Z</time>
      </trkpt>
      <trkpt lat="45.43322" lon="5.68957">
        <ele>807</ele>
        <time>2015-06-21T11:19:49Z</time>
      </trkpt>
      <trkpt lat="45.4333" lon="5.68963">
        <ele>806</ele>
        <time>2015-06-21T11:19:52Z</time>
      </trkpt>
      <trkpt lat="45.43338" lon="5.6897">
        <ele>806</ele>
        <time>2015-06-21T11:19:55Z</time>
      </trkpt>
      <trkpt lat="45.43348" lon="5.68977">
        <ele>806</ele>
        <time>2015-06-21T11:19:58Z</time>
      </trkpt>
      <trkpt lat="45.43359" lon="5.68982">
        <ele>806</ele>
        <time>2015-06-21T11:20:01Z</time>
      </trkpt>
      <trkpt lat="45.4337" lon="5.68981">
        <ele>806</ele>
        <time>2015-06-21T11:20:04Z</time>
      </trkpt>
      <trkpt lat="45.43381" lon="5.68975">
        <ele>806</ele>
        <time>2015-06-21T11:20:07Z</time>
      </trkpt>
      <trkpt lat="45.43391" lon="5.68967">
        <ele>807</ele>
        <time>2015-06-21T11:20:10Z</time>
      </trkpt>
      <trkpt lat="45.43402" lon="5.6896">
        <ele>807</ele>
        <time>2015-06-21T11:20:13Z</time>
      </trkpt>
      <trkpt lat="45.43412" lon="5.68952">
        <ele>807</ele>
        <time>2015-06-21T11:20:16Z</time>
      </trkpt>
      <trkpt lat="45.43423" lon="5.68945">
        <ele>809</ele>
        <time>2015-06-21T11:20:19Z</time>
      </trkpt>
      <trkpt lat="45.43434" lon="5.68939">
        <ele>809</ele>
        <time>2015-06-21T11:20:22Z</time>
      </trkpt>
      <trkpt lat="45.43444" lon="5.68933">
        <ele>809</ele>
        <time>2015-06-21T11:20:25Z</time>
      </trkpt>
      <trkpt lat="45.43454" lon="5.68927">
        <ele>809</ele>
        <time>2015-06-21T11:20:28Z</time>
      </trkpt>
      <trkpt lat="45.43464" lon="5.68922">
        <ele>810</ele>
        <time>2015-06-21T11:20:31Z</time>
      </trkpt>
      <trkpt lat="45.43476" lon="5.68919">
        <ele>810</ele>
        <time>2015-06-21T11:20:34Z</time>
      </trkpt>
      <trkpt lat="45.43487" lon="5.68915">
        <ele>812</ele>
        <time>2015-06-21T11:20:37Z</time>
      </trkpt>
      <trkpt lat="45.43498" lon="5.68913">
        <ele>812</ele>
        <time>2015-06-21T11:20:40Z</time>
      </trkpt>
      <trkpt lat="45.43509" lon="5.68912">
        <ele>813</ele>
        <time>2015-06-21T11:20:43Z</time>
      </trkpt>
      <trkpt lat="45.43521" lon="5.68912">
        <ele>813</ele>
        <time>2015-06-21T11:20:46Z</time>
      </trkpt>
      <trkpt lat="45.4353" lon="5.68913">
        <ele>814</ele>
        <time>2015-06-21T11:20:49Z</time>
      </trkpt>
      <trkpt lat="45.43539" lon="5.68914">
        <ele>814</ele>
        <time>2015-06-21T11:20:53Z</time>
      </trkpt>
      <trkpt lat="45.43549" lon="5.68919">
        <ele>813</ele>
        <time>2015-06-21T11:20:58Z</time>
      </trkpt>
      <trkpt lat="45.43559" lon="5.68922">
        <ele>814</ele>
        <time>2015-06-21T11:21:02Z</time>
      </trkpt>
      <trkpt lat="45.43569" lon="5.68924">
        <ele>814</ele>
        <time>2015-06-21T11:21:06Z</time>
      </trkpt>
      <trkpt lat="45.4358" lon="5.68925">
        <ele>815</ele>
        <time>2015-06-21T11:21:10Z</time>
      </trkpt>
      <trkpt lat="45.43591" lon="5.68925">
        <ele>816</ele>
        <time>2015-06-21T11:21:14Z</time>
      </trkpt>
      <trkpt lat="45.43601" lon="5.68926">
        <ele>816</ele>
        <time>2015-06-21T11:21:18Z</time>
      </trkpt>
      <trkpt lat="45.4361" lon="5.68925">
        <ele>815</ele>
        <time>2015-06-21T11:21:21Z</time>
      </trkpt>
      <trkpt lat="45.43621" lon="5.68926">
        <ele>815</ele>
        <time>2015-06-21T11:21:25Z</time>
      </trkpt>
      <trkpt lat="45.43631" lon="5.68926">
        <ele>816</ele>
        <time>2015-06-21T11:21:29Z</time>
      </trkpt>
      <trkpt lat="45.43642" lon="5.68925">
        <ele>816</ele>
        <time>2015-06-21T11:21:32Z</time>
      </trkpt>
      <trkpt lat="45.43651" lon="5.68924">
        <ele>817</ele>
        <time>2015-06-21T11:21:35Z</time>
      </trkpt>
      <trkpt lat="45.4366" lon="5.68924">
        <ele>817</ele>
        <time>2015-06-21T11:21:37Z</time>
      </trkpt>
      <trkpt lat="45.43669" lon="5.68924">
        <ele>818</ele>
        <time>2015-06-21T11:21:39Z</time>
      </trkpt>
      <trkpt lat="45.43682" lon="5.68924">
        <ele>817</ele>
        <time>2015-06-21T11:21:42Z</time>
      </trkpt>
      <trkpt lat="45.43691" lon="5.68923">
        <ele>817</ele>
        <time>2015-06-21T11:21:44Z</time>
      </trkpt>
      <trkpt lat="45.43701" lon="5.68923">
        <ele>817</ele>
        <time>2015-06-21T11:21:46Z</time>
      </trkpt>
      <trkpt lat="45.43711" lon="5.68922">
        <ele>816</ele>
        <time>2015-06-21T11:21:48Z</time>
      </trkpt>
      <trkpt lat="45.43721" lon="5.68922">
        <ele>816</ele>
        <time>2015-06-21T11:21:50Z</time>
      </trkpt>
      <trkpt lat="45.43731" lon="5.68921">
        <ele>816</ele>
        <time>2015-06-21T11:21:52Z</time>
      </trkpt>
      <trkpt lat="45.4374" lon="5.6892">
        <ele>817</ele>
        <time>2015-06-21T11:21:54Z</time>
      </trkpt>
      <trkpt lat="45.43753" lon="5.68918">
        <ele>817</ele>
        <time>2015-06-21T11:21:57Z</time>
      </trkpt>
      <trkpt lat="45.43766" lon="5.68916">
        <ele>817</ele>
        <time>2015-06-21T11:22:00Z</time>
      </trkpt>
      <trkpt lat="45.43779" lon="5.68914">
        <ele>817</ele>
        <time>2015-06-21T11:22:03Z</time>
      </trkpt>
      <trkpt lat="45.43788" lon="5.68913">
        <ele>817</ele>
        <time>2015-06-21T11:22:05Z</time>
      </trkpt>
      <trkpt lat="45.43797" lon="5.68911">
        <ele>817</ele>
        <time>2015-06-21T11:22:07Z</time>
      </trkpt>
      <trkpt lat="45.4381" lon="5.68909">
        <ele>817</ele>
        <time>2015-06-21T11:22:10Z</time>
      </trkpt>
      <trkpt lat="45.43824" lon="5.68908">
        <ele>817</ele>
        <time>2015-06-21T11:22:13Z</time>
      </trkpt>
      <trkpt lat="45.43837" lon="5.68908">
        <ele>818</ele>
        <time>2015-06-21T11:22:16Z</time>
      </trkpt>
      <trkpt lat="45.4385" lon="5.68909">
        <ele>818</ele>
        <time>2015-06-21T11:22:19Z</time>
      </trkpt>
      <trkpt lat="45.43859" lon="5.6891">
        <ele>819</ele>
        <time>2015-06-21T11:22:21Z</time>
      </trkpt>
      <trkpt lat="45.43869" lon="5.6891">
        <ele>819</ele>
        <time>2015-06-21T11:22:23Z</time>
      </trkpt>
      <trkpt lat="45.43878" lon="5.68908">
        <ele>819</ele>
        <time>2015-06-21T11:22:25Z</time>
      </trkpt>
      <trkpt lat="45.43891" lon="5.68904">
        <ele>820</ele>
        <time>2015-06-21T11:22:28Z</time>
      </trkpt>
      <trkpt lat="45.43902" lon="5.68899">
        <ele>820</ele>
        <time>2015-06-21T11:22:31Z</time>
      </trkpt>
      <trkpt lat="45.43914" lon="5.68893">
        <ele>820</ele>
        <time>2015-06-21T11:22:34Z</time>
      </trkpt>
      <trkpt lat="45.43926" lon="5.68888">
        <ele>822</ele>
        <time>2015-06-21T11:22:37Z</time>
      </trkpt>
      <trkpt lat="45.43938" lon="5.68882">
        <ele>822</ele>
        <time>2015-06-21T11:22:40Z</time>
      </trkpt>
      <trkpt lat="45.43949" lon="5.68876">
        <ele>822</ele>
        <time>2015-06-21T11:22:43Z</time>
      </trkpt>
      <trkpt lat="45.43961" lon="5.68869">
        <ele>822</ele>
        <time>2015-06-21T11:22:46Z</time>
      </trkpt>
      <trkpt lat="45.43972" lon="5.6886">
        <ele>822</ele>
        <time>2015-06-21T11:22:49Z</time>
      </trkpt>
      <trkpt lat="45.43983" lon="5.68853">
        <ele>823</ele>
        <time>2015-06-21T11:22:52Z</time>
      </trkpt>
      <trkpt lat="45.43993" lon="5.68843">
        <ele>823</ele>
        <time>2015-06-21T11:22:55Z</time>
      </trkpt>
      <trkpt lat="45.44001" lon="5.68829">
        <ele>823</ele>
        <time>2015-06-21T11:22:58Z</time>
      </trkpt>
      <trkpt lat="45.44007" lon="5.68814">
        <ele>825</ele>
        <time>2015-06-21T11:23:01Z</time>
      </trkpt>
      <trkpt lat="45.44009" lon="5.68797">
        <ele>825</ele>
        <time>2015-06-21T11:23:04Z</time>
      </trkpt>
      <trkpt lat="45.44009" lon="5.6878">
        <ele>826</ele>
        <time>2015-06-21T11:23:07Z</time>
      </trkpt>
      <trkpt lat="45.44005" lon="5.68764">
        <ele>826</ele>
        <time>2015-06-21T11:23:10Z</time>
      </trkpt>
      <trkpt lat="45.43999" lon="5.68748">
        <ele>826</ele>
        <time>2015-06-21T11:23:13Z</time>
      </trkpt>
      <trkpt lat="45.43992" lon="5.68734">
        <ele>827</ele>
        <time>2015-06-21T11:23:16Z</time>
      </trkpt>
      <trkpt lat="45.43984" lon="5.68721">
        <ele>828</ele>
        <time>2015-06-21T11:23:19Z</time>
      </trkpt>
      <trkpt lat="45.43976" lon="5.6871">
        <ele>828</ele>
        <time>2015-06-21T11:23:22Z</time>
      </trkpt>
      <trkpt lat="45.43968" lon="5.68699">
        <ele>829</ele>
        <time>2015-06-21T11:23:25Z</time>
      </trkpt>
      <trkpt lat="45.4396" lon="5.68689">
        <ele>829</ele>
        <time>2015-06-21T11:23:28Z</time>
      </trkpt>
      <trkpt lat="45.43953" lon="5.68678">
        <ele>829</ele>
        <time>2015-06-21T11:23:31Z</time>
      </trkpt>
      <trkpt lat="45.43945" lon="5.68667">
        <ele>829</ele>
        <time>2015-06-21T11:23:34Z</time>
      </trkpt>
      <trkpt lat="45.43937" lon="5.68655">
        <ele>833</ele>
        <time>2015-06-21T11:23:37Z</time>
      </trkpt>
      <trkpt lat="45.43929" lon="5.68645">
        <ele>833</ele>
        <time>2015-06-21T11:23:40Z</time>
      </trkpt>
      <trkpt lat="45.43922" lon="5.68634">
        <ele>833</ele>
        <time>2015-06-21T11:23:43Z</time>
      </trkpt>
      <trkpt lat="45.43914" lon="5.68624">
        <ele>832</ele>
        <time>2015-06-21T11:23:46Z</time>
      </trkpt>
      <trkpt lat="45.43907" lon="5.68614">
        <ele>833</ele>
        <time>2015-06-21T11:23:49Z</time>
      </trkpt>
      <trkpt lat="45.439" lon="5.68604">
        <ele>833</ele>
        <time>2015-06-21T11:23:52Z</time>
      </trkpt>
      <trkpt lat="45.43893" lon="5.68595">
        <ele>833</ele>
        <time>2015-06-21T11:23:55Z</time>
      </trkpt>
      <trkpt lat="45.43886" lon="5.68585">
        <ele>833</ele>
        <time>2015-06-21T11:23:58Z</time>
      </trkpt>
      <trkpt lat="45.4388" lon="5.68575">
        <ele>837</ele>
        <time>2015-06-21T11:24:01Z</time>
      </trkpt>
      <trkpt lat="45.43873" lon="5.68566">
        <ele>837</ele>
        <time>2015-06-21T11:24:04Z</time>
      </trkpt>
      <trkpt lat="45.43866" lon="5.68556">
        <ele>837</ele>
        <time>2015-06-21T11:24:08Z</time>
      </trkpt>
      <trkpt lat="45.43859" lon="5.68545">
        <ele>837</ele>
        <time>2015-06-21T11:24:13Z</time>
      </trkpt>
      <trkpt lat="45.43869" lon="5.6854">
        <ele>838</ele>
        <time>2015-06-21T11:24:20Z</time>
      </trkpt>
      <trkpt lat="45.43877" lon="5.68534">
        <ele>838</ele>
        <time>2015-06-21T11:24:24Z</time>
      </trkpt>
      <trkpt lat="45.4388" lon="5.6852">
        <ele>838</ele>
        <time>2015-06-21T11:24:29Z</time>
      </trkpt>
      <trkpt lat="45.43877" lon="5.68505">
        <ele>838</ele>
        <time>2015-06-21T11:24:34Z</time>
      </trkpt>
      <trkpt lat="45.43874" lon="5.68491">
        <ele>841</ele>
        <time>2015-06-21T11:24:39Z</time>
      </trkpt>
      <trkpt lat="45.43871" lon="5.68477">
        <ele>841</ele>
        <time>2015-06-21T11:24:45Z</time>
      </trkpt>
      <trkpt lat="45.4387" lon="5.68464">
        <ele>841</ele>
        <time>2015-06-21T11:24:50Z</time>
      </trkpt>
      <trkpt lat="45.43868" lon="5.6845">
        <ele>842</ele>
        <time>2015-06-21T11:24:55Z</time>
      </trkpt>
      <trkpt lat="45.43865" lon="5.68436">
        <ele>842</ele>
        <time>2015-06-21T11:25:00Z</time>
      </trkpt>
      <trkpt lat="45.43862" lon="5.68422">
        <ele>842</ele>
        <time>2015-06-21T11:25:05Z</time>
      </trkpt>
      <trkpt lat="45.43858" lon="5.68409">
        <ele>846</ele>
        <time>2015-06-21T11:25:10Z</time>
      </trkpt>
      <trkpt lat="45.43855" lon="5.68396">
        <ele>846</ele>
        <time>2015-06-21T11:25:15Z</time>
      </trkpt>
      <trkpt lat="45.43851" lon="5.68384">
        <ele>847</ele>
        <time>2015-06-21T11:25:20Z</time>
      </trkpt>
      <trkpt lat="45.43848" lon="5.68372">
        <ele>847</ele>
        <time>2015-06-21T11:25:25Z</time>
      </trkpt>
      <trkpt lat="45.43844" lon="5.68359">
        <ele>848</ele>
        <time>2015-06-21T11:25:31Z</time>
      </trkpt>
      <trkpt lat="45.43843" lon="5.68345">
        <ele>848</ele>
        <time>2015-06-21T11:25:38Z</time>
      </trkpt>
      <trkpt lat="45.43844" lon="5.68332">
        <ele>852</ele>
        <time>2015-06-21T11:25:44Z</time>
      </trkpt>
      <trkpt lat="45.43846" lon="5.68317">
        <ele>854</ele>
        <time>2015-06-21T11:25:51Z</time>
      </trkpt>
      <trkpt lat="45.43847" lon="5.68304">
        <ele>856</ele>
        <time>2015-06-21T11:25:57Z</time>
      </trkpt>
      <trkpt lat="45.4385" lon="5.68291">
        <ele>858</ele>
        <time>2015-06-21T11:26:03Z</time>
      </trkpt>
      <trkpt lat="45.43854" lon="5.68278">
        <ele>859</ele>
        <time>2015-06-21T11:26:10Z</time>
      </trkpt>
      <trkpt lat="45.43856" lon="5.68263">
        <ele>860</ele>
        <time>2015-06-21T11:26:18Z</time>
      </trkpt>
      <trkpt lat="45.43859" lon="5.68251">
        <ele>861</ele>
        <time>2015-06-21T11:26:25Z</time>
      </trkpt>
      <trkpt lat="45.43863" lon="5.68238">
        <ele>868</ele>
        <time>2015-06-21T11:26:32Z</time>
      </trkpt>
      <trkpt lat="45.43867" lon="5.68223">
        <ele>869</ele>
        <time>2015-06-21T11:26:39Z</time>
      </trkpt>
      <trkpt lat="45.43872" lon="5.68212">
        <ele>870</ele>
        <time>2015-06-21T11:26:45Z</time>
      </trkpt>
      <trkpt lat="45.43876" lon="5.68199">
        <ele>871</ele>
        <time>2015-06-21T11:26:50Z</time>
      </trkpt>
      <trkpt lat="45.43879" lon="5.68185">
        <ele>872</ele>
        <time>2015-06-21T11:26:56Z</time>
      </trkpt>
      <trkpt lat="45.43883" lon="5.68173">
        <ele>872</ele>
        <time>2015-06-21T11:27:03Z</time>
      </trkpt>
      <trkpt lat="45.43885" lon="5.6816">
        <ele>874</ele>
        <time>2015-06-21T11:27:11Z</time>
      </trkpt>
      <trkpt lat="45.43884" lon="5.68142">
        <ele>874</ele>
        <time>2015-06-21T11:27:19Z</time>
      </trkpt>
      <trkpt lat="45.43885" lon="5.68127">
        <ele>874</ele>
        <time>2015-06-21T11:27:26Z</time>
      </trkpt>
      <trkpt lat="45.43879" lon="5.68115">
        <ele>874</ele>
        <time>2015-06-21T11:27:31Z</time>
      </trkpt>
      <trkpt lat="45.4387" lon="5.68105">
        <ele>874</ele>
        <time>2015-06-21T11:27:36Z</time>
      </trkpt>
      <trkpt lat="45.43863" lon="5.68095">
        <ele>874</ele>
        <time>2015-06-21T11:27:39Z</time>
      </trkpt>
      <trkpt lat="45.43857" lon="5.68085">
        <ele>875</ele>
        <time>2015-06-21T11:27:42Z</time>
      </trkpt>
      <trkpt lat="45.43847" lon="5.68077">
        <ele>872</ele>
        <time>2015-06-21T11:27:45Z</time>
      </trkpt>
      <trkpt lat="45.43839" lon="5.68068">
        <ele>872</ele>
        <time>2015-06-21T11:27:48Z</time>
      </trkpt>
      <trkpt lat="45.43831" lon="5.68057">
        <ele>873</ele>
        <time>2015-06-21T11:27:52Z</time>
      </trkpt>
      <trkpt lat="45.43822" lon="5.68048">
        <ele>872</ele>
        <time>2015-06-21T11:27:56Z</time>
      </trkpt>
      <trkpt lat="45.43813" lon="5.68038">
        <ele>872</ele>
        <time>2015-06-21T11:28:00Z</time>
      </trkpt>
      <trkpt lat="45.43805" lon="5.68031">
        <ele>872</ele>
        <time>2015-06-21T11:28:05Z</time>
      </trkpt>
      <trkpt lat="45.43794" lon="5.68027">
        <ele>872</ele>
        <time>2015-06-21T11:28:09Z</time>
      </trkpt>
      <trkpt lat="45.43786" lon="5.68018">
        <ele>872</ele>
        <time>2015-06-21T11:28:14Z</time>
      </trkpt>
      <trkpt lat="45.43778" lon="5.68011">
        <ele>872</ele>
        <time>2015-06-21T11:28:18Z</time>
      </trkpt>
      <trkpt lat="45.43768" lon="5.68003">
        <ele>872</ele>
        <time>2015-06-21T11:28:23Z</time>
      </trkpt>
      <trkpt lat="45.43761" lon="5.67996">
        <ele>870</ele>
        <time>2015-06-21T11:28:26Z</time>
      </trkpt>
      <trkpt lat="45.43752" lon="5.67989">
        <ele>870</ele>
        <time>2015-06-21T11:28:30Z</time>
      </trkpt>
      <trkpt lat="45.43743" lon="5.67976">
        <ele>870</ele>
        <time>2015-06-21T11:28:34Z</time>
      </trkpt>
      <trkpt lat="45.43736" lon="5.67966">
        <ele>869</ele>
        <time>2015-06-21T11:28:38Z</time>
      </trkpt>
      <trkpt lat="45.43729" lon="5.67956">
        <ele>868</ele>
        <time>2015-06-21T11:28:42Z</time>
      </trkpt>
      <trkpt lat="45.4372" lon="5.6795">
        <ele>868</ele>
        <time>2015-06-21T11:28:45Z</time>
      </trkpt>
      <trkpt lat="45.4371" lon="5.67946">
        <ele>868</ele>
        <time>2015-06-21T11:28:48Z</time>
      </trkpt>
      <trkpt lat="45.437" lon="5.6794">
        <ele>867</ele>
        <time>2015-06-21T11:28:51Z</time>
      </trkpt>
      <trkpt lat="45.43689" lon="5.67934">
        <ele>867</ele>
        <time>2015-06-21T11:28:54Z</time>
      </trkpt>
      <trkpt lat="45.43678" lon="5.67927">
        <ele>867</ele>
        <time>2015-06-21T11:28:57Z</time>
      </trkpt>
      <trkpt lat="45.4367" lon="5.6792">
        <ele>866</ele>
        <time>2015-06-21T11:29:00Z</time>
      </trkpt>
      <trkpt lat="45.43661" lon="5.67908">
        <ele>865</ele>
        <time>2015-06-21T11:29:04Z</time>
      </trkpt>
      <trkpt lat="45.43652" lon="5.67902">
        <ele>864</ele>
        <time>2015-06-21T11:29:07Z</time>
      </trkpt>
      <trkpt lat="45.43642" lon="5.67893">
        <ele>863</ele>
        <time>2015-06-21T11:29:10Z</time>
      </trkpt>
      <trkpt lat="45.43633" lon="5.67886">
        <ele>863</ele>
        <time>2015-06-21T11:29:12Z</time>
      </trkpt>
      <trkpt lat="45.43625" lon="5.67878">
        <ele>862</ele>
        <time>2015-06-21T11:29:14Z</time>
      </trkpt>
      <trkpt lat="45.43615" lon="5.67869">
        <ele>862</ele>
        <time>2015-06-21T11:29:16Z</time>
      </trkpt>
      <trkpt lat="45.43604" lon="5.67865">
        <ele>862</ele>
        <time>2015-06-21T11:29:18Z</time>
      </trkpt>
      <trkpt lat="45.43591" lon="5.67866">
        <ele>863</ele>
        <time>2015-06-21T11:29:21Z</time>
      </trkpt>
      <trkpt lat="45.4358" lon="5.6787">
        <ele>867</ele>
        <time>2015-06-21T11:29:24Z</time>
      </trkpt>
      <trkpt lat="45.4357" lon="5.67877">
        <ele>867</ele>
        <time>2015-06-21T11:29:28Z</time>
      </trkpt>
      <trkpt lat="45.43561" lon="5.67876">
        <ele>867</ele>
        <time>2015-06-21T11:29:32Z</time>
      </trkpt>
      <trkpt lat="45.43551" lon="5.67869">
        <ele>867</ele>
        <time>2015-06-21T11:29:37Z</time>
      </trkpt>
      <trkpt lat="45.43542" lon="5.67863">
        <ele>868</ele>
        <time>2015-06-21T11:29:42Z</time>
      </trkpt>
      <trkpt lat="45.43533" lon="5.67857">
        <ele>868</ele>
        <time>2015-06-21T11:29:47Z</time>
      </trkpt>
      <trkpt lat="45.43525" lon="5.67851">
        <ele>868</ele>
        <time>2015-06-21T11:29:52Z</time>
      </trkpt>
      <trkpt lat="45.43517" lon="5.67845">
        <ele>868</ele>
        <time>2015-06-21T11:29:57Z</time>
      </trkpt>
      <trkpt lat="45.4351" lon="5.67838">
        <ele>868</ele>
        <time>2015-06-21T11:30:02Z</time>
      </trkpt>
      <trkpt lat="45.43502" lon="5.67831">
        <ele>867</ele>
        <time>2015-06-21T11:30:08Z</time>
      </trkpt>
      <trkpt lat="45.43493" lon="5.67825">
        <ele>868</ele>
        <time>2015-06-21T11:30:13Z</time>
      </trkpt>
      <trkpt lat="45.43485" lon="5.67819">
        <ele>868</ele>
        <time>2015-06-21T11:30:18Z</time>
      </trkpt>
      <trkpt lat="45.43476" lon="5.67812">
        <ele>868</ele>
        <time>2015-06-21T11:30:23Z</time>
      </trkpt>
      <trkpt lat="45.43468" lon="5.67803">
        <ele>868</ele>
        <time>2015-06-21T11:30:29Z</time>
      </trkpt>
      <trkpt lat="45.43459" lon="5.67796">
        <ele>868</ele>
        <time>2015-06-21T11:30:34Z</time>
      </trkpt>
      <trkpt lat="45.43449" lon="5.67791">
        <ele>868</ele>
        <time>2015-06-21T11:30:39Z</time>
      </trkpt>
      <trkpt lat="45.4344" lon="5.67789">
        <ele>869</ele>
        <time>2015-06-21T11:30:44Z</time>
      </trkpt>
      <trkpt lat="45.43429" lon="5.67788">
        <ele>869</ele>
        <time>2015-06-21T11:30:49Z</time>
      </trkpt>
      <trkpt lat="45.43419" lon="5.67787">
        <ele>869</ele>
        <time>2015-06-21T11:30:54Z</time>
      </trkpt>
      <trkpt lat="45.43409" lon="5.67785">
        <ele>874</ele>
        <time>2015-06-21T11:30:59Z</time>
      </trkpt>
      <trkpt lat="45.43398" lon="5.67786">
        <ele>875</ele>
        <time>2015-06-21T11:31:04Z</time>
      </trkpt>
      <trkpt lat="45.43387" lon="5.67787">
        <ele>875</ele>
        <time>2015-06-21T11:31:09Z</time>
      </trkpt>
      <trkpt lat="45.43377" lon="5.67787">
        <ele>876</ele>
        <time>2015-06-21T11:31:13Z</time>
      </trkpt>
      <trkpt lat="45.43368" lon="5.67787">
        <ele>876</ele>
        <time>2015-06-21T11:31:17Z</time>
      </trkpt>
      <trkpt lat="45.43358" lon="5.67784">
        <ele>876</ele>
        <time>2015-06-21T11:31:21Z</time>
      </trkpt>
      <trkpt lat="45.43347" lon="5.67785">
        <ele>877</ele>
        <time>2015-06-21T11:31:25Z</time>
      </trkpt>
      <trkpt lat="45.43336" lon="5.67782">
        <ele>877</ele>
        <time>2015-06-21T11:31:29Z</time>
      </trkpt>
      <trkpt lat="45.43326" lon="5.67781">
        <ele>882</ele>
        <time>2015-06-21T11:31:33Z</time>
      </trkpt>
      <trkpt lat="45.43319" lon="5.67789">
        <ele>883</ele>
        <time>2015-06-21T11:31:37Z</time>
      </trkpt>
      <trkpt lat="45.43315" lon="5.67801">
        <ele>883</ele>
        <time>2015-06-21T11:31:41Z</time>
      </trkpt>
      <trkpt lat="45.4331" lon="5.67813">
        <ele>883</ele>
        <time>2015-06-21T11:31:46Z</time>
      </trkpt>
      <trkpt lat="45.433" lon="5.6781">
        <ele>883</ele>
        <time>2015-06-21T11:31:50Z</time>
      </trkpt>
      <trkpt lat="45.43289" lon="5.67806">
        <ele>884</ele>
        <time>2015-06-21T11:31:54Z</time>
      </trkpt>
      <trkpt lat="45.4328" lon="5.67802">
        <ele>884</ele>
        <time>2015-06-21T11:31:57Z</time>
      </trkpt>
      <trkpt lat="45.43269" lon="5.67796">
        <ele>885</ele>
        <time>2015-06-21T11:32:00Z</time>
      </trkpt>
      <trkpt lat="45.43259" lon="5.67791">
        <ele>886</ele>
        <time>2015-06-21T11:32:03Z</time>
      </trkpt>
      <trkpt lat="45.43249" lon="5.67785">
        <ele>887</ele>
        <time>2015-06-21T11:32:06Z</time>
      </trkpt>
      <trkpt lat="45.43239" lon="5.67781">
        <ele>887</ele>
        <time>2015-06-21T11:32:09Z</time>
      </trkpt>
      <trkpt lat="45.4323" lon="5.67777">
        <ele>887</ele>
        <time>2015-06-21T11:32:12Z</time>
      </trkpt>
      <trkpt lat="45.43219" lon="5.67771">
        <ele>886</ele>
        <time>2015-06-21T11:32:16Z</time>
      </trkpt>
      <trkpt lat="45.43211" lon="5.67766">
        <ele>886</ele>
        <time>2015-06-21T11:32:20Z</time>
      </trkpt>
      <trkpt lat="45.43202" lon="5.6776">
        <ele>886</ele>
        <time>2015-06-21T11:32:24Z</time>
      </trkpt>
      <trkpt lat="45.43195" lon="5.67749">
        <ele>888</ele>
        <time>2015-06-21T11:32:28Z</time>
      </trkpt>
      <trkpt lat="45.43189" lon="5.67735">
        <ele>888</ele>
        <time>2015-06-21T11:32:32Z</time>
      </trkpt>
      <trkpt lat="45.4319" lon="5.67721">
        <ele>888</ele>
        <time>2015-06-21T11:32:36Z</time>
      </trkpt>
      <trkpt lat="45.43187" lon="5.67709">
        <ele>889</ele>
        <time>2015-06-21T11:32:39Z</time>
      </trkpt>
      <trkpt lat="45.43184" lon="5.67695">
        <ele>889</ele>
        <time>2015-06-21T11:32:43Z</time>
      </trkpt>
      <trkpt lat="45.43179" lon="5.6768">
        <ele>890</ele>
        <time>2015-06-21T11:32:47Z</time>
      </trkpt>
      <trkpt lat="45.43173" lon="5.67669">
        <ele>891</ele>
        <time>2015-06-21T11:32:50Z</time>
      </trkpt>
      <trkpt lat="45.43164" lon="5.67652">
        <ele>893</ele>
        <time>2015-06-21T11:32:53Z</time>
      </trkpt>
      <trkpt lat="45.43157" lon="5.67637">
        <ele>893</ele>
        <time>2015-06-21T11:32:55Z</time>
      </trkpt>
      <trkpt lat="45.43149" lon="5.67619">
        <ele>893</ele>
        <time>2015-06-21T11:32:57Z</time>
      </trkpt>
      <trkpt lat="45.43143" lon="5.676">
        <ele>892</ele>
        <time>2015-06-21T11:32:59Z</time>
      </trkpt>
      <trkpt lat="45.43136" lon="5.67582">
        <ele>887</ele>
        <time>2015-06-21T11:33:01Z</time>
      </trkpt>
      <trkpt lat="45.43132" lon="5.67564">
        <ele>887</ele>
        <time>2015-06-21T11:33:03Z</time>
      </trkpt>
      <trkpt lat="45.43128" lon="5.67551">
        <ele>887</ele>
        <time>2015-06-21T11:33:05Z</time>
      </trkpt>
      <trkpt lat="45.43124" lon="5.67539">
        <ele>887</ele>
        <time>2015-06-21T11:33:07Z</time>
      </trkpt>
      <trkpt lat="45.4312" lon="5.67522">
        <ele>886</ele>
        <time>2015-06-21T11:33:10Z</time>
      </trkpt>
      <trkpt lat="45.43121" lon="5.67505">
        <ele>886</ele>
        <time>2015-06-21T11:33:13Z</time>
      </trkpt>
      <trkpt lat="45.43122" lon="5.6749">
        <ele>879</ele>
        <time>2015-06-21T11:33:15Z</time>
      </trkpt>
      <trkpt lat="45.43122" lon="5.67473">
        <ele>878</ele>
        <time>2015-06-21T11:33:17Z</time>
      </trkpt>
      <trkpt lat="45.43123" lon="5.6746">
        <ele>877</ele>
        <time>2015-06-21T11:33:19Z</time>
      </trkpt>
      <trkpt lat="45.43123" lon="5.67444">
        <ele>876</ele>
        <time>2015-06-21T11:33:21Z</time>
      </trkpt>
      <trkpt lat="45.4312" lon="5.67425">
        <ele>877</ele>
        <time>2015-06-21T11:33:24Z</time>
      </trkpt>
      <trkpt lat="45.43113" lon="5.6741">
        <ele>873</ele>
        <time>2015-06-21T11:33:26Z</time>
      </trkpt>
      <trkpt lat="45.43108" lon="5.67392">
        <ele>873</ele>
        <time>2015-06-21T11:33:28Z</time>
      </trkpt>
      <trkpt lat="45.43103" lon="5.67371">
        <ele>871</ele>
        <time>2015-06-21T11:33:30Z</time>
      </trkpt>
      <trkpt lat="45.43096" lon="5.6735">
        <ele>872</ele>
        <time>2015-06-21T11:33:32Z</time>
      </trkpt>
      <trkpt lat="45.4309" lon="5.67332">
        <ele>872</ele>
        <time>2015-06-21T11:33:34Z</time>
      </trkpt>
      <trkpt lat="45.43083" lon="5.67314">
        <ele>877</ele>
        <time>2015-06-21T11:33:36Z</time>
      </trkpt>
      <trkpt lat="45.43078" lon="5.673">
        <ele>876</ele>
        <time>2015-06-21T11:33:38Z</time>
      </trkpt>
      <trkpt lat="45.43071" lon="5.67287">
        <ele>875</ele>
        <time>2015-06-21T11:33:40Z</time>
      </trkpt>
      <trkpt lat="45.43063" lon="5.67273">
        <ele>874</ele>
        <time>2015-06-21T11:33:42Z</time>
      </trkpt>
      <trkpt lat="45.43056" lon="5.67259">
        <ele>874</ele>
        <time>2015-06-21T11:33:44Z</time>
      </trkpt>
      <trkpt lat="45.4305" lon="5.67243">
        <ele>867</ele>
        <time>2015-06-21T11:33:46Z</time>
      </trkpt>
      <trkpt lat="45.43048" lon="5.67228">
        <ele>867</ele>
        <time>2015-06-21T11:33:48Z</time>
      </trkpt>
      <trkpt lat="45.43048" lon="5.67214">
        <ele>867</ele>
        <time>2015-06-21T11:33:50Z</time>
      </trkpt>
      <trkpt lat="45.43043" lon="5.672">
        <ele>866</ele>
        <time>2015-06-21T11:33:53Z</time>
      </trkpt>
      <trkpt lat="45.43033" lon="5.67187">
        <ele>866</ele>
        <time>2015-06-21T11:33:57Z</time>
      </trkpt>
      <trkpt lat="45.43027" lon="5.67178">
        <ele>866</ele>
        <time>2015-06-21T11:33:59Z</time>
      </trkpt>
      <trkpt lat="45.43021" lon="5.67168">
        <ele>866</ele>
        <time>2015-06-21T11:34:01Z</time>
      </trkpt>
      <trkpt lat="45.43015" lon="5.67157">
        <ele>865</ele>
        <time>2015-06-21T11:34:03Z</time>
      </trkpt>
      <trkpt lat="45.43008" lon="5.67148">
        <ele>865</ele>
        <time>2015-06-21T11:34:05Z</time>
      </trkpt>
      <trkpt lat="45.42997" lon="5.67139">
        <ele>869</ele>
        <time>2015-06-21T11:34:08Z</time>
      </trkpt>
      <trkpt lat="45.42986" lon="5.67129">
        <ele>869</ele>
        <time>2015-06-21T11:34:11Z</time>
      </trkpt>
      <trkpt lat="45.42977" lon="5.67118">
        <ele>870</ele>
        <time>2015-06-21T11:34:14Z</time>
      </trkpt>
      <trkpt lat="45.42969" lon="5.67106">
        <ele>870</ele>
        <time>2015-06-21T11:34:17Z</time>
      </trkpt>
      <trkpt lat="45.42961" lon="5.67092">
        <ele>870</ele>
        <time>2015-06-21T11:34:20Z</time>
      </trkpt>
      <trkpt lat="45.42956" lon="5.67081">
        <ele>873</ele>
        <time>2015-06-21T11:34:22Z</time>
      </trkpt>
      <trkpt lat="45.42948" lon="5.67069">
        <ele>873</ele>
        <time>2015-06-21T11:34:24Z</time>
      </trkpt>
      <trkpt lat="45.42943" lon="5.67056">
        <ele>874</ele>
        <time>2015-06-21T11:34:26Z</time>
      </trkpt>
      <trkpt lat="45.42938" lon="5.67043">
        <ele>875</ele>
        <time>2015-06-21T11:34:28Z</time>
      </trkpt>
      <trkpt lat="45.42932" lon="5.67031">
        <ele>876</ele>
        <time>2015-06-21T11:34:30Z</time>
      </trkpt>
      <trkpt lat="45.42925" lon="5.6702">
        <ele>878</ele>
        <time>2015-06-21T11:34:32Z</time>
      </trkpt>
      <trkpt lat="45.42918" lon="5.6701">
        <ele>880</ele>
        <time>2015-06-21T11:34:34Z</time>
      </trkpt>
      <trkpt lat="45.42911" lon="5.66999">
        <ele>884</ele>
        <time>2015-06-21T11:34:36Z</time>
      </trkpt>
      <trkpt lat="45.42905" lon="5.66987">
        <ele>886</ele>
        <time>2015-06-21T11:34:38Z</time>
      </trkpt>
      <trkpt lat="45.42901" lon="5.66976">
        <ele>887</ele>
        <time>2015-06-21T11:34:40Z</time>
      </trkpt>
      <trkpt lat="45.42895" lon="5.66963">
        <ele>887</ele>
        <time>2015-06-21T11:34:43Z</time>
      </trkpt>
      <trkpt lat="45.42893" lon="5.66948">
        <ele>887</ele>
        <time>2015-06-21T11:34:48Z</time>
      </trkpt>
      <trkpt lat="45.42891" lon="5.66935">
        <ele>886</ele>
        <time>2015-06-21T11:34:54Z</time>
      </trkpt>
      <trkpt lat="45.42889" lon="5.66922">
        <ele>886</ele>
        <time>2015-06-21T11:35:01Z</time>
      </trkpt>
      <trkpt lat="45.42885" lon="5.6691">
        <ele>883</ele>
        <time>2015-06-21T11:35:09Z</time>
      </trkpt>
      <trkpt lat="45.42882" lon="5.66898">
        <ele>883</ele>
        <time>2015-06-21T11:35:16Z</time>
      </trkpt>
      <trkpt lat="45.42878" lon="5.66886">
        <ele>883</ele>
        <time>2015-06-21T11:35:23Z</time>
      </trkpt>
      <trkpt lat="45.42871" lon="5.66875">
        <ele>884</ele>
        <time>2015-06-21T11:35:30Z</time>
      </trkpt>
      <trkpt lat="45.42865" lon="5.66864">
        <ele>884</ele>
        <time>2015-06-21T11:35:36Z</time>
      </trkpt>
      <trkpt lat="45.42859" lon="5.66853">
        <ele>885</ele>
        <time>2015-06-21T11:35:41Z</time>
      </trkpt>
      <trkpt lat="45.42855" lon="5.66841">
        <ele>885</ele>
        <time>2015-06-21T11:35:45Z</time>
      </trkpt>
      <trkpt lat="45.4285" lon="5.66829">
        <ele>882</ele>
        <time>2015-06-21T11:35:49Z</time>
      </trkpt>
      <trkpt lat="45.42844" lon="5.66816">
        <ele>882</ele>
        <time>2015-06-21T11:35:53Z</time>
      </trkpt>
      <trkpt lat="45.42838" lon="5.66805">
        <ele>880</ele>
        <time>2015-06-21T11:35:56Z</time>
      </trkpt>
      <trkpt lat="45.42833" lon="5.66793">
        <ele>888</ele>
        <time>2015-06-21T11:35:59Z</time>
      </trkpt>
      <trkpt lat="45.42827" lon="5.66781">
        <ele>887</ele>
        <time>2015-06-21T11:36:02Z</time>
      </trkpt>
      <trkpt lat="45.42821" lon="5.66771">
        <ele>886</ele>
        <time>2015-06-21T11:36:05Z</time>
      </trkpt>
      <trkpt lat="45.42817" lon="5.66759">
        <ele>885</ele>
        <time>2015-06-21T11:36:08Z</time>
      </trkpt>
      <trkpt lat="45.42812" lon="5.66746">
        <ele>884</ele>
        <time>2015-06-21T11:36:11Z</time>
      </trkpt>
      <trkpt lat="45.42807" lon="5.66734">
        <ele>884</ele>
        <time>2015-06-21T11:36:14Z</time>
      </trkpt>
      <trkpt lat="45.42802" lon="5.6672">
        <ele>885</ele>
        <time>2015-06-21T11:36:18Z</time>
      </trkpt>
      <trkpt lat="45.42797" lon="5.66704">
        <ele>885</ele>
        <time>2015-06-21T11:36:22Z</time>
      </trkpt>
      <trkpt lat="45.42796" lon="5.66691">
        <ele>885</ele>
        <time>2015-06-21T11:36:25Z</time>
      </trkpt>
      <trkpt lat="45.42791" lon="5.66678">
        <ele>886</ele>
        <time>2015-06-21T11:36:28Z</time>
      </trkpt>
      <trkpt lat="45.42783" lon="5.66672">
        <ele>887</ele>
        <time>2015-06-21T11:36:31Z</time>
      </trkpt>
      <trkpt lat="45.42773" lon="5.66668">
        <ele>888</ele>
        <time>2015-06-21T11:36:34Z</time>
      </trkpt>
      <trkpt lat="45.42767" lon="5.66659">
        <ele>888</ele>
        <time>2015-06-21T11:36:37Z</time>
      </trkpt>
      <trkpt lat="45.42761" lon="5.66649">
        <ele>888</ele>
        <time>2015-06-21T11:36:40Z</time>
      </trkpt>
      <trkpt lat="45.42757" lon="5.66636">
        <ele>887</ele>
        <time>2015-06-21T11:36:44Z</time>
      </trkpt>
      <trkpt lat="45.42751" lon="5.66624">
        <ele>887</ele>
        <time>2015-06-21T11:36:47Z</time>
      </trkpt>
      <trkpt lat="45.42744" lon="5.6661">
        <ele>888</ele>
        <time>2015-06-21T11:36:50Z</time>
      </trkpt>
      <trkpt lat="45.4274" lon="5.66596">
        <ele>888</ele>
        <time>2015-06-21T11:36:53Z</time>
      </trkpt>
      <trkpt lat="45.42735" lon="5.66579">
        <ele>887</ele>
        <time>2015-06-21T11:36:56Z</time>
      </trkpt>
      <trkpt lat="45.42732" lon="5.66565">
        <ele>886</ele>
        <time>2015-06-21T11:36:58Z</time>
      </trkpt>
      <trkpt lat="45.42727" lon="5.66551">
        <ele>886</ele>
        <time>2015-06-21T11:37:01Z</time>
      </trkpt>
      <trkpt lat="45.4272" lon="5.66541">
        <ele>886</ele>
        <time>2015-06-21T11:37:08Z</time>
      </trkpt>
      <trkpt lat="45.42715" lon="5.6653">
        <ele>886</ele>
        <time>2015-06-21T11:37:14Z</time>
      </trkpt>
      <trkpt lat="45.42713" lon="5.66516">
        <ele>885</ele>
        <time>2015-06-21T11:37:23Z</time>
      </trkpt>
      <trkpt lat="45.4271" lon="5.66503">
        <ele>885</ele>
        <time>2015-06-21T11:37:33Z</time>
      </trkpt>
      <trkpt lat="45.42705" lon="5.66492">
        <ele>882</ele>
        <time>2015-06-21T11:37:37Z</time>
      </trkpt>
      <trkpt lat="45.42701" lon="5.66478">
        <ele>882</ele>
        <time>2015-06-21T11:37:41Z</time>
      </trkpt>
      <trkpt lat="45.42694" lon="5.66467">
        <ele>882</ele>
        <time>2015-06-21T11:37:46Z</time>
      </trkpt>
      <trkpt lat="45.42687" lon="5.66458">
        <ele>882</ele>
        <time>2015-06-21T11:37:50Z</time>
      </trkpt>
      <trkpt lat="45.42679" lon="5.66447">
        <ele>882</ele>
        <time>2015-06-21T11:37:55Z</time>
      </trkpt>
      <trkpt lat="45.42672" lon="5.66438">
        <ele>882</ele>
        <time>2015-06-21T11:37:58Z</time>
      </trkpt>
      <trkpt lat="45.42666" lon="5.66427">
        <ele>883</ele>
        <time>2015-06-21T11:38:01Z</time>
      </trkpt>
      <trkpt lat="45.42657" lon="5.66415">
        <ele>882</ele>
        <time>2015-06-21T11:38:05Z</time>
      </trkpt>
      <trkpt lat="45.42651" lon="5.66404">
        <ele>881</ele>
        <time>2015-06-21T11:38:08Z</time>
      </trkpt>
      <trkpt lat="45.42644" lon="5.66393">
        <ele>881</ele>
        <time>2015-06-21T11:38:12Z</time>
      </trkpt>
      <trkpt lat="45.42638" lon="5.66383">
        <ele>880</ele>
        <time>2015-06-21T11:38:15Z</time>
      </trkpt>
      <trkpt lat="45.42632" lon="5.66372">
        <ele>880</ele>
        <time>2015-06-21T11:38:18Z</time>
      </trkpt>
      <trkpt lat="45.42625" lon="5.6636">
        <ele>880</ele>
        <time>2015-06-21T11:38:22Z</time>
      </trkpt>
      <trkpt lat="45.4262" lon="5.66347">
        <ele>880</ele>
        <time>2015-06-21T11:38:26Z</time>
      </trkpt>
      <trkpt lat="45.42614" lon="5.66337">
        <ele>880</ele>
        <time>2015-06-21T11:38:30Z</time>
      </trkpt>
      <trkpt lat="45.42608" lon="5.66326">
        <ele>879</ele>
        <time>2015-06-21T11:38:35Z</time>
      </trkpt>
      <trkpt lat="45.42601" lon="5.66317">
        <ele>880</ele>
        <time>2015-06-21T11:38:40Z</time>
      </trkpt>
      <trkpt lat="45.42591" lon="5.6632">
        <ele>881</ele>
        <time>2015-06-21T11:38:52Z</time>
      </trkpt>
      <trkpt lat="45.42581" lon="5.6632">
        <ele>884</ele>
        <time>2015-06-21T11:38:59Z</time>
      </trkpt>
      <trkpt lat="45.42579" lon="5.66333">
        <ele>883</ele>
        <time>2015-06-21T11:39:11Z</time>
      </trkpt>
      <trkpt lat="45.42577" lon="5.66347">
        <ele>882</ele>
        <time>2015-06-21T11:39:20Z</time>
      </trkpt>
      <trkpt lat="45.42578" lon="5.6636">
        <ele>881</ele>
        <time>2015-06-21T11:39:27Z</time>
      </trkpt>
      <trkpt lat="45.42581" lon="5.66373">
        <ele>881</ele>
        <time>2015-06-21T11:39:31Z</time>
      </trkpt>
      <trkpt lat="45.42585" lon="5.66386">
        <ele>882</ele>
        <time>2015-06-21T11:39:35Z</time>
      </trkpt>
      <trkpt lat="45.4259" lon="5.66397">
        <ele>882</ele>
        <time>2015-06-21T11:39:40Z</time>
      </trkpt>
      <trkpt lat="45.42596" lon="5.66411">
        <ele>882</ele>
        <time>2015-06-21T11:39:44Z</time>
      </trkpt>
      <trkpt lat="45.426" lon="5.66423">
        <ele>883</ele>
        <time>2015-06-21T11:39:48Z</time>
      </trkpt>
      <trkpt lat="45.42604" lon="5.66434">
        <ele>883</ele>
        <time>2015-06-21T11:39:52Z</time>
      </trkpt>
      <trkpt lat="45.42609" lon="5.66448">
        <ele>882</ele>
        <time>2015-06-21T11:39:58Z</time>
      </trkpt>
      <trkpt lat="45.42615" lon="5.66458">
        <ele>882</ele>
        <time>2015-06-21T11:40:02Z</time>
      </trkpt>
      <trkpt lat="45.42622" lon="5.66469">
        <ele>883</ele>
        <time>2015-06-21T11:40:07Z</time>
      </trkpt>
      <trkpt lat="45.42628" lon="5.66479">
        <ele>883</ele>
        <time>2015-06-21T11:40:11Z</time>
      </trkpt>
      <trkpt lat="45.42631" lon="5.66492">
        <ele>883</ele>
        <time>2015-06-21T11:40:16Z</time>
      </trkpt>
      <trkpt lat="45.42637" lon="5.66503">
        <ele>882</ele>
        <time>2015-06-21T11:40:20Z</time>
      </trkpt>
      <trkpt lat="45.42644" lon="5.66513">
        <ele>883</ele>
        <time>2015-06-21T11:40:25Z</time>
      </trkpt>
      <trkpt lat="45.42649" lon="5.66524">
        <ele>883</ele>
        <time>2015-06-21T11:40:29Z</time>
      </trkpt>
      <trkpt lat="45.42654" lon="5.66535">
        <ele>882</ele>
        <time>2015-06-21T11:40:34Z</time>
      </trkpt>
      <trkpt lat="45.42658" lon="5.66549">
        <ele>883</ele>
        <time>2015-06-21T11:40:39Z</time>
      </trkpt>
      <trkpt lat="45.42662" lon="5.66562">
        <ele>884</ele>
        <time>2015-06-21T11:40:43Z</time>
      </trkpt>
      <trkpt lat="45.42666" lon="5.66574">
        <ele>886</ele>
        <time>2015-06-21T11:40:47Z</time>
      </trkpt>
      <trkpt lat="45.42673" lon="5.66586">
        <ele>889</ele>
        <time>2015-06-21T11:40:52Z</time>
      </trkpt>
      <trkpt lat="45.42677" lon="5.66599">
        <ele>888</ele>
        <time>2015-06-21T11:40:56Z</time>
      </trkpt>
      <trkpt lat="45.42684" lon="5.66609">
        <ele>888</ele>
        <time>2015-06-21T11:41:01Z</time>
      </trkpt>
      <trkpt lat="45.42689" lon="5.66622">
        <ele>888</ele>
        <time>2015-06-21T11:41:06Z</time>
      </trkpt>
      <trkpt lat="45.42693" lon="5.66635">
        <ele>888</ele>
        <time>2015-06-21T11:41:11Z</time>
      </trkpt>
      <trkpt lat="45.42698" lon="5.66646">
        <ele>888</ele>
        <time>2015-06-21T11:41:15Z</time>
      </trkpt>
      <trkpt lat="45.42703" lon="5.6666">
        <ele>888</ele>
        <time>2015-06-21T11:41:20Z</time>
      </trkpt>
      <trkpt lat="45.42706" lon="5.66673">
        <ele>887</ele>
        <time>2015-06-21T11:41:25Z</time>
      </trkpt>
      <trkpt lat="45.42711" lon="5.66686">
        <ele>887</ele>
        <time>2015-06-21T11:41:30Z</time>
      </trkpt>
      <trkpt lat="45.42716" lon="5.667">
        <ele>887</ele>
        <time>2015-06-21T11:41:35Z</time>
      </trkpt>
      <trkpt lat="45.4272" lon="5.66713">
        <ele>888</ele>
        <time>2015-06-21T11:41:39Z</time>
      </trkpt>
      <trkpt lat="45.42725" lon="5.66727">
        <ele>889</ele>
        <time>2015-06-21T11:41:43Z</time>
      </trkpt>
      <trkpt lat="45.42728" lon="5.6674">
        <ele>890</ele>
        <time>2015-06-21T11:41:47Z</time>
      </trkpt>
      <trkpt lat="45.42732" lon="5.66755">
        <ele>889</ele>
        <time>2015-06-21T11:41:52Z</time>
      </trkpt>
      <trkpt lat="45.42737" lon="5.66769">
        <ele>888</ele>
        <time>2015-06-21T11:41:56Z</time>
      </trkpt>
      <trkpt lat="45.4274" lon="5.66782">
        <ele>887</ele>
        <time>2015-06-21T11:42:01Z</time>
      </trkpt>
      <trkpt lat="45.42743" lon="5.66796">
        <ele>887</ele>
        <time>2015-06-21T11:42:06Z</time>
      </trkpt>
      <trkpt lat="45.42747" lon="5.66809">
        <ele>888</ele>
        <time>2015-06-21T11:42:11Z</time>
      </trkpt>
      <trkpt lat="45.4275" lon="5.66823">
        <ele>894</ele>
        <time>2015-06-21T11:42:16Z</time>
      </trkpt>
      <trkpt lat="45.42755" lon="5.66835">
        <ele>895</ele>
        <time>2015-06-21T11:42:21Z</time>
      </trkpt>
      <trkpt lat="45.4276" lon="5.66845">
        <ele>894</ele>
        <time>2015-06-21T11:42:25Z</time>
      </trkpt>
      <trkpt lat="45.42766" lon="5.66858">
        <ele>893</ele>
        <time>2015-06-21T11:42:30Z</time>
      </trkpt>
      <trkpt lat="45.42769" lon="5.66871">
        <ele>893</ele>
        <time>2015-06-21T11:42:35Z</time>
      </trkpt>
      <trkpt lat="45.42774" lon="5.66882">
        <ele>893</ele>
        <time>2015-06-21T11:42:41Z</time>
      </trkpt>
      <trkpt lat="45.42778" lon="5.66894">
        <ele>892</ele>
        <time>2015-06-21T11:42:45Z</time>
      </trkpt>
      <trkpt lat="45.42778" lon="5.66908">
        <ele>892</ele>
        <time>2015-06-21T11:42:53Z</time>
      </trkpt>
      <trkpt lat="45.42781" lon="5.6692">
        <ele>892</ele>
        <time>2015-06-21T11:42:58Z</time>
      </trkpt>
      <trkpt lat="45.42786" lon="5.66931">
        <ele>893</ele>
        <time>2015-06-21T11:43:03Z</time>
      </trkpt>
      <trkpt lat="45.4279" lon="5.66943">
        <ele>893</ele>
        <time>2015-06-21T11:43:10Z</time>
      </trkpt>
      <trkpt lat="45.4279" lon="5.66956">
        <ele>893</ele>
        <time>2015-06-21T11:43:16Z</time>
      </trkpt>
      <trkpt lat="45.42792" lon="5.66969">
        <ele>893</ele>
        <time>2015-06-21T11:43:23Z</time>
      </trkpt>
      <trkpt lat="45.42793" lon="5.66982">
        <ele>893</ele>
        <time>2015-06-21T11:43:28Z</time>
      </trkpt>
      <trkpt lat="45.42792" lon="5.66996">
        <ele>893</ele>
        <time>2015-06-21T11:43:33Z</time>
      </trkpt>
      <trkpt lat="45.4279" lon="5.6701">
        <ele>893</ele>
        <time>2015-06-21T11:43:37Z</time>
      </trkpt>
      <trkpt lat="45.42789" lon="5.67024">
        <ele>893</ele>
        <time>2015-06-21T11:43:41Z</time>
      </trkpt>
      <trkpt lat="45.4279" lon="5.6704">
        <ele>893</ele>
        <time>2015-06-21T11:43:45Z</time>
      </trkpt>
      <trkpt lat="45.42788" lon="5.67053">
        <ele>893</ele>
        <time>2015-06-21T11:43:49Z</time>
      </trkpt>
      <trkpt lat="45.4278" lon="5.6706">
        <ele>893</ele>
        <time>2015-06-21T11:43:58Z</time>
      </trkpt>
      <trkpt lat="45.42772" lon="5.67072">
        <ele>892</ele>
        <time>2015-06-21T11:44:02Z</time>
      </trkpt>
      <trkpt lat="45.42765" lon="5.67083">
        <ele>892</ele>
        <time>2015-06-21T11:44:05Z</time>
      </trkpt>
      <trkpt lat="45.42756" lon="5.67094">
        <ele>892</ele>
        <time>2015-06-21T11:44:08Z</time>
      </trkpt>
      <trkpt lat="45.42746" lon="5.67094">
        <ele>886</ele>
        <time>2015-06-21T11:44:11Z</time>
      </trkpt>
      <trkpt lat="45.42741" lon="5.67077">
        <ele>884</ele>
        <time>2015-06-21T11:44:14Z</time>
      </trkpt>
      <trkpt lat="45.42732" lon="5.67063">
        <ele>878</ele>
        <time>2015-06-21T11:44:17Z</time>
      </trkpt>
      <trkpt lat="45.42722" lon="5.67062">
        <ele>875</ele>
        <time>2015-06-21T11:44:19Z</time>
      </trkpt>
      <trkpt lat="45.42711" lon="5.6707">
        <ele>873</ele>
        <time>2015-06-21T11:44:22Z</time>
      </trkpt>
      <trkpt lat="45.42704" lon="5.67082">
        <ele>871</ele>
        <time>2015-06-21T11:44:24Z</time>
      </trkpt>
      <trkpt lat="45.42698" lon="5.67095">
        <ele>874</ele>
        <time>2015-06-21T11:44:26Z</time>
      </trkpt>
      <trkpt lat="45.4269" lon="5.67109">
        <ele>873</ele>
        <time>2015-06-21T11:44:28Z</time>
      </trkpt>
      <trkpt lat="45.42681" lon="5.67124">
        <ele>873</ele>
        <time>2015-06-21T11:44:30Z</time>
      </trkpt>
      <trkpt lat="45.42673" lon="5.67136">
        <ele>873</ele>
        <time>2015-06-21T11:44:32Z</time>
      </trkpt>
      <trkpt lat="45.42668" lon="5.67148">
        <ele>871</ele>
        <time>2015-06-21T11:44:35Z</time>
      </trkpt>
      <trkpt lat="45.42671" lon="5.6716">
        <ele>870</ele>
        <time>2015-06-21T11:44:39Z</time>
      </trkpt>
      <trkpt lat="45.42672" lon="5.67175">
        <ele>872</ele>
        <time>2015-06-21T11:44:44Z</time>
      </trkpt>
      <trkpt lat="45.42671" lon="5.67189">
        <ele>876</ele>
        <time>2015-06-21T11:44:49Z</time>
      </trkpt>
      <trkpt lat="45.42666" lon="5.67203">
        <ele>866</ele>
        <time>2015-06-21T11:44:54Z</time>
      </trkpt>
      <trkpt lat="45.4266" lon="5.67213">
        <ele>867</ele>
        <time>2015-06-21T11:44:58Z</time>
      </trkpt>
      <trkpt lat="45.42653" lon="5.67223">
        <ele>867</ele>
        <time>2015-06-21T11:45:02Z</time>
      </trkpt>
      <trkpt lat="45.42645" lon="5.67232">
        <ele>868</ele>
        <time>2015-06-21T11:45:06Z</time>
      </trkpt>
      <trkpt lat="45.42638" lon="5.67238">
        <ele>867</ele>
        <time>2015-06-21T11:45:35Z</time>
      </trkpt>
      <trkpt lat="45.42644" lon="5.67248">
        <ele>869</ele>
        <time>2015-06-21T11:47:09Z</time>
      </trkpt>
      <trkpt lat="45.42635" lon="5.67255">
        <ele>875</ele>
        <time>2015-06-21T11:49:39Z</time>
      </trkpt>
      <trkpt lat="45.42627" lon="5.67266">
        <ele>875</ele>
        <time>2015-06-21T11:49:45Z</time>
      </trkpt>
      <trkpt lat="45.4262" lon="5.67277">
        <ele>875</ele>
        <time>2015-06-21T11:49:50Z</time>
      </trkpt>
      <trkpt lat="45.42613" lon="5.67286">
        <ele>876</ele>
        <time>2015-06-21T11:49:55Z</time>
      </trkpt>
      <trkpt lat="45.42605" lon="5.67294">
        <ele>876</ele>
        <time>2015-06-21T11:50:00Z</time>
      </trkpt>
      <trkpt lat="45.42597" lon="5.67301">
        <ele>877</ele>
        <time>2015-06-21T11:50:04Z</time>
      </trkpt>
      <trkpt lat="45.42588" lon="5.67306">
        <ele>877</ele>
        <time>2015-06-21T11:50:08Z</time>
      </trkpt>
      <trkpt lat="45.42578" lon="5.67313">
        <ele>871</ele>
        <time>2015-06-21T11:50:13Z</time>
      </trkpt>
      <trkpt lat="45.42571" lon="5.67323">
        <ele>873</ele>
        <time>2015-06-21T11:50:18Z</time>
      </trkpt>
      <trkpt lat="45.42563" lon="5.67333">
        <ele>872</ele>
        <time>2015-06-21T11:50:23Z</time>
      </trkpt>
      <trkpt lat="45.42556" lon="5.67342">
        <ele>880</ele>
        <time>2015-06-21T11:50:27Z</time>
      </trkpt>
      <trkpt lat="45.42548" lon="5.67353">
        <ele>880</ele>
        <time>2015-06-21T11:50:32Z</time>
      </trkpt>
      <trkpt lat="45.42542" lon="5.67366">
        <ele>880</ele>
        <time>2015-06-21T11:50:37Z</time>
      </trkpt>
      <trkpt lat="45.4254" lon="5.67379">
        <ele>881</ele>
        <time>2015-06-21T11:50:41Z</time>
      </trkpt>
      <trkpt lat="45.42539" lon="5.67392">
        <ele>882</ele>
        <time>2015-06-21T11:50:45Z</time>
      </trkpt>
      <trkpt lat="45.42541" lon="5.67405">
        <ele>883</ele>
        <time>2015-06-21T11:50:49Z</time>
      </trkpt>
      <trkpt lat="45.42542" lon="5.67419">
        <ele>891</ele>
        <time>2015-06-21T11:50:53Z</time>
      </trkpt>
      <trkpt lat="45.4254" lon="5.67433">
        <ele>891</ele>
        <time>2015-06-21T11:50:57Z</time>
      </trkpt>
      <trkpt lat="45.42538" lon="5.67447">
        <ele>891</ele>
        <time>2015-06-21T11:51:02Z</time>
      </trkpt>
      <trkpt lat="45.42537" lon="5.6746">
        <ele>892</ele>
        <time>2015-06-21T11:51:07Z</time>
      </trkpt>
      <trkpt lat="45.42536" lon="5.67473">
        <ele>892</ele>
        <time>2015-06-21T11:51:12Z</time>
      </trkpt>
      <trkpt lat="45.42535" lon="5.67487">
        <ele>893</ele>
        <time>2015-06-21T11:51:17Z</time>
      </trkpt>
      <trkpt lat="45.42538" lon="5.675">
        <ele>893</ele>
        <time>2015-06-21T11:51:23Z</time>
      </trkpt>
      <trkpt lat="45.42542" lon="5.67513">
        <ele>898</ele>
        <time>2015-06-21T11:51:30Z</time>
      </trkpt>
      <trkpt lat="45.42547" lon="5.67525">
        <ele>899</ele>
        <time>2015-06-21T11:51:36Z</time>
      </trkpt>
      <trkpt lat="45.42552" lon="5.67536">
        <ele>899</ele>
        <time>2015-06-21T11:51:42Z</time>
      </trkpt>
      <trkpt lat="45.42557" lon="5.67547">
        <ele>900</ele>
        <time>2015-06-21T11:51:48Z</time>
      </trkpt>
      <trkpt lat="45.42553" lon="5.6756">
        <ele>901</ele>
        <time>2015-06-21T11:51:56Z</time>
      </trkpt>
      <trkpt lat="45.42548" lon="5.67572">
        <ele>901</ele>
        <time>2015-06-21T11:52:06Z</time>
      </trkpt>
      <trkpt lat="45.42546" lon="5.67586">
        <ele>906</ele>
        <time>2015-06-21T11:52:14Z</time>
      </trkpt>
      <trkpt lat="45.42544" lon="5.67599">
        <ele>906</ele>
        <time>2015-06-21T11:52:20Z</time>
      </trkpt>
      <trkpt lat="45.4254" lon="5.67613">
        <ele>906</ele>
        <time>2015-06-21T11:52:26Z</time>
      </trkpt>
      <trkpt lat="45.42536" lon="5.67628">
        <ele>907</ele>
        <time>2015-06-21T11:52:30Z</time>
      </trkpt>
      <trkpt lat="45.42532" lon="5.67642">
        <ele>907</ele>
        <time>2015-06-21T11:52:33Z</time>
      </trkpt>
      <trkpt lat="45.42526" lon="5.6766">
        <ele>906</ele>
        <time>2015-06-21T11:52:36Z</time>
      </trkpt>
      <trkpt lat="45.42522" lon="5.67675">
        <ele>905</ele>
        <time>2015-06-21T11:52:38Z</time>
      </trkpt>
      <trkpt lat="45.4252" lon="5.6769">
        <ele>905</ele>
        <time>2015-06-21T11:52:40Z</time>
      </trkpt>
      <trkpt lat="45.42521" lon="5.67706">
        <ele>905</ele>
        <time>2015-06-21T11:52:42Z</time>
      </trkpt>
      <trkpt lat="45.42522" lon="5.67719">
        <ele>904</ele>
        <time>2015-06-21T11:52:44Z</time>
      </trkpt>
      <trkpt lat="45.42524" lon="5.67732">
        <ele>903</ele>
        <time>2015-06-21T11:52:46Z</time>
      </trkpt>
      <trkpt lat="45.42527" lon="5.67748">
        <ele>903</ele>
        <time>2015-06-21T11:52:48Z</time>
      </trkpt>
      <trkpt lat="45.42532" lon="5.67764">
        <ele>897</ele>
        <time>2015-06-21T11:52:50Z</time>
      </trkpt>
      <trkpt lat="45.42539" lon="5.67777">
        <ele>897</ele>
        <time>2015-06-21T11:52:52Z</time>
      </trkpt>
      <trkpt lat="45.42544" lon="5.67787">
        <ele>897</ele>
        <time>2015-06-21T11:52:54Z</time>
      </trkpt>
      <trkpt lat="45.42545" lon="5.67802">
        <ele>896</ele>
        <time>2015-06-21T11:52:58Z</time>
      </trkpt>
      <trkpt lat="45.42538" lon="5.67809">
        <ele>894</ele>
        <time>2015-06-21T11:53:05Z</time>
      </trkpt>
      <trkpt lat="45.42526" lon="5.67804">
        <ele>894</ele>
        <time>2015-06-21T11:53:10Z</time>
      </trkpt>
      <trkpt lat="45.42515" lon="5.67797">
        <ele>893</ele>
        <time>2015-06-21T11:53:13Z</time>
      </trkpt>
      <trkpt lat="45.42506" lon="5.67793">
        <ele>893</ele>
        <time>2015-06-21T11:53:15Z</time>
      </trkpt>
      <trkpt lat="45.42496" lon="5.67784">
        <ele>882</ele>
        <time>2015-06-21T11:53:18Z</time>
      </trkpt>
      <trkpt lat="45.42487" lon="5.67775">
        <ele>883</ele>
        <time>2015-06-21T11:53:22Z</time>
      </trkpt>
      <trkpt lat="45.42479" lon="5.67767">
        <ele>883</ele>
        <time>2015-06-21T11:53:25Z</time>
      </trkpt>
      <trkpt lat="45.42468" lon="5.6776">
        <ele>882</ele>
        <time>2015-06-21T11:53:28Z</time>
      </trkpt>
      <trkpt lat="45.4246" lon="5.67751">
        <ele>880</ele>
        <time>2015-06-21T11:53:31Z</time>
      </trkpt>
      <trkpt lat="45.42453" lon="5.67738">
        <ele>886</ele>
        <time>2015-06-21T11:53:35Z</time>
      </trkpt>
      <trkpt lat="45.42445" lon="5.6773">
        <ele>885</ele>
        <time>2015-06-21T11:53:38Z</time>
      </trkpt>
      <trkpt lat="45.42437" lon="5.67721">
        <ele>884</ele>
        <time>2015-06-21T11:53:41Z</time>
      </trkpt>
      <trkpt lat="45.42428" lon="5.67716">
        <ele>884</ele>
        <time>2015-06-21T11:53:45Z</time>
      </trkpt>
      <trkpt lat="45.42416" lon="5.67716">
        <ele>870</ele>
        <time>2015-06-21T11:53:49Z</time>
      </trkpt>
      <trkpt lat="45.42406" lon="5.67714">
        <ele>870</ele>
        <time>2015-06-21T11:53:53Z</time>
      </trkpt>
      <trkpt lat="45.42396" lon="5.67714">
        <ele>869</ele>
        <time>2015-06-21T11:53:58Z</time>
      </trkpt>
      <trkpt lat="45.42387" lon="5.67713">
        <ele>868</ele>
        <time>2015-06-21T11:54:02Z</time>
      </trkpt>
      <trkpt lat="45.42378" lon="5.67705">
        <ele>868</ele>
        <time>2015-06-21T11:54:06Z</time>
      </trkpt>
      <trkpt lat="45.42369" lon="5.67703">
        <ele>867</ele>
        <time>2015-06-21T11:54:11Z</time>
      </trkpt>
      <trkpt lat="45.42359" lon="5.67704">
        <ele>866</ele>
        <time>2015-06-21T11:54:16Z</time>
      </trkpt>
      <trkpt lat="45.42349" lon="5.67705">
        <ele>865</ele>
        <time>2015-06-21T11:54:20Z</time>
      </trkpt>
      <trkpt lat="45.42339" lon="5.67712">
        <ele>863</ele>
        <time>2015-06-21T11:54:24Z</time>
      </trkpt>
      <trkpt lat="45.4233" lon="5.67718">
        <ele>850</ele>
        <time>2015-06-21T11:54:27Z</time>
      </trkpt>
      <trkpt lat="45.42321" lon="5.67727">
        <ele>849</ele>
        <time>2015-06-21T11:54:31Z</time>
      </trkpt>
      <trkpt lat="45.42314" lon="5.67736">
        <ele>848</ele>
        <time>2015-06-21T11:54:34Z</time>
      </trkpt>
      <trkpt lat="45.42304" lon="5.67735">
        <ele>847</ele>
        <time>2015-06-21T11:54:37Z</time>
      </trkpt>
      <trkpt lat="45.42294" lon="5.67736">
        <ele>846</ele>
        <time>2015-06-21T11:54:42Z</time>
      </trkpt>
      <trkpt lat="45.42284" lon="5.6774">
        <ele>844</ele>
        <time>2015-06-21T11:54:49Z</time>
      </trkpt>
      <trkpt lat="45.42273" lon="5.67738">
        <ele>842</ele>
        <time>2015-06-21T11:54:52Z</time>
      </trkpt>
      <trkpt lat="45.42261" lon="5.67736">
        <ele>840</ele>
        <time>2015-06-21T11:54:55Z</time>
      </trkpt>
      <trkpt lat="45.4225" lon="5.67737">
        <ele>838</ele>
        <time>2015-06-21T11:54:59Z</time>
      </trkpt>
      <trkpt lat="45.4224" lon="5.67745">
        <ele>831</ele>
        <time>2015-06-21T11:55:02Z</time>
      </trkpt>
      <trkpt lat="45.42234" lon="5.67754">
        <ele>826</ele>
        <time>2015-06-21T11:55:06Z</time>
      </trkpt>
      <trkpt lat="45.42232" lon="5.6777">
        <ele>823</ele>
        <time>2015-06-21T11:55:10Z</time>
      </trkpt>
      <trkpt lat="45.42237" lon="5.67784">
        <ele>822</ele>
        <time>2015-06-21T11:55:13Z</time>
      </trkpt>
      <trkpt lat="45.42242" lon="5.67799">
        <ele>821</ele>
        <time>2015-06-21T11:55:17Z</time>
      </trkpt>
      <trkpt lat="45.42248" lon="5.67809">
        <ele>821</ele>
        <time>2015-06-21T11:55:21Z</time>
      </trkpt>
      <trkpt lat="45.42253" lon="5.67824">
        <ele>825</ele>
        <time>2015-06-21T11:55:25Z</time>
      </trkpt>
      <trkpt lat="45.42257" lon="5.67835">
        <ele>822</ele>
        <time>2015-06-21T11:55:28Z</time>
      </trkpt>
      <trkpt lat="45.42263" lon="5.67847">
        <ele>822</ele>
        <time>2015-06-21T11:55:32Z</time>
      </trkpt>
      <trkpt lat="45.42268" lon="5.67859">
        <ele>822</ele>
        <time>2015-06-21T11:55:36Z</time>
      </trkpt>
      <trkpt lat="45.42273" lon="5.67871">
        <ele>822</ele>
        <time>2015-06-21T11:55:40Z</time>
      </trkpt>
      <trkpt lat="45.42276" lon="5.67888">
        <ele>821</ele>
        <time>2015-06-21T11:55:44Z</time>
      </trkpt>
      <trkpt lat="45.42278" lon="5.67901">
        <ele>820</ele>
        <time>2015-06-21T11:55:47Z</time>
      </trkpt>
      <trkpt lat="45.42278" lon="5.67916">
        <ele>819</ele>
        <time>2015-06-21T11:55:50Z</time>
      </trkpt>
      <trkpt lat="45.42278" lon="5.67929">
        <ele>814</ele>
        <time>2015-06-21T11:55:52Z</time>
      </trkpt>
      <trkpt lat="45.42279" lon="5.67944">
        <ele>814</ele>
        <time>2015-06-21T11:55:54Z</time>
      </trkpt>
      <trkpt lat="45.42282" lon="5.67961">
        <ele>813</ele>
        <time>2015-06-21T11:55:56Z</time>
      </trkpt>
      <trkpt lat="45.42286" lon="5.67976">
        <ele>813</ele>
        <time>2015-06-21T11:55:58Z</time>
      </trkpt>
      <trkpt lat="45.42288" lon="5.6799">
        <ele>813</ele>
        <time>2015-06-21T11:56:00Z</time>
      </trkpt>
      <trkpt lat="45.42291" lon="5.68003">
        <ele>808</ele>
        <time>2015-06-21T11:56:02Z</time>
      </trkpt>
      <trkpt lat="45.42297" lon="5.6802">
        <ele>808</ele>
        <time>2015-06-21T11:56:05Z</time>
      </trkpt>
      <trkpt lat="45.42302" lon="5.68034">
        <ele>808</ele>
        <time>2015-06-21T11:56:07Z</time>
      </trkpt>
      <trkpt lat="45.42306" lon="5.68048">
        <ele>807</ele>
        <time>2015-06-21T11:56:09Z</time>
      </trkpt>
      <trkpt lat="45.42311" lon="5.68064">
        <ele>807</ele>
        <time>2015-06-21T11:56:11Z</time>
      </trkpt>
      <trkpt lat="45.42314" lon="5.68081">
        <ele>807</ele>
        <time>2015-06-21T11:56:13Z</time>
      </trkpt>
      <trkpt lat="45.42318" lon="5.68098">
        <ele>803</ele>
        <time>2015-06-21T11:56:15Z</time>
      </trkpt>
      <trkpt lat="45.42325" lon="5.68115">
        <ele>801</ele>
        <time>2015-06-21T11:56:17Z</time>
      </trkpt>
      <trkpt lat="45.4233" lon="5.68131">
        <ele>800</ele>
        <time>2015-06-21T11:56:19Z</time>
      </trkpt>
      <trkpt lat="45.42337" lon="5.68142">
        <ele>808</ele>
        <time>2015-06-21T11:56:21Z</time>
      </trkpt>
      <trkpt lat="45.42344" lon="5.68152">
        <ele>807</ele>
        <time>2015-06-21T11:56:26Z</time>
      </trkpt>
      <trkpt lat="45.42353" lon="5.68161">
        <ele>808</ele>
        <time>2015-06-21T11:56:32Z</time>
      </trkpt>
      <trkpt lat="45.4236" lon="5.68169">
        <ele>803</ele>
        <time>2015-06-21T11:56:37Z</time>
      </trkpt>
      <trkpt lat="45.42369" lon="5.6818">
        <ele>803</ele>
        <time>2015-06-21T11:56:42Z</time>
      </trkpt>
      <trkpt lat="45.42376" lon="5.68191">
        <ele>803</ele>
        <time>2015-06-21T11:56:46Z</time>
      </trkpt>
      <trkpt lat="45.42382" lon="5.68203">
        <ele>803</ele>
        <time>2015-06-21T11:56:51Z</time>
      </trkpt>
      <trkpt lat="45.42391" lon="5.68212">
        <ele>803</ele>
        <time>2015-06-21T11:56:56Z</time>
      </trkpt>
      <trkpt lat="45.424" lon="5.68217">
        <ele>803</ele>
        <time>2015-06-21T11:57:00Z</time>
      </trkpt>
      <trkpt lat="45.42409" lon="5.68223">
        <ele>803</ele>
        <time>2015-06-21T11:57:03Z</time>
      </trkpt>
      <trkpt lat="45.42418" lon="5.68228">
        <ele>810</ele>
        <time>2015-06-21T11:57:06Z</time>
      </trkpt>
      <trkpt lat="45.42429" lon="5.68233">
        <ele>810</ele>
        <time>2015-06-21T11:57:10Z</time>
      </trkpt>
      <trkpt lat="45.4244" lon="5.68236">
        <ele>811</ele>
        <time>2015-06-21T11:57:14Z</time>
      </trkpt>
      <trkpt lat="45.42448" lon="5.68242">
        <ele>812</ele>
        <time>2015-06-21T11:57:19Z</time>
      </trkpt>
      <trkpt lat="45.42457" lon="5.68249">
        <ele>813</ele>
        <time>2015-06-21T11:57:24Z</time>
      </trkpt>
      <trkpt lat="45.42464" lon="5.68258">
        <ele>807</ele>
        <time>2015-06-21T11:57:28Z</time>
      </trkpt>
      <trkpt lat="45.42472" lon="5.68267">
        <ele>807</ele>
        <time>2015-06-21T11:57:32Z</time>
      </trkpt>
      <trkpt lat="45.4248" lon="5.68274">
        <ele>808</ele>
        <time>2015-06-21T11:57:36Z</time>
      </trkpt>
      <trkpt lat="45.42488" lon="5.68284">
        <ele>807</ele>
        <time>2015-06-21T11:57:41Z</time>
      </trkpt>
      <trkpt lat="45.42497" lon="5.68293">
        <ele>806</ele>
        <time>2015-06-21T11:57:46Z</time>
      </trkpt>
      <trkpt lat="45.42505" lon="5.68302">
        <ele>812</ele>
        <time>2015-06-21T11:57:51Z</time>
      </trkpt>
      <trkpt lat="45.42514" lon="5.6831">
        <ele>811</ele>
        <time>2015-06-21T11:57:55Z</time>
      </trkpt>
      <trkpt lat="45.42522" lon="5.68318">
        <ele>811</ele>
        <time>2015-06-21T11:57:59Z</time>
      </trkpt>
      <trkpt lat="45.42527" lon="5.68329">
        <ele>811</ele>
        <time>2015-06-21T11:58:02Z</time>
      </trkpt>
      <trkpt lat="45.42535" lon="5.68343">
        <ele>806</ele>
        <time>2015-06-21T11:58:05Z</time>
      </trkpt>
      <trkpt lat="45.42544" lon="5.68354">
        <ele>806</ele>
        <time>2015-06-21T11:58:08Z</time>
      </trkpt>
      <trkpt lat="45.42553" lon="5.68358">
        <ele>807</ele>
        <time>2015-06-21T11:58:12Z</time>
      </trkpt>
      <trkpt lat="45.42563" lon="5.68361">
        <ele>808</ele>
        <time>2015-06-21T11:58:18Z</time>
      </trkpt>
      <trkpt lat="45.42572" lon="5.68363">
        <ele>808</ele>
        <time>2015-06-21T11:58:23Z</time>
      </trkpt>
      <trkpt lat="45.42582" lon="5.68367">
        <ele>808</ele>
        <time>2015-06-21T11:58:28Z</time>
      </trkpt>
      <trkpt lat="45.42592" lon="5.68373">
        <ele>814</ele>
        <time>2015-06-21T11:58:33Z</time>
      </trkpt>
      <trkpt lat="45.42602" lon="5.68379">
        <ele>814</ele>
        <time>2015-06-21T11:58:38Z</time>
      </trkpt>
      <trkpt lat="45.4261" lon="5.68385">
        <ele>814</ele>
        <time>2015-06-21T11:58:42Z</time>
      </trkpt>
      <trkpt lat="45.42618" lon="5.68394">
        <ele>814</ele>
        <time>2015-06-21T11:58:47Z</time>
      </trkpt>
      <trkpt lat="45.42626" lon="5.68402">
        <ele>814</ele>
        <time>2015-06-21T11:58:51Z</time>
      </trkpt>
      <trkpt lat="45.42635" lon="5.68407">
        <ele>814</ele>
        <time>2015-06-21T11:58:55Z</time>
      </trkpt>
      <trkpt lat="45.42645" lon="5.6841">
        <ele>814</ele>
        <time>2015-06-21T11:58:59Z</time>
      </trkpt>
      <trkpt lat="45.42654" lon="5.68411">
        <ele>814</ele>
        <time>2015-06-21T11:59:04Z</time>
      </trkpt>
      <trkpt lat="45.42665" lon="5.68409">
        <ele>814</ele>
        <time>2015-06-21T11:59:10Z</time>
      </trkpt>
      <trkpt lat="45.42675" lon="5.68408">
        <ele>818</ele>
        <time>2015-06-21T11:59:15Z</time>
      </trkpt>
      <trkpt lat="45.42684" lon="5.68411">
        <ele>819</ele>
        <time>2015-06-21T11:59:20Z</time>
      </trkpt>
      <trkpt lat="45.42695" lon="5.68416">
        <ele>821</ele>
        <time>2015-06-21T11:59:25Z</time>
      </trkpt>
      <trkpt lat="45.42703" lon="5.68421">
        <ele>815</ele>
        <time>2015-06-21T11:59:29Z</time>
      </trkpt>
      <trkpt lat="45.42712" lon="5.68428">
        <ele>816</ele>
        <time>2015-06-21T11:59:33Z</time>
      </trkpt>
      <trkpt lat="45.42719" lon="5.68439">
        <ele>816</ele>
        <time>2015-06-21T11:59:37Z</time>
      </trkpt>
      <trkpt lat="45.42727" lon="5.68449">
        <ele>816</ele>
        <time>2015-06-21T11:59:40Z</time>
      </trkpt>
      <trkpt lat="45.42736" lon="5.68456">
        <ele>816</ele>
        <time>2015-06-21T11:59:43Z</time>
      </trkpt>
      <trkpt lat="45.42746" lon="5.68464">
        <ele>815</ele>
        <time>2015-06-21T11:59:46Z</time>
      </trkpt>
      <trkpt lat="45.42753" lon="5.68474">
        <ele>818</ele>
        <time>2015-06-21T11:59:48Z</time>
      </trkpt>
      <trkpt lat="45.42763" lon="5.68484">
        <ele>817</ele>
        <time>2015-06-21T11:59:51Z</time>
      </trkpt>
      <trkpt lat="45.42773" lon="5.6849">
        <ele>818</ele>
        <time>2015-06-21T11:59:54Z</time>
      </trkpt>
      <trkpt lat="45.42783" lon="5.68494">
        <ele>819</ele>
        <time>2015-06-21T11:59:58Z</time>
      </trkpt>
      <trkpt lat="45.42793" lon="5.685">
        <ele>819</ele>
        <time>2015-06-21T12:00:02Z</time>
      </trkpt>
      <trkpt lat="45.42795" lon="5.68515">
        <ele>813</ele>
        <time>2015-06-21T12:00:06Z</time>
      </trkpt>
      <trkpt lat="45.42791" lon="5.68529">
        <ele>812</ele>
        <time>2015-06-21T12:00:09Z</time>
      </trkpt>
      <trkpt lat="45.42788" lon="5.68542">
        <ele>811</ele>
        <time>2015-06-21T12:00:11Z</time>
      </trkpt>
      <trkpt lat="45.42784" lon="5.68555">
        <ele>810</ele>
        <time>2015-06-21T12:00:13Z</time>
      </trkpt>
      <trkpt lat="45.42781" lon="5.68567">
        <ele>809</ele>
        <time>2015-06-21T12:00:15Z</time>
      </trkpt>
      <trkpt lat="45.42777" lon="5.68583">
        <ele>809</ele>
        <time>2015-06-21T12:00:18Z</time>
      </trkpt>
      <trkpt lat="45.42772" lon="5.686">
        <ele>803</ele>
        <time>2015-06-21T12:00:21Z</time>
      </trkpt>
      <trkpt lat="45.42769" lon="5.68618">
        <ele>802</ele>
        <time>2015-06-21T12:00:24Z</time>
      </trkpt>
      <trkpt lat="45.42764" lon="5.68633">
        <ele>801</ele>
        <time>2015-06-21T12:00:27Z</time>
      </trkpt>
      <trkpt lat="45.42759" lon="5.68644">
        <ele>800</ele>
        <time>2015-06-21T12:00:29Z</time>
      </trkpt>
      <trkpt lat="45.42751" lon="5.68655">
        <ele>798</ele>
        <time>2015-06-21T12:00:31Z</time>
      </trkpt>
      <trkpt lat="45.42743" lon="5.68667">
        <ele>796</ele>
        <time>2015-06-21T12:00:33Z</time>
      </trkpt>
      <trkpt lat="45.42735" lon="5.68679">
        <ele>791</ele>
        <time>2015-06-21T12:00:35Z</time>
      </trkpt>
      <trkpt lat="45.42728" lon="5.6869">
        <ele>790</ele>
        <time>2015-06-21T12:00:38Z</time>
      </trkpt>
      <trkpt lat="45.42716" lon="5.6869">
        <ele>790</ele>
        <time>2015-06-21T12:00:42Z</time>
      </trkpt>
      <trkpt lat="45.42705" lon="5.68688">
        <ele>790</ele>
        <time>2015-06-21T12:00:45Z</time>
      </trkpt>
      <trkpt lat="45.42693" lon="5.68691">
        <ele>789</ele>
        <time>2015-06-21T12:00:48Z</time>
      </trkpt>
      <trkpt lat="45.42681" lon="5.68693">
        <ele>789</ele>
        <time>2015-06-21T12:00:51Z</time>
      </trkpt>
      <trkpt lat="45.42667" lon="5.68695">
        <ele>789</ele>
        <time>2015-06-21T12:00:54Z</time>
      </trkpt>
      <trkpt lat="45.42657" lon="5.68691">
        <ele>786</ele>
        <time>2015-06-21T12:00:57Z</time>
      </trkpt>
      <trkpt lat="45.42651" lon="5.68678">
        <ele>787</ele>
        <time>2015-06-21T12:01:00Z</time>
      </trkpt>
      <trkpt lat="45.42641" lon="5.68666">
        <ele>789</ele>
        <time>2015-06-21T12:01:03Z</time>
      </trkpt>
      <trkpt lat="45.42633" lon="5.68658">
        <ele>788</ele>
        <time>2015-06-21T12:01:05Z</time>
      </trkpt>
      <trkpt lat="45.42626" lon="5.68648">
        <ele>787</ele>
        <time>2015-06-21T12:01:07Z</time>
      </trkpt>
      <trkpt lat="45.42619" lon="5.68634">
        <ele>787</ele>
        <time>2015-06-21T12:01:10Z</time>
      </trkpt>
      <trkpt lat="45.42614" lon="5.68623">
        <ele>787</ele>
        <time>2015-06-21T12:01:13Z</time>
      </trkpt>
      <trkpt lat="45.42607" lon="5.68612">
        <ele>787</ele>
        <time>2015-06-21T12:01:15Z</time>
      </trkpt>
      <trkpt lat="45.426" lon="5.68602">
        <ele>786</ele>
        <time>2015-06-21T12:01:17Z</time>
      </trkpt>
      <trkpt lat="45.42592" lon="5.68589">
        <ele>784</ele>
        <time>2015-06-21T12:01:20Z</time>
      </trkpt>
      <trkpt lat="45.42586" lon="5.68579">
        <ele>785</ele>
        <time>2015-06-21T12:01:22Z</time>
      </trkpt>
      <trkpt lat="45.42579" lon="5.6857">
        <ele>782</ele>
        <time>2015-06-21T12:01:24Z</time>
      </trkpt>
      <trkpt lat="45.42566" lon="5.68564">
        <ele>782</ele>
        <time>2015-06-21T12:01:27Z</time>
      </trkpt>
      <trkpt lat="45.42558" lon="5.68558">
        <ele>782</ele>
        <time>2015-06-21T12:01:29Z</time>
      </trkpt>
      <trkpt lat="45.42549" lon="5.68553">
        <ele>781</ele>
        <time>2015-06-21T12:01:31Z</time>
      </trkpt>
      <trkpt lat="45.4254" lon="5.68546">
        <ele>781</ele>
        <time>2015-06-21T12:01:34Z</time>
      </trkpt>
      <trkpt lat="45.42531" lon="5.68534">
        <ele>781</ele>
        <time>2015-06-21T12:01:38Z</time>
      </trkpt>
      <trkpt lat="45.42524" lon="5.68526">
        <ele>782</ele>
        <time>2015-06-21T12:01:41Z</time>
      </trkpt>
      <trkpt lat="45.42516" lon="5.68519">
        <ele>782</ele>
        <time>2015-06-21T12:01:44Z</time>
      </trkpt>
      <trkpt lat="45.42505" lon="5.68511">
        <ele>782</ele>
        <time>2015-06-21T12:01:47Z</time>
      </trkpt>
      <trkpt lat="45.42493" lon="5.68504">
        <ele>779</ele>
        <time>2015-06-21T12:01:50Z</time>
      </trkpt>
      <trkpt lat="45.42484" lon="5.68498">
        <ele>783</ele>
        <time>2015-06-21T12:01:52Z</time>
      </trkpt>
      <trkpt lat="45.42474" lon="5.68491">
        <ele>783</ele>
        <time>2015-06-21T12:01:54Z</time>
      </trkpt>
      <trkpt lat="45.42465" lon="5.68481">
        <ele>783</ele>
        <time>2015-06-21T12:01:56Z</time>
      </trkpt>
      <trkpt lat="45.42456" lon="5.68468">
        <ele>783</ele>
        <time>2015-06-21T12:01:58Z</time>
      </trkpt>
      <trkpt lat="45.42446" lon="5.68459">
        <ele>783</ele>
        <time>2015-06-21T12:02:00Z</time>
      </trkpt>
      <trkpt lat="45.42435" lon="5.68453">
        <ele>783</ele>
        <time>2015-06-21T12:02:02Z</time>
      </trkpt>
      <trkpt lat="45.42423" lon="5.68449">
        <ele>783</ele>
        <time>2015-06-21T12:02:05Z</time>
      </trkpt>
      <trkpt lat="45.42413" lon="5.68445">
        <ele>777</ele>
        <time>2015-06-21T12:02:08Z</time>
      </trkpt>
      <trkpt lat="45.42402" lon="5.6844">
        <ele>777</ele>
        <time>2015-06-21T12:02:11Z</time>
      </trkpt>
      <trkpt lat="45.42389" lon="5.68432">
        <ele>777</ele>
        <time>2015-06-21T12:02:14Z</time>
      </trkpt>
      <trkpt lat="45.42381" lon="5.68422">
        <ele>776</ele>
        <time>2015-06-21T12:02:16Z</time>
      </trkpt>
      <trkpt lat="45.42376" lon="5.68408">
        <ele>782</ele>
        <time>2015-06-21T12:02:19Z</time>
      </trkpt>
      <trkpt lat="45.42368" lon="5.68397">
        <ele>781</ele>
        <time>2015-06-21T12:02:22Z</time>
      </trkpt>
      <trkpt lat="45.42358" lon="5.68387">
        <ele>781</ele>
        <time>2015-06-21T12:02:25Z</time>
      </trkpt>
      <trkpt lat="45.42348" lon="5.68377">
        <ele>781</ele>
        <time>2015-06-21T12:02:28Z</time>
      </trkpt>
      <trkpt lat="45.42336" lon="5.6837">
        <ele>781</ele>
        <time>2015-06-21T12:02:31Z</time>
      </trkpt>
      <trkpt lat="45.42326" lon="5.68363">
        <ele>773</ele>
        <time>2015-06-21T12:02:34Z</time>
      </trkpt>
      <trkpt lat="45.42317" lon="5.68352">
        <ele>774</ele>
        <time>2015-06-21T12:02:37Z</time>
      </trkpt>
      <trkpt lat="45.42311" lon="5.68341">
        <ele>774</ele>
        <time>2015-06-21T12:02:40Z</time>
      </trkpt>
      <trkpt lat="45.42308" lon="5.68326">
        <ele>778</ele>
        <time>2015-06-21T12:02:45Z</time>
      </trkpt>
      <trkpt lat="45.42298" lon="5.68317">
        <ele>777</ele>
        <time>2015-06-21T12:02:49Z</time>
      </trkpt>
      <trkpt lat="45.4229" lon="5.68306">
        <ele>777</ele>
        <time>2015-06-21T12:02:52Z</time>
      </trkpt>
      <trkpt lat="45.42282" lon="5.68293">
        <ele>777</ele>
        <time>2015-06-21T12:02:55Z</time>
      </trkpt>
      <trkpt lat="45.42274" lon="5.6828">
        <ele>777</ele>
        <time>2015-06-21T12:02:58Z</time>
      </trkpt>
      <trkpt lat="45.4227" lon="5.68265">
        <ele>777</ele>
        <time>2015-06-21T12:03:02Z</time>
      </trkpt>
      <trkpt lat="45.42269" lon="5.68251">
        <ele>777</ele>
        <time>2015-06-21T12:03:06Z</time>
      </trkpt>
      <trkpt lat="45.42264" lon="5.68238">
        <ele>782</ele>
        <time>2015-06-21T12:03:10Z</time>
      </trkpt>
      <trkpt lat="45.42256" lon="5.68225">
        <ele>783</ele>
        <time>2015-06-21T12:03:14Z</time>
      </trkpt>
      <trkpt lat="45.4225" lon="5.68214">
        <ele>784</ele>
        <time>2015-06-21T12:03:17Z</time>
      </trkpt>
      <trkpt lat="45.42242" lon="5.68206">
        <ele>775</ele>
        <time>2015-06-21T12:03:20Z</time>
      </trkpt>
      <trkpt lat="45.42232" lon="5.68197">
        <ele>775</ele>
        <time>2015-06-21T12:03:23Z</time>
      </trkpt>
      <trkpt lat="45.42222" lon="5.68189">
        <ele>775</ele>
        <time>2015-06-21T12:03:25Z</time>
      </trkpt>
      <trkpt lat="45.42213" lon="5.68178">
        <ele>774</ele>
        <time>2015-06-21T12:03:27Z</time>
      </trkpt>
      <trkpt lat="45.42205" lon="5.68164">
        <ele>778</ele>
        <time>2015-06-21T12:03:29Z</time>
      </trkpt>
      <trkpt lat="45.422" lon="5.6815">
        <ele>777</ele>
        <time>2015-06-21T12:03:31Z</time>
      </trkpt>
      <trkpt lat="45.42191" lon="5.6814">
        <ele>776</ele>
        <time>2015-06-21T12:03:33Z</time>
      </trkpt>
      <trkpt lat="45.42182" lon="5.68133">
        <ele>776</ele>
        <time>2015-06-21T12:03:35Z</time>
      </trkpt>
      <trkpt lat="45.42173" lon="5.68128">
        <ele>776</ele>
        <time>2015-06-21T12:03:37Z</time>
      </trkpt>
      <trkpt lat="45.42163" lon="5.6812">
        <ele>765</ele>
        <time>2015-06-21T12:03:40Z</time>
      </trkpt>
      <trkpt lat="45.4215" lon="5.68115">
        <ele>765</ele>
        <time>2015-06-21T12:03:43Z</time>
      </trkpt>
      <trkpt lat="45.4214" lon="5.68118">
        <ele>764</ele>
        <time>2015-06-21T12:03:46Z</time>
      </trkpt>
      <trkpt lat="45.42128" lon="5.68118">
        <ele>762</ele>
        <time>2015-06-21T12:03:49Z</time>
      </trkpt>
      <trkpt lat="45.42118" lon="5.68119">
        <ele>761</ele>
        <time>2015-06-21T12:03:52Z</time>
      </trkpt>
      <trkpt lat="45.4211" lon="5.6811">
        <ele>761</ele>
        <time>2015-06-21T12:03:56Z</time>
      </trkpt>
      <trkpt lat="45.42104" lon="5.68095">
        <ele>760</ele>
        <time>2015-06-21T12:04:00Z</time>
      </trkpt>
      <trkpt lat="45.42097" lon="5.68084">
        <ele>759</ele>
        <time>2015-06-21T12:04:03Z</time>
      </trkpt>
      <trkpt lat="45.42088" lon="5.6807">
        <ele>762</ele>
        <time>2015-06-21T12:04:06Z</time>
      </trkpt>
      <trkpt lat="45.42081" lon="5.68059">
        <ele>754</ele>
        <time>2015-06-21T12:04:08Z</time>
      </trkpt>
      <trkpt lat="45.42073" lon="5.68047">
        <ele>754</ele>
        <time>2015-06-21T12:04:10Z</time>
      </trkpt>
      <trkpt lat="45.42067" lon="5.68038">
        <ele>754</ele>
        <time>2015-06-21T12:04:12Z</time>
      </trkpt>
      <trkpt lat="45.42059" lon="5.68028">
        <ele>754</ele>
        <time>2015-06-21T12:04:14Z</time>
      </trkpt>
      <trkpt lat="45.42051" lon="5.68021">
        <ele>754</ele>
        <time>2015-06-21T12:04:16Z</time>
      </trkpt>
      <trkpt lat="45.42041" lon="5.68016">
        <ele>752</ele>
        <time>2015-06-21T12:04:19Z</time>
      </trkpt>
      <trkpt lat="45.42033" lon="5.68009">
        <ele>751</ele>
        <time>2015-06-21T12:04:21Z</time>
      </trkpt>
      <trkpt lat="45.42023" lon="5.68004">
        <ele>750</ele>
        <time>2015-06-21T12:04:23Z</time>
      </trkpt>
      <trkpt lat="45.42012" lon="5.68">
        <ele>748</ele>
        <time>2015-06-21T12:04:25Z</time>
      </trkpt>
      <trkpt lat="45.42001" lon="5.67998">
        <ele>747</ele>
        <time>2015-06-21T12:04:27Z</time>
      </trkpt>
      <trkpt lat="45.41989" lon="5.68005">
        <ele>742</ele>
        <time>2015-06-21T12:04:30Z</time>
      </trkpt>
      <trkpt lat="45.41988" lon="5.68019">
        <ele>739</ele>
        <time>2015-06-21T12:04:35Z</time>
      </trkpt>
      <trkpt lat="45.41986" lon="5.68034">
        <ele>737</ele>
        <time>2015-06-21T12:04:40Z</time>
      </trkpt>
      <trkpt lat="45.41991" lon="5.68048">
        <ele>737</ele>
        <time>2015-06-21T12:04:43Z</time>
      </trkpt>
      <trkpt lat="45.41999" lon="5.68061">
        <ele>737</ele>
        <time>2015-06-21T12:04:46Z</time>
      </trkpt>
      <trkpt lat="45.42001" lon="5.68074">
        <ele>743</ele>
        <time>2015-06-21T12:04:49Z</time>
      </trkpt>
      <trkpt lat="45.41998" lon="5.68087">
        <ele>737</ele>
        <time>2015-06-21T12:04:52Z</time>
      </trkpt>
      <trkpt lat="45.41997" lon="5.68103">
        <ele>732</ele>
        <time>2015-06-21T12:04:57Z</time>
      </trkpt>
      <trkpt lat="45.42003" lon="5.68114">
        <ele>742</ele>
        <time>2015-06-21T12:05:03Z</time>
      </trkpt>
      <trkpt lat="45.42007" lon="5.68127">
        <ele>741</ele>
        <time>2015-06-21T12:05:08Z</time>
      </trkpt>
      <trkpt lat="45.4201" lon="5.68143">
        <ele>740</ele>
        <time>2015-06-21T12:05:13Z</time>
      </trkpt>
      <trkpt lat="45.42009" lon="5.68156">
        <ele>737</ele>
        <time>2015-06-21T12:05:16Z</time>
      </trkpt>
      <trkpt lat="45.42011" lon="5.6817">
        <ele>735</ele>
        <time>2015-06-21T12:05:20Z</time>
      </trkpt>
      <trkpt lat="45.42016" lon="5.68181">
        <ele>736</ele>
        <time>2015-06-21T12:05:25Z</time>
      </trkpt>
      <trkpt lat="45.42023" lon="5.68191">
        <ele>737</ele>
        <time>2015-06-21T12:05:31Z</time>
      </trkpt>
      <trkpt lat="45.4203" lon="5.68203">
        <ele>738</ele>
        <time>2015-06-21T12:05:38Z</time>
      </trkpt>
      <trkpt lat="45.42037" lon="5.68211">
        <ele>738</ele>
        <time>2015-06-21T12:05:45Z</time>
      </trkpt>
      <trkpt lat="45.42046" lon="5.68216">
        <ele>739</ele>
        <time>2015-06-21T12:05:52Z</time>
      </trkpt>
      <trkpt lat="45.42055" lon="5.68221">
        <ele>740</ele>
        <time>2015-06-21T12:06:00Z</time>
      </trkpt>
      <trkpt lat="45.42064" lon="5.68228">
        <ele>741</ele>
        <time>2015-06-21T12:06:06Z</time>
      </trkpt>
      <trkpt lat="45.42072" lon="5.68234">
        <ele>742</ele>
        <time>2015-06-21T12:06:11Z</time>
      </trkpt>
      <trkpt lat="45.42079" lon="5.68245">
        <ele>743</ele>
        <time>2015-06-21T12:06:17Z</time>
      </trkpt>
      <trkpt lat="45.42079" lon="5.68259">
        <ele>741</ele>
        <time>2015-06-21T12:06:23Z</time>
      </trkpt>
      <trkpt lat="45.42077" lon="5.68271">
        <ele>738</ele>
        <time>2015-06-21T12:06:29Z</time>
      </trkpt>
      <trkpt lat="45.42075" lon="5.68285">
        <ele>737</ele>
        <time>2015-06-21T12:06:33Z</time>
      </trkpt>
      <trkpt lat="45.42071" lon="5.68299">
        <ele>736</ele>
        <time>2015-06-21T12:06:37Z</time>
      </trkpt>
      <trkpt lat="45.42069" lon="5.68314">
        <ele>735</ele>
        <time>2015-06-21T12:06:40Z</time>
      </trkpt>
      <trkpt lat="45.42064" lon="5.68325">
        <ele>735</ele>
        <time>2015-06-21T12:06:43Z</time>
      </trkpt>
      <trkpt lat="45.42057" lon="5.68334">
        <ele>731</ele>
        <time>2015-06-21T12:06:48Z</time>
      </trkpt>
      <trkpt lat="45.42049" lon="5.6835">
        <ele>729</ele>
        <time>2015-06-21T12:06:52Z</time>
      </trkpt>
      <trkpt lat="45.42042" lon="5.68362">
        <ele>728</ele>
        <time>2015-06-21T12:06:54Z</time>
      </trkpt>
      <trkpt lat="45.42037" lon="5.68375">
        <ele>727</ele>
        <time>2015-06-21T12:06:56Z</time>
      </trkpt>
      <trkpt lat="45.42029" lon="5.6839">
        <ele>726</ele>
        <time>2015-06-21T12:06:59Z</time>
      </trkpt>
      <trkpt lat="45.42024" lon="5.68401">
        <ele>724</ele>
        <time>2015-06-21T12:07:02Z</time>
      </trkpt>
      <trkpt lat="45.42015" lon="5.68404">
        <ele>723</ele>
        <time>2015-06-21T12:07:08Z</time>
      </trkpt>
      <trkpt lat="45.42004" lon="5.68405">
        <ele>721</ele>
        <time>2015-06-21T12:07:15Z</time>
      </trkpt>
      <trkpt lat="45.41995" lon="5.68411">
        <ele>714</ele>
        <time>2015-06-21T12:07:20Z</time>
      </trkpt>
      <trkpt lat="45.41984" lon="5.68413">
        <ele>712</ele>
        <time>2015-06-21T12:07:24Z</time>
      </trkpt>
      <trkpt lat="45.41975" lon="5.68419">
        <ele>706</ele>
        <time>2015-06-21T12:07:29Z</time>
      </trkpt>
      <trkpt lat="45.41966" lon="5.68427">
        <ele>704</ele>
        <time>2015-06-21T12:07:35Z</time>
      </trkpt>
      <trkpt lat="45.41958" lon="5.68435">
        <ele>702</ele>
        <time>2015-06-21T12:07:39Z</time>
      </trkpt>
      <trkpt lat="45.41948" lon="5.6844">
        <ele>700</ele>
        <time>2015-06-21T12:07:43Z</time>
      </trkpt>
      <trkpt lat="45.41937" lon="5.6844">
        <ele>699</ele>
        <time>2015-06-21T12:07:46Z</time>
      </trkpt>
      <trkpt lat="45.41927" lon="5.6844">
        <ele>698</ele>
        <time>2015-06-21T12:07:49Z</time>
      </trkpt>
      <trkpt lat="45.41918" lon="5.68444">
        <ele>697</ele>
        <time>2015-06-21T12:07:53Z</time>
      </trkpt>
      <trkpt lat="45.41908" lon="5.68453">
        <ele>683</ele>
        <time>2015-06-21T12:07:58Z</time>
      </trkpt>
      <trkpt lat="45.41901" lon="5.68461">
        <ele>682</ele>
        <time>2015-06-21T12:08:03Z</time>
      </trkpt>
      <trkpt lat="45.41895" lon="5.68472">
        <ele>681</ele>
        <time>2015-06-21T12:08:07Z</time>
      </trkpt>
      <trkpt lat="45.41889" lon="5.68482">
        <ele>680</ele>
        <time>2015-06-21T12:08:12Z</time>
      </trkpt>
      <trkpt lat="45.41883" lon="5.68491">
        <ele>679</ele>
        <time>2015-06-21T12:08:16Z</time>
      </trkpt>
      <trkpt lat="45.41877" lon="5.68502">
        <ele>672</ele>
        <time>2015-06-21T12:08:20Z</time>
      </trkpt>
      <trkpt lat="45.41869" lon="5.68511">
        <ele>670</ele>
        <time>2015-06-21T12:08:27Z</time>
      </trkpt>
      <trkpt lat="45.41864" lon="5.68523">
        <ele>669</ele>
        <time>2015-06-21T12:08:33Z</time>
      </trkpt>
      <trkpt lat="45.41855" lon="5.68529">
        <ele>667</ele>
        <time>2015-06-21T12:08:39Z</time>
      </trkpt>
      <trkpt lat="45.41846" lon="5.68539">
        <ele>666</ele>
        <time>2015-06-21T12:08:43Z</time>
      </trkpt>
      <trkpt lat="45.41838" lon="5.68547">
        <ele>664</ele>
        <time>2015-06-21T12:08:47Z</time>
      </trkpt>
      <trkpt lat="45.41829" lon="5.6854">
        <ele>651</ele>
        <time>2015-06-21T12:08:55Z</time>
      </trkpt>
      <trkpt lat="45.41824" lon="5.68527">
        <ele>652</ele>
        <time>2015-06-21T12:08:59Z</time>
      </trkpt>
      <trkpt lat="45.41817" lon="5.68516">
        <ele>653</ele>
        <time>2015-06-21T12:09:03Z</time>
      </trkpt>
      <trkpt lat="45.41808" lon="5.68505">
        <ele>652</ele>
        <time>2015-06-21T12:09:07Z</time>
      </trkpt>
      <trkpt lat="45.41799" lon="5.68495">
        <ele>656</ele>
        <time>2015-06-21T12:09:10Z</time>
      </trkpt>
      <trkpt lat="45.41791" lon="5.68486">
        <ele>654</ele>
        <time>2015-06-21T12:09:14Z</time>
      </trkpt>
      <trkpt lat="45.41788" lon="5.68472">
        <ele>655</ele>
        <time>2015-06-21T12:09:39Z</time>
      </trkpt>
      <trkpt lat="45.41788" lon="5.68459">
        <ele>655</ele>
        <time>2015-06-21T12:09:48Z</time>
      </trkpt>
      <trkpt lat="45.41787" lon="5.68445">
        <ele>656</ele>
        <time>2015-06-21T12:09:59Z</time>
      </trkpt>
      <trkpt lat="45.41785" lon="5.68432">
        <ele>656</ele>
        <time>2015-06-21T12:10:08Z</time>
      </trkpt>
      <trkpt lat="45.41783" lon="5.68419">
        <ele>655</ele>
        <time>2015-06-21T12:10:20Z</time>
      </trkpt>
      <trkpt lat="45.4178" lon="5.68407">
        <ele>661</ele>
        <time>2015-06-21T12:10:32Z</time>
      </trkpt>
      <trkpt lat="45.4178" lon="5.68394">
        <ele>662</ele>
        <time>2015-06-21T12:10:42Z</time>
      </trkpt>
      <trkpt lat="45.41785" lon="5.68382">
        <ele>664</ele>
        <time>2015-06-21T12:10:53Z</time>
      </trkpt>
      <trkpt lat="45.41784" lon="5.68369">
        <ele>664</ele>
        <time>2015-06-21T12:11:17Z</time>
      </trkpt>
      <trkpt lat="45.41774" lon="5.68367">
        <ele>663</ele>
        <time>2015-06-21T12:11:24Z</time>
      </trkpt>
      <trkpt lat="45.41764" lon="5.68362">
        <ele>662</ele>
        <time>2015-06-21T12:11:30Z</time>
      </trkpt>
      <trkpt lat="45.41756" lon="5.68355">
        <ele>661</ele>
        <time>2015-06-21T12:11:36Z</time>
      </trkpt>
      <trkpt lat="45.41747" lon="5.68352">
        <ele>651</ele>
        <time>2015-06-21T12:11:44Z</time>
      </trkpt>
      <trkpt lat="45.41738" lon="5.68352">
        <ele>650</ele>
        <time>2015-06-21T12:11:50Z</time>
      </trkpt>
      <trkpt lat="45.41734" lon="5.68364">
        <ele>648</ele>
        <time>2015-06-21T12:11:57Z</time>
      </trkpt>
      <trkpt lat="45.41726" lon="5.68372">
        <ele>646</ele>
        <time>2015-06-21T12:12:05Z</time>
      </trkpt>
      <trkpt lat="45.41716" lon="5.68369">
        <ele>646</ele>
        <time>2015-06-21T12:12:13Z</time>
      </trkpt>
      <trkpt lat="45.41707" lon="5.68378">
        <ele>644</ele>
        <time>2015-06-21T12:12:19Z</time>
      </trkpt>
      <trkpt lat="45.41701" lon="5.68388">
        <ele>643</ele>
        <time>2015-06-21T12:12:23Z</time>
      </trkpt>
      <trkpt lat="45.41692" lon="5.68387">
        <ele>642</ele>
        <time>2015-06-21T12:12:27Z</time>
      </trkpt>
      <trkpt lat="45.41685" lon="5.68376">
        <ele>642</ele>
        <time>2015-06-21T12:12:30Z</time>
      </trkpt>
      <trkpt lat="45.41677" lon="5.68369">
        <ele>642</ele>
        <time>2015-06-21T12:12:32Z</time>
      </trkpt>
      <trkpt lat="45.41664" lon="5.68363">
        <ele>633</ele>
        <time>2015-06-21T12:12:35Z</time>
      </trkpt>
      <trkpt lat="45.41653" lon="5.68358">
        <ele>633</ele>
        <time>2015-06-21T12:12:38Z</time>
      </trkpt>
      <trkpt lat="45.41641" lon="5.68354">
        <ele>632</ele>
        <time>2015-06-21T12:12:41Z</time>
      </trkpt>
      <trkpt lat="45.41628" lon="5.68359">
        <ele>630</ele>
        <time>2015-06-21T12:12:44Z</time>
      </trkpt>
      <trkpt lat="45.4162" lon="5.68366">
        <ele>630</ele>
        <time>2015-06-21T12:12:47Z</time>
      </trkpt>
      <trkpt lat="45.41609" lon="5.68371">
        <ele>629</ele>
        <time>2015-06-21T12:12:52Z</time>
      </trkpt>
      <trkpt lat="45.41602" lon="5.68381">
        <ele>628</ele>
        <time>2015-06-21T12:12:55Z</time>
      </trkpt>
      <trkpt lat="45.41598" lon="5.68394">
        <ele>627</ele>
        <time>2015-06-21T12:12:58Z</time>
      </trkpt>
      <trkpt lat="45.41591" lon="5.68409">
        <ele>625</ele>
        <time>2015-06-21T12:13:02Z</time>
      </trkpt>
      <trkpt lat="45.41585" lon="5.68424">
        <ele>622</ele>
        <time>2015-06-21T12:13:05Z</time>
      </trkpt>
      <trkpt lat="45.41578" lon="5.68438">
        <ele>615</ele>
        <time>2015-06-21T12:13:08Z</time>
      </trkpt>
      <trkpt lat="45.41574" lon="5.68453">
        <ele>613</ele>
        <time>2015-06-21T12:13:11Z</time>
      </trkpt>
      <trkpt lat="45.4157" lon="5.68466">
        <ele>612</ele>
        <time>2015-06-21T12:13:13Z</time>
      </trkpt>
      <trkpt lat="45.41568" lon="5.68481">
        <ele>612</ele>
        <time>2015-06-21T12:13:16Z</time>
      </trkpt>
      <trkpt lat="45.41566" lon="5.68495">
        <ele>612</ele>
        <time>2015-06-21T12:13:19Z</time>
      </trkpt>
      <trkpt lat="45.41564" lon="5.68508">
        <ele>609</ele>
        <time>2015-06-21T12:13:23Z</time>
      </trkpt>
      <trkpt lat="45.41566" lon="5.68523">
        <ele>608</ele>
        <time>2015-06-21T12:13:28Z</time>
      </trkpt>
      <trkpt lat="45.41561" lon="5.68536">
        <ele>607</ele>
        <time>2015-06-21T12:13:32Z</time>
      </trkpt>
      <trkpt lat="45.41552" lon="5.68535">
        <ele>607</ele>
        <time>2015-06-21T12:13:37Z</time>
      </trkpt>
      <trkpt lat="45.41545" lon="5.68523">
        <ele>607</ele>
        <time>2015-06-21T12:13:42Z</time>
      </trkpt>
      <trkpt lat="45.41537" lon="5.68511">
        <ele>607</ele>
        <time>2015-06-21T12:13:46Z</time>
      </trkpt>
      <trkpt lat="45.41529" lon="5.68503">
        <ele>606</ele>
        <time>2015-06-21T12:13:51Z</time>
      </trkpt>
      <trkpt lat="45.41521" lon="5.68496">
        <ele>607</ele>
        <time>2015-06-21T12:13:58Z</time>
      </trkpt>
      <trkpt lat="45.4151" lon="5.6849">
        <ele>607</ele>
        <time>2015-06-21T12:14:03Z</time>
      </trkpt>
      <trkpt lat="45.41501" lon="5.68484">
        <ele>606</ele>
        <time>2015-06-21T12:14:09Z</time>
      </trkpt>
      <trkpt lat="45.41492" lon="5.68479">
        <ele>602</ele>
        <time>2015-06-21T12:14:12Z</time>
      </trkpt>
      <trkpt lat="45.41481" lon="5.68473">
        <ele>602</ele>
        <time>2015-06-21T12:14:15Z</time>
      </trkpt>
      <trkpt lat="45.4147" lon="5.68467">
        <ele>602</ele>
        <time>2015-06-21T12:14:19Z</time>
      </trkpt>
      <trkpt lat="45.41459" lon="5.68465">
        <ele>601</ele>
        <time>2015-06-21T12:14:23Z</time>
      </trkpt>
      <trkpt lat="45.4145" lon="5.68469">
        <ele>601</ele>
        <time>2015-06-21T12:14:26Z</time>
      </trkpt>
      <trkpt lat="45.41441" lon="5.68474">
        <ele>601</ele>
        <time>2015-06-21T12:14:30Z</time>
      </trkpt>
      <trkpt lat="45.4143" lon="5.68479">
        <ele>601</ele>
        <time>2015-06-21T12:14:34Z</time>
      </trkpt>
      <trkpt lat="45.41422" lon="5.68486">
        <ele>601</ele>
        <time>2015-06-21T12:14:37Z</time>
      </trkpt>
      <trkpt lat="45.41412" lon="5.68496">
        <ele>601</ele>
        <time>2015-06-21T12:14:41Z</time>
      </trkpt>
      <trkpt lat="45.41402" lon="5.68506">
        <ele>601</ele>
        <time>2015-06-21T12:14:44Z</time>
      </trkpt>
      <trkpt lat="45.41396" lon="5.68515">
        <ele>601</ele>
        <time>2015-06-21T12:14:46Z</time>
      </trkpt>
      <trkpt lat="45.4139" lon="5.68525">
        <ele>601</ele>
        <time>2015-06-21T12:14:49Z</time>
      </trkpt>
      <trkpt lat="45.41383" lon="5.68534">
        <ele>601</ele>
        <time>2015-06-21T12:14:54Z</time>
      </trkpt>
      <trkpt lat="45.41386" lon="5.68521">
        <ele>601</ele>
        <time>2015-06-21T12:15:05Z</time>
      </trkpt>
      <trkpt lat="45.41384" lon="5.68508">
        <ele>601</ele>
        <time>2015-06-21T12:15:35Z</time>
      </trkpt>
      <trkpt lat="45.41393" lon="5.68509">
        <ele>601</ele>
        <time>2015-06-21T12:16:06Z</time>
      </trkpt>
      <trkpt lat="45.41401" lon="5.68502">
        <ele>601</ele>
        <time>2015-06-21T12:16:11Z</time>
      </trkpt>
      <trkpt lat="45.41409" lon="5.68495">
        <ele>601</ele>
        <time>2015-06-21T12:16:16Z</time>
      </trkpt>
      <trkpt lat="45.4142" lon="5.6849">
        <ele>601</ele>
        <time>2015-06-21T12:16:21Z</time>
      </trkpt>
      <trkpt lat="45.41428" lon="5.68483">
        <ele>601</ele>
        <time>2015-06-21T12:16:25Z</time>
      </trkpt>
      <trkpt lat="45.41437" lon="5.68477">
        <ele>601</ele>
        <time>2015-06-21T12:16:30Z</time>
      </trkpt>
      <trkpt lat="45.41447" lon="5.68475">
        <ele>601</ele>
        <time>2015-06-21T12:16:36Z</time>
      </trkpt>
      <trkpt lat="45.41457" lon="5.68478">
        <ele>601</ele>
        <time>2015-06-21T12:16:42Z</time>
      </trkpt>
      <trkpt lat="45.41466" lon="5.68475">
        <ele>602</ele>
        <time>2015-06-21T12:16:53Z</time>
      </trkpt>
      <trkpt lat="45.41472" lon="5.68465">
        <ele>602</ele>
        <time>2015-06-21T12:17:01Z</time>
      </trkpt>
      <trkpt lat="45.41471" lon="5.6845">
        <ele>601</ele>
        <time>2015-06-21T12:17:08Z</time>
      </trkpt>
      <trkpt lat="45.41468" lon="5.68438">
        <ele>601</ele>
        <time>2015-06-21T12:17:13Z</time>
      </trkpt>
      <trkpt lat="45.41462" lon="5.68427">
        <ele>601</ele>
        <time>2015-06-21T12:17:17Z</time>
      </trkpt>
      <trkpt lat="45.41454" lon="5.68416">
        <ele>600</ele>
        <time>2015-06-21T12:17:21Z</time>
      </trkpt>
      <trkpt lat="45.41446" lon="5.68409">
        <ele>600</ele>
        <time>2015-06-21T12:17:25Z</time>
      </trkpt>
      <trkpt lat="45.41439" lon="5.68401">
        <ele>600</ele>
        <time>2015-06-21T12:17:29Z</time>
      </trkpt>
      <trkpt lat="45.41437" lon="5.68388">
        <ele>600</ele>
        <time>2015-06-21T12:17:34Z</time>
      </trkpt>
      <trkpt lat="45.41439" lon="5.68373">
        <ele>600</ele>
        <time>2015-06-21T12:17:39Z</time>
      </trkpt>
      <trkpt lat="45.41437" lon="5.68357">
        <ele>599</ele>
        <time>2015-06-21T12:17:43Z</time>
      </trkpt>
      <trkpt lat="45.41432" lon="5.68346">
        <ele>598</ele>
        <time>2015-06-21T12:17:46Z</time>
      </trkpt>
      <trkpt lat="45.41425" lon="5.68333">
        <ele>597</ele>
        <time>2015-06-21T12:17:50Z</time>
      </trkpt>
      <trkpt lat="45.41419" lon="5.68318">
        <ele>598</ele>
        <time>2015-06-21T12:17:54Z</time>
      </trkpt>
      <trkpt lat="45.41413" lon="5.68307">
        <ele>595</ele>
        <time>2015-06-21T12:17:57Z</time>
      </trkpt>
      <trkpt lat="45.41407" lon="5.68298">
        <ele>595</ele>
        <time>2015-06-21T12:18:00Z</time>
      </trkpt>
      <trkpt lat="45.41396" lon="5.68295">
        <ele>596</ele>
        <time>2015-06-21T12:18:04Z</time>
      </trkpt>
      <trkpt lat="45.41388" lon="5.68309">
        <ele>596</ele>
        <time>2015-06-21T12:18:08Z</time>
      </trkpt>
      <trkpt lat="45.41383" lon="5.68324">
        <ele>597</ele>
        <time>2015-06-21T12:18:12Z</time>
      </trkpt>
      <trkpt lat="45.41383" lon="5.6834">
        <ele>599</ele>
        <time>2015-06-21T12:18:16Z</time>
      </trkpt>
      <trkpt lat="45.41384" lon="5.68356">
        <ele>599</ele>
        <time>2015-06-21T12:18:20Z</time>
      </trkpt>
      <trkpt lat="45.41384" lon="5.68369">
        <ele>600</ele>
        <time>2015-06-21T12:18:23Z</time>
      </trkpt>
      <trkpt lat="45.41384" lon="5.68386">
        <ele>600</ele>
        <time>2015-06-21T12:18:27Z</time>
      </trkpt>
      <trkpt lat="45.41384" lon="5.68399">
        <ele>600</ele>
        <time>2015-06-21T12:18:30Z</time>
      </trkpt>
      <trkpt lat="45.41376" lon="5.68408">
        <ele>600</ele>
        <time>2015-06-21T12:18:36Z</time>
      </trkpt>
      <trkpt lat="45.41367" lon="5.68409">
        <ele>601</ele>
        <time>2015-06-21T12:18:43Z</time>
      </trkpt>
      <trkpt lat="45.41357" lon="5.68406">
        <ele>601</ele>
        <time>2015-06-21T12:18:54Z</time>
      </trkpt>
      <trkpt lat="45.41349" lon="5.68403">
        <ele>601</ele>
        <time>2015-06-21T12:19:05Z</time>
      </trkpt>
      <trkpt lat="45.4134" lon="5.68399">
        <ele>602</ele>
        <time>2015-06-21T12:19:13Z</time>
      </trkpt>
      <trkpt lat="45.41331" lon="5.68394">
        <ele>605</ele>
        <time>2015-06-21T12:19:22Z</time>
      </trkpt>
      <trkpt lat="45.41323" lon="5.68385">
        <ele>605</ele>
        <time>2015-06-21T12:19:29Z</time>
      </trkpt>
      <trkpt lat="45.41316" lon="5.68377">
        <ele>605</ele>
        <time>2015-06-21T12:19:36Z</time>
      </trkpt>
      <trkpt lat="45.41307" lon="5.68373">
        <ele>605</ele>
        <time>2015-06-21T12:19:43Z</time>
      </trkpt>
      <trkpt lat="45.41298" lon="5.68367">
        <ele>606</ele>
        <time>2015-06-21T12:19:49Z</time>
      </trkpt>
      <trkpt lat="45.41289" lon="5.68363">
        <ele>606</ele>
        <time>2015-06-21T12:19:55Z</time>
      </trkpt>
      <trkpt lat="45.41279" lon="5.68358">
        <ele>606</ele>
        <time>2015-06-21T12:20:01Z</time>
      </trkpt>
      <trkpt lat="45.4127" lon="5.68356">
        <ele>606</ele>
        <time>2015-06-21T12:20:06Z</time>
      </trkpt>
      <trkpt lat="45.4126" lon="5.68352">
        <ele>607</ele>
        <time>2015-06-21T12:20:13Z</time>
      </trkpt>
      <trkpt lat="45.41251" lon="5.68349">
        <ele>607</ele>
        <time>2015-06-21T12:20:18Z</time>
      </trkpt>
      <trkpt lat="45.41241" lon="5.68344">
        <ele>609</ele>
        <time>2015-06-21T12:20:23Z</time>
      </trkpt>
      <trkpt lat="45.4123" lon="5.68341">
        <ele>610</ele>
        <time>2015-06-21T12:20:27Z</time>
      </trkpt>
      <trkpt lat="45.4122" lon="5.6834">
        <ele>610</ele>
        <time>2015-06-21T12:20:31Z</time>
      </trkpt>
      <trkpt lat="45.4121" lon="5.68338">
        <ele>611</ele>
        <time>2015-06-21T12:20:34Z</time>
      </trkpt>
      <trkpt lat="45.41199" lon="5.68339">
        <ele>611</ele>
        <time>2015-06-21T12:20:37Z</time>
      </trkpt>
      <trkpt lat="45.41191" lon="5.68346">
        <ele>612</ele>
        <time>2015-06-21T12:20:40Z</time>
      </trkpt>
      <trkpt lat="45.41183" lon="5.68356">
        <ele>612</ele>
        <time>2015-06-21T12:20:43Z</time>
      </trkpt>
      <trkpt lat="45.41176" lon="5.68366">
        <ele>612</ele>
        <time>2015-06-21T12:20:46Z</time>
      </trkpt>
      <trkpt lat="45.41166" lon="5.68374">
        <ele>612</ele>
        <time>2015-06-21T12:20:49Z</time>
      </trkpt>
      <trkpt lat="45.41157" lon="5.68379">
        <ele>612</ele>
        <time>2015-06-21T12:20:52Z</time>
      </trkpt>
      <trkpt lat="45.41147" lon="5.68381">
        <ele>612</ele>
        <time>2015-06-21T12:20:55Z</time>
      </trkpt>
      <trkpt lat="45.41135" lon="5.68381">
        <ele>611</ele>
        <time>2015-06-21T12:20:58Z</time>
      </trkpt>
      <trkpt lat="45.41122" lon="5.68378">
        <ele>611</ele>
        <time>2015-06-21T12:21:01Z</time>
      </trkpt>
      <trkpt lat="45.4111" lon="5.68376">
        <ele>611</ele>
        <time>2015-06-21T12:21:04Z</time>
      </trkpt>
      <trkpt lat="45.41101" lon="5.68375">
        <ele>611</ele>
        <time>2015-06-21T12:21:06Z</time>
      </trkpt>
      <trkpt lat="45.41091" lon="5.68376">
        <ele>611</ele>
        <time>2015-06-21T12:21:08Z</time>
      </trkpt>
      <trkpt lat="45.41083" lon="5.6838">
        <ele>609</ele>
        <time>2015-06-21T12:21:10Z</time>
      </trkpt>
      <trkpt lat="45.41074" lon="5.68386">
        <ele>609</ele>
        <time>2015-06-21T12:21:12Z</time>
      </trkpt>
      <trkpt lat="45.41066" lon="5.68392">
        <ele>609</ele>
        <time>2015-06-21T12:21:14Z</time>
      </trkpt>
      <trkpt lat="45.41056" lon="5.68402">
        <ele>609</ele>
        <time>2015-06-21T12:21:17Z</time>
      </trkpt>
      <trkpt lat="45.41046" lon="5.68411">
        <ele>609</ele>
        <time>2015-06-21T12:21:20Z</time>
      </trkpt>
      <trkpt lat="45.41035" lon="5.68415">
        <ele>609</ele>
        <time>2015-06-21T12:21:23Z</time>
      </trkpt>
      <trkpt lat="45.41022" lon="5.68411">
        <ele>610</ele>
        <time>2015-06-21T12:21:26Z</time>
      </trkpt>
      <trkpt lat="45.4101" lon="5.68408">
        <ele>610</ele>
        <time>2015-06-21T12:21:29Z</time>
      </trkpt>
      <trkpt lat="45.40996" lon="5.68405">
        <ele>610</ele>
        <time>2015-06-21T12:21:32Z</time>
      </trkpt>
      <trkpt lat="45.40986" lon="5.68403">
        <ele>610</ele>
        <time>2015-06-21T12:21:34Z</time>
      </trkpt>
      <trkpt lat="45.40975" lon="5.68401">
        <ele>609</ele>
        <time>2015-06-21T12:21:36Z</time>
      </trkpt>
      <trkpt lat="45.40964" lon="5.68399">
        <ele>609</ele>
        <time>2015-06-21T12:21:38Z</time>
      </trkpt>
      <trkpt lat="45.40953" lon="5.68397">
        <ele>609</ele>
        <time>2015-06-21T12:21:40Z</time>
      </trkpt>
      <trkpt lat="45.40942" lon="5.68394">
        <ele>609</ele>
        <time>2015-06-21T12:21:42Z</time>
      </trkpt>
      <trkpt lat="45.40931" lon="5.68392">
        <ele>609</ele>
        <time>2015-06-21T12:21:44Z</time>
      </trkpt>
      <trkpt lat="45.4092" lon="5.6839">
        <ele>609</ele>
        <time>2015-06-21T12:21:46Z</time>
      </trkpt>
      <trkpt lat="45.40908" lon="5.68388">
        <ele>609</ele>
        <time>2015-06-21T12:21:48Z</time>
      </trkpt>
      <trkpt lat="45.40897" lon="5.68387">
        <ele>609</ele>
        <time>2015-06-21T12:21:50Z</time>
      </trkpt>
      <trkpt lat="45.40887" lon="5.68385">
        <ele>609</ele>
        <time>2015-06-21T12:21:52Z</time>
      </trkpt>
      <trkpt lat="45.40878" lon="5.68381">
        <ele>609</ele>
        <time>2015-06-21T12:21:54Z</time>
      </trkpt>
      <trkpt lat="45.40876" lon="5.68367">
        <ele>609</ele>
        <time>2015-06-21T12:21:57Z</time>
      </trkpt>
      <trkpt lat="45.40883" lon="5.68355">
        <ele>609</ele>
        <time>2015-06-21T12:22:00Z</time>
      </trkpt>
      <trkpt lat="45.40889" lon="5.68342">
        <ele>609</ele>
        <time>2015-06-21T12:22:03Z</time>
      </trkpt>
      <trkpt lat="45.40895" lon="5.68329">
        <ele>610</ele>
        <time>2015-06-21T12:22:06Z</time>
      </trkpt>
      <trkpt lat="45.40901" lon="5.68316">
        <ele>610</ele>
        <time>2015-06-21T12:22:09Z</time>
      </trkpt>
      <trkpt lat="45.40908" lon="5.68301">
        <ele>610</ele>
        <time>2015-06-21T12:22:12Z</time>
      </trkpt>
      <trkpt lat="45.40913" lon="5.6829">
        <ele>611</ele>
        <time>2015-06-21T12:22:14Z</time>
      </trkpt>
      <trkpt lat="45.40918" lon="5.68279">
        <ele>611</ele>
        <time>2015-06-21T12:22:16Z</time>
      </trkpt>
      <trkpt lat="45.40923" lon="5.68267">
        <ele>611</ele>
        <time>2015-06-21T12:22:18Z</time>
      </trkpt>
      <trkpt lat="45.40929" lon="5.68256">
        <ele>611</ele>
        <time>2015-06-21T12:22:20Z</time>
      </trkpt>
      <trkpt lat="45.40934" lon="5.68245">
        <ele>613</ele>
        <time>2015-06-21T12:22:22Z</time>
      </trkpt>
      <trkpt lat="45.40941" lon="5.6823">
        <ele>614</ele>
        <time>2015-06-21T12:22:25Z</time>
      </trkpt>
      <trkpt lat="45.40948" lon="5.68216">
        <ele>614</ele>
        <time>2015-06-21T12:22:28Z</time>
      </trkpt>
      <trkpt lat="45.40955" lon="5.68204">
        <ele>614</ele>
        <time>2015-06-21T12:22:32Z</time>
      </trkpt>
      <trkpt lat="45.40955" lon="5.68204">
        <ele>614</ele>
        <time>2015-06-21T06:46:21Z</time>
      </trkpt>
      <trkpt lat="45.40982" lon="5.68131">
        <ele>620</ele>
        <time>2015-06-21T06:46:21Z</time>
      </trkpt>
      <trkpt lat="45.40976" lon="5.68055">
        <ele>624</ele>
        <time>2015-06-21T06:46:21Z</time>
      </trkpt>
      <trkpt lat="45.40921" lon="5.67979">
        <ele>629</ele>
        <time>2015-06-21T06:46:21Z</time>
      </trkpt>
      <trkpt lat="45.4084" lon="5.67904">
        <ele>645</ele>
        <time>2015-06-21T06:46:21Z</time>
      </trkpt>
      <trkpt lat="45.40749" lon="5.67863">
        <ele>647</ele>
        <time>2015-06-21T06:46:21Z</time>
      </trkpt>
      <trkpt lat="45.40694" lon="5.67883">
        <ele>646</ele>
        <time>2015-06-21T06:46:21Z</time>
      </trkpt>
      <trkpt lat="45.40623" lon="5.67934">
        <ele>643</ele>
        <time>2015-06-21T06:46:21Z</time>
      </trkpt>
      <trkpt lat="45.40648" lon="5.6802">
        <ele>636</ele>
        <time>2015-06-21T06:46:21Z</time>
      </trkpt>
      <trkpt lat="45.40598" lon="5.68065">
        <ele>632</ele>
        <time>2015-06-21T06:46:21Z</time>
      </trkpt>
      <trkpt lat="45.40522" lon="5.68045">
        <ele>636</ele>
        <time>2015-06-21T06:46:21Z</time>
      </trkpt>
      <trkpt lat="45.40391" lon="5.68014">
        <ele>634</ele>
        <time>2015-06-21T06:46:21Z</time>
      </trkpt>
      <trkpt lat="45.40285" lon="5.67969">
        <ele>632</ele>
        <time>2015-06-21T06:46:21Z</time>
      </trkpt>
      <trkpt lat="45.40264" lon="5.67823">
        <ele>638</ele>
        <time>2015-06-21T06:46:21Z</time>
      </trkpt>
      <trkpt lat="45.40249" lon="5.67706">
        <ele>635</ele>
        <time>2015-06-21T06:46:21Z</time>
      </trkpt>
      <trkpt lat="45.40199" lon="5.67646">
        <ele>630</ele>
        <time>2015-06-21T06:46:21Z</time>
      </trkpt>
      <trkpt lat="45.40093" lon="5.67666">
        <ele>628</ele>
        <time>2015-06-21T06:46:21Z</time>
      </trkpt>
      <trkpt lat="45.40042" lon="5.67716">
        <ele>626</ele>
        <time>2015-06-21T06:46:21Z</time>
      </trkpt>
      <trkpt lat="45.39997" lon="5.67752">
        <ele>623</ele>
        <time>2015-06-21T06:46:21Z</time>
      </trkpt>
      <trkpt lat="45.39931" lon="5.67737">
        <ele>615</ele>
        <time>2015-06-21T06:46:21Z</time>
      </trkpt>
      <trkpt lat="45.3986" lon="5.67691">
        <ele>603</ele>
        <time>2015-06-21T06:46:21Z</time>
      </trkpt>
      <trkpt lat="45.398" lon="5.67625">
        <ele>590</ele>
        <time>2015-06-21T06:46:21Z</time>
      </trkpt>
      <trkpt lat="45.39739" lon="5.67595">
        <ele>586</ele>
        <time>2015-06-21T06:46:21Z</time>
      </trkpt>
      <trkpt lat="45.39709" lon="5.67535">
        <ele>580</ele>
        <time>2015-06-21T06:46:21Z</time>
      </trkpt>
      <trkpt lat="45.39785" lon="5.67555">
        <ele>580</ele>
        <time>2015-06-21T06:46:21Z</time>
      </trkpt>
      <trkpt lat="45.39855" lon="5.67565">
        <ele>580</ele>
        <time>2015-06-21T06:46:21Z</time>
      </trkpt>
      <trkpt lat="45.39891" lon="5.67519">
        <ele>575</ele>
        <time>2015-06-21T06:46:21Z</time>
      </trkpt>
      <trkpt lat="45.39956" lon="5.67474">
        <ele>565</ele>
        <time>2015-06-21T06:46:21Z</time>
      </trkpt>
      <trkpt lat="45.40027" lon="5.67433">
        <ele>564</ele>
        <time>2015-06-21T06:46:21Z</time>
      </trkpt>
      <trkpt lat="45.40118" lon="5.67398">
        <ele>553</ele>
        <time>2015-06-21T06:46:21Z</time>
      </trkpt>
      <trkpt lat="45.40163" lon="5.67363">
        <ele>549</ele>
        <time>2015-06-21T06:46:21Z</time>
      </trkpt>
      <trkpt lat="45.40229" lon="5.67337">
        <ele>551</ele>
        <time>2015-06-21T06:46:21Z</time>
      </trkpt>
      <trkpt lat="45.40345" lon="5.67257">
        <ele>513</ele>
        <time>2015-06-21T06:46:21Z</time>
      </trkpt>
      <trkpt lat="45.4032" lon="5.67146">
        <ele>484</ele>
        <time>2015-06-21T06:46:21Z</time>
      </trkpt>
      <trkpt lat="45.40269" lon="5.6713">
        <ele>482</ele>
        <time>2015-06-21T06:46:21Z</time>
      </trkpt>
      <trkpt lat="45.40163" lon="5.67115">
        <ele>479</ele>
        <time>2015-06-21T06:46:21Z</time>
      </trkpt>
      <trkpt lat="45.40047" lon="5.6707">
        <ele>470</ele>
        <time>2015-06-21T06:46:21Z</time>
      </trkpt>
      <trkpt lat="45.39946" lon="5.6709">
        <ele>470</ele>
        <time>2015-06-21T06:46:21Z</time>
      </trkpt>
      <trkpt lat="45.39865" lon="5.6706">
        <ele>467</ele>
        <time>2015-06-21T06:46:21Z</time>
      </trkpt>
      <trkpt lat="45.39825" lon="5.66954">
        <ele>464</ele>
        <time>2015-06-21T06:46:21Z</time>
      </trkpt>
    </trkseg>
  </trk>
</gpx>